<?xml version="1.0" encoding="UTF-8" standalone="no" ?>
<gpx xmlns="http://www.topografix.com/GPX/1/1" xmlns:xsi="http://www.w3.org/2001/XMLSchema-instance" xsi:schemaLocation="http://www.topografix.com/GPX/1/1 http://www.topografix.com/GPX/1/1/gpx.xsd" version="1.1" creator="VisuGPX - https://www.visugpx.com">
  <metadata>
    <name>De Aiounet au vieux fort Espagnol</name>
    <desc><![CDATA[Piste qui traverse le Drâa avant de rejoindre Msied et le fort espagnol en ruine]]></desc>
  </metadata>
  <trk>
    <name><![CDATA[Aiounet - Fort Espagnol]]></name>
    <desc><![CDATA[De Marrakech à Smara. A Tagant, démarrage de la piste autrefois empruntée par Michel Vieuchange. Le passage du Draa peut parfois se révèler délicat. Passage difficile avant Tafraoute, petit village abandonné où la culture du cactus prédomine. Parcours sur la crête de la montagne à ne pas manquer. C'est l'enfer au niveau de la piste... mais c'est merveilleux surtout si le temps est clair.]]></desc>
    <trkseg>
      <trkpt lat="28.50036" lon="-10.53349">
        <ele>253.4</ele>
        <time>2012-05-10T17:25:48Z</time>
      </trkpt>
      <trkpt lat="28.50052" lon="-10.53365">
        <ele>253.2</ele>
        <time>2012-05-10T17:25:53Z</time>
      </trkpt>
      <trkpt lat="28.50069" lon="-10.53379">
        <ele>253.2</ele>
        <time>2012-05-10T17:25:58Z</time>
      </trkpt>
      <trkpt lat="28.50089" lon="-10.53392">
        <ele>253.9</ele>
        <time>2012-05-10T17:26:03Z</time>
      </trkpt>
      <trkpt lat="28.50113" lon="-10.53403">
        <ele>253.6</ele>
        <time>2012-05-10T17:26:08Z</time>
      </trkpt>
      <trkpt lat="28.50136" lon="-10.53417">
        <ele>253.2</ele>
        <time>2012-05-10T17:26:13Z</time>
      </trkpt>
      <trkpt lat="28.50148" lon="-10.53433">
        <ele>251.5</ele>
        <time>2012-05-10T17:26:18Z</time>
      </trkpt>
      <trkpt lat="28.5015" lon="-10.53454">
        <ele>250.3</ele>
        <time>2012-05-10T17:26:23Z</time>
      </trkpt>
      <trkpt lat="28.50141" lon="-10.53475">
        <ele>248.7</ele>
        <time>2012-05-10T17:26:28Z</time>
      </trkpt>
      <trkpt lat="28.50133" lon="-10.53498">
        <ele>248.9</ele>
        <time>2012-05-10T17:26:33Z</time>
      </trkpt>
      <trkpt lat="28.50124" lon="-10.53517">
        <ele>248.6</ele>
        <time>2012-05-10T17:26:38Z</time>
      </trkpt>
      <trkpt lat="28.50115" lon="-10.53542">
        <ele>248.5</ele>
        <time>2012-05-10T17:26:43Z</time>
      </trkpt>
      <trkpt lat="28.50116" lon="-10.53568">
        <ele>248.5</ele>
        <time>2012-05-10T17:26:48Z</time>
      </trkpt>
      <trkpt lat="28.50125" lon="-10.53589">
        <ele>248.1</ele>
        <time>2012-05-10T17:26:53Z</time>
      </trkpt>
      <trkpt lat="28.50133" lon="-10.53611">
        <ele>248.6</ele>
        <time>2012-05-10T17:26:58Z</time>
      </trkpt>
      <trkpt lat="28.50142" lon="-10.53631">
        <ele>248.3</ele>
        <time>2012-05-10T17:27:03Z</time>
      </trkpt>
      <trkpt lat="28.5015" lon="-10.53654">
        <ele>248.5</ele>
        <time>2012-05-10T17:27:08Z</time>
      </trkpt>
      <trkpt lat="28.50156" lon="-10.53678">
        <ele>248.2</ele>
        <time>2012-05-10T17:27:13Z</time>
      </trkpt>
      <trkpt lat="28.50164" lon="-10.53697">
        <ele>248</ele>
        <time>2012-05-10T17:27:18Z</time>
      </trkpt>
      <trkpt lat="28.50178" lon="-10.53733">
        <ele>247.6</ele>
        <time>2012-05-10T17:27:23Z</time>
      </trkpt>
      <trkpt lat="28.50188" lon="-10.53757">
        <ele>247.8</ele>
        <time>2012-05-10T17:27:28Z</time>
      </trkpt>
      <trkpt lat="28.50197" lon="-10.53783">
        <ele>247.9</ele>
        <time>2012-05-10T17:27:33Z</time>
      </trkpt>
      <trkpt lat="28.50203" lon="-10.5381">
        <ele>248</ele>
        <time>2012-05-10T17:27:38Z</time>
      </trkpt>
      <trkpt lat="28.50207" lon="-10.53836">
        <ele>247.5</ele>
        <time>2012-05-10T17:27:43Z</time>
      </trkpt>
      <trkpt lat="28.50205" lon="-10.53862">
        <ele>247.1</ele>
        <time>2012-05-10T17:27:48Z</time>
      </trkpt>
      <trkpt lat="28.50199" lon="-10.53888">
        <ele>246.7</ele>
        <time>2012-05-10T17:27:53Z</time>
      </trkpt>
      <trkpt lat="28.50184" lon="-10.5394">
        <ele>246.1</ele>
        <time>2012-05-10T17:27:58Z</time>
      </trkpt>
      <trkpt lat="28.50174" lon="-10.53966">
        <ele>245.5</ele>
        <time>2012-05-10T17:28:03Z</time>
      </trkpt>
      <trkpt lat="28.50162" lon="-10.53988">
        <ele>244.6</ele>
        <time>2012-05-10T17:28:08Z</time>
      </trkpt>
      <trkpt lat="28.50147" lon="-10.54018">
        <ele>244.1</ele>
        <time>2012-05-10T17:28:13Z</time>
      </trkpt>
      <trkpt lat="28.50138" lon="-10.54036">
        <ele>243.9</ele>
        <time>2012-05-10T17:28:18Z</time>
      </trkpt>
      <trkpt lat="28.50128" lon="-10.54057">
        <ele>243.5</ele>
        <time>2012-05-10T17:28:23Z</time>
      </trkpt>
      <trkpt lat="28.50117" lon="-10.5408">
        <ele>243.2</ele>
        <time>2012-05-10T17:28:28Z</time>
      </trkpt>
      <trkpt lat="28.50105" lon="-10.54107">
        <ele>242.7</ele>
        <time>2012-05-10T17:28:33Z</time>
      </trkpt>
      <trkpt lat="28.50092" lon="-10.54127">
        <ele>242</ele>
        <time>2012-05-10T17:28:38Z</time>
      </trkpt>
      <trkpt lat="28.50075" lon="-10.54155">
        <ele>241.2</ele>
        <time>2012-05-10T17:28:43Z</time>
      </trkpt>
      <trkpt lat="28.50064" lon="-10.54181">
        <ele>240.6</ele>
        <time>2012-05-10T17:28:48Z</time>
      </trkpt>
      <trkpt lat="28.50058" lon="-10.54207">
        <ele>240.2</ele>
        <time>2012-05-10T17:28:53Z</time>
      </trkpt>
      <trkpt lat="28.5005" lon="-10.54233">
        <ele>238.9</ele>
        <time>2012-05-10T17:28:58Z</time>
      </trkpt>
      <trkpt lat="28.5004" lon="-10.54255">
        <ele>239.1</ele>
        <time>2012-05-10T17:29:03Z</time>
      </trkpt>
      <trkpt lat="28.50023" lon="-10.54274">
        <ele>238.4</ele>
        <time>2012-05-10T17:29:08Z</time>
      </trkpt>
      <trkpt lat="28.50003" lon="-10.54288">
        <ele>238.3</ele>
        <time>2012-05-10T17:29:13Z</time>
      </trkpt>
      <trkpt lat="28.49988" lon="-10.54304">
        <ele>238.7</ele>
        <time>2012-05-10T17:29:18Z</time>
      </trkpt>
      <trkpt lat="28.49968" lon="-10.54334">
        <ele>240.2</ele>
        <time>2012-05-10T17:29:23Z</time>
      </trkpt>
      <trkpt lat="28.49949" lon="-10.54358">
        <ele>240.1</ele>
        <time>2012-05-10T17:29:28Z</time>
      </trkpt>
      <trkpt lat="28.49938" lon="-10.54383">
        <ele>239.9</ele>
        <time>2012-05-10T17:29:33Z</time>
      </trkpt>
      <trkpt lat="28.4991" lon="-10.54446">
        <ele>239.5</ele>
        <time>2012-05-10T17:29:38Z</time>
      </trkpt>
      <trkpt lat="28.499" lon="-10.54473">
        <ele>239.9</ele>
        <time>2012-05-10T17:29:43Z</time>
      </trkpt>
      <trkpt lat="28.49892" lon="-10.54494">
        <ele>239.8</ele>
        <time>2012-05-10T17:29:48Z</time>
      </trkpt>
      <trkpt lat="28.49881" lon="-10.54526">
        <ele>239.8</ele>
        <time>2012-05-10T17:29:53Z</time>
      </trkpt>
      <trkpt lat="28.49872" lon="-10.54548">
        <ele>239.2</ele>
        <time>2012-05-10T17:29:58Z</time>
      </trkpt>
      <trkpt lat="28.49863" lon="-10.5457">
        <ele>239.4</ele>
        <time>2012-05-10T17:30:03Z</time>
      </trkpt>
      <trkpt lat="28.49856" lon="-10.54591">
        <ele>239.1</ele>
        <time>2012-05-10T17:30:08Z</time>
      </trkpt>
      <trkpt lat="28.4984" lon="-10.54608">
        <ele>238.4</ele>
        <time>2012-05-10T17:30:13Z</time>
      </trkpt>
      <trkpt lat="28.4982" lon="-10.54628">
        <ele>237.5</ele>
        <time>2012-05-10T17:30:18Z</time>
      </trkpt>
      <trkpt lat="28.49807" lon="-10.54642">
        <ele>237</ele>
        <time>2012-05-10T17:30:23Z</time>
      </trkpt>
      <trkpt lat="28.49785" lon="-10.54662">
        <ele>236.3</ele>
        <time>2012-05-10T17:30:28Z</time>
      </trkpt>
      <trkpt lat="28.4977" lon="-10.54675">
        <ele>235.9</ele>
        <time>2012-05-10T17:30:33Z</time>
      </trkpt>
      <trkpt lat="28.49748" lon="-10.54694">
        <ele>235.4</ele>
        <time>2012-05-10T17:30:38Z</time>
      </trkpt>
      <trkpt lat="28.49725" lon="-10.54715">
        <ele>235.1</ele>
        <time>2012-05-10T17:30:43Z</time>
      </trkpt>
      <trkpt lat="28.49708" lon="-10.54727">
        <ele>234.7</ele>
        <time>2012-05-10T17:30:48Z</time>
      </trkpt>
      <trkpt lat="28.49644" lon="-10.54768">
        <ele>233.8</ele>
        <time>2012-05-10T17:30:53Z</time>
      </trkpt>
      <trkpt lat="28.49612" lon="-10.54788">
        <ele>233.5</ele>
        <time>2012-05-10T17:30:58Z</time>
      </trkpt>
      <trkpt lat="28.49595" lon="-10.54811">
        <ele>233</ele>
        <time>2012-05-10T17:31:03Z</time>
      </trkpt>
      <trkpt lat="28.49576" lon="-10.54836">
        <ele>232.3</ele>
        <time>2012-05-10T17:31:08Z</time>
      </trkpt>
      <trkpt lat="28.49561" lon="-10.54851">
        <ele>231.7</ele>
        <time>2012-05-10T17:31:13Z</time>
      </trkpt>
      <trkpt lat="28.49537" lon="-10.54874">
        <ele>231</ele>
        <time>2012-05-10T17:31:18Z</time>
      </trkpt>
      <trkpt lat="28.49523" lon="-10.5489">
        <ele>230.4</ele>
        <time>2012-05-10T17:31:23Z</time>
      </trkpt>
      <trkpt lat="28.49508" lon="-10.54907">
        <ele>230</ele>
        <time>2012-05-10T17:31:28Z</time>
      </trkpt>
      <trkpt lat="28.49491" lon="-10.54921">
        <ele>229.9</ele>
        <time>2012-05-10T17:31:33Z</time>
      </trkpt>
      <trkpt lat="28.49476" lon="-10.54938">
        <ele>229.7</ele>
        <time>2012-05-10T17:31:38Z</time>
      </trkpt>
      <trkpt lat="28.49454" lon="-10.54963">
        <ele>229.3</ele>
        <time>2012-05-10T17:31:43Z</time>
      </trkpt>
      <trkpt lat="28.49439" lon="-10.54977">
        <ele>229.5</ele>
        <time>2012-05-10T17:31:48Z</time>
      </trkpt>
      <trkpt lat="28.49416" lon="-10.54989">
        <ele>230.1</ele>
        <time>2012-05-10T17:31:53Z</time>
      </trkpt>
      <trkpt lat="28.49397" lon="-10.55003">
        <ele>229.5</ele>
        <time>2012-05-10T17:31:58Z</time>
      </trkpt>
      <trkpt lat="28.49383" lon="-10.55028">
        <ele>229</ele>
        <time>2012-05-10T17:32:03Z</time>
      </trkpt>
      <trkpt lat="28.49369" lon="-10.55041">
        <ele>228.7</ele>
        <time>2012-05-10T17:32:08Z</time>
      </trkpt>
      <trkpt lat="28.49353" lon="-10.55054">
        <ele>228.3</ele>
        <time>2012-05-10T17:32:13Z</time>
      </trkpt>
      <trkpt lat="28.49336" lon="-10.55068">
        <ele>227.9</ele>
        <time>2012-05-10T17:32:18Z</time>
      </trkpt>
      <trkpt lat="28.4932" lon="-10.55083">
        <ele>227.6</ele>
        <time>2012-05-10T17:32:23Z</time>
      </trkpt>
      <trkpt lat="28.49304" lon="-10.551">
        <ele>227.4</ele>
        <time>2012-05-10T17:32:28Z</time>
      </trkpt>
      <trkpt lat="28.49281" lon="-10.55123">
        <ele>227</ele>
        <time>2012-05-10T17:32:33Z</time>
      </trkpt>
      <trkpt lat="28.4921" lon="-10.55184">
        <ele>225.3</ele>
        <time>2012-05-10T17:32:38Z</time>
      </trkpt>
      <trkpt lat="28.49164" lon="-10.55219">
        <ele>224.9</ele>
        <time>2012-05-10T17:32:43Z</time>
      </trkpt>
      <trkpt lat="28.49146" lon="-10.5523">
        <ele>225.1</ele>
        <time>2012-05-10T17:32:48Z</time>
      </trkpt>
      <trkpt lat="28.49131" lon="-10.5524">
        <ele>225.3</ele>
        <time>2012-05-10T17:32:53Z</time>
      </trkpt>
      <trkpt lat="28.49111" lon="-10.55262">
        <ele>224.8</ele>
        <time>2012-05-10T17:32:58Z</time>
      </trkpt>
      <trkpt lat="28.49097" lon="-10.55275">
        <ele>224.5</ele>
        <time>2012-05-10T17:33:03Z</time>
      </trkpt>
      <trkpt lat="28.49081" lon="-10.5529">
        <ele>224.5</ele>
        <time>2012-05-10T17:33:08Z</time>
      </trkpt>
      <trkpt lat="28.49066" lon="-10.55304">
        <ele>224.3</ele>
        <time>2012-05-10T17:33:13Z</time>
      </trkpt>
      <trkpt lat="28.49051" lon="-10.55315">
        <ele>223.9</ele>
        <time>2012-05-10T17:33:18Z</time>
      </trkpt>
      <trkpt lat="28.49027" lon="-10.5533">
        <ele>223.5</ele>
        <time>2012-05-10T17:33:23Z</time>
      </trkpt>
      <trkpt lat="28.49008" lon="-10.55351">
        <ele>223.2</ele>
        <time>2012-05-10T17:33:28Z</time>
      </trkpt>
      <trkpt lat="28.48992" lon="-10.55365">
        <ele>223.6</ele>
        <time>2012-05-10T17:33:33Z</time>
      </trkpt>
      <trkpt lat="28.48977" lon="-10.55376">
        <ele>223.1</ele>
        <time>2012-05-10T17:33:38Z</time>
      </trkpt>
      <trkpt lat="28.48957" lon="-10.55392">
        <ele>222.7</ele>
        <time>2012-05-10T17:33:43Z</time>
      </trkpt>
      <trkpt lat="28.48944" lon="-10.55413">
        <ele>222.1</ele>
        <time>2012-05-10T17:33:48Z</time>
      </trkpt>
      <trkpt lat="28.48927" lon="-10.55434">
        <ele>221.9</ele>
        <time>2012-05-10T17:33:53Z</time>
      </trkpt>
      <trkpt lat="28.48907" lon="-10.55448">
        <ele>221.7</ele>
        <time>2012-05-10T17:33:58Z</time>
      </trkpt>
      <trkpt lat="28.48891" lon="-10.55464">
        <ele>221.6</ele>
        <time>2012-05-10T17:34:03Z</time>
      </trkpt>
      <trkpt lat="28.48877" lon="-10.55484">
        <ele>220.9</ele>
        <time>2012-05-10T17:34:08Z</time>
      </trkpt>
      <trkpt lat="28.48863" lon="-10.55502">
        <ele>219.9</ele>
        <time>2012-05-10T17:34:13Z</time>
      </trkpt>
      <trkpt lat="28.48843" lon="-10.5552">
        <ele>219.1</ele>
        <time>2012-05-10T17:34:18Z</time>
      </trkpt>
      <trkpt lat="28.48828" lon="-10.55542">
        <ele>218.3</ele>
        <time>2012-05-10T17:34:23Z</time>
      </trkpt>
      <trkpt lat="28.4881" lon="-10.55573">
        <ele>217.7</ele>
        <time>2012-05-10T17:34:28Z</time>
      </trkpt>
      <trkpt lat="28.48796" lon="-10.55594">
        <ele>217.3</ele>
        <time>2012-05-10T17:34:33Z</time>
      </trkpt>
      <trkpt lat="28.48779" lon="-10.55609">
        <ele>217.1</ele>
        <time>2012-05-10T17:34:38Z</time>
      </trkpt>
      <trkpt lat="28.48765" lon="-10.55623">
        <ele>216.8</ele>
        <time>2012-05-10T17:34:43Z</time>
      </trkpt>
      <trkpt lat="28.48752" lon="-10.55639">
        <ele>216.6</ele>
        <time>2012-05-10T17:34:48Z</time>
      </trkpt>
      <trkpt lat="28.48738" lon="-10.55655">
        <ele>216.4</ele>
        <time>2012-05-10T17:34:53Z</time>
      </trkpt>
      <trkpt lat="28.48726" lon="-10.5567">
        <ele>215.9</ele>
        <time>2012-05-10T17:34:58Z</time>
      </trkpt>
      <trkpt lat="28.48719" lon="-10.55691">
        <ele>215.2</ele>
        <time>2012-05-10T17:35:03Z</time>
      </trkpt>
      <trkpt lat="28.48711" lon="-10.55715">
        <ele>214.8</ele>
        <time>2012-05-10T17:35:08Z</time>
      </trkpt>
      <trkpt lat="28.48704" lon="-10.55737">
        <ele>214.7</ele>
        <time>2012-05-10T17:35:13Z</time>
      </trkpt>
      <trkpt lat="28.48694" lon="-10.55759">
        <ele>214.2</ele>
        <time>2012-05-10T17:35:18Z</time>
      </trkpt>
      <trkpt lat="28.48683" lon="-10.55779">
        <ele>213.5</ele>
        <time>2012-05-10T17:35:23Z</time>
      </trkpt>
      <trkpt lat="28.48677" lon="-10.55803">
        <ele>212.5</ele>
        <time>2012-05-10T17:35:28Z</time>
      </trkpt>
      <trkpt lat="28.48679" lon="-10.55823">
        <ele>212.2</ele>
        <time>2012-05-10T17:35:33Z</time>
      </trkpt>
      <trkpt lat="28.48681" lon="-10.55844">
        <ele>212.1</ele>
        <time>2012-05-10T17:35:38Z</time>
      </trkpt>
      <trkpt lat="28.48682" lon="-10.55868">
        <ele>211.8</ele>
        <time>2012-05-10T17:35:43Z</time>
      </trkpt>
      <trkpt lat="28.48682" lon="-10.5589">
        <ele>211.8</ele>
        <time>2012-05-10T17:35:48Z</time>
      </trkpt>
      <trkpt lat="28.4868" lon="-10.55914">
        <ele>211.8</ele>
        <time>2012-05-10T17:35:53Z</time>
      </trkpt>
      <trkpt lat="28.48681" lon="-10.55934">
        <ele>211.6</ele>
        <time>2012-05-10T17:35:58Z</time>
      </trkpt>
      <trkpt lat="28.4869" lon="-10.55953">
        <ele>211.3</ele>
        <time>2012-05-10T17:36:03Z</time>
      </trkpt>
      <trkpt lat="28.48697" lon="-10.55974">
        <ele>211.2</ele>
        <time>2012-05-10T17:36:08Z</time>
      </trkpt>
      <trkpt lat="28.487" lon="-10.55997">
        <ele>211.6</ele>
        <time>2012-05-10T17:36:13Z</time>
      </trkpt>
      <trkpt lat="28.487" lon="-10.56022">
        <ele>211.7</ele>
        <time>2012-05-10T17:36:18Z</time>
      </trkpt>
      <trkpt lat="28.48694" lon="-10.56047">
        <ele>210.8</ele>
        <time>2012-05-10T17:36:23Z</time>
      </trkpt>
      <trkpt lat="28.48686" lon="-10.56072">
        <ele>209.9</ele>
        <time>2012-05-10T17:36:28Z</time>
      </trkpt>
      <trkpt lat="28.48673" lon="-10.56104">
        <ele>209.4</ele>
        <time>2012-05-10T17:36:33Z</time>
      </trkpt>
      <trkpt lat="28.48668" lon="-10.56091">
        <ele>209</ele>
        <time>2012-05-10T17:36:38Z</time>
      </trkpt>
      <trkpt lat="28.48683" lon="-10.56078">
        <ele>209.6</ele>
        <time>2012-05-10T17:36:43Z</time>
      </trkpt>
      <trkpt lat="28.4869" lon="-10.56056">
        <ele>210.4</ele>
        <time>2012-05-10T17:36:48Z</time>
      </trkpt>
      <trkpt lat="28.48696" lon="-10.56031">
        <ele>211.7</ele>
        <time>2012-05-10T17:36:53Z</time>
      </trkpt>
      <trkpt lat="28.48699" lon="-10.56009">
        <ele>212.2</ele>
        <time>2012-05-10T17:36:58Z</time>
      </trkpt>
      <trkpt lat="28.48697" lon="-10.55987">
        <ele>212.3</ele>
        <time>2012-05-10T17:37:03Z</time>
      </trkpt>
      <trkpt lat="28.48691" lon="-10.55963">
        <ele>212.7</ele>
        <time>2012-05-10T17:37:08Z</time>
      </trkpt>
      <trkpt lat="28.48682" lon="-10.55942">
        <ele>213</ele>
        <time>2012-05-10T17:37:13Z</time>
      </trkpt>
      <trkpt lat="28.48677" lon="-10.55919">
        <ele>213</ele>
        <time>2012-05-10T17:37:18Z</time>
      </trkpt>
      <trkpt lat="28.48679" lon="-10.55894">
        <ele>213.1</ele>
        <time>2012-05-10T17:37:23Z</time>
      </trkpt>
      <trkpt lat="28.4868" lon="-10.55871">
        <ele>213.4</ele>
        <time>2012-05-10T17:37:28Z</time>
      </trkpt>
      <trkpt lat="28.48678" lon="-10.55837">
        <ele>214</ele>
        <time>2012-05-10T17:37:33Z</time>
      </trkpt>
      <trkpt lat="28.48675" lon="-10.55803">
        <ele>215.6</ele>
        <time>2012-05-10T17:37:38Z</time>
      </trkpt>
      <trkpt lat="28.48681" lon="-10.55778">
        <ele>217</ele>
        <time>2012-05-10T17:37:43Z</time>
      </trkpt>
      <trkpt lat="28.48693" lon="-10.5576">
        <ele>217.1</ele>
        <time>2012-05-10T17:37:48Z</time>
      </trkpt>
      <trkpt lat="28.48702" lon="-10.5574">
        <ele>218</ele>
        <time>2012-05-10T17:37:53Z</time>
      </trkpt>
      <trkpt lat="28.48712" lon="-10.55709">
        <ele>218.2</ele>
        <time>2012-05-10T17:37:58Z</time>
      </trkpt>
      <trkpt lat="28.48719" lon="-10.55686">
        <ele>218.6</ele>
        <time>2012-05-10T17:38:03Z</time>
      </trkpt>
      <trkpt lat="28.48729" lon="-10.55666">
        <ele>219.1</ele>
        <time>2012-05-10T17:38:08Z</time>
      </trkpt>
      <trkpt lat="28.48743" lon="-10.55649">
        <ele>219.5</ele>
        <time>2012-05-10T17:38:13Z</time>
      </trkpt>
      <trkpt lat="28.48757" lon="-10.55632">
        <ele>219.7</ele>
        <time>2012-05-10T17:38:18Z</time>
      </trkpt>
      <trkpt lat="28.4877" lon="-10.55613">
        <ele>219.9</ele>
        <time>2012-05-10T17:38:23Z</time>
      </trkpt>
      <trkpt lat="28.48764" lon="-10.55594">
        <ele>218.7</ele>
        <time>2012-05-10T17:38:28Z</time>
      </trkpt>
      <trkpt lat="28.48743" lon="-10.55587">
        <ele>217.9</ele>
        <time>2012-05-10T17:38:33Z</time>
      </trkpt>
      <trkpt lat="28.48731" lon="-10.55572">
        <ele>217.9</ele>
        <time>2012-05-10T17:38:38Z</time>
      </trkpt>
      <trkpt lat="28.48719" lon="-10.55548">
        <ele>218.5</ele>
        <time>2012-05-10T17:38:43Z</time>
      </trkpt>
      <trkpt lat="28.48701" lon="-10.55534">
        <ele>218.6</ele>
        <time>2012-05-10T17:38:48Z</time>
      </trkpt>
      <trkpt lat="28.48683" lon="-10.55528">
        <ele>219.1</ele>
        <time>2012-05-10T17:38:53Z</time>
      </trkpt>
      <trkpt lat="28.48663" lon="-10.5553">
        <ele>218.4</ele>
        <time>2012-05-10T17:38:58Z</time>
      </trkpt>
      <trkpt lat="28.48646" lon="-10.5552">
        <ele>217.3</ele>
        <time>2012-05-10T17:39:03Z</time>
      </trkpt>
      <trkpt lat="28.48642" lon="-10.55493">
        <ele>217.8</ele>
        <time>2012-05-10T17:39:08Z</time>
      </trkpt>
      <trkpt lat="28.48631" lon="-10.55475">
        <ele>217.9</ele>
        <time>2012-05-10T17:39:13Z</time>
      </trkpt>
      <trkpt lat="28.48615" lon="-10.55464">
        <ele>218</ele>
        <time>2012-05-10T17:39:18Z</time>
      </trkpt>
      <trkpt lat="28.48592" lon="-10.55467">
        <ele>218</ele>
        <time>2012-05-10T17:39:23Z</time>
      </trkpt>
      <trkpt lat="28.48575" lon="-10.55477">
        <ele>217.2</ele>
        <time>2012-05-10T17:39:28Z</time>
      </trkpt>
      <trkpt lat="28.48553" lon="-10.55484">
        <ele>217.2</ele>
        <time>2012-05-10T17:39:33Z</time>
      </trkpt>
      <trkpt lat="28.48532" lon="-10.55494">
        <ele>216.8</ele>
        <time>2012-05-10T17:39:38Z</time>
      </trkpt>
      <trkpt lat="28.48512" lon="-10.5551">
        <ele>217</ele>
        <time>2012-05-10T17:39:43Z</time>
      </trkpt>
      <trkpt lat="28.48497" lon="-10.55528">
        <ele>216</ele>
        <time>2012-05-10T17:39:48Z</time>
      </trkpt>
      <trkpt lat="28.48481" lon="-10.55544">
        <ele>214.5</ele>
        <time>2012-05-10T17:39:53Z</time>
      </trkpt>
      <trkpt lat="28.48462" lon="-10.55547">
        <ele>214.9</ele>
        <time>2012-05-10T17:39:58Z</time>
      </trkpt>
      <trkpt lat="28.48437" lon="-10.55544">
        <ele>217.4</ele>
        <time>2012-05-10T17:40:03Z</time>
      </trkpt>
      <trkpt lat="28.48416" lon="-10.5554">
        <ele>218</ele>
        <time>2012-05-10T17:40:08Z</time>
      </trkpt>
      <trkpt lat="28.4839" lon="-10.55536">
        <ele>217.8</ele>
        <time>2012-05-10T17:40:13Z</time>
      </trkpt>
      <trkpt lat="28.4837" lon="-10.55525">
        <ele>216.7</ele>
        <time>2012-05-10T17:40:18Z</time>
      </trkpt>
      <trkpt lat="28.48348" lon="-10.55523">
        <ele>217.2</ele>
        <time>2012-05-10T17:40:23Z</time>
      </trkpt>
      <trkpt lat="28.4833" lon="-10.55534">
        <ele>218.2</ele>
        <time>2012-05-10T17:40:28Z</time>
      </trkpt>
      <trkpt lat="28.48312" lon="-10.55544">
        <ele>218.5</ele>
        <time>2012-05-10T17:40:33Z</time>
      </trkpt>
      <trkpt lat="28.48293" lon="-10.55547">
        <ele>218.5</ele>
        <time>2012-05-10T17:40:38Z</time>
      </trkpt>
      <trkpt lat="28.48271" lon="-10.55548">
        <ele>217.1</ele>
        <time>2012-05-10T17:40:43Z</time>
      </trkpt>
      <trkpt lat="28.48251" lon="-10.55558">
        <ele>217.9</ele>
        <time>2012-05-10T17:40:48Z</time>
      </trkpt>
      <trkpt lat="28.48233" lon="-10.5557">
        <ele>218.4</ele>
        <time>2012-05-10T17:40:53Z</time>
      </trkpt>
      <trkpt lat="28.48212" lon="-10.5558">
        <ele>218.5</ele>
        <time>2012-05-10T17:40:58Z</time>
      </trkpt>
      <trkpt lat="28.48186" lon="-10.5559">
        <ele>218.1</ele>
        <time>2012-05-10T17:41:03Z</time>
      </trkpt>
      <trkpt lat="28.48159" lon="-10.55597">
        <ele>217.7</ele>
        <time>2012-05-10T17:41:08Z</time>
      </trkpt>
      <trkpt lat="28.48131" lon="-10.55606">
        <ele>217.2</ele>
        <time>2012-05-10T17:41:13Z</time>
      </trkpt>
      <trkpt lat="28.48083" lon="-10.55621">
        <ele>216.1</ele>
        <time>2012-05-10T17:41:18Z</time>
      </trkpt>
      <trkpt lat="28.48064" lon="-10.55625">
        <ele>215.7</ele>
        <time>2012-05-10T17:41:23Z</time>
      </trkpt>
      <trkpt lat="28.48046" lon="-10.55626">
        <ele>215.3</ele>
        <time>2012-05-10T17:41:28Z</time>
      </trkpt>
      <trkpt lat="28.48021" lon="-10.55635">
        <ele>215</ele>
        <time>2012-05-10T17:41:33Z</time>
      </trkpt>
      <trkpt lat="28.48003" lon="-10.55641">
        <ele>215</ele>
        <time>2012-05-10T17:41:38Z</time>
      </trkpt>
      <trkpt lat="28.47975" lon="-10.55651">
        <ele>214.5</ele>
        <time>2012-05-10T17:41:43Z</time>
      </trkpt>
      <trkpt lat="28.47929" lon="-10.55669">
        <ele>213.1</ele>
        <time>2012-05-10T17:41:48Z</time>
      </trkpt>
      <trkpt lat="28.47911" lon="-10.55677">
        <ele>213.3</ele>
        <time>2012-05-10T17:41:53Z</time>
      </trkpt>
      <trkpt lat="28.47893" lon="-10.55681">
        <ele>213.3</ele>
        <time>2012-05-10T17:41:58Z</time>
      </trkpt>
      <trkpt lat="28.47875" lon="-10.55683">
        <ele>212.8</ele>
        <time>2012-05-10T17:42:03Z</time>
      </trkpt>
      <trkpt lat="28.47847" lon="-10.55687">
        <ele>212.5</ele>
        <time>2012-05-10T17:42:08Z</time>
      </trkpt>
      <trkpt lat="28.47821" lon="-10.55691">
        <ele>211.8</ele>
        <time>2012-05-10T17:42:13Z</time>
      </trkpt>
      <trkpt lat="28.47795" lon="-10.55694">
        <ele>211.1</ele>
        <time>2012-05-10T17:42:18Z</time>
      </trkpt>
      <trkpt lat="28.47769" lon="-10.55699">
        <ele>210.7</ele>
        <time>2012-05-10T17:42:23Z</time>
      </trkpt>
      <trkpt lat="28.47735" lon="-10.55703">
        <ele>210.4</ele>
        <time>2012-05-10T17:42:28Z</time>
      </trkpt>
      <trkpt lat="28.47713" lon="-10.55706">
        <ele>209.7</ele>
        <time>2012-05-10T17:42:33Z</time>
      </trkpt>
      <trkpt lat="28.4769" lon="-10.55712">
        <ele>209.3</ele>
        <time>2012-05-10T17:42:38Z</time>
      </trkpt>
      <trkpt lat="28.47666" lon="-10.55718">
        <ele>208.5</ele>
        <time>2012-05-10T17:42:43Z</time>
      </trkpt>
      <trkpt lat="28.47642" lon="-10.55723">
        <ele>208.5</ele>
        <time>2012-05-10T17:42:48Z</time>
      </trkpt>
      <trkpt lat="28.47619" lon="-10.55732">
        <ele>207.7</ele>
        <time>2012-05-10T17:42:53Z</time>
      </trkpt>
      <trkpt lat="28.4759" lon="-10.55746">
        <ele>207.1</ele>
        <time>2012-05-10T17:42:58Z</time>
      </trkpt>
      <trkpt lat="28.47572" lon="-10.55758">
        <ele>206.8</ele>
        <time>2012-05-10T17:43:03Z</time>
      </trkpt>
      <trkpt lat="28.47553" lon="-10.55773">
        <ele>207.1</ele>
        <time>2012-05-10T17:43:08Z</time>
      </trkpt>
      <trkpt lat="28.47533" lon="-10.55788">
        <ele>206.7</ele>
        <time>2012-05-10T17:43:13Z</time>
      </trkpt>
      <trkpt lat="28.47509" lon="-10.55802">
        <ele>206.2</ele>
        <time>2012-05-10T17:43:18Z</time>
      </trkpt>
      <trkpt lat="28.47486" lon="-10.55813">
        <ele>206.3</ele>
        <time>2012-05-10T17:43:23Z</time>
      </trkpt>
      <trkpt lat="28.47467" lon="-10.5582">
        <ele>204.8</ele>
        <time>2012-05-10T17:43:28Z</time>
      </trkpt>
      <trkpt lat="28.47448" lon="-10.55822">
        <ele>203.2</ele>
        <time>2012-05-10T17:43:33Z</time>
      </trkpt>
      <trkpt lat="28.4741" lon="-10.55825">
        <ele>203.5</ele>
        <time>2012-05-10T17:43:38Z</time>
      </trkpt>
      <trkpt lat="28.4732" lon="-10.5584">
        <ele>201.4</ele>
        <time>2012-05-10T17:43:43Z</time>
      </trkpt>
      <trkpt lat="28.47278" lon="-10.55851">
        <ele>200.2</ele>
        <time>2012-05-10T17:43:48Z</time>
      </trkpt>
      <trkpt lat="28.47255" lon="-10.55862">
        <ele>199.4</ele>
        <time>2012-05-10T17:43:53Z</time>
      </trkpt>
      <trkpt lat="28.47214" lon="-10.55883">
        <ele>200.8</ele>
        <time>2012-05-10T17:43:58Z</time>
      </trkpt>
      <trkpt lat="28.47116" lon="-10.55926">
        <ele>200.7</ele>
        <time>2012-05-10T17:44:03Z</time>
      </trkpt>
      <trkpt lat="28.47098" lon="-10.55932">
        <ele>201</ele>
        <time>2012-05-10T17:44:08Z</time>
      </trkpt>
      <trkpt lat="28.4708" lon="-10.55936">
        <ele>200.6</ele>
        <time>2012-05-10T17:44:13Z</time>
      </trkpt>
      <trkpt lat="28.47062" lon="-10.55938">
        <ele>199.9</ele>
        <time>2012-05-10T17:44:18Z</time>
      </trkpt>
      <trkpt lat="28.47044" lon="-10.55943">
        <ele>199.8</ele>
        <time>2012-05-10T17:44:23Z</time>
      </trkpt>
      <trkpt lat="28.47026" lon="-10.5595">
        <ele>199.7</ele>
        <time>2012-05-10T17:44:28Z</time>
      </trkpt>
      <trkpt lat="28.47008" lon="-10.55959">
        <ele>199.7</ele>
        <time>2012-05-10T17:44:33Z</time>
      </trkpt>
      <trkpt lat="28.4699" lon="-10.55965">
        <ele>199.6</ele>
        <time>2012-05-10T17:44:38Z</time>
      </trkpt>
      <trkpt lat="28.46963" lon="-10.55975">
        <ele>199.3</ele>
        <time>2012-05-10T17:44:43Z</time>
      </trkpt>
      <trkpt lat="28.46944" lon="-10.55982">
        <ele>199.6</ele>
        <time>2012-05-10T17:44:48Z</time>
      </trkpt>
      <trkpt lat="28.46927" lon="-10.55989">
        <ele>199.6</ele>
        <time>2012-05-10T17:44:53Z</time>
      </trkpt>
      <trkpt lat="28.46901" lon="-10.55999">
        <ele>200.1</ele>
        <time>2012-05-10T17:44:58Z</time>
      </trkpt>
      <trkpt lat="28.46856" lon="-10.56015">
        <ele>199.2</ele>
        <time>2012-05-10T17:45:03Z</time>
      </trkpt>
      <trkpt lat="28.46831" lon="-10.56022">
        <ele>198.7</ele>
        <time>2012-05-10T17:45:08Z</time>
      </trkpt>
      <trkpt lat="28.46801" lon="-10.56039">
        <ele>197.6</ele>
        <time>2012-05-10T17:45:13Z</time>
      </trkpt>
      <trkpt lat="28.46776" lon="-10.56045">
        <ele>197</ele>
        <time>2012-05-10T17:45:18Z</time>
      </trkpt>
      <trkpt lat="28.46752" lon="-10.56054">
        <ele>196.2</ele>
        <time>2012-05-10T17:45:23Z</time>
      </trkpt>
      <trkpt lat="28.4673" lon="-10.56056">
        <ele>195.6</ele>
        <time>2012-05-10T17:45:28Z</time>
      </trkpt>
      <trkpt lat="28.46712" lon="-10.56065">
        <ele>195.6</ele>
        <time>2012-05-10T17:45:33Z</time>
      </trkpt>
      <trkpt lat="28.46694" lon="-10.56078">
        <ele>196.6</ele>
        <time>2012-05-10T17:45:38Z</time>
      </trkpt>
      <trkpt lat="28.46672" lon="-10.56086">
        <ele>197</ele>
        <time>2012-05-10T17:45:43Z</time>
      </trkpt>
      <trkpt lat="28.46601" lon="-10.56106">
        <ele>194.5</ele>
        <time>2012-05-10T17:45:48Z</time>
      </trkpt>
      <trkpt lat="28.46566" lon="-10.56112">
        <ele>193</ele>
        <time>2012-05-10T17:45:53Z</time>
      </trkpt>
      <trkpt lat="28.46529" lon="-10.56124">
        <ele>192.5</ele>
        <time>2012-05-10T17:45:58Z</time>
      </trkpt>
      <trkpt lat="28.46508" lon="-10.56124">
        <ele>192.7</ele>
        <time>2012-05-10T17:46:03Z</time>
      </trkpt>
      <trkpt lat="28.46485" lon="-10.56127">
        <ele>192.1</ele>
        <time>2012-05-10T17:46:08Z</time>
      </trkpt>
      <trkpt lat="28.46466" lon="-10.56138">
        <ele>193</ele>
        <time>2012-05-10T17:46:13Z</time>
      </trkpt>
      <trkpt lat="28.46444" lon="-10.56149">
        <ele>194</ele>
        <time>2012-05-10T17:46:18Z</time>
      </trkpt>
      <trkpt lat="28.46421" lon="-10.56166">
        <ele>194.8</ele>
        <time>2012-05-10T17:46:23Z</time>
      </trkpt>
      <trkpt lat="28.46404" lon="-10.56176">
        <ele>195.2</ele>
        <time>2012-05-10T17:46:28Z</time>
      </trkpt>
      <trkpt lat="28.46386" lon="-10.56185">
        <ele>195.6</ele>
        <time>2012-05-10T17:46:33Z</time>
      </trkpt>
      <trkpt lat="28.46367" lon="-10.56193">
        <ele>195.8</ele>
        <time>2012-05-10T17:46:38Z</time>
      </trkpt>
      <trkpt lat="28.46319" lon="-10.56215">
        <ele>195.4</ele>
        <time>2012-05-10T17:46:43Z</time>
      </trkpt>
      <trkpt lat="28.46296" lon="-10.56221">
        <ele>194.7</ele>
        <time>2012-05-10T17:46:48Z</time>
      </trkpt>
      <trkpt lat="28.46274" lon="-10.56229">
        <ele>195.3</ele>
        <time>2012-05-10T17:46:53Z</time>
      </trkpt>
      <trkpt lat="28.46252" lon="-10.56243">
        <ele>195</ele>
        <time>2012-05-10T17:46:58Z</time>
      </trkpt>
      <trkpt lat="28.46228" lon="-10.56253">
        <ele>194.6</ele>
        <time>2012-05-10T17:47:03Z</time>
      </trkpt>
      <trkpt lat="28.46203" lon="-10.56263">
        <ele>194.8</ele>
        <time>2012-05-10T17:47:08Z</time>
      </trkpt>
      <trkpt lat="28.46181" lon="-10.56277">
        <ele>195.1</ele>
        <time>2012-05-10T17:47:13Z</time>
      </trkpt>
      <trkpt lat="28.46161" lon="-10.56288">
        <ele>194.8</ele>
        <time>2012-05-10T17:47:18Z</time>
      </trkpt>
      <trkpt lat="28.46139" lon="-10.56286">
        <ele>194.3</ele>
        <time>2012-05-10T17:47:23Z</time>
      </trkpt>
      <trkpt lat="28.46117" lon="-10.56287">
        <ele>194.5</ele>
        <time>2012-05-10T17:47:28Z</time>
      </trkpt>
      <trkpt lat="28.46093" lon="-10.56295">
        <ele>194.7</ele>
        <time>2012-05-10T17:47:33Z</time>
      </trkpt>
      <trkpt lat="28.46072" lon="-10.56307">
        <ele>194.8</ele>
        <time>2012-05-10T17:47:38Z</time>
      </trkpt>
      <trkpt lat="28.4605" lon="-10.56315">
        <ele>194.5</ele>
        <time>2012-05-10T17:47:43Z</time>
      </trkpt>
      <trkpt lat="28.46026" lon="-10.56325">
        <ele>194.1</ele>
        <time>2012-05-10T17:47:48Z</time>
      </trkpt>
      <trkpt lat="28.45994" lon="-10.56344">
        <ele>193.9</ele>
        <time>2012-05-10T17:47:53Z</time>
      </trkpt>
      <trkpt lat="28.45956" lon="-10.56359">
        <ele>194.2</ele>
        <time>2012-05-10T17:47:58Z</time>
      </trkpt>
      <trkpt lat="28.45936" lon="-10.56362">
        <ele>192.8</ele>
        <time>2012-05-10T17:48:03Z</time>
      </trkpt>
      <trkpt lat="28.45923" lon="-10.56376">
        <ele>191.2</ele>
        <time>2012-05-10T17:48:08Z</time>
      </trkpt>
      <trkpt lat="28.45905" lon="-10.56387">
        <ele>191</ele>
        <time>2012-05-10T17:48:13Z</time>
      </trkpt>
      <trkpt lat="28.45885" lon="-10.56395">
        <ele>192.1</ele>
        <time>2012-05-10T17:48:18Z</time>
      </trkpt>
      <trkpt lat="28.45867" lon="-10.56404">
        <ele>194.4</ele>
        <time>2012-05-10T17:48:23Z</time>
      </trkpt>
      <trkpt lat="28.45849" lon="-10.56417">
        <ele>194.4</ele>
        <time>2012-05-10T17:48:28Z</time>
      </trkpt>
      <trkpt lat="28.45827" lon="-10.56425">
        <ele>195</ele>
        <time>2012-05-10T17:48:33Z</time>
      </trkpt>
      <trkpt lat="28.45805" lon="-10.56432">
        <ele>194.3</ele>
        <time>2012-05-10T17:48:38Z</time>
      </trkpt>
      <trkpt lat="28.45778" lon="-10.56437">
        <ele>194.2</ele>
        <time>2012-05-10T17:48:43Z</time>
      </trkpt>
      <trkpt lat="28.45759" lon="-10.56442">
        <ele>193.8</ele>
        <time>2012-05-10T17:48:48Z</time>
      </trkpt>
      <trkpt lat="28.45732" lon="-10.56444">
        <ele>193</ele>
        <time>2012-05-10T17:48:53Z</time>
      </trkpt>
      <trkpt lat="28.45711" lon="-10.56452">
        <ele>192.8</ele>
        <time>2012-05-10T17:48:58Z</time>
      </trkpt>
      <trkpt lat="28.45693" lon="-10.56462">
        <ele>192.4</ele>
        <time>2012-05-10T17:49:03Z</time>
      </trkpt>
      <trkpt lat="28.45668" lon="-10.56478">
        <ele>192.6</ele>
        <time>2012-05-10T17:49:08Z</time>
      </trkpt>
      <trkpt lat="28.45646" lon="-10.56485">
        <ele>191.9</ele>
        <time>2012-05-10T17:49:13Z</time>
      </trkpt>
      <trkpt lat="28.45623" lon="-10.56495">
        <ele>191</ele>
        <time>2012-05-10T17:49:18Z</time>
      </trkpt>
      <trkpt lat="28.45599" lon="-10.56505">
        <ele>191.7</ele>
        <time>2012-05-10T17:49:23Z</time>
      </trkpt>
      <trkpt lat="28.45581" lon="-10.56512">
        <ele>191.2</ele>
        <time>2012-05-10T17:49:28Z</time>
      </trkpt>
      <trkpt lat="28.45546" lon="-10.56523">
        <ele>190.3</ele>
        <time>2012-05-10T17:49:33Z</time>
      </trkpt>
      <trkpt lat="28.45522" lon="-10.56528">
        <ele>189.8</ele>
        <time>2012-05-10T17:49:38Z</time>
      </trkpt>
      <trkpt lat="28.455" lon="-10.5653">
        <ele>188.6</ele>
        <time>2012-05-10T17:49:43Z</time>
      </trkpt>
      <trkpt lat="28.45479" lon="-10.56533">
        <ele>187.1</ele>
        <time>2012-05-10T17:49:48Z</time>
      </trkpt>
      <trkpt lat="28.45459" lon="-10.56542">
        <ele>186.9</ele>
        <time>2012-05-10T17:49:53Z</time>
      </trkpt>
      <trkpt lat="28.45441" lon="-10.56552">
        <ele>187.7</ele>
        <time>2012-05-10T17:49:58Z</time>
      </trkpt>
      <trkpt lat="28.45423" lon="-10.56562">
        <ele>187.9</ele>
        <time>2012-05-10T17:50:03Z</time>
      </trkpt>
      <trkpt lat="28.45403" lon="-10.56571">
        <ele>188.5</ele>
        <time>2012-05-10T17:50:08Z</time>
      </trkpt>
      <trkpt lat="28.4537" lon="-10.56582">
        <ele>189</ele>
        <time>2012-05-10T17:50:13Z</time>
      </trkpt>
      <trkpt lat="28.45325" lon="-10.56596">
        <ele>188.9</ele>
        <time>2012-05-10T17:50:18Z</time>
      </trkpt>
      <trkpt lat="28.45299" lon="-10.566">
        <ele>188.7</ele>
        <time>2012-05-10T17:50:23Z</time>
      </trkpt>
      <trkpt lat="28.45275" lon="-10.56603">
        <ele>188.4</ele>
        <time>2012-05-10T17:50:28Z</time>
      </trkpt>
      <trkpt lat="28.45252" lon="-10.56608">
        <ele>188</ele>
        <time>2012-05-10T17:50:33Z</time>
      </trkpt>
      <trkpt lat="28.45227" lon="-10.5661">
        <ele>187.9</ele>
        <time>2012-05-10T17:50:38Z</time>
      </trkpt>
      <trkpt lat="28.45195" lon="-10.56612">
        <ele>188</ele>
        <time>2012-05-10T17:50:43Z</time>
      </trkpt>
      <trkpt lat="28.45174" lon="-10.56611">
        <ele>187.2</ele>
        <time>2012-05-10T17:50:48Z</time>
      </trkpt>
      <trkpt lat="28.45154" lon="-10.56609">
        <ele>187.1</ele>
        <time>2012-05-10T17:50:53Z</time>
      </trkpt>
      <trkpt lat="28.45132" lon="-10.56612">
        <ele>187.7</ele>
        <time>2012-05-10T17:50:58Z</time>
      </trkpt>
      <trkpt lat="28.4511" lon="-10.56612">
        <ele>189.3</ele>
        <time>2012-05-10T17:51:03Z</time>
      </trkpt>
      <trkpt lat="28.45089" lon="-10.56609">
        <ele>190.1</ele>
        <time>2012-05-10T17:51:08Z</time>
      </trkpt>
      <trkpt lat="28.45067" lon="-10.56603">
        <ele>190.7</ele>
        <time>2012-05-10T17:51:13Z</time>
      </trkpt>
      <trkpt lat="28.45045" lon="-10.56595">
        <ele>190.8</ele>
        <time>2012-05-10T17:51:18Z</time>
      </trkpt>
      <trkpt lat="28.45014" lon="-10.56583">
        <ele>191.1</ele>
        <time>2012-05-10T17:51:23Z</time>
      </trkpt>
      <trkpt lat="28.44991" lon="-10.56577">
        <ele>191</ele>
        <time>2012-05-10T17:51:28Z</time>
      </trkpt>
      <trkpt lat="28.44969" lon="-10.56579">
        <ele>191.6</ele>
        <time>2012-05-10T17:51:33Z</time>
      </trkpt>
      <trkpt lat="28.44943" lon="-10.56581">
        <ele>191.8</ele>
        <time>2012-05-10T17:51:38Z</time>
      </trkpt>
      <trkpt lat="28.44924" lon="-10.56581">
        <ele>191.5</ele>
        <time>2012-05-10T17:51:43Z</time>
      </trkpt>
      <trkpt lat="28.44905" lon="-10.56581">
        <ele>191.4</ele>
        <time>2012-05-10T17:51:48Z</time>
      </trkpt>
      <trkpt lat="28.44886" lon="-10.56582">
        <ele>191.5</ele>
        <time>2012-05-10T17:51:53Z</time>
      </trkpt>
      <trkpt lat="28.44868" lon="-10.56585">
        <ele>191.7</ele>
        <time>2012-05-10T17:51:58Z</time>
      </trkpt>
      <trkpt lat="28.44844" lon="-10.56585">
        <ele>191.4</ele>
        <time>2012-05-10T17:52:03Z</time>
      </trkpt>
      <trkpt lat="28.44826" lon="-10.56573">
        <ele>189.8</ele>
        <time>2012-05-10T17:52:08Z</time>
      </trkpt>
      <trkpt lat="28.44812" lon="-10.56559">
        <ele>189.2</ele>
        <time>2012-05-10T17:52:13Z</time>
      </trkpt>
      <trkpt lat="28.4479" lon="-10.56559">
        <ele>188.4</ele>
        <time>2012-05-10T17:52:18Z</time>
      </trkpt>
      <trkpt lat="28.4477" lon="-10.56565">
        <ele>187.3</ele>
        <time>2012-05-10T17:52:23Z</time>
      </trkpt>
      <trkpt lat="28.44748" lon="-10.56566">
        <ele>187.1</ele>
        <time>2012-05-10T17:52:28Z</time>
      </trkpt>
      <trkpt lat="28.44729" lon="-10.56559">
        <ele>186.9</ele>
        <time>2012-05-10T17:52:33Z</time>
      </trkpt>
      <trkpt lat="28.4471" lon="-10.56549">
        <ele>185.8</ele>
        <time>2012-05-10T17:52:38Z</time>
      </trkpt>
      <trkpt lat="28.44692" lon="-10.56553">
        <ele>186.4</ele>
        <time>2012-05-10T17:52:43Z</time>
      </trkpt>
      <trkpt lat="28.44674" lon="-10.56554">
        <ele>186.8</ele>
        <time>2012-05-10T17:52:48Z</time>
      </trkpt>
      <trkpt lat="28.44651" lon="-10.56555">
        <ele>186.1</ele>
        <time>2012-05-10T17:52:53Z</time>
      </trkpt>
      <trkpt lat="28.44634" lon="-10.56563">
        <ele>185.2</ele>
        <time>2012-05-10T17:52:58Z</time>
      </trkpt>
      <trkpt lat="28.44611" lon="-10.56569">
        <ele>183.2</ele>
        <time>2012-05-10T17:53:03Z</time>
      </trkpt>
      <trkpt lat="28.44593" lon="-10.56572">
        <ele>182.8</ele>
        <time>2012-05-10T17:53:08Z</time>
      </trkpt>
      <trkpt lat="28.44573" lon="-10.56584">
        <ele>182</ele>
        <time>2012-05-10T17:53:13Z</time>
      </trkpt>
      <trkpt lat="28.44554" lon="-10.56593">
        <ele>181.7</ele>
        <time>2012-05-10T17:53:18Z</time>
      </trkpt>
      <trkpt lat="28.44532" lon="-10.56597">
        <ele>181.2</ele>
        <time>2012-05-10T17:53:23Z</time>
      </trkpt>
      <trkpt lat="28.44507" lon="-10.566">
        <ele>180.8</ele>
        <time>2012-05-10T17:53:28Z</time>
      </trkpt>
      <trkpt lat="28.44486" lon="-10.56598">
        <ele>181.5</ele>
        <time>2012-05-10T17:53:33Z</time>
      </trkpt>
      <trkpt lat="28.44467" lon="-10.56592">
        <ele>181.8</ele>
        <time>2012-05-10T17:53:38Z</time>
      </trkpt>
      <trkpt lat="28.44447" lon="-10.56577">
        <ele>181</ele>
        <time>2012-05-10T17:53:43Z</time>
      </trkpt>
      <trkpt lat="28.44431" lon="-10.56562">
        <ele>179.9</ele>
        <time>2012-05-10T17:53:48Z</time>
      </trkpt>
      <trkpt lat="28.44411" lon="-10.56555">
        <ele>179.3</ele>
        <time>2012-05-10T17:53:53Z</time>
      </trkpt>
      <trkpt lat="28.44389" lon="-10.56557">
        <ele>181.1</ele>
        <time>2012-05-10T17:53:58Z</time>
      </trkpt>
      <trkpt lat="28.44368" lon="-10.56565">
        <ele>181.8</ele>
        <time>2012-05-10T17:54:03Z</time>
      </trkpt>
      <trkpt lat="28.44346" lon="-10.56571">
        <ele>182.4</ele>
        <time>2012-05-10T17:54:08Z</time>
      </trkpt>
      <trkpt lat="28.44327" lon="-10.56575">
        <ele>182.4</ele>
        <time>2012-05-10T17:54:13Z</time>
      </trkpt>
      <trkpt lat="28.44303" lon="-10.56575">
        <ele>182.2</ele>
        <time>2012-05-10T17:54:18Z</time>
      </trkpt>
      <trkpt lat="28.44257" lon="-10.56574">
        <ele>182</ele>
        <time>2012-05-10T17:54:23Z</time>
      </trkpt>
      <trkpt lat="28.44228" lon="-10.56574">
        <ele>181.8</ele>
        <time>2012-05-10T17:54:28Z</time>
      </trkpt>
      <trkpt lat="28.4421" lon="-10.5657">
        <ele>181.8</ele>
        <time>2012-05-10T17:54:33Z</time>
      </trkpt>
      <trkpt lat="28.44191" lon="-10.56568">
        <ele>182.4</ele>
        <time>2012-05-10T17:54:38Z</time>
      </trkpt>
      <trkpt lat="28.44173" lon="-10.56568">
        <ele>182.2</ele>
        <time>2012-05-10T17:54:43Z</time>
      </trkpt>
      <trkpt lat="28.44154" lon="-10.56572">
        <ele>182.3</ele>
        <time>2012-05-10T17:54:48Z</time>
      </trkpt>
      <trkpt lat="28.44121" lon="-10.5658">
        <ele>181.8</ele>
        <time>2012-05-10T17:54:53Z</time>
      </trkpt>
      <trkpt lat="28.44101" lon="-10.56582">
        <ele>181.7</ele>
        <time>2012-05-10T17:54:58Z</time>
      </trkpt>
      <trkpt lat="28.44082" lon="-10.56577">
        <ele>182.5</ele>
        <time>2012-05-10T17:55:03Z</time>
      </trkpt>
      <trkpt lat="28.4406" lon="-10.56568">
        <ele>183.2</ele>
        <time>2012-05-10T17:55:08Z</time>
      </trkpt>
      <trkpt lat="28.44036" lon="-10.56571">
        <ele>183.4</ele>
        <time>2012-05-10T17:55:13Z</time>
      </trkpt>
      <trkpt lat="28.4401" lon="-10.56572">
        <ele>183.6</ele>
        <time>2012-05-10T17:55:18Z</time>
      </trkpt>
      <trkpt lat="28.4399" lon="-10.5657">
        <ele>183.8</ele>
        <time>2012-05-10T17:55:23Z</time>
      </trkpt>
      <trkpt lat="28.4397" lon="-10.56567">
        <ele>183.8</ele>
        <time>2012-05-10T17:55:28Z</time>
      </trkpt>
      <trkpt lat="28.4394" lon="-10.56564">
        <ele>183.9</ele>
        <time>2012-05-10T17:55:33Z</time>
      </trkpt>
      <trkpt lat="28.4388" lon="-10.56557">
        <ele>183.1</ele>
        <time>2012-05-10T17:55:38Z</time>
      </trkpt>
      <trkpt lat="28.4386" lon="-10.56551">
        <ele>182.1</ele>
        <time>2012-05-10T17:55:43Z</time>
      </trkpt>
      <trkpt lat="28.43836" lon="-10.56549">
        <ele>179.8</ele>
        <time>2012-05-10T17:55:48Z</time>
      </trkpt>
      <trkpt lat="28.43816" lon="-10.56547">
        <ele>180.6</ele>
        <time>2012-05-10T17:55:53Z</time>
      </trkpt>
      <trkpt lat="28.43798" lon="-10.56546">
        <ele>180.6</ele>
        <time>2012-05-10T17:55:58Z</time>
      </trkpt>
      <trkpt lat="28.43774" lon="-10.56541">
        <ele>181.3</ele>
        <time>2012-05-10T17:56:03Z</time>
      </trkpt>
      <trkpt lat="28.43753" lon="-10.5653">
        <ele>180.9</ele>
        <time>2012-05-10T17:56:08Z</time>
      </trkpt>
      <trkpt lat="28.43736" lon="-10.56523">
        <ele>181.2</ele>
        <time>2012-05-10T17:56:13Z</time>
      </trkpt>
      <trkpt lat="28.43718" lon="-10.56517">
        <ele>182.6</ele>
        <time>2012-05-10T17:56:18Z</time>
      </trkpt>
      <trkpt lat="28.43701" lon="-10.56505">
        <ele>183.1</ele>
        <time>2012-05-10T17:56:23Z</time>
      </trkpt>
      <trkpt lat="28.43683" lon="-10.56494">
        <ele>183.2</ele>
        <time>2012-05-10T17:56:28Z</time>
      </trkpt>
      <trkpt lat="28.43661" lon="-10.5649">
        <ele>183.2</ele>
        <time>2012-05-10T17:56:33Z</time>
      </trkpt>
      <trkpt lat="28.4363" lon="-10.56484">
        <ele>183.1</ele>
        <time>2012-05-10T17:56:38Z</time>
      </trkpt>
      <trkpt lat="28.4361" lon="-10.56473">
        <ele>182.5</ele>
        <time>2012-05-10T17:56:43Z</time>
      </trkpt>
      <trkpt lat="28.43594" lon="-10.56454">
        <ele>182.4</ele>
        <time>2012-05-10T17:56:48Z</time>
      </trkpt>
      <trkpt lat="28.43574" lon="-10.56426">
        <ele>182.4</ele>
        <time>2012-05-10T17:56:53Z</time>
      </trkpt>
      <trkpt lat="28.43555" lon="-10.56413">
        <ele>182.3</ele>
        <time>2012-05-10T17:56:58Z</time>
      </trkpt>
      <trkpt lat="28.43504" lon="-10.5639">
        <ele>182.5</ele>
        <time>2012-05-10T17:57:03Z</time>
      </trkpt>
      <trkpt lat="28.4347" lon="-10.56373">
        <ele>182.6</ele>
        <time>2012-05-10T17:57:08Z</time>
      </trkpt>
      <trkpt lat="28.43445" lon="-10.56362">
        <ele>182.6</ele>
        <time>2012-05-10T17:57:13Z</time>
      </trkpt>
      <trkpt lat="28.43426" lon="-10.56357">
        <ele>182.6</ele>
        <time>2012-05-10T17:57:18Z</time>
      </trkpt>
      <trkpt lat="28.43408" lon="-10.56353">
        <ele>182.3</ele>
        <time>2012-05-10T17:57:23Z</time>
      </trkpt>
      <trkpt lat="28.43389" lon="-10.56351">
        <ele>182.6</ele>
        <time>2012-05-10T17:57:28Z</time>
      </trkpt>
      <trkpt lat="28.43355" lon="-10.56346">
        <ele>181.9</ele>
        <time>2012-05-10T17:57:33Z</time>
      </trkpt>
      <trkpt lat="28.43331" lon="-10.56339">
        <ele>181.7</ele>
        <time>2012-05-10T17:57:38Z</time>
      </trkpt>
      <trkpt lat="28.43306" lon="-10.56331">
        <ele>181.5</ele>
        <time>2012-05-10T17:57:43Z</time>
      </trkpt>
      <trkpt lat="28.43251" lon="-10.56323">
        <ele>180.9</ele>
        <time>2012-05-10T17:57:48Z</time>
      </trkpt>
      <trkpt lat="28.43197" lon="-10.5632">
        <ele>178.6</ele>
        <time>2012-05-10T17:57:53Z</time>
      </trkpt>
      <trkpt lat="28.43168" lon="-10.56322">
        <ele>177.3</ele>
        <time>2012-05-10T17:57:58Z</time>
      </trkpt>
      <trkpt lat="28.4315" lon="-10.5632">
        <ele>176.7</ele>
        <time>2012-05-10T17:58:03Z</time>
      </trkpt>
      <trkpt lat="28.43131" lon="-10.56318">
        <ele>176.1</ele>
        <time>2012-05-10T17:58:08Z</time>
      </trkpt>
      <trkpt lat="28.43113" lon="-10.56315">
        <ele>175.9</ele>
        <time>2012-05-10T17:58:13Z</time>
      </trkpt>
      <trkpt lat="28.43087" lon="-10.56309">
        <ele>175.2</ele>
        <time>2012-05-10T17:58:18Z</time>
      </trkpt>
      <trkpt lat="28.43063" lon="-10.56313">
        <ele>174.4</ele>
        <time>2012-05-10T17:58:23Z</time>
      </trkpt>
      <trkpt lat="28.43041" lon="-10.56323">
        <ele>172.8</ele>
        <time>2012-05-10T17:58:28Z</time>
      </trkpt>
      <trkpt lat="28.43016" lon="-10.56325">
        <ele>172.1</ele>
        <time>2012-05-10T17:58:33Z</time>
      </trkpt>
      <trkpt lat="28.42992" lon="-10.56328">
        <ele>171.5</ele>
        <time>2012-05-10T17:58:38Z</time>
      </trkpt>
      <trkpt lat="28.4297" lon="-10.56329">
        <ele>170.4</ele>
        <time>2012-05-10T17:58:43Z</time>
      </trkpt>
      <trkpt lat="28.42951" lon="-10.56322">
        <ele>169.4</ele>
        <time>2012-05-10T17:58:48Z</time>
      </trkpt>
      <trkpt lat="28.42933" lon="-10.56311">
        <ele>168.4</ele>
        <time>2012-05-10T17:58:53Z</time>
      </trkpt>
      <trkpt lat="28.42914" lon="-10.56302">
        <ele>167.3</ele>
        <time>2012-05-10T17:58:58Z</time>
      </trkpt>
      <trkpt lat="28.42895" lon="-10.56297">
        <ele>166.5</ele>
        <time>2012-05-10T17:59:03Z</time>
      </trkpt>
      <trkpt lat="28.42877" lon="-10.5629">
        <ele>167</ele>
        <time>2012-05-10T17:59:08Z</time>
      </trkpt>
      <trkpt lat="28.4286" lon="-10.56281">
        <ele>166.6</ele>
        <time>2012-05-10T17:59:13Z</time>
      </trkpt>
      <trkpt lat="28.42844" lon="-10.5627">
        <ele>166.6</ele>
        <time>2012-05-10T17:59:18Z</time>
      </trkpt>
      <trkpt lat="28.4283" lon="-10.56257">
        <ele>167.3</ele>
        <time>2012-05-10T17:59:23Z</time>
      </trkpt>
      <trkpt lat="28.42812" lon="-10.56262">
        <ele>167.8</ele>
        <time>2012-05-10T17:59:28Z</time>
      </trkpt>
      <trkpt lat="28.42795" lon="-10.5627">
        <ele>167.1</ele>
        <time>2012-05-10T17:59:33Z</time>
      </trkpt>
      <trkpt lat="28.42774" lon="-10.56275">
        <ele>166.6</ele>
        <time>2012-05-10T17:59:38Z</time>
      </trkpt>
      <trkpt lat="28.42755" lon="-10.56272">
        <ele>167.5</ele>
        <time>2012-05-10T17:59:43Z</time>
      </trkpt>
      <trkpt lat="28.42737" lon="-10.56261">
        <ele>166.9</ele>
        <time>2012-05-10T17:59:48Z</time>
      </trkpt>
      <trkpt lat="28.4272" lon="-10.5625">
        <ele>166.2</ele>
        <time>2012-05-10T17:59:53Z</time>
      </trkpt>
      <trkpt lat="28.42695" lon="-10.5623">
        <ele>164.6</ele>
        <time>2012-05-10T17:59:58Z</time>
      </trkpt>
      <trkpt lat="28.42678" lon="-10.56223">
        <ele>164.3</ele>
        <time>2012-05-10T18:00:03Z</time>
      </trkpt>
      <trkpt lat="28.42659" lon="-10.56213">
        <ele>166.3</ele>
        <time>2012-05-10T18:00:08Z</time>
      </trkpt>
      <trkpt lat="28.42634" lon="-10.56197">
        <ele>167.8</ele>
        <time>2012-05-10T18:00:13Z</time>
      </trkpt>
      <trkpt lat="28.42614" lon="-10.56188">
        <ele>168.9</ele>
        <time>2012-05-10T18:00:18Z</time>
      </trkpt>
      <trkpt lat="28.42597" lon="-10.56174">
        <ele>169.8</ele>
        <time>2012-05-10T18:00:23Z</time>
      </trkpt>
      <trkpt lat="28.42583" lon="-10.56159">
        <ele>170.4</ele>
        <time>2012-05-10T18:00:28Z</time>
      </trkpt>
      <trkpt lat="28.42566" lon="-10.56142">
        <ele>170.5</ele>
        <time>2012-05-10T18:00:33Z</time>
      </trkpt>
      <trkpt lat="28.42544" lon="-10.56137">
        <ele>170.1</ele>
        <time>2012-05-10T18:00:38Z</time>
      </trkpt>
      <trkpt lat="28.42527" lon="-10.56142">
        <ele>171.6</ele>
        <time>2012-05-10T18:00:43Z</time>
      </trkpt>
      <trkpt lat="28.42507" lon="-10.5614">
        <ele>171.7</ele>
        <time>2012-05-10T18:00:48Z</time>
      </trkpt>
      <trkpt lat="28.42486" lon="-10.56139">
        <ele>172.3</ele>
        <time>2012-05-10T18:00:53Z</time>
      </trkpt>
      <trkpt lat="28.42465" lon="-10.56139">
        <ele>172.5</ele>
        <time>2012-05-10T18:00:58Z</time>
      </trkpt>
      <trkpt lat="28.42441" lon="-10.56133">
        <ele>172.8</ele>
        <time>2012-05-10T18:01:03Z</time>
      </trkpt>
      <trkpt lat="28.42388" lon="-10.56119">
        <ele>173.7</ele>
        <time>2012-05-10T18:01:08Z</time>
      </trkpt>
      <trkpt lat="28.42364" lon="-10.56113">
        <ele>174.2</ele>
        <time>2012-05-10T18:01:13Z</time>
      </trkpt>
      <trkpt lat="28.4234" lon="-10.56109">
        <ele>174.7</ele>
        <time>2012-05-10T18:01:18Z</time>
      </trkpt>
      <trkpt lat="28.42316" lon="-10.56105">
        <ele>174.8</ele>
        <time>2012-05-10T18:01:23Z</time>
      </trkpt>
      <trkpt lat="28.42296" lon="-10.56097">
        <ele>175.1</ele>
        <time>2012-05-10T18:01:28Z</time>
      </trkpt>
      <trkpt lat="28.42277" lon="-10.56093">
        <ele>174.7</ele>
        <time>2012-05-10T18:01:33Z</time>
      </trkpt>
      <trkpt lat="28.42247" lon="-10.56087">
        <ele>175.1</ele>
        <time>2012-05-10T18:01:38Z</time>
      </trkpt>
      <trkpt lat="28.42207" lon="-10.56078">
        <ele>175.7</ele>
        <time>2012-05-10T18:01:43Z</time>
      </trkpt>
      <trkpt lat="28.42185" lon="-10.56068">
        <ele>176</ele>
        <time>2012-05-10T18:01:48Z</time>
      </trkpt>
      <trkpt lat="28.42165" lon="-10.56057">
        <ele>176.2</ele>
        <time>2012-05-10T18:01:53Z</time>
      </trkpt>
      <trkpt lat="28.42151" lon="-10.56042">
        <ele>175.8</ele>
        <time>2012-05-10T18:01:58Z</time>
      </trkpt>
      <trkpt lat="28.42131" lon="-10.56028">
        <ele>174.5</ele>
        <time>2012-05-10T18:02:03Z</time>
      </trkpt>
      <trkpt lat="28.42107" lon="-10.56023">
        <ele>175.4</ele>
        <time>2012-05-10T18:02:08Z</time>
      </trkpt>
      <trkpt lat="28.42092" lon="-10.56009">
        <ele>174.3</ele>
        <time>2012-05-10T18:02:13Z</time>
      </trkpt>
      <trkpt lat="28.42076" lon="-10.55997">
        <ele>175.6</ele>
        <time>2012-05-10T18:02:18Z</time>
      </trkpt>
      <trkpt lat="28.42055" lon="-10.55992">
        <ele>175.8</ele>
        <time>2012-05-10T18:02:23Z</time>
      </trkpt>
      <trkpt lat="28.42035" lon="-10.55982">
        <ele>175.5</ele>
        <time>2012-05-10T18:02:28Z</time>
      </trkpt>
      <trkpt lat="28.42014" lon="-10.55973">
        <ele>175.1</ele>
        <time>2012-05-10T18:02:33Z</time>
      </trkpt>
      <trkpt lat="28.41993" lon="-10.55961">
        <ele>175.3</ele>
        <time>2012-05-10T18:02:38Z</time>
      </trkpt>
      <trkpt lat="28.41973" lon="-10.55945">
        <ele>175.1</ele>
        <time>2012-05-10T18:02:43Z</time>
      </trkpt>
      <trkpt lat="28.41948" lon="-10.55926">
        <ele>174.2</ele>
        <time>2012-05-10T18:02:48Z</time>
      </trkpt>
      <trkpt lat="28.41927" lon="-10.55915">
        <ele>173.6</ele>
        <time>2012-05-10T18:02:53Z</time>
      </trkpt>
      <trkpt lat="28.41904" lon="-10.55902">
        <ele>173.3</ele>
        <time>2012-05-10T18:02:58Z</time>
      </trkpt>
      <trkpt lat="28.41886" lon="-10.55884">
        <ele>173</ele>
        <time>2012-05-10T18:03:03Z</time>
      </trkpt>
      <trkpt lat="28.41869" lon="-10.55864">
        <ele>173.7</ele>
        <time>2012-05-10T18:03:08Z</time>
      </trkpt>
      <trkpt lat="28.41847" lon="-10.55852">
        <ele>174.2</ele>
        <time>2012-05-10T18:03:13Z</time>
      </trkpt>
      <trkpt lat="28.41824" lon="-10.55837">
        <ele>174.1</ele>
        <time>2012-05-10T18:03:18Z</time>
      </trkpt>
      <trkpt lat="28.41795" lon="-10.55815">
        <ele>173.4</ele>
        <time>2012-05-10T18:03:23Z</time>
      </trkpt>
      <trkpt lat="28.41775" lon="-10.558">
        <ele>172.9</ele>
        <time>2012-05-10T18:03:28Z</time>
      </trkpt>
      <trkpt lat="28.41753" lon="-10.55786">
        <ele>172.9</ele>
        <time>2012-05-10T18:03:33Z</time>
      </trkpt>
      <trkpt lat="28.41734" lon="-10.55775">
        <ele>172.3</ele>
        <time>2012-05-10T18:03:38Z</time>
      </trkpt>
      <trkpt lat="28.41713" lon="-10.55761">
        <ele>172.6</ele>
        <time>2012-05-10T18:03:43Z</time>
      </trkpt>
      <trkpt lat="28.41686" lon="-10.55742">
        <ele>171.8</ele>
        <time>2012-05-10T18:03:48Z</time>
      </trkpt>
      <trkpt lat="28.41667" lon="-10.55728">
        <ele>170.8</ele>
        <time>2012-05-10T18:03:53Z</time>
      </trkpt>
      <trkpt lat="28.41645" lon="-10.5571">
        <ele>169.4</ele>
        <time>2012-05-10T18:03:58Z</time>
      </trkpt>
      <trkpt lat="28.41627" lon="-10.55699">
        <ele>166.3</ele>
        <time>2012-05-10T18:04:03Z</time>
      </trkpt>
      <trkpt lat="28.41606" lon="-10.55693">
        <ele>165.9</ele>
        <time>2012-05-10T18:04:08Z</time>
      </trkpt>
      <trkpt lat="28.41579" lon="-10.55681">
        <ele>165.2</ele>
        <time>2012-05-10T18:04:13Z</time>
      </trkpt>
      <trkpt lat="28.41564" lon="-10.55667">
        <ele>165.4</ele>
        <time>2012-05-10T18:04:18Z</time>
      </trkpt>
      <trkpt lat="28.41548" lon="-10.55652">
        <ele>165.1</ele>
        <time>2012-05-10T18:04:23Z</time>
      </trkpt>
      <trkpt lat="28.41521" lon="-10.55636">
        <ele>165.2</ele>
        <time>2012-05-10T18:04:28Z</time>
      </trkpt>
      <trkpt lat="28.41501" lon="-10.55622">
        <ele>166</ele>
        <time>2012-05-10T18:04:33Z</time>
      </trkpt>
      <trkpt lat="28.41479" lon="-10.5562">
        <ele>166.8</ele>
        <time>2012-05-10T18:04:38Z</time>
      </trkpt>
      <trkpt lat="28.41455" lon="-10.5562">
        <ele>167.7</ele>
        <time>2012-05-10T18:04:43Z</time>
      </trkpt>
      <trkpt lat="28.41431" lon="-10.55615">
        <ele>168.5</ele>
        <time>2012-05-10T18:04:48Z</time>
      </trkpt>
      <trkpt lat="28.41407" lon="-10.55608">
        <ele>168.3</ele>
        <time>2012-05-10T18:04:53Z</time>
      </trkpt>
      <trkpt lat="28.41384" lon="-10.55606">
        <ele>168.6</ele>
        <time>2012-05-10T18:04:58Z</time>
      </trkpt>
      <trkpt lat="28.41362" lon="-10.55599">
        <ele>169.1</ele>
        <time>2012-05-10T18:05:03Z</time>
      </trkpt>
      <trkpt lat="28.41343" lon="-10.55588">
        <ele>169.5</ele>
        <time>2012-05-10T18:05:08Z</time>
      </trkpt>
      <trkpt lat="28.41321" lon="-10.55587">
        <ele>169.8</ele>
        <time>2012-05-10T18:05:13Z</time>
      </trkpt>
      <trkpt lat="28.41265" lon="-10.55593">
        <ele>169.1</ele>
        <time>2012-05-10T18:05:18Z</time>
      </trkpt>
      <trkpt lat="28.41243" lon="-10.55598">
        <ele>170.2</ele>
        <time>2012-05-10T18:05:23Z</time>
      </trkpt>
      <trkpt lat="28.4122" lon="-10.55604">
        <ele>169.1</ele>
        <time>2012-05-10T18:05:28Z</time>
      </trkpt>
      <trkpt lat="28.41202" lon="-10.55597">
        <ele>168.5</ele>
        <time>2012-05-10T18:05:33Z</time>
      </trkpt>
      <trkpt lat="28.41192" lon="-10.55577">
        <ele>166.9</ele>
        <time>2012-05-10T18:05:38Z</time>
      </trkpt>
      <trkpt lat="28.41188" lon="-10.55552">
        <ele>165.9</ele>
        <time>2012-05-10T18:05:43Z</time>
      </trkpt>
      <trkpt lat="28.41177" lon="-10.55535">
        <ele>165.2</ele>
        <time>2012-05-10T18:05:48Z</time>
      </trkpt>
      <trkpt lat="28.41172" lon="-10.55515">
        <ele>166.4</ele>
        <time>2012-05-10T18:05:53Z</time>
      </trkpt>
      <trkpt lat="28.41178" lon="-10.55494">
        <ele>167.3</ele>
        <time>2012-05-10T18:05:58Z</time>
      </trkpt>
      <trkpt lat="28.41179" lon="-10.55469">
        <ele>169</ele>
        <time>2012-05-10T18:06:03Z</time>
      </trkpt>
      <trkpt lat="28.41166" lon="-10.5545">
        <ele>170.4</ele>
        <time>2012-05-10T18:06:08Z</time>
      </trkpt>
      <trkpt lat="28.41153" lon="-10.55434">
        <ele>170.5</ele>
        <time>2012-05-10T18:06:13Z</time>
      </trkpt>
      <trkpt lat="28.41139" lon="-10.55417">
        <ele>170.6</ele>
        <time>2012-05-10T18:06:18Z</time>
      </trkpt>
      <trkpt lat="28.41125" lon="-10.55399">
        <ele>170.6</ele>
        <time>2012-05-10T18:06:23Z</time>
      </trkpt>
      <trkpt lat="28.41112" lon="-10.55383">
        <ele>169.8</ele>
        <time>2012-05-10T18:06:28Z</time>
      </trkpt>
      <trkpt lat="28.41101" lon="-10.55361">
        <ele>168</ele>
        <time>2012-05-10T18:06:33Z</time>
      </trkpt>
      <trkpt lat="28.41083" lon="-10.55346">
        <ele>166.2</ele>
        <time>2012-05-10T18:06:38Z</time>
      </trkpt>
      <trkpt lat="28.41062" lon="-10.5534">
        <ele>165.9</ele>
        <time>2012-05-10T18:06:43Z</time>
      </trkpt>
      <trkpt lat="28.41046" lon="-10.55327">
        <ele>166</ele>
        <time>2012-05-10T18:06:48Z</time>
      </trkpt>
      <trkpt lat="28.41027" lon="-10.55316">
        <ele>167.2</ele>
        <time>2012-05-10T18:06:53Z</time>
      </trkpt>
      <trkpt lat="28.41006" lon="-10.55312">
        <ele>167.7</ele>
        <time>2012-05-10T18:06:58Z</time>
      </trkpt>
      <trkpt lat="28.40988" lon="-10.55301">
        <ele>168.5</ele>
        <time>2012-05-10T18:07:03Z</time>
      </trkpt>
      <trkpt lat="28.40971" lon="-10.55288">
        <ele>168.9</ele>
        <time>2012-05-10T18:07:08Z</time>
      </trkpt>
      <trkpt lat="28.40951" lon="-10.55277">
        <ele>168.5</ele>
        <time>2012-05-10T18:07:13Z</time>
      </trkpt>
      <trkpt lat="28.40939" lon="-10.5526">
        <ele>167.3</ele>
        <time>2012-05-10T18:07:18Z</time>
      </trkpt>
      <trkpt lat="28.40927" lon="-10.55244">
        <ele>165.7</ele>
        <time>2012-05-10T18:07:23Z</time>
      </trkpt>
      <trkpt lat="28.40911" lon="-10.55228">
        <ele>165.6</ele>
        <time>2012-05-10T18:07:28Z</time>
      </trkpt>
      <trkpt lat="28.40895" lon="-10.55217">
        <ele>165.4</ele>
        <time>2012-05-10T18:07:33Z</time>
      </trkpt>
      <trkpt lat="28.40876" lon="-10.55207">
        <ele>165.2</ele>
        <time>2012-05-10T18:07:38Z</time>
      </trkpt>
      <trkpt lat="28.40858" lon="-10.55201">
        <ele>165.4</ele>
        <time>2012-05-10T18:07:43Z</time>
      </trkpt>
      <trkpt lat="28.40837" lon="-10.55191">
        <ele>165</ele>
        <time>2012-05-10T18:07:48Z</time>
      </trkpt>
      <trkpt lat="28.40818" lon="-10.55181">
        <ele>165.2</ele>
        <time>2012-05-10T18:07:53Z</time>
      </trkpt>
      <trkpt lat="28.40797" lon="-10.55172">
        <ele>164.9</ele>
        <time>2012-05-10T18:07:58Z</time>
      </trkpt>
      <trkpt lat="28.40772" lon="-10.55165">
        <ele>165.7</ele>
        <time>2012-05-10T18:08:03Z</time>
      </trkpt>
      <trkpt lat="28.40751" lon="-10.55155">
        <ele>166.8</ele>
        <time>2012-05-10T18:08:08Z</time>
      </trkpt>
      <trkpt lat="28.40734" lon="-10.55145">
        <ele>167.5</ele>
        <time>2012-05-10T18:08:13Z</time>
      </trkpt>
      <trkpt lat="28.40716" lon="-10.55137">
        <ele>167.3</ele>
        <time>2012-05-10T18:08:18Z</time>
      </trkpt>
      <trkpt lat="28.407" lon="-10.55123">
        <ele>166.9</ele>
        <time>2012-05-10T18:08:23Z</time>
      </trkpt>
      <trkpt lat="28.40686" lon="-10.55101">
        <ele>164.7</ele>
        <time>2012-05-10T18:08:28Z</time>
      </trkpt>
      <trkpt lat="28.40671" lon="-10.5508">
        <ele>163.4</ele>
        <time>2012-05-10T18:08:33Z</time>
      </trkpt>
      <trkpt lat="28.40657" lon="-10.5506">
        <ele>162.5</ele>
        <time>2012-05-10T18:08:38Z</time>
      </trkpt>
      <trkpt lat="28.40639" lon="-10.55051">
        <ele>161.8</ele>
        <time>2012-05-10T18:08:43Z</time>
      </trkpt>
      <trkpt lat="28.40621" lon="-10.55044">
        <ele>161.7</ele>
        <time>2012-05-10T18:08:48Z</time>
      </trkpt>
      <trkpt lat="28.40604" lon="-10.55033">
        <ele>162.8</ele>
        <time>2012-05-10T18:08:53Z</time>
      </trkpt>
      <trkpt lat="28.40594" lon="-10.55014">
        <ele>159.9</ele>
        <time>2012-05-10T18:08:58Z</time>
      </trkpt>
      <trkpt lat="28.40607" lon="-10.54995">
        <ele>161.3</ele>
        <time>2012-05-10T18:09:03Z</time>
      </trkpt>
      <trkpt lat="28.40619" lon="-10.54978">
        <ele>163</ele>
        <time>2012-05-10T18:09:08Z</time>
      </trkpt>
      <trkpt lat="28.40625" lon="-10.54956">
        <ele>166</ele>
        <time>2012-05-10T18:09:13Z</time>
      </trkpt>
      <trkpt lat="28.40632" lon="-10.54937">
        <ele>168.2</ele>
        <time>2012-05-10T18:09:18Z</time>
      </trkpt>
      <trkpt lat="28.40619" lon="-10.54918">
        <ele>170</ele>
        <time>2012-05-10T18:09:23Z</time>
      </trkpt>
      <trkpt lat="28.40599" lon="-10.54914">
        <ele>170.8</ele>
        <time>2012-05-10T18:09:28Z</time>
      </trkpt>
      <trkpt lat="28.40577" lon="-10.54909">
        <ele>171.5</ele>
        <time>2012-05-10T18:09:33Z</time>
      </trkpt>
      <trkpt lat="28.4056" lon="-10.54918">
        <ele>170.7</ele>
        <time>2012-05-10T18:09:38Z</time>
      </trkpt>
      <trkpt lat="28.40559" lon="-10.54919">
        <ele>168.6</ele>
        <time>2012-05-10T18:09:43Z</time>
      </trkpt>
      <trkpt lat="28.40546" lon="-10.54936">
        <ele>169</ele>
        <time>2012-05-10T18:09:48Z</time>
      </trkpt>
      <trkpt lat="28.40531" lon="-10.54957">
        <ele>167.8</ele>
        <time>2012-05-10T18:09:53Z</time>
      </trkpt>
      <trkpt lat="28.40517" lon="-10.54975">
        <ele>167.1</ele>
        <time>2012-05-10T18:09:58Z</time>
      </trkpt>
      <trkpt lat="28.40502" lon="-10.54991">
        <ele>167.2</ele>
        <time>2012-05-10T18:10:03Z</time>
      </trkpt>
      <trkpt lat="28.40494" lon="-10.5501">
        <ele>166.6</ele>
        <time>2012-05-10T18:10:08Z</time>
      </trkpt>
      <trkpt lat="28.40481" lon="-10.55027">
        <ele>166</ele>
        <time>2012-05-10T18:10:13Z</time>
      </trkpt>
      <trkpt lat="28.40466" lon="-10.55041">
        <ele>166</ele>
        <time>2012-05-10T18:10:18Z</time>
      </trkpt>
      <trkpt lat="28.40446" lon="-10.55042">
        <ele>166.3</ele>
        <time>2012-05-10T18:10:23Z</time>
      </trkpt>
      <trkpt lat="28.4044" lon="-10.55043">
        <ele>169</ele>
        <time>2012-05-10T18:10:28Z</time>
      </trkpt>
      <trkpt lat="28.4044" lon="-10.55044">
        <ele>170.1</ele>
        <time>2012-05-10T18:10:33Z</time>
      </trkpt>
      <trkpt lat="28.4044" lon="-10.55044">
        <ele>170.8</ele>
        <time>2012-05-10T18:10:38Z</time>
      </trkpt>
      <trkpt lat="28.4044" lon="-10.55044">
        <ele>171.7</ele>
        <time>2012-05-10T18:10:43Z</time>
      </trkpt>
      <trkpt lat="28.4044" lon="-10.55044">
        <ele>171.4</ele>
        <time>2012-05-10T18:10:48Z</time>
      </trkpt>
      <trkpt lat="28.4044" lon="-10.55044">
        <ele>172.1</ele>
        <time>2012-05-10T18:10:53Z</time>
      </trkpt>
      <trkpt lat="28.40439" lon="-10.55044">
        <ele>172.6</ele>
        <time>2012-05-10T18:10:58Z</time>
      </trkpt>
      <trkpt lat="28.40427" lon="-10.5503">
        <ele>168</ele>
        <time>2012-05-10T18:11:03Z</time>
      </trkpt>
      <trkpt lat="28.40417" lon="-10.55012">
        <ele>164.8</ele>
        <time>2012-05-10T18:11:08Z</time>
      </trkpt>
      <trkpt lat="28.40419" lon="-10.54988">
        <ele>162.4</ele>
        <time>2012-05-10T18:11:13Z</time>
      </trkpt>
      <trkpt lat="28.40417" lon="-10.54962">
        <ele>161.6</ele>
        <time>2012-05-10T18:11:18Z</time>
      </trkpt>
      <trkpt lat="28.40409" lon="-10.54942">
        <ele>159.8</ele>
        <time>2012-05-10T18:11:23Z</time>
      </trkpt>
      <trkpt lat="28.40394" lon="-10.54926">
        <ele>157.9</ele>
        <time>2012-05-10T18:11:28Z</time>
      </trkpt>
      <trkpt lat="28.4038" lon="-10.5491">
        <ele>155.2</ele>
        <time>2012-05-10T18:11:33Z</time>
      </trkpt>
      <trkpt lat="28.40383" lon="-10.54888">
        <ele>151.5</ele>
        <time>2012-05-10T18:11:38Z</time>
      </trkpt>
      <trkpt lat="28.4039" lon="-10.5487">
        <ele>150.3</ele>
        <time>2012-05-10T18:11:43Z</time>
      </trkpt>
      <trkpt lat="28.40379" lon="-10.5485">
        <ele>148.8</ele>
        <time>2012-05-10T18:11:48Z</time>
      </trkpt>
      <trkpt lat="28.40362" lon="-10.54831">
        <ele>148.2</ele>
        <time>2012-05-10T18:11:53Z</time>
      </trkpt>
      <trkpt lat="28.40345" lon="-10.54815">
        <ele>148.6</ele>
        <time>2012-05-10T18:11:58Z</time>
      </trkpt>
      <trkpt lat="28.40334" lon="-10.54794">
        <ele>148.7</ele>
        <time>2012-05-10T18:12:03Z</time>
      </trkpt>
      <trkpt lat="28.40331" lon="-10.54774">
        <ele>148.5</ele>
        <time>2012-05-10T18:12:08Z</time>
      </trkpt>
      <trkpt lat="28.40325" lon="-10.54748">
        <ele>149</ele>
        <time>2012-05-10T18:12:13Z</time>
      </trkpt>
      <trkpt lat="28.40326" lon="-10.54723">
        <ele>148.6</ele>
        <time>2012-05-10T18:12:18Z</time>
      </trkpt>
      <trkpt lat="28.40321" lon="-10.54696">
        <ele>148.3</ele>
        <time>2012-05-10T18:12:23Z</time>
      </trkpt>
      <trkpt lat="28.40321" lon="-10.5467">
        <ele>146.6</ele>
        <time>2012-05-10T18:12:28Z</time>
      </trkpt>
      <trkpt lat="28.40318" lon="-10.54643">
        <ele>145.2</ele>
        <time>2012-05-10T18:12:33Z</time>
      </trkpt>
      <trkpt lat="28.4031" lon="-10.54621">
        <ele>145.1</ele>
        <time>2012-05-10T18:12:38Z</time>
      </trkpt>
      <trkpt lat="28.40304" lon="-10.5459">
        <ele>145.9</ele>
        <time>2012-05-10T18:12:43Z</time>
      </trkpt>
      <trkpt lat="28.4029" lon="-10.54574">
        <ele>147.2</ele>
        <time>2012-05-10T18:12:48Z</time>
      </trkpt>
      <trkpt lat="28.40274" lon="-10.54558">
        <ele>148.1</ele>
        <time>2012-05-10T18:12:53Z</time>
      </trkpt>
      <trkpt lat="28.40257" lon="-10.54548">
        <ele>147.4</ele>
        <time>2012-05-10T18:12:58Z</time>
      </trkpt>
      <trkpt lat="28.40238" lon="-10.54554">
        <ele>146.6</ele>
        <time>2012-05-10T18:13:03Z</time>
      </trkpt>
      <trkpt lat="28.40216" lon="-10.54558">
        <ele>144.8</ele>
        <time>2012-05-10T18:13:08Z</time>
      </trkpt>
      <trkpt lat="28.40195" lon="-10.54564">
        <ele>143.1</ele>
        <time>2012-05-10T18:13:13Z</time>
      </trkpt>
      <trkpt lat="28.40177" lon="-10.54569">
        <ele>142.6</ele>
        <time>2012-05-10T18:13:18Z</time>
      </trkpt>
      <trkpt lat="28.40157" lon="-10.54564">
        <ele>141.6</ele>
        <time>2012-05-10T18:13:23Z</time>
      </trkpt>
      <trkpt lat="28.40135" lon="-10.54563">
        <ele>138.1</ele>
        <time>2012-05-10T18:13:28Z</time>
      </trkpt>
      <trkpt lat="28.40113" lon="-10.54565">
        <ele>134.3</ele>
        <time>2012-05-10T18:13:33Z</time>
      </trkpt>
      <trkpt lat="28.40097" lon="-10.54555">
        <ele>133.7</ele>
        <time>2012-05-10T18:13:38Z</time>
      </trkpt>
      <trkpt lat="28.40084" lon="-10.54535">
        <ele>133.2</ele>
        <time>2012-05-10T18:13:43Z</time>
      </trkpt>
      <trkpt lat="28.4007" lon="-10.54517">
        <ele>131.5</ele>
        <time>2012-05-10T18:13:48Z</time>
      </trkpt>
      <trkpt lat="28.40049" lon="-10.54507">
        <ele>130</ele>
        <time>2012-05-10T18:13:53Z</time>
      </trkpt>
      <trkpt lat="28.40022" lon="-10.54493">
        <ele>128.5</ele>
        <time>2012-05-10T18:13:58Z</time>
      </trkpt>
      <trkpt lat="28.40004" lon="-10.54478">
        <ele>127.2</ele>
        <time>2012-05-10T18:14:03Z</time>
      </trkpt>
      <trkpt lat="28.39989" lon="-10.54459">
        <ele>125.7</ele>
        <time>2012-05-10T18:14:08Z</time>
      </trkpt>
      <trkpt lat="28.39982" lon="-10.54437">
        <ele>124.8</ele>
        <time>2012-05-10T18:14:13Z</time>
      </trkpt>
      <trkpt lat="28.39967" lon="-10.54416">
        <ele>125.6</ele>
        <time>2012-05-10T18:14:18Z</time>
      </trkpt>
      <trkpt lat="28.39952" lon="-10.54397">
        <ele>125.8</ele>
        <time>2012-05-10T18:14:23Z</time>
      </trkpt>
      <trkpt lat="28.39939" lon="-10.54379">
        <ele>125.7</ele>
        <time>2012-05-10T18:14:28Z</time>
      </trkpt>
      <trkpt lat="28.3993" lon="-10.5436">
        <ele>125.3</ele>
        <time>2012-05-10T18:14:33Z</time>
      </trkpt>
      <trkpt lat="28.39919" lon="-10.54342">
        <ele>126.2</ele>
        <time>2012-05-10T18:14:38Z</time>
      </trkpt>
      <trkpt lat="28.39906" lon="-10.54324">
        <ele>127.6</ele>
        <time>2012-05-10T18:14:43Z</time>
      </trkpt>
      <trkpt lat="28.3989" lon="-10.54312">
        <ele>128.5</ele>
        <time>2012-05-10T18:14:48Z</time>
      </trkpt>
      <trkpt lat="28.39874" lon="-10.54299">
        <ele>129.2</ele>
        <time>2012-05-10T18:14:53Z</time>
      </trkpt>
      <trkpt lat="28.39865" lon="-10.54282">
        <ele>127.3</ele>
        <time>2012-05-10T18:14:58Z</time>
      </trkpt>
      <trkpt lat="28.39861" lon="-10.54262">
        <ele>125.3</ele>
        <time>2012-05-10T18:15:03Z</time>
      </trkpt>
      <trkpt lat="28.39844" lon="-10.54251">
        <ele>123.1</ele>
        <time>2012-05-10T18:15:08Z</time>
      </trkpt>
      <trkpt lat="28.39825" lon="-10.54256">
        <ele>121.9</ele>
        <time>2012-05-10T18:15:13Z</time>
      </trkpt>
      <trkpt lat="28.39804" lon="-10.54259">
        <ele>121</ele>
        <time>2012-05-10T18:15:18Z</time>
      </trkpt>
      <trkpt lat="28.39786" lon="-10.54263">
        <ele>120.6</ele>
        <time>2012-05-10T18:15:23Z</time>
      </trkpt>
      <trkpt lat="28.39766" lon="-10.54265">
        <ele>119.8</ele>
        <time>2012-05-10T18:15:28Z</time>
      </trkpt>
      <trkpt lat="28.39747" lon="-10.54272">
        <ele>117.3</ele>
        <time>2012-05-10T18:15:33Z</time>
      </trkpt>
      <trkpt lat="28.3973" lon="-10.54282">
        <ele>115.9</ele>
        <time>2012-05-10T18:15:38Z</time>
      </trkpt>
      <trkpt lat="28.39711" lon="-10.54279">
        <ele>113.7</ele>
        <time>2012-05-10T18:15:43Z</time>
      </trkpt>
      <trkpt lat="28.39693" lon="-10.54266">
        <ele>113.5</ele>
        <time>2012-05-10T18:15:48Z</time>
      </trkpt>
      <trkpt lat="28.39676" lon="-10.5426">
        <ele>111.4</ele>
        <time>2012-05-10T18:15:53Z</time>
      </trkpt>
      <trkpt lat="28.39656" lon="-10.54265">
        <ele>110.2</ele>
        <time>2012-05-10T18:15:58Z</time>
      </trkpt>
      <trkpt lat="28.39637" lon="-10.54271">
        <ele>108.9</ele>
        <time>2012-05-10T18:16:03Z</time>
      </trkpt>
      <trkpt lat="28.3962" lon="-10.54284">
        <ele>107.7</ele>
        <time>2012-05-10T18:16:08Z</time>
      </trkpt>
      <trkpt lat="28.39602" lon="-10.54293">
        <ele>106.3</ele>
        <time>2012-05-10T18:16:13Z</time>
      </trkpt>
      <trkpt lat="28.39587" lon="-10.54306">
        <ele>105.6</ele>
        <time>2012-05-10T18:16:18Z</time>
      </trkpt>
      <trkpt lat="28.39566" lon="-10.54308">
        <ele>104.3</ele>
        <time>2012-05-10T18:16:23Z</time>
      </trkpt>
      <trkpt lat="28.3955" lon="-10.54297">
        <ele>103.3</ele>
        <time>2012-05-10T18:16:28Z</time>
      </trkpt>
      <trkpt lat="28.39535" lon="-10.54277">
        <ele>102.2</ele>
        <time>2012-05-10T18:16:33Z</time>
      </trkpt>
      <trkpt lat="28.3952" lon="-10.54263">
        <ele>101.3</ele>
        <time>2012-05-10T18:16:38Z</time>
      </trkpt>
      <trkpt lat="28.3951" lon="-10.54246">
        <ele>99.4</ele>
        <time>2012-05-10T18:16:43Z</time>
      </trkpt>
      <trkpt lat="28.39495" lon="-10.54235">
        <ele>98.4</ele>
        <time>2012-05-10T18:16:48Z</time>
      </trkpt>
      <trkpt lat="28.39479" lon="-10.54224">
        <ele>97.3</ele>
        <time>2012-05-10T18:16:53Z</time>
      </trkpt>
      <trkpt lat="28.39442" lon="-10.54184">
        <ele>92.1</ele>
        <time>2012-05-10T18:16:58Z</time>
      </trkpt>
      <trkpt lat="28.3943" lon="-10.54168">
        <ele>90.7</ele>
        <time>2012-05-10T18:17:03Z</time>
      </trkpt>
      <trkpt lat="28.3943" lon="-10.54146">
        <ele>89.1</ele>
        <time>2012-05-10T18:17:08Z</time>
      </trkpt>
      <trkpt lat="28.39448" lon="-10.54137">
        <ele>89.5</ele>
        <time>2012-05-10T18:17:13Z</time>
      </trkpt>
      <trkpt lat="28.39462" lon="-10.54122">
        <ele>90.6</ele>
        <time>2012-05-10T18:17:18Z</time>
      </trkpt>
      <trkpt lat="28.39463" lon="-10.54101">
        <ele>92.2</ele>
        <time>2012-05-10T18:17:23Z</time>
      </trkpt>
      <trkpt lat="28.39457" lon="-10.54081">
        <ele>90.9</ele>
        <time>2012-05-10T18:17:28Z</time>
      </trkpt>
      <trkpt lat="28.39452" lon="-10.54056">
        <ele>90.7</ele>
        <time>2012-05-10T18:17:33Z</time>
      </trkpt>
      <trkpt lat="28.39452" lon="-10.54034">
        <ele>90.4</ele>
        <time>2012-05-10T18:17:38Z</time>
      </trkpt>
      <trkpt lat="28.39451" lon="-10.5401">
        <ele>90.3</ele>
        <time>2012-05-10T18:17:43Z</time>
      </trkpt>
      <trkpt lat="28.39452" lon="-10.53986">
        <ele>90.1</ele>
        <time>2012-05-10T18:17:48Z</time>
      </trkpt>
      <trkpt lat="28.39451" lon="-10.53963">
        <ele>89.1</ele>
        <time>2012-05-10T18:17:53Z</time>
      </trkpt>
      <trkpt lat="28.39438" lon="-10.53948">
        <ele>86.3</ele>
        <time>2012-05-10T18:17:58Z</time>
      </trkpt>
      <trkpt lat="28.3942" lon="-10.53944">
        <ele>85</ele>
        <time>2012-05-10T18:18:03Z</time>
      </trkpt>
      <trkpt lat="28.394" lon="-10.53937">
        <ele>83.1</ele>
        <time>2012-05-10T18:18:08Z</time>
      </trkpt>
      <trkpt lat="28.39382" lon="-10.53927">
        <ele>81.1</ele>
        <time>2012-05-10T18:18:13Z</time>
      </trkpt>
      <trkpt lat="28.39361" lon="-10.53933">
        <ele>79.7</ele>
        <time>2012-05-10T18:18:18Z</time>
      </trkpt>
      <trkpt lat="28.39348" lon="-10.53947">
        <ele>79.5</ele>
        <time>2012-05-10T18:18:23Z</time>
      </trkpt>
      <trkpt lat="28.39331" lon="-10.53961">
        <ele>79.2</ele>
        <time>2012-05-10T18:18:28Z</time>
      </trkpt>
      <trkpt lat="28.39314" lon="-10.5397">
        <ele>77.4</ele>
        <time>2012-05-10T18:18:33Z</time>
      </trkpt>
      <trkpt lat="28.39304" lon="-10.53959">
        <ele>77.1</ele>
        <time>2012-05-10T18:18:38Z</time>
      </trkpt>
      <trkpt lat="28.3931" lon="-10.53935">
        <ele>75.9</ele>
        <time>2012-05-10T18:18:43Z</time>
      </trkpt>
      <trkpt lat="28.39317" lon="-10.53917">
        <ele>76.7</ele>
        <time>2012-05-10T18:18:48Z</time>
      </trkpt>
      <trkpt lat="28.39317" lon="-10.53914">
        <ele>76.4</ele>
        <time>2012-05-10T18:18:53Z</time>
      </trkpt>
      <trkpt lat="28.39317" lon="-10.539">
        <ele>77.5</ele>
        <time>2012-05-10T18:18:58Z</time>
      </trkpt>
      <trkpt lat="28.39316" lon="-10.53885">
        <ele>76.7</ele>
        <time>2012-05-10T18:19:03Z</time>
      </trkpt>
      <trkpt lat="28.3932" lon="-10.53869">
        <ele>77.2</ele>
        <time>2012-05-10T18:19:08Z</time>
      </trkpt>
      <trkpt lat="28.39309" lon="-10.53854">
        <ele>75.4</ele>
        <time>2012-05-10T18:19:13Z</time>
      </trkpt>
      <trkpt lat="28.39293" lon="-10.53843">
        <ele>76.2</ele>
        <time>2012-05-10T18:19:18Z</time>
      </trkpt>
      <trkpt lat="28.39278" lon="-10.53829">
        <ele>77.3</ele>
        <time>2012-05-10T18:19:23Z</time>
      </trkpt>
      <trkpt lat="28.39267" lon="-10.53813">
        <ele>78.2</ele>
        <time>2012-05-10T18:19:28Z</time>
      </trkpt>
      <trkpt lat="28.39256" lon="-10.53795">
        <ele>80.3</ele>
        <time>2012-05-10T18:19:33Z</time>
      </trkpt>
      <trkpt lat="28.39242" lon="-10.5377">
        <ele>84.8</ele>
        <time>2012-05-10T18:19:38Z</time>
      </trkpt>
      <trkpt lat="28.39235" lon="-10.53748">
        <ele>85.9</ele>
        <time>2012-05-10T18:19:43Z</time>
      </trkpt>
      <trkpt lat="28.39226" lon="-10.53716">
        <ele>87.1</ele>
        <time>2012-05-10T18:19:48Z</time>
      </trkpt>
      <trkpt lat="28.39219" lon="-10.53687">
        <ele>87.6</ele>
        <time>2012-05-10T18:19:53Z</time>
      </trkpt>
      <trkpt lat="28.39217" lon="-10.53664">
        <ele>85.1</ele>
        <time>2012-05-10T18:19:58Z</time>
      </trkpt>
      <trkpt lat="28.39216" lon="-10.5364">
        <ele>84.1</ele>
        <time>2012-05-10T18:20:03Z</time>
      </trkpt>
      <trkpt lat="28.39219" lon="-10.53619">
        <ele>87.4</ele>
        <time>2012-05-10T18:20:08Z</time>
      </trkpt>
      <trkpt lat="28.39216" lon="-10.53599">
        <ele>89</ele>
        <time>2012-05-10T18:20:13Z</time>
      </trkpt>
      <trkpt lat="28.39204" lon="-10.53611">
        <ele>88.6</ele>
        <time>2012-05-10T18:20:18Z</time>
      </trkpt>
      <trkpt lat="28.39198" lon="-10.53633">
        <ele>86.8</ele>
        <time>2012-05-10T18:20:23Z</time>
      </trkpt>
      <trkpt lat="28.39187" lon="-10.53652">
        <ele>86.8</ele>
        <time>2012-05-10T18:20:28Z</time>
      </trkpt>
      <trkpt lat="28.39175" lon="-10.53669">
        <ele>88.7</ele>
        <time>2012-05-10T18:20:33Z</time>
      </trkpt>
      <trkpt lat="28.39162" lon="-10.53685">
        <ele>88.3</ele>
        <time>2012-05-10T18:20:38Z</time>
      </trkpt>
      <trkpt lat="28.39146" lon="-10.53694">
        <ele>85.7</ele>
        <time>2012-05-10T18:20:43Z</time>
      </trkpt>
      <trkpt lat="28.3913" lon="-10.53699">
        <ele>86.6</ele>
        <time>2012-05-10T18:20:48Z</time>
      </trkpt>
      <trkpt lat="28.39117" lon="-10.53685">
        <ele>84.2</ele>
        <time>2012-05-10T18:20:53Z</time>
      </trkpt>
      <trkpt lat="28.39101" lon="-10.53674">
        <ele>86</ele>
        <time>2012-05-10T18:20:58Z</time>
      </trkpt>
      <trkpt lat="28.39085" lon="-10.53665">
        <ele>86.6</ele>
        <time>2012-05-10T18:21:03Z</time>
      </trkpt>
      <trkpt lat="28.39067" lon="-10.53663">
        <ele>88.5</ele>
        <time>2012-05-10T18:21:08Z</time>
      </trkpt>
      <trkpt lat="28.39058" lon="-10.5368">
        <ele>89.7</ele>
        <time>2012-05-10T18:21:13Z</time>
      </trkpt>
      <trkpt lat="28.3905" lon="-10.53701">
        <ele>89.5</ele>
        <time>2012-05-10T18:21:18Z</time>
      </trkpt>
      <trkpt lat="28.39044" lon="-10.53724">
        <ele>89.6</ele>
        <time>2012-05-10T18:21:23Z</time>
      </trkpt>
      <trkpt lat="28.39045" lon="-10.53746">
        <ele>89.2</ele>
        <time>2012-05-10T18:21:28Z</time>
      </trkpt>
      <trkpt lat="28.39044" lon="-10.53769">
        <ele>90.5</ele>
        <time>2012-05-10T18:21:33Z</time>
      </trkpt>
      <trkpt lat="28.39043" lon="-10.53792">
        <ele>90.4</ele>
        <time>2012-05-10T18:21:38Z</time>
      </trkpt>
      <trkpt lat="28.39033" lon="-10.53809">
        <ele>88.7</ele>
        <time>2012-05-10T18:21:43Z</time>
      </trkpt>
      <trkpt lat="28.39025" lon="-10.5383">
        <ele>89.7</ele>
        <time>2012-05-10T18:21:48Z</time>
      </trkpt>
      <trkpt lat="28.39017" lon="-10.53849">
        <ele>93.6</ele>
        <time>2012-05-10T18:21:53Z</time>
      </trkpt>
      <trkpt lat="28.39002" lon="-10.53861">
        <ele>98.7</ele>
        <time>2012-05-10T18:21:58Z</time>
      </trkpt>
      <trkpt lat="28.38983" lon="-10.53865">
        <ele>97.4</ele>
        <time>2012-05-10T18:22:03Z</time>
      </trkpt>
      <trkpt lat="28.38959" lon="-10.53867">
        <ele>97.9</ele>
        <time>2012-05-10T18:22:08Z</time>
      </trkpt>
      <trkpt lat="28.38939" lon="-10.53859">
        <ele>97.4</ele>
        <time>2012-05-10T18:22:13Z</time>
      </trkpt>
      <trkpt lat="28.3892" lon="-10.53847">
        <ele>96.9</ele>
        <time>2012-05-10T18:22:18Z</time>
      </trkpt>
      <trkpt lat="28.38902" lon="-10.53852">
        <ele>96.9</ele>
        <time>2012-05-10T18:22:23Z</time>
      </trkpt>
      <trkpt lat="28.38894" lon="-10.5387">
        <ele>98.1</ele>
        <time>2012-05-10T18:22:28Z</time>
      </trkpt>
      <trkpt lat="28.3889" lon="-10.53892">
        <ele>99.6</ele>
        <time>2012-05-10T18:22:33Z</time>
      </trkpt>
      <trkpt lat="28.38879" lon="-10.53912">
        <ele>98.7</ele>
        <time>2012-05-10T18:22:38Z</time>
      </trkpt>
      <trkpt lat="28.38864" lon="-10.5393">
        <ele>99.8</ele>
        <time>2012-05-10T18:22:43Z</time>
      </trkpt>
      <trkpt lat="28.38848" lon="-10.53952">
        <ele>101.7</ele>
        <time>2012-05-10T18:22:48Z</time>
      </trkpt>
      <trkpt lat="28.38836" lon="-10.5397">
        <ele>102.9</ele>
        <time>2012-05-10T18:22:53Z</time>
      </trkpt>
      <trkpt lat="28.38821" lon="-10.53984">
        <ele>104.7</ele>
        <time>2012-05-10T18:22:58Z</time>
      </trkpt>
      <trkpt lat="28.38809" lon="-10.54001">
        <ele>105.6</ele>
        <time>2012-05-10T18:23:03Z</time>
      </trkpt>
      <trkpt lat="28.38793" lon="-10.5403">
        <ele>106.1</ele>
        <time>2012-05-10T18:23:08Z</time>
      </trkpt>
      <trkpt lat="28.3879" lon="-10.54056">
        <ele>107.8</ele>
        <time>2012-05-10T18:23:13Z</time>
      </trkpt>
      <trkpt lat="28.38787" lon="-10.54078">
        <ele>109.9</ele>
        <time>2012-05-10T18:23:18Z</time>
      </trkpt>
      <trkpt lat="28.38768" lon="-10.54086">
        <ele>113.1</ele>
        <time>2012-05-10T18:23:23Z</time>
      </trkpt>
      <trkpt lat="28.38748" lon="-10.54087">
        <ele>116.7</ele>
        <time>2012-05-10T18:23:28Z</time>
      </trkpt>
      <trkpt lat="28.38733" lon="-10.54094">
        <ele>122.2</ele>
        <time>2012-05-10T18:23:33Z</time>
      </trkpt>
      <trkpt lat="28.38739" lon="-10.54092">
        <ele>120.6</ele>
        <time>2012-05-10T18:23:38Z</time>
      </trkpt>
      <trkpt lat="28.38744" lon="-10.5409">
        <ele>120.3</ele>
        <time>2012-05-10T18:23:43Z</time>
      </trkpt>
      <trkpt lat="28.38729" lon="-10.54102">
        <ele>125.8</ele>
        <time>2012-05-10T18:23:48Z</time>
      </trkpt>
      <trkpt lat="28.38727" lon="-10.54122">
        <ele>128.6</ele>
        <time>2012-05-10T18:23:53Z</time>
      </trkpt>
      <trkpt lat="28.38722" lon="-10.54144">
        <ele>132.5</ele>
        <time>2012-05-10T18:23:58Z</time>
      </trkpt>
      <trkpt lat="28.38714" lon="-10.54166">
        <ele>137.3</ele>
        <time>2012-05-10T18:24:03Z</time>
      </trkpt>
      <trkpt lat="28.38709" lon="-10.54187">
        <ele>141.7</ele>
        <time>2012-05-10T18:24:08Z</time>
      </trkpt>
      <trkpt lat="28.38702" lon="-10.54211">
        <ele>146.6</ele>
        <time>2012-05-10T18:24:13Z</time>
      </trkpt>
      <trkpt lat="28.38694" lon="-10.54237">
        <ele>150.3</ele>
        <time>2012-05-10T18:24:18Z</time>
      </trkpt>
      <trkpt lat="28.38681" lon="-10.54252">
        <ele>154.6</ele>
        <time>2012-05-10T18:24:23Z</time>
      </trkpt>
      <trkpt lat="28.38667" lon="-10.54266">
        <ele>157</ele>
        <time>2012-05-10T18:24:28Z</time>
      </trkpt>
      <trkpt lat="28.38652" lon="-10.54282">
        <ele>160.7</ele>
        <time>2012-05-10T18:24:33Z</time>
      </trkpt>
      <trkpt lat="28.38634" lon="-10.54288">
        <ele>164.4</ele>
        <time>2012-05-10T18:24:38Z</time>
      </trkpt>
      <trkpt lat="28.38616" lon="-10.54278">
        <ele>167.1</ele>
        <time>2012-05-10T18:24:43Z</time>
      </trkpt>
      <trkpt lat="28.38601" lon="-10.54266">
        <ele>168.3</ele>
        <time>2012-05-10T18:24:48Z</time>
      </trkpt>
      <trkpt lat="28.38584" lon="-10.54266">
        <ele>169.3</ele>
        <time>2012-05-10T18:24:53Z</time>
      </trkpt>
      <trkpt lat="28.3857" lon="-10.54281">
        <ele>171</ele>
        <time>2012-05-10T18:24:58Z</time>
      </trkpt>
      <trkpt lat="28.38553" lon="-10.54295">
        <ele>171.7</ele>
        <time>2012-05-10T18:25:03Z</time>
      </trkpt>
      <trkpt lat="28.38534" lon="-10.54295">
        <ele>172.2</ele>
        <time>2012-05-10T18:25:08Z</time>
      </trkpt>
      <trkpt lat="28.38516" lon="-10.54296">
        <ele>172.4</ele>
        <time>2012-05-10T18:25:13Z</time>
      </trkpt>
      <trkpt lat="28.38515" lon="-10.54297">
        <ele>171.4</ele>
        <time>2012-05-10T18:25:18Z</time>
      </trkpt>
      <trkpt lat="28.38487" lon="-10.54298">
        <ele>171.9</ele>
        <time>2012-05-10T18:25:23Z</time>
      </trkpt>
      <trkpt lat="28.38468" lon="-10.54294">
        <ele>172.2</ele>
        <time>2012-05-10T18:25:28Z</time>
      </trkpt>
      <trkpt lat="28.38445" lon="-10.54292">
        <ele>172.6</ele>
        <time>2012-05-10T18:25:33Z</time>
      </trkpt>
      <trkpt lat="28.38416" lon="-10.54292">
        <ele>173</ele>
        <time>2012-05-10T18:25:38Z</time>
      </trkpt>
      <trkpt lat="28.38398" lon="-10.5429">
        <ele>173.2</ele>
        <time>2012-05-10T18:25:43Z</time>
      </trkpt>
      <trkpt lat="28.38375" lon="-10.54293">
        <ele>173.5</ele>
        <time>2012-05-10T18:25:48Z</time>
      </trkpt>
      <trkpt lat="28.38355" lon="-10.54292">
        <ele>173.7</ele>
        <time>2012-05-10T18:25:53Z</time>
      </trkpt>
      <trkpt lat="28.38333" lon="-10.54291">
        <ele>173.8</ele>
        <time>2012-05-10T18:25:58Z</time>
      </trkpt>
      <trkpt lat="28.38314" lon="-10.54296">
        <ele>174</ele>
        <time>2012-05-10T18:26:03Z</time>
      </trkpt>
      <trkpt lat="28.38288" lon="-10.54314">
        <ele>173.5</ele>
        <time>2012-05-10T18:26:08Z</time>
      </trkpt>
      <trkpt lat="28.38268" lon="-10.54316">
        <ele>173.6</ele>
        <time>2012-05-10T18:26:13Z</time>
      </trkpt>
      <trkpt lat="28.38247" lon="-10.54313">
        <ele>173.9</ele>
        <time>2012-05-10T18:26:18Z</time>
      </trkpt>
      <trkpt lat="28.38228" lon="-10.54314">
        <ele>174</ele>
        <time>2012-05-10T18:26:23Z</time>
      </trkpt>
      <trkpt lat="28.3818" lon="-10.54316">
        <ele>174.4</ele>
        <time>2012-05-10T18:26:28Z</time>
      </trkpt>
      <trkpt lat="28.3816" lon="-10.54318">
        <ele>174.5</ele>
        <time>2012-05-10T18:26:33Z</time>
      </trkpt>
      <trkpt lat="28.38141" lon="-10.54323">
        <ele>174.8</ele>
        <time>2012-05-10T18:26:38Z</time>
      </trkpt>
      <trkpt lat="28.38107" lon="-10.54334">
        <ele>175.2</ele>
        <time>2012-05-10T18:26:43Z</time>
      </trkpt>
      <trkpt lat="28.38076" lon="-10.54342">
        <ele>176.1</ele>
        <time>2012-05-10T18:26:48Z</time>
      </trkpt>
      <trkpt lat="28.38055" lon="-10.54342">
        <ele>176.9</ele>
        <time>2012-05-10T18:26:53Z</time>
      </trkpt>
      <trkpt lat="28.38036" lon="-10.54342">
        <ele>177.2</ele>
        <time>2012-05-10T18:26:58Z</time>
      </trkpt>
      <trkpt lat="28.38016" lon="-10.54348">
        <ele>176.8</ele>
        <time>2012-05-10T18:27:03Z</time>
      </trkpt>
      <trkpt lat="28.37991" lon="-10.54354">
        <ele>176.6</ele>
        <time>2012-05-10T18:27:08Z</time>
      </trkpt>
      <trkpt lat="28.37973" lon="-10.54359">
        <ele>176.7</ele>
        <time>2012-05-10T18:27:13Z</time>
      </trkpt>
      <trkpt lat="28.37935" lon="-10.54369">
        <ele>177.1</ele>
        <time>2012-05-10T18:27:18Z</time>
      </trkpt>
      <trkpt lat="28.37916" lon="-10.54372">
        <ele>177.8</ele>
        <time>2012-05-10T18:27:23Z</time>
      </trkpt>
      <trkpt lat="28.3789" lon="-10.54371">
        <ele>178.2</ele>
        <time>2012-05-10T18:27:28Z</time>
      </trkpt>
      <trkpt lat="28.37867" lon="-10.54371">
        <ele>178.6</ele>
        <time>2012-05-10T18:27:33Z</time>
      </trkpt>
      <trkpt lat="28.37845" lon="-10.54373">
        <ele>179.1</ele>
        <time>2012-05-10T18:27:38Z</time>
      </trkpt>
      <trkpt lat="28.37808" lon="-10.54375">
        <ele>179.3</ele>
        <time>2012-05-10T18:27:43Z</time>
      </trkpt>
      <trkpt lat="28.37783" lon="-10.54376">
        <ele>179.4</ele>
        <time>2012-05-10T18:27:48Z</time>
      </trkpt>
      <trkpt lat="28.37743" lon="-10.54381">
        <ele>179.3</ele>
        <time>2012-05-10T18:27:53Z</time>
      </trkpt>
      <trkpt lat="28.37725" lon="-10.54393">
        <ele>178.7</ele>
        <time>2012-05-10T18:27:58Z</time>
      </trkpt>
      <trkpt lat="28.3772" lon="-10.54413">
        <ele>178.5</ele>
        <time>2012-05-10T18:28:03Z</time>
      </trkpt>
      <trkpt lat="28.37707" lon="-10.54428">
        <ele>176.3</ele>
        <time>2012-05-10T18:28:08Z</time>
      </trkpt>
      <trkpt lat="28.37693" lon="-10.54448">
        <ele>174.4</ele>
        <time>2012-05-10T18:28:13Z</time>
      </trkpt>
      <trkpt lat="28.3768" lon="-10.54462">
        <ele>172.3</ele>
        <time>2012-05-10T18:28:18Z</time>
      </trkpt>
      <trkpt lat="28.37664" lon="-10.54478">
        <ele>169.2</ele>
        <time>2012-05-10T18:28:23Z</time>
      </trkpt>
      <trkpt lat="28.37647" lon="-10.54491">
        <ele>166.8</ele>
        <time>2012-05-10T18:28:28Z</time>
      </trkpt>
      <trkpt lat="28.37638" lon="-10.5451">
        <ele>166.1</ele>
        <time>2012-05-10T18:28:33Z</time>
      </trkpt>
      <trkpt lat="28.37628" lon="-10.54533">
        <ele>163.8</ele>
        <time>2012-05-10T18:28:38Z</time>
      </trkpt>
      <trkpt lat="28.37614" lon="-10.5455">
        <ele>161.9</ele>
        <time>2012-05-10T18:28:43Z</time>
      </trkpt>
      <trkpt lat="28.37593" lon="-10.54567">
        <ele>157.3</ele>
        <time>2012-05-10T18:28:48Z</time>
      </trkpt>
      <trkpt lat="28.3759" lon="-10.54592">
        <ele>155.2</ele>
        <time>2012-05-10T18:28:53Z</time>
      </trkpt>
      <trkpt lat="28.37589" lon="-10.54618">
        <ele>155.8</ele>
        <time>2012-05-10T18:28:58Z</time>
      </trkpt>
      <trkpt lat="28.37585" lon="-10.54638">
        <ele>156.6</ele>
        <time>2012-05-10T18:29:03Z</time>
      </trkpt>
      <trkpt lat="28.3758" lon="-10.5466">
        <ele>156.8</ele>
        <time>2012-05-10T18:29:08Z</time>
      </trkpt>
      <trkpt lat="28.37569" lon="-10.54678">
        <ele>157.7</ele>
        <time>2012-05-10T18:29:13Z</time>
      </trkpt>
      <trkpt lat="28.37554" lon="-10.54696">
        <ele>158.4</ele>
        <time>2012-05-10T18:29:18Z</time>
      </trkpt>
      <trkpt lat="28.37544" lon="-10.54714">
        <ele>160.5</ele>
        <time>2012-05-10T18:29:23Z</time>
      </trkpt>
      <trkpt lat="28.37528" lon="-10.54728">
        <ele>164</ele>
        <time>2012-05-10T18:29:28Z</time>
      </trkpt>
      <trkpt lat="28.37507" lon="-10.54736">
        <ele>162.2</ele>
        <time>2012-05-10T18:29:33Z</time>
      </trkpt>
      <trkpt lat="28.3749" lon="-10.54744">
        <ele>160.6</ele>
        <time>2012-05-10T18:29:38Z</time>
      </trkpt>
      <trkpt lat="28.37478" lon="-10.54765">
        <ele>157.8</ele>
        <time>2012-05-10T18:29:43Z</time>
      </trkpt>
      <trkpt lat="28.37468" lon="-10.54783">
        <ele>158.6</ele>
        <time>2012-05-10T18:29:48Z</time>
      </trkpt>
      <trkpt lat="28.37469" lon="-10.54806">
        <ele>158.7</ele>
        <time>2012-05-10T18:29:53Z</time>
      </trkpt>
      <trkpt lat="28.37474" lon="-10.54827">
        <ele>158</ele>
        <time>2012-05-10T18:29:58Z</time>
      </trkpt>
      <trkpt lat="28.3747" lon="-10.54817">
        <ele>158.2</ele>
        <time>2012-05-10T18:30:03Z</time>
      </trkpt>
      <trkpt lat="28.37469" lon="-10.54795">
        <ele>157.6</ele>
        <time>2012-05-10T18:30:08Z</time>
      </trkpt>
      <trkpt lat="28.37467" lon="-10.54773">
        <ele>156.5</ele>
        <time>2012-05-10T18:30:13Z</time>
      </trkpt>
      <trkpt lat="28.37457" lon="-10.54756">
        <ele>157</ele>
        <time>2012-05-10T18:30:18Z</time>
      </trkpt>
      <trkpt lat="28.37442" lon="-10.54758">
        <ele>158.6</ele>
        <time>2012-05-10T18:30:23Z</time>
      </trkpt>
      <trkpt lat="28.37425" lon="-10.54773">
        <ele>161.8</ele>
        <time>2012-05-10T18:30:28Z</time>
      </trkpt>
      <trkpt lat="28.37408" lon="-10.54783">
        <ele>161.8</ele>
        <time>2012-05-10T18:30:33Z</time>
      </trkpt>
      <trkpt lat="28.37387" lon="-10.54782">
        <ele>159.9</ele>
        <time>2012-05-10T18:30:38Z</time>
      </trkpt>
      <trkpt lat="28.37369" lon="-10.54781">
        <ele>156.7</ele>
        <time>2012-05-10T18:30:43Z</time>
      </trkpt>
      <trkpt lat="28.37357" lon="-10.54805">
        <ele>157.7</ele>
        <time>2012-05-10T18:30:48Z</time>
      </trkpt>
      <trkpt lat="28.37349" lon="-10.54825">
        <ele>158.4</ele>
        <time>2012-05-10T18:30:53Z</time>
      </trkpt>
      <trkpt lat="28.37334" lon="-10.54844">
        <ele>157.7</ele>
        <time>2012-05-10T18:30:58Z</time>
      </trkpt>
      <trkpt lat="28.37314" lon="-10.54855">
        <ele>158.9</ele>
        <time>2012-05-10T18:31:03Z</time>
      </trkpt>
      <trkpt lat="28.37298" lon="-10.54864">
        <ele>158.5</ele>
        <time>2012-05-10T18:31:08Z</time>
      </trkpt>
      <trkpt lat="28.37278" lon="-10.54872">
        <ele>157.4</ele>
        <time>2012-05-10T18:31:13Z</time>
      </trkpt>
      <trkpt lat="28.3726" lon="-10.54875">
        <ele>158</ele>
        <time>2012-05-10T18:31:18Z</time>
      </trkpt>
      <trkpt lat="28.3724" lon="-10.54879">
        <ele>160.4</ele>
        <time>2012-05-10T18:31:23Z</time>
      </trkpt>
      <trkpt lat="28.37218" lon="-10.54898">
        <ele>162</ele>
        <time>2012-05-10T18:31:28Z</time>
      </trkpt>
      <trkpt lat="28.372" lon="-10.54914">
        <ele>162.7</ele>
        <time>2012-05-10T18:31:33Z</time>
      </trkpt>
      <trkpt lat="28.37181" lon="-10.54927">
        <ele>162.8</ele>
        <time>2012-05-10T18:31:38Z</time>
      </trkpt>
      <trkpt lat="28.37158" lon="-10.54938">
        <ele>163.6</ele>
        <time>2012-05-10T18:31:43Z</time>
      </trkpt>
      <trkpt lat="28.3714" lon="-10.54942">
        <ele>164.5</ele>
        <time>2012-05-10T18:31:48Z</time>
      </trkpt>
      <trkpt lat="28.37113" lon="-10.54944">
        <ele>165.6</ele>
        <time>2012-05-10T18:31:53Z</time>
      </trkpt>
      <trkpt lat="28.37094" lon="-10.54943">
        <ele>166.5</ele>
        <time>2012-05-10T18:31:58Z</time>
      </trkpt>
      <trkpt lat="28.37075" lon="-10.54939">
        <ele>167.4</ele>
        <time>2012-05-10T18:32:03Z</time>
      </trkpt>
      <trkpt lat="28.37046" lon="-10.54935">
        <ele>169.7</ele>
        <time>2012-05-10T18:32:08Z</time>
      </trkpt>
      <trkpt lat="28.37012" lon="-10.54932">
        <ele>171.8</ele>
        <time>2012-05-10T18:32:13Z</time>
      </trkpt>
      <trkpt lat="28.36988" lon="-10.54937">
        <ele>172.7</ele>
        <time>2012-05-10T18:32:18Z</time>
      </trkpt>
      <trkpt lat="28.36966" lon="-10.54949">
        <ele>173.4</ele>
        <time>2012-05-10T18:32:23Z</time>
      </trkpt>
      <trkpt lat="28.36952" lon="-10.54969">
        <ele>174</ele>
        <time>2012-05-10T18:32:28Z</time>
      </trkpt>
      <trkpt lat="28.36947" lon="-10.54994">
        <ele>173.2</ele>
        <time>2012-05-10T18:32:33Z</time>
      </trkpt>
      <trkpt lat="28.36952" lon="-10.5502">
        <ele>171.1</ele>
        <time>2012-05-10T18:32:38Z</time>
      </trkpt>
      <trkpt lat="28.36948" lon="-10.55045">
        <ele>170.9</ele>
        <time>2012-05-10T18:32:43Z</time>
      </trkpt>
      <trkpt lat="28.36939" lon="-10.5507">
        <ele>171.3</ele>
        <time>2012-05-10T18:32:48Z</time>
      </trkpt>
      <trkpt lat="28.36931" lon="-10.55101">
        <ele>171.2</ele>
        <time>2012-05-10T18:32:53Z</time>
      </trkpt>
      <trkpt lat="28.36918" lon="-10.55119">
        <ele>172.3</ele>
        <time>2012-05-10T18:32:58Z</time>
      </trkpt>
      <trkpt lat="28.36902" lon="-10.55138">
        <ele>172.5</ele>
        <time>2012-05-10T18:33:03Z</time>
      </trkpt>
      <trkpt lat="28.36885" lon="-10.55151">
        <ele>173.6</ele>
        <time>2012-05-10T18:33:08Z</time>
      </trkpt>
      <trkpt lat="28.36864" lon="-10.55159">
        <ele>173.9</ele>
        <time>2012-05-10T18:33:13Z</time>
      </trkpt>
      <trkpt lat="28.36847" lon="-10.55174">
        <ele>173.6</ele>
        <time>2012-05-10T18:33:18Z</time>
      </trkpt>
      <trkpt lat="28.36834" lon="-10.55195">
        <ele>174</ele>
        <time>2012-05-10T18:33:23Z</time>
      </trkpt>
      <trkpt lat="28.36815" lon="-10.55212">
        <ele>175.4</ele>
        <time>2012-05-10T18:33:28Z</time>
      </trkpt>
      <trkpt lat="28.36797" lon="-10.55221">
        <ele>176.4</ele>
        <time>2012-05-10T18:33:33Z</time>
      </trkpt>
      <trkpt lat="28.36777" lon="-10.55231">
        <ele>176</ele>
        <time>2012-05-10T18:33:38Z</time>
      </trkpt>
      <trkpt lat="28.36754" lon="-10.55237">
        <ele>174.8</ele>
        <time>2012-05-10T18:33:43Z</time>
      </trkpt>
      <trkpt lat="28.36731" lon="-10.5524">
        <ele>173.7</ele>
        <time>2012-05-10T18:33:48Z</time>
      </trkpt>
      <trkpt lat="28.36711" lon="-10.55235">
        <ele>171.8</ele>
        <time>2012-05-10T18:33:53Z</time>
      </trkpt>
      <trkpt lat="28.36691" lon="-10.55247">
        <ele>172.3</ele>
        <time>2012-05-10T18:33:58Z</time>
      </trkpt>
      <trkpt lat="28.36678" lon="-10.55265">
        <ele>171.8</ele>
        <time>2012-05-10T18:34:03Z</time>
      </trkpt>
      <trkpt lat="28.36663" lon="-10.55277">
        <ele>171.3</ele>
        <time>2012-05-10T18:34:08Z</time>
      </trkpt>
      <trkpt lat="28.36647" lon="-10.55271">
        <ele>171.1</ele>
        <time>2012-05-10T18:34:13Z</time>
      </trkpt>
      <trkpt lat="28.36635" lon="-10.55254">
        <ele>171.3</ele>
        <time>2012-05-10T18:34:18Z</time>
      </trkpt>
      <trkpt lat="28.36612" lon="-10.55248">
        <ele>171.6</ele>
        <time>2012-05-10T18:34:23Z</time>
      </trkpt>
      <trkpt lat="28.36594" lon="-10.55244">
        <ele>170.2</ele>
        <time>2012-05-10T18:34:28Z</time>
      </trkpt>
      <trkpt lat="28.3657" lon="-10.55244">
        <ele>169.5</ele>
        <time>2012-05-10T18:34:33Z</time>
      </trkpt>
      <trkpt lat="28.3655" lon="-10.55239">
        <ele>169.3</ele>
        <time>2012-05-10T18:34:38Z</time>
      </trkpt>
      <trkpt lat="28.36529" lon="-10.55228">
        <ele>169.9</ele>
        <time>2012-05-10T18:34:43Z</time>
      </trkpt>
      <trkpt lat="28.36511" lon="-10.55224">
        <ele>170.3</ele>
        <time>2012-05-10T18:34:48Z</time>
      </trkpt>
      <trkpt lat="28.36493" lon="-10.55233">
        <ele>169.9</ele>
        <time>2012-05-10T18:34:53Z</time>
      </trkpt>
      <trkpt lat="28.36473" lon="-10.55236">
        <ele>171.8</ele>
        <time>2012-05-10T18:34:58Z</time>
      </trkpt>
      <trkpt lat="28.36452" lon="-10.5524">
        <ele>173.6</ele>
        <time>2012-05-10T18:35:03Z</time>
      </trkpt>
      <trkpt lat="28.36421" lon="-10.55248">
        <ele>176.3</ele>
        <time>2012-05-10T18:35:08Z</time>
      </trkpt>
      <trkpt lat="28.36403" lon="-10.55256">
        <ele>177.1</ele>
        <time>2012-05-10T18:35:13Z</time>
      </trkpt>
      <trkpt lat="28.36387" lon="-10.55267">
        <ele>177.6</ele>
        <time>2012-05-10T18:35:18Z</time>
      </trkpt>
      <trkpt lat="28.36369" lon="-10.55281">
        <ele>178.8</ele>
        <time>2012-05-10T18:35:23Z</time>
      </trkpt>
      <trkpt lat="28.36356" lon="-10.55303">
        <ele>179.5</ele>
        <time>2012-05-10T18:35:28Z</time>
      </trkpt>
      <trkpt lat="28.36349" lon="-10.55324">
        <ele>179.8</ele>
        <time>2012-05-10T18:35:33Z</time>
      </trkpt>
      <trkpt lat="28.36342" lon="-10.55347">
        <ele>180.9</ele>
        <time>2012-05-10T18:35:38Z</time>
      </trkpt>
      <trkpt lat="28.36335" lon="-10.55371">
        <ele>182.4</ele>
        <time>2012-05-10T18:35:43Z</time>
      </trkpt>
      <trkpt lat="28.36327" lon="-10.55391">
        <ele>183.4</ele>
        <time>2012-05-10T18:35:48Z</time>
      </trkpt>
      <trkpt lat="28.36316" lon="-10.55415">
        <ele>184.4</ele>
        <time>2012-05-10T18:35:53Z</time>
      </trkpt>
      <trkpt lat="28.36298" lon="-10.5546">
        <ele>187.4</ele>
        <time>2012-05-10T18:35:58Z</time>
      </trkpt>
      <trkpt lat="28.36289" lon="-10.55482">
        <ele>188.4</ele>
        <time>2012-05-10T18:36:03Z</time>
      </trkpt>
      <trkpt lat="28.36283" lon="-10.55502">
        <ele>188.5</ele>
        <time>2012-05-10T18:36:08Z</time>
      </trkpt>
      <trkpt lat="28.36278" lon="-10.55527">
        <ele>189</ele>
        <time>2012-05-10T18:36:13Z</time>
      </trkpt>
      <trkpt lat="28.36274" lon="-10.55551">
        <ele>189.2</ele>
        <time>2012-05-10T18:36:18Z</time>
      </trkpt>
      <trkpt lat="28.36268" lon="-10.55572">
        <ele>188.1</ele>
        <time>2012-05-10T18:36:23Z</time>
      </trkpt>
      <trkpt lat="28.36267" lon="-10.55593">
        <ele>188</ele>
        <time>2012-05-10T18:36:28Z</time>
      </trkpt>
      <trkpt lat="28.36275" lon="-10.55622">
        <ele>186.4</ele>
        <time>2012-05-10T18:36:33Z</time>
      </trkpt>
      <trkpt lat="28.36273" lon="-10.55646">
        <ele>187.5</ele>
        <time>2012-05-10T18:36:38Z</time>
      </trkpt>
      <trkpt lat="28.36263" lon="-10.55664">
        <ele>190</ele>
        <time>2012-05-10T18:36:43Z</time>
      </trkpt>
      <trkpt lat="28.36254" lon="-10.55684">
        <ele>192</ele>
        <time>2012-05-10T18:36:48Z</time>
      </trkpt>
      <trkpt lat="28.36245" lon="-10.55706">
        <ele>193</ele>
        <time>2012-05-10T18:36:53Z</time>
      </trkpt>
      <trkpt lat="28.36236" lon="-10.5573">
        <ele>193.9</ele>
        <time>2012-05-10T18:36:58Z</time>
      </trkpt>
      <trkpt lat="28.36227" lon="-10.55753">
        <ele>194.3</ele>
        <time>2012-05-10T18:37:03Z</time>
      </trkpt>
      <trkpt lat="28.36215" lon="-10.55773">
        <ele>194.7</ele>
        <time>2012-05-10T18:37:08Z</time>
      </trkpt>
      <trkpt lat="28.36197" lon="-10.55801">
        <ele>194.5</ele>
        <time>2012-05-10T18:37:13Z</time>
      </trkpt>
      <trkpt lat="28.36177" lon="-10.55828">
        <ele>194.6</ele>
        <time>2012-05-10T18:37:18Z</time>
      </trkpt>
      <trkpt lat="28.36165" lon="-10.55848">
        <ele>195</ele>
        <time>2012-05-10T18:37:23Z</time>
      </trkpt>
      <trkpt lat="28.36153" lon="-10.55865">
        <ele>194.7</ele>
        <time>2012-05-10T18:37:28Z</time>
      </trkpt>
      <trkpt lat="28.36145" lon="-10.55888">
        <ele>194.7</ele>
        <time>2012-05-10T18:37:33Z</time>
      </trkpt>
      <trkpt lat="28.3613" lon="-10.5591">
        <ele>195.3</ele>
        <time>2012-05-10T18:37:38Z</time>
      </trkpt>
      <trkpt lat="28.36116" lon="-10.55924">
        <ele>196.1</ele>
        <time>2012-05-10T18:37:43Z</time>
      </trkpt>
      <trkpt lat="28.36104" lon="-10.55939">
        <ele>195.4</ele>
        <time>2012-05-10T18:37:48Z</time>
      </trkpt>
      <trkpt lat="28.36093" lon="-10.55955">
        <ele>194.2</ele>
        <time>2012-05-10T18:37:53Z</time>
      </trkpt>
      <trkpt lat="28.36069" lon="-10.55982">
        <ele>195.1</ele>
        <time>2012-05-10T18:37:58Z</time>
      </trkpt>
      <trkpt lat="28.36058" lon="-10.56002">
        <ele>197.3</ele>
        <time>2012-05-10T18:38:03Z</time>
      </trkpt>
      <trkpt lat="28.36043" lon="-10.56017">
        <ele>197.7</ele>
        <time>2012-05-10T18:38:08Z</time>
      </trkpt>
      <trkpt lat="28.36031" lon="-10.56036">
        <ele>197.6</ele>
        <time>2012-05-10T18:38:13Z</time>
      </trkpt>
      <trkpt lat="28.36026" lon="-10.5606">
        <ele>198.6</ele>
        <time>2012-05-10T18:38:18Z</time>
      </trkpt>
      <trkpt lat="28.36019" lon="-10.56084">
        <ele>200.1</ele>
        <time>2012-05-10T18:38:23Z</time>
      </trkpt>
      <trkpt lat="28.36022" lon="-10.56104">
        <ele>198.8</ele>
        <time>2012-05-10T18:38:28Z</time>
      </trkpt>
      <trkpt lat="28.36024" lon="-10.56128">
        <ele>196.5</ele>
        <time>2012-05-10T18:38:33Z</time>
      </trkpt>
      <trkpt lat="28.36024" lon="-10.56151">
        <ele>195.4</ele>
        <time>2012-05-10T18:38:38Z</time>
      </trkpt>
      <trkpt lat="28.36025" lon="-10.56172">
        <ele>195</ele>
        <time>2012-05-10T18:38:43Z</time>
      </trkpt>
      <trkpt lat="28.36035" lon="-10.56189">
        <ele>194</ele>
        <time>2012-05-10T18:38:48Z</time>
      </trkpt>
      <trkpt lat="28.36043" lon="-10.56207">
        <ele>194</ele>
        <time>2012-05-10T18:38:53Z</time>
      </trkpt>
      <trkpt lat="28.36035" lon="-10.56227">
        <ele>194.9</ele>
        <time>2012-05-10T18:38:58Z</time>
      </trkpt>
      <trkpt lat="28.36028" lon="-10.56247">
        <ele>195.7</ele>
        <time>2012-05-10T18:39:03Z</time>
      </trkpt>
      <trkpt lat="28.36028" lon="-10.56273">
        <ele>196</ele>
        <time>2012-05-10T18:39:08Z</time>
      </trkpt>
      <trkpt lat="28.36018" lon="-10.56295">
        <ele>197.6</ele>
        <time>2012-05-10T18:39:13Z</time>
      </trkpt>
      <trkpt lat="28.36008" lon="-10.56314">
        <ele>199.2</ele>
        <time>2012-05-10T18:39:18Z</time>
      </trkpt>
      <trkpt lat="28.36003" lon="-10.56335">
        <ele>201.3</ele>
        <time>2012-05-10T18:39:23Z</time>
      </trkpt>
      <trkpt lat="28.35998" lon="-10.56356">
        <ele>203.5</ele>
        <time>2012-05-10T18:39:28Z</time>
      </trkpt>
      <trkpt lat="28.3599" lon="-10.56377">
        <ele>205.2</ele>
        <time>2012-05-10T18:39:33Z</time>
      </trkpt>
      <trkpt lat="28.35982" lon="-10.56401">
        <ele>206.8</ele>
        <time>2012-05-10T18:39:38Z</time>
      </trkpt>
      <trkpt lat="28.35971" lon="-10.56432">
        <ele>208.8</ele>
        <time>2012-05-10T18:39:43Z</time>
      </trkpt>
      <trkpt lat="28.35962" lon="-10.56454">
        <ele>210.2</ele>
        <time>2012-05-10T18:39:48Z</time>
      </trkpt>
      <trkpt lat="28.35958" lon="-10.56478">
        <ele>211.4</ele>
        <time>2012-05-10T18:39:53Z</time>
      </trkpt>
      <trkpt lat="28.35955" lon="-10.56508">
        <ele>212.7</ele>
        <time>2012-05-10T18:39:58Z</time>
      </trkpt>
      <trkpt lat="28.35952" lon="-10.56531">
        <ele>213.1</ele>
        <time>2012-05-10T18:40:03Z</time>
      </trkpt>
      <trkpt lat="28.35957" lon="-10.56554">
        <ele>213.3</ele>
        <time>2012-05-10T18:40:08Z</time>
      </trkpt>
      <trkpt lat="28.35962" lon="-10.56577">
        <ele>212.2</ele>
        <time>2012-05-10T18:40:13Z</time>
      </trkpt>
      <trkpt lat="28.35964" lon="-10.566">
        <ele>210.8</ele>
        <time>2012-05-10T18:40:18Z</time>
      </trkpt>
      <trkpt lat="28.35967" lon="-10.56626">
        <ele>210</ele>
        <time>2012-05-10T18:40:23Z</time>
      </trkpt>
      <trkpt lat="28.35969" lon="-10.56647">
        <ele>208.1</ele>
        <time>2012-05-10T18:40:28Z</time>
      </trkpt>
      <trkpt lat="28.35972" lon="-10.5667">
        <ele>207.4</ele>
        <time>2012-05-10T18:40:33Z</time>
      </trkpt>
      <trkpt lat="28.35977" lon="-10.56693">
        <ele>207.1</ele>
        <time>2012-05-10T18:40:38Z</time>
      </trkpt>
      <trkpt lat="28.35975" lon="-10.5672">
        <ele>208.6</ele>
        <time>2012-05-10T18:40:43Z</time>
      </trkpt>
      <trkpt lat="28.35972" lon="-10.56743">
        <ele>209.6</ele>
        <time>2012-05-10T18:40:48Z</time>
      </trkpt>
      <trkpt lat="28.35965" lon="-10.56767">
        <ele>211.4</ele>
        <time>2012-05-10T18:40:53Z</time>
      </trkpt>
      <trkpt lat="28.35962" lon="-10.56789">
        <ele>211.7</ele>
        <time>2012-05-10T18:40:58Z</time>
      </trkpt>
      <trkpt lat="28.35961" lon="-10.56811">
        <ele>211.8</ele>
        <time>2012-05-10T18:41:03Z</time>
      </trkpt>
      <trkpt lat="28.35956" lon="-10.56833">
        <ele>211.7</ele>
        <time>2012-05-10T18:41:08Z</time>
      </trkpt>
      <trkpt lat="28.35948" lon="-10.56852">
        <ele>212.6</ele>
        <time>2012-05-10T18:41:13Z</time>
      </trkpt>
      <trkpt lat="28.35935" lon="-10.56869">
        <ele>212.8</ele>
        <time>2012-05-10T18:41:18Z</time>
      </trkpt>
      <trkpt lat="28.35917" lon="-10.56876">
        <ele>213.1</ele>
        <time>2012-05-10T18:41:23Z</time>
      </trkpt>
      <trkpt lat="28.35904" lon="-10.56896">
        <ele>213.8</ele>
        <time>2012-05-10T18:41:28Z</time>
      </trkpt>
      <trkpt lat="28.359" lon="-10.56916">
        <ele>214.7</ele>
        <time>2012-05-10T18:41:33Z</time>
      </trkpt>
      <trkpt lat="28.35897" lon="-10.56937">
        <ele>215.3</ele>
        <time>2012-05-10T18:41:38Z</time>
      </trkpt>
      <trkpt lat="28.35893" lon="-10.56962">
        <ele>215.7</ele>
        <time>2012-05-10T18:41:43Z</time>
      </trkpt>
      <trkpt lat="28.35884" lon="-10.56983">
        <ele>216.2</ele>
        <time>2012-05-10T18:41:48Z</time>
      </trkpt>
      <trkpt lat="28.35868" lon="-10.56999">
        <ele>217.8</ele>
        <time>2012-05-10T18:41:53Z</time>
      </trkpt>
      <trkpt lat="28.35858" lon="-10.57017">
        <ele>217.3</ele>
        <time>2012-05-10T18:41:58Z</time>
      </trkpt>
      <trkpt lat="28.35846" lon="-10.57033">
        <ele>217.7</ele>
        <time>2012-05-10T18:42:03Z</time>
      </trkpt>
      <trkpt lat="28.35834" lon="-10.57052">
        <ele>219</ele>
        <time>2012-05-10T18:42:08Z</time>
      </trkpt>
      <trkpt lat="28.35832" lon="-10.57073">
        <ele>220.3</ele>
        <time>2012-05-10T18:42:13Z</time>
      </trkpt>
      <trkpt lat="28.35828" lon="-10.57095">
        <ele>220.9</ele>
        <time>2012-05-10T18:42:18Z</time>
      </trkpt>
      <trkpt lat="28.35826" lon="-10.5712">
        <ele>221.1</ele>
        <time>2012-05-10T18:42:23Z</time>
      </trkpt>
      <trkpt lat="28.35823" lon="-10.57145">
        <ele>220.6</ele>
        <time>2012-05-10T18:42:28Z</time>
      </trkpt>
      <trkpt lat="28.35813" lon="-10.57194">
        <ele>221.9</ele>
        <time>2012-05-10T18:42:33Z</time>
      </trkpt>
      <trkpt lat="28.35806" lon="-10.57218">
        <ele>223.1</ele>
        <time>2012-05-10T18:42:38Z</time>
      </trkpt>
      <trkpt lat="28.35801" lon="-10.5724">
        <ele>224</ele>
        <time>2012-05-10T18:42:43Z</time>
      </trkpt>
      <trkpt lat="28.35797" lon="-10.57265">
        <ele>224.4</ele>
        <time>2012-05-10T18:42:48Z</time>
      </trkpt>
      <trkpt lat="28.35793" lon="-10.57292">
        <ele>225</ele>
        <time>2012-05-10T18:42:53Z</time>
      </trkpt>
      <trkpt lat="28.35783" lon="-10.57313">
        <ele>226.1</ele>
        <time>2012-05-10T18:42:58Z</time>
      </trkpt>
      <trkpt lat="28.35779" lon="-10.57335">
        <ele>227.2</ele>
        <time>2012-05-10T18:43:03Z</time>
      </trkpt>
      <trkpt lat="28.35778" lon="-10.57358">
        <ele>227</ele>
        <time>2012-05-10T18:43:08Z</time>
      </trkpt>
      <trkpt lat="28.35768" lon="-10.57381">
        <ele>228.2</ele>
        <time>2012-05-10T18:43:13Z</time>
      </trkpt>
      <trkpt lat="28.35757" lon="-10.574">
        <ele>229.4</ele>
        <time>2012-05-10T18:43:18Z</time>
      </trkpt>
      <trkpt lat="28.35748" lon="-10.57418">
        <ele>229.9</ele>
        <time>2012-05-10T18:43:23Z</time>
      </trkpt>
      <trkpt lat="28.35741" lon="-10.57438">
        <ele>230.9</ele>
        <time>2012-05-10T18:43:28Z</time>
      </trkpt>
      <trkpt lat="28.35727" lon="-10.57474">
        <ele>231.7</ele>
        <time>2012-05-10T18:43:33Z</time>
      </trkpt>
      <trkpt lat="28.35717" lon="-10.57494">
        <ele>232.5</ele>
        <time>2012-05-10T18:43:38Z</time>
      </trkpt>
      <trkpt lat="28.35708" lon="-10.57514">
        <ele>233.4</ele>
        <time>2012-05-10T18:43:43Z</time>
      </trkpt>
      <trkpt lat="28.35696" lon="-10.57532">
        <ele>235.1</ele>
        <time>2012-05-10T18:43:48Z</time>
      </trkpt>
      <trkpt lat="28.35686" lon="-10.57553">
        <ele>236.1</ele>
        <time>2012-05-10T18:43:53Z</time>
      </trkpt>
      <trkpt lat="28.35676" lon="-10.57575">
        <ele>236.9</ele>
        <time>2012-05-10T18:43:58Z</time>
      </trkpt>
      <trkpt lat="28.35663" lon="-10.57597">
        <ele>237.3</ele>
        <time>2012-05-10T18:44:03Z</time>
      </trkpt>
      <trkpt lat="28.35653" lon="-10.57615">
        <ele>238.3</ele>
        <time>2012-05-10T18:44:08Z</time>
      </trkpt>
      <trkpt lat="28.35644" lon="-10.57636">
        <ele>239.4</ele>
        <time>2012-05-10T18:44:13Z</time>
      </trkpt>
      <trkpt lat="28.35639" lon="-10.57657">
        <ele>240.5</ele>
        <time>2012-05-10T18:44:18Z</time>
      </trkpt>
      <trkpt lat="28.35631" lon="-10.57679">
        <ele>241.6</ele>
        <time>2012-05-10T18:44:23Z</time>
      </trkpt>
      <trkpt lat="28.35619" lon="-10.577">
        <ele>242</ele>
        <time>2012-05-10T18:44:28Z</time>
      </trkpt>
      <trkpt lat="28.35603" lon="-10.57716">
        <ele>242.1</ele>
        <time>2012-05-10T18:44:33Z</time>
      </trkpt>
      <trkpt lat="28.35601" lon="-10.57737">
        <ele>242.8</ele>
        <time>2012-05-10T18:44:38Z</time>
      </trkpt>
      <trkpt lat="28.35603" lon="-10.5776">
        <ele>242.1</ele>
        <time>2012-05-10T18:44:43Z</time>
      </trkpt>
      <trkpt lat="28.35604" lon="-10.57828">
        <ele>238.8</ele>
        <time>2012-05-10T18:44:48Z</time>
      </trkpt>
      <trkpt lat="28.35606" lon="-10.57848">
        <ele>237.6</ele>
        <time>2012-05-10T18:44:53Z</time>
      </trkpt>
      <trkpt lat="28.35603" lon="-10.57869">
        <ele>239.6</ele>
        <time>2012-05-10T18:44:58Z</time>
      </trkpt>
      <trkpt lat="28.35597" lon="-10.5789">
        <ele>241.9</ele>
        <time>2012-05-10T18:45:03Z</time>
      </trkpt>
      <trkpt lat="28.3559" lon="-10.57912">
        <ele>244</ele>
        <time>2012-05-10T18:45:08Z</time>
      </trkpt>
      <trkpt lat="28.3558" lon="-10.57933">
        <ele>247.4</ele>
        <time>2012-05-10T18:45:13Z</time>
      </trkpt>
      <trkpt lat="28.35572" lon="-10.57955">
        <ele>250.8</ele>
        <time>2012-05-10T18:45:18Z</time>
      </trkpt>
      <trkpt lat="28.35562" lon="-10.57978">
        <ele>252.7</ele>
        <time>2012-05-10T18:45:23Z</time>
      </trkpt>
      <trkpt lat="28.35544" lon="-10.57984">
        <ele>253.4</ele>
        <time>2012-05-10T18:45:28Z</time>
      </trkpt>
      <trkpt lat="28.35523" lon="-10.57983">
        <ele>255.7</ele>
        <time>2012-05-10T18:45:33Z</time>
      </trkpt>
      <trkpt lat="28.35502" lon="-10.57988">
        <ele>257.2</ele>
        <time>2012-05-10T18:45:38Z</time>
      </trkpt>
      <trkpt lat="28.35472" lon="-10.57996">
        <ele>258.4</ele>
        <time>2012-05-10T18:45:43Z</time>
      </trkpt>
      <trkpt lat="28.35452" lon="-10.57999">
        <ele>257.5</ele>
        <time>2012-05-10T18:45:48Z</time>
      </trkpt>
      <trkpt lat="28.35432" lon="-10.58007">
        <ele>256.2</ele>
        <time>2012-05-10T18:45:53Z</time>
      </trkpt>
      <trkpt lat="28.3542" lon="-10.58024">
        <ele>254.7</ele>
        <time>2012-05-10T18:45:58Z</time>
      </trkpt>
      <trkpt lat="28.35413" lon="-10.5805">
        <ele>254.2</ele>
        <time>2012-05-10T18:46:03Z</time>
      </trkpt>
      <trkpt lat="28.35406" lon="-10.58086">
        <ele>253.8</ele>
        <time>2012-05-10T18:46:08Z</time>
      </trkpt>
      <trkpt lat="28.35396" lon="-10.58112">
        <ele>253.4</ele>
        <time>2012-05-10T18:46:13Z</time>
      </trkpt>
      <trkpt lat="28.35388" lon="-10.5814">
        <ele>252.7</ele>
        <time>2012-05-10T18:46:18Z</time>
      </trkpt>
      <trkpt lat="28.35381" lon="-10.58171">
        <ele>251.7</ele>
        <time>2012-05-10T18:46:23Z</time>
      </trkpt>
      <trkpt lat="28.35375" lon="-10.58191">
        <ele>251</ele>
        <time>2012-05-10T18:46:28Z</time>
      </trkpt>
      <trkpt lat="28.35371" lon="-10.58212">
        <ele>250.9</ele>
        <time>2012-05-10T18:46:33Z</time>
      </trkpt>
      <trkpt lat="28.35364" lon="-10.58268">
        <ele>250.6</ele>
        <time>2012-05-10T18:46:38Z</time>
      </trkpt>
      <trkpt lat="28.35363" lon="-10.58291">
        <ele>249.3</ele>
        <time>2012-05-10T18:46:43Z</time>
      </trkpt>
      <trkpt lat="28.3536" lon="-10.5832">
        <ele>247.9</ele>
        <time>2012-05-10T18:46:48Z</time>
      </trkpt>
      <trkpt lat="28.35349" lon="-10.58339">
        <ele>247.6</ele>
        <time>2012-05-10T18:46:53Z</time>
      </trkpt>
      <trkpt lat="28.35341" lon="-10.58358">
        <ele>247.4</ele>
        <time>2012-05-10T18:46:58Z</time>
      </trkpt>
      <trkpt lat="28.35341" lon="-10.5838">
        <ele>246.4</ele>
        <time>2012-05-10T18:47:03Z</time>
      </trkpt>
      <trkpt lat="28.35346" lon="-10.58412">
        <ele>243.6</ele>
        <time>2012-05-10T18:47:08Z</time>
      </trkpt>
      <trkpt lat="28.35346" lon="-10.58435">
        <ele>242.3</ele>
        <time>2012-05-10T18:47:13Z</time>
      </trkpt>
      <trkpt lat="28.35348" lon="-10.5846">
        <ele>240.7</ele>
        <time>2012-05-10T18:47:18Z</time>
      </trkpt>
      <trkpt lat="28.35343" lon="-10.58486">
        <ele>239.8</ele>
        <time>2012-05-10T18:47:23Z</time>
      </trkpt>
      <trkpt lat="28.35348" lon="-10.58511">
        <ele>238.7</ele>
        <time>2012-05-10T18:47:28Z</time>
      </trkpt>
      <trkpt lat="28.35358" lon="-10.58535">
        <ele>237.8</ele>
        <time>2012-05-10T18:47:33Z</time>
      </trkpt>
      <trkpt lat="28.35362" lon="-10.58563">
        <ele>236.5</ele>
        <time>2012-05-10T18:47:38Z</time>
      </trkpt>
      <trkpt lat="28.35369" lon="-10.5859">
        <ele>235</ele>
        <time>2012-05-10T18:47:43Z</time>
      </trkpt>
      <trkpt lat="28.35377" lon="-10.58617">
        <ele>232.8</ele>
        <time>2012-05-10T18:47:48Z</time>
      </trkpt>
      <trkpt lat="28.35388" lon="-10.58642">
        <ele>231.4</ele>
        <time>2012-05-10T18:47:53Z</time>
      </trkpt>
      <trkpt lat="28.35393" lon="-10.58669">
        <ele>230.7</ele>
        <time>2012-05-10T18:47:58Z</time>
      </trkpt>
      <trkpt lat="28.35399" lon="-10.58696">
        <ele>229.2</ele>
        <time>2012-05-10T18:48:03Z</time>
      </trkpt>
      <trkpt lat="28.35404" lon="-10.58722">
        <ele>228</ele>
        <time>2012-05-10T18:48:08Z</time>
      </trkpt>
      <trkpt lat="28.35402" lon="-10.58749">
        <ele>226.9</ele>
        <time>2012-05-10T18:48:13Z</time>
      </trkpt>
      <trkpt lat="28.35393" lon="-10.58773">
        <ele>227.4</ele>
        <time>2012-05-10T18:48:18Z</time>
      </trkpt>
      <trkpt lat="28.35384" lon="-10.58799">
        <ele>227.1</ele>
        <time>2012-05-10T18:48:23Z</time>
      </trkpt>
      <trkpt lat="28.35379" lon="-10.58826">
        <ele>227.2</ele>
        <time>2012-05-10T18:48:28Z</time>
      </trkpt>
      <trkpt lat="28.35369" lon="-10.58852">
        <ele>228</ele>
        <time>2012-05-10T18:48:33Z</time>
      </trkpt>
      <trkpt lat="28.35361" lon="-10.58875">
        <ele>228.4</ele>
        <time>2012-05-10T18:48:38Z</time>
      </trkpt>
      <trkpt lat="28.35362" lon="-10.58902">
        <ele>227.8</ele>
        <time>2012-05-10T18:48:43Z</time>
      </trkpt>
      <trkpt lat="28.35366" lon="-10.58927">
        <ele>225.7</ele>
        <time>2012-05-10T18:48:48Z</time>
      </trkpt>
      <trkpt lat="28.35374" lon="-10.58949">
        <ele>223.8</ele>
        <time>2012-05-10T18:48:53Z</time>
      </trkpt>
      <trkpt lat="28.35385" lon="-10.58969">
        <ele>222.7</ele>
        <time>2012-05-10T18:48:58Z</time>
      </trkpt>
      <trkpt lat="28.35408" lon="-10.59008">
        <ele>221.2</ele>
        <time>2012-05-10T18:49:03Z</time>
      </trkpt>
      <trkpt lat="28.35421" lon="-10.5903">
        <ele>221</ele>
        <time>2012-05-10T18:49:08Z</time>
      </trkpt>
      <trkpt lat="28.35431" lon="-10.59051">
        <ele>220.5</ele>
        <time>2012-05-10T18:49:13Z</time>
      </trkpt>
      <trkpt lat="28.35429" lon="-10.59072">
        <ele>218.8</ele>
        <time>2012-05-10T18:49:18Z</time>
      </trkpt>
      <trkpt lat="28.35427" lon="-10.59094">
        <ele>217.5</ele>
        <time>2012-05-10T18:49:23Z</time>
      </trkpt>
      <trkpt lat="28.3543" lon="-10.59118">
        <ele>217.3</ele>
        <time>2012-05-10T18:49:28Z</time>
      </trkpt>
      <trkpt lat="28.3544" lon="-10.59135">
        <ele>215.9</ele>
        <time>2012-05-10T18:49:33Z</time>
      </trkpt>
      <trkpt lat="28.35456" lon="-10.59155">
        <ele>217.5</ele>
        <time>2012-05-10T18:49:38Z</time>
      </trkpt>
      <trkpt lat="28.35474" lon="-10.59169">
        <ele>217.6</ele>
        <time>2012-05-10T18:49:43Z</time>
      </trkpt>
      <trkpt lat="28.35483" lon="-10.5919">
        <ele>219.3</ele>
        <time>2012-05-10T18:49:48Z</time>
      </trkpt>
      <trkpt lat="28.35484" lon="-10.59211">
        <ele>219.1</ele>
        <time>2012-05-10T18:49:53Z</time>
      </trkpt>
      <trkpt lat="28.35482" lon="-10.59232">
        <ele>218.5</ele>
        <time>2012-05-10T18:49:58Z</time>
      </trkpt>
      <trkpt lat="28.3547" lon="-10.59255">
        <ele>219.7</ele>
        <time>2012-05-10T18:50:03Z</time>
      </trkpt>
      <trkpt lat="28.35454" lon="-10.59266">
        <ele>219.8</ele>
        <time>2012-05-10T18:50:08Z</time>
      </trkpt>
      <trkpt lat="28.35438" lon="-10.59278">
        <ele>220.4</ele>
        <time>2012-05-10T18:50:13Z</time>
      </trkpt>
      <trkpt lat="28.35424" lon="-10.59293">
        <ele>220.9</ele>
        <time>2012-05-10T18:50:18Z</time>
      </trkpt>
      <trkpt lat="28.35411" lon="-10.59307">
        <ele>221.4</ele>
        <time>2012-05-10T18:50:23Z</time>
      </trkpt>
      <trkpt lat="28.35393" lon="-10.5932">
        <ele>220.4</ele>
        <time>2012-05-10T18:50:28Z</time>
      </trkpt>
      <trkpt lat="28.35378" lon="-10.59334">
        <ele>219.5</ele>
        <time>2012-05-10T18:50:33Z</time>
      </trkpt>
      <trkpt lat="28.35378" lon="-10.59357">
        <ele>219</ele>
        <time>2012-05-10T18:50:38Z</time>
      </trkpt>
      <trkpt lat="28.35376" lon="-10.59381">
        <ele>219.8</ele>
        <time>2012-05-10T18:50:43Z</time>
      </trkpt>
      <trkpt lat="28.35378" lon="-10.59403">
        <ele>218.9</ele>
        <time>2012-05-10T18:50:48Z</time>
      </trkpt>
      <trkpt lat="28.35393" lon="-10.59418">
        <ele>218.6</ele>
        <time>2012-05-10T18:50:53Z</time>
      </trkpt>
      <trkpt lat="28.35403" lon="-10.59438">
        <ele>220.3</ele>
        <time>2012-05-10T18:50:58Z</time>
      </trkpt>
      <trkpt lat="28.35405" lon="-10.59465">
        <ele>220.7</ele>
        <time>2012-05-10T18:51:03Z</time>
      </trkpt>
      <trkpt lat="28.35408" lon="-10.59488">
        <ele>221.1</ele>
        <time>2012-05-10T18:51:08Z</time>
      </trkpt>
      <trkpt lat="28.35416" lon="-10.59539">
        <ele>220.7</ele>
        <time>2012-05-10T18:51:13Z</time>
      </trkpt>
      <trkpt lat="28.35421" lon="-10.59563">
        <ele>220.4</ele>
        <time>2012-05-10T18:51:18Z</time>
      </trkpt>
      <trkpt lat="28.35423" lon="-10.59584">
        <ele>220.6</ele>
        <time>2012-05-10T18:51:23Z</time>
      </trkpt>
      <trkpt lat="28.35424" lon="-10.59607">
        <ele>220.5</ele>
        <time>2012-05-10T18:51:28Z</time>
      </trkpt>
      <trkpt lat="28.35421" lon="-10.59637">
        <ele>221.8</ele>
        <time>2012-05-10T18:51:33Z</time>
      </trkpt>
      <trkpt lat="28.35425" lon="-10.59661">
        <ele>222.3</ele>
        <time>2012-05-10T18:51:38Z</time>
      </trkpt>
      <trkpt lat="28.35429" lon="-10.59685">
        <ele>222.1</ele>
        <time>2012-05-10T18:51:43Z</time>
      </trkpt>
      <trkpt lat="28.3544" lon="-10.59709">
        <ele>222.4</ele>
        <time>2012-05-10T18:51:48Z</time>
      </trkpt>
      <trkpt lat="28.3545" lon="-10.59732">
        <ele>222.1</ele>
        <time>2012-05-10T18:51:53Z</time>
      </trkpt>
      <trkpt lat="28.35469" lon="-10.59778">
        <ele>220.7</ele>
        <time>2012-05-10T18:51:58Z</time>
      </trkpt>
      <trkpt lat="28.35467" lon="-10.59801">
        <ele>219.7</ele>
        <time>2012-05-10T18:52:03Z</time>
      </trkpt>
      <trkpt lat="28.35464" lon="-10.59821">
        <ele>220.3</ele>
        <time>2012-05-10T18:52:08Z</time>
      </trkpt>
      <trkpt lat="28.35456" lon="-10.59845">
        <ele>221.4</ele>
        <time>2012-05-10T18:52:13Z</time>
      </trkpt>
      <trkpt lat="28.35452" lon="-10.59867">
        <ele>219.7</ele>
        <time>2012-05-10T18:52:18Z</time>
      </trkpt>
      <trkpt lat="28.3546" lon="-10.59894">
        <ele>218</ele>
        <time>2012-05-10T18:52:23Z</time>
      </trkpt>
      <trkpt lat="28.35465" lon="-10.59916">
        <ele>217.3</ele>
        <time>2012-05-10T18:52:28Z</time>
      </trkpt>
      <trkpt lat="28.35465" lon="-10.59939">
        <ele>217.9</ele>
        <time>2012-05-10T18:52:33Z</time>
      </trkpt>
      <trkpt lat="28.35475" lon="-10.5996">
        <ele>218.2</ele>
        <time>2012-05-10T18:52:38Z</time>
      </trkpt>
      <trkpt lat="28.35484" lon="-10.59983">
        <ele>219.3</ele>
        <time>2012-05-10T18:52:43Z</time>
      </trkpt>
      <trkpt lat="28.35492" lon="-10.60006">
        <ele>218.7</ele>
        <time>2012-05-10T18:52:48Z</time>
      </trkpt>
      <trkpt lat="28.35494" lon="-10.6003">
        <ele>218.6</ele>
        <time>2012-05-10T18:52:53Z</time>
      </trkpt>
      <trkpt lat="28.35493" lon="-10.60056">
        <ele>218.6</ele>
        <time>2012-05-10T18:52:58Z</time>
      </trkpt>
      <trkpt lat="28.35493" lon="-10.60083">
        <ele>218.9</ele>
        <time>2012-05-10T18:53:03Z</time>
      </trkpt>
      <trkpt lat="28.35496" lon="-10.60109">
        <ele>218.9</ele>
        <time>2012-05-10T18:53:08Z</time>
      </trkpt>
      <trkpt lat="28.355" lon="-10.60143">
        <ele>218.4</ele>
        <time>2012-05-10T18:53:13Z</time>
      </trkpt>
      <trkpt lat="28.35498" lon="-10.60169">
        <ele>219.1</ele>
        <time>2012-05-10T18:53:18Z</time>
      </trkpt>
      <trkpt lat="28.35495" lon="-10.60191">
        <ele>220.6</ele>
        <time>2012-05-10T18:53:23Z</time>
      </trkpt>
      <trkpt lat="28.3549" lon="-10.60218">
        <ele>220.2</ele>
        <time>2012-05-10T18:53:28Z</time>
      </trkpt>
      <trkpt lat="28.35499" lon="-10.60238">
        <ele>218.1</ele>
        <time>2012-05-10T18:53:33Z</time>
      </trkpt>
      <trkpt lat="28.35512" lon="-10.60258">
        <ele>218.5</ele>
        <time>2012-05-10T18:53:38Z</time>
      </trkpt>
      <trkpt lat="28.35519" lon="-10.6028">
        <ele>217.8</ele>
        <time>2012-05-10T18:53:43Z</time>
      </trkpt>
      <trkpt lat="28.35528" lon="-10.60299">
        <ele>217.6</ele>
        <time>2012-05-10T18:53:48Z</time>
      </trkpt>
      <trkpt lat="28.35534" lon="-10.60322">
        <ele>218.1</ele>
        <time>2012-05-10T18:53:53Z</time>
      </trkpt>
      <trkpt lat="28.35538" lon="-10.60344">
        <ele>218.2</ele>
        <time>2012-05-10T18:53:58Z</time>
      </trkpt>
      <trkpt lat="28.35544" lon="-10.60366">
        <ele>217.8</ele>
        <time>2012-05-10T18:54:03Z</time>
      </trkpt>
      <trkpt lat="28.3555" lon="-10.60388">
        <ele>217.2</ele>
        <time>2012-05-10T18:54:08Z</time>
      </trkpt>
      <trkpt lat="28.35557" lon="-10.60434">
        <ele>216</ele>
        <time>2012-05-10T18:54:13Z</time>
      </trkpt>
      <trkpt lat="28.35561" lon="-10.60455">
        <ele>215.1</ele>
        <time>2012-05-10T18:54:18Z</time>
      </trkpt>
      <trkpt lat="28.35563" lon="-10.6049">
        <ele>213.6</ele>
        <time>2012-05-10T18:54:23Z</time>
      </trkpt>
      <trkpt lat="28.35557" lon="-10.60511">
        <ele>213.4</ele>
        <time>2012-05-10T18:54:28Z</time>
      </trkpt>
      <trkpt lat="28.35571" lon="-10.60528">
        <ele>214.9</ele>
        <time>2012-05-10T18:54:33Z</time>
      </trkpt>
      <trkpt lat="28.35585" lon="-10.60545">
        <ele>215.9</ele>
        <time>2012-05-10T18:54:38Z</time>
      </trkpt>
      <trkpt lat="28.3559" lon="-10.60571">
        <ele>216</ele>
        <time>2012-05-10T18:54:43Z</time>
      </trkpt>
      <trkpt lat="28.35593" lon="-10.60603">
        <ele>215.8</ele>
        <time>2012-05-10T18:54:48Z</time>
      </trkpt>
      <trkpt lat="28.35594" lon="-10.60629">
        <ele>216.2</ele>
        <time>2012-05-10T18:54:53Z</time>
      </trkpt>
      <trkpt lat="28.35595" lon="-10.60649">
        <ele>216</ele>
        <time>2012-05-10T18:54:58Z</time>
      </trkpt>
      <trkpt lat="28.35594" lon="-10.60679">
        <ele>216.4</ele>
        <time>2012-05-10T18:55:03Z</time>
      </trkpt>
      <trkpt lat="28.35597" lon="-10.607">
        <ele>216.2</ele>
        <time>2012-05-10T18:55:08Z</time>
      </trkpt>
      <trkpt lat="28.35599" lon="-10.60722">
        <ele>215.9</ele>
        <time>2012-05-10T18:55:13Z</time>
      </trkpt>
      <trkpt lat="28.35596" lon="-10.60742">
        <ele>216.3</ele>
        <time>2012-05-10T18:55:18Z</time>
      </trkpt>
      <trkpt lat="28.35595" lon="-10.60768">
        <ele>216.5</ele>
        <time>2012-05-10T18:55:23Z</time>
      </trkpt>
      <trkpt lat="28.35598" lon="-10.60795">
        <ele>215.5</ele>
        <time>2012-05-10T18:55:28Z</time>
      </trkpt>
      <trkpt lat="28.35592" lon="-10.60821">
        <ele>215.7</ele>
        <time>2012-05-10T18:55:33Z</time>
      </trkpt>
      <trkpt lat="28.35589" lon="-10.60843">
        <ele>216.2</ele>
        <time>2012-05-10T18:55:38Z</time>
      </trkpt>
      <trkpt lat="28.35591" lon="-10.60867">
        <ele>216.1</ele>
        <time>2012-05-10T18:55:43Z</time>
      </trkpt>
      <trkpt lat="28.35593" lon="-10.6089">
        <ele>215.8</ele>
        <time>2012-05-10T18:55:48Z</time>
      </trkpt>
      <trkpt lat="28.35593" lon="-10.60912">
        <ele>215.8</ele>
        <time>2012-05-10T18:55:53Z</time>
      </trkpt>
      <trkpt lat="28.35592" lon="-10.60934">
        <ele>215.5</ele>
        <time>2012-05-10T18:55:58Z</time>
      </trkpt>
      <trkpt lat="28.35599" lon="-10.60957">
        <ele>214.5</ele>
        <time>2012-05-10T18:56:03Z</time>
      </trkpt>
      <trkpt lat="28.35606" lon="-10.60981">
        <ele>213.2</ele>
        <time>2012-05-10T18:56:08Z</time>
      </trkpt>
      <trkpt lat="28.35609" lon="-10.61006">
        <ele>212.7</ele>
        <time>2012-05-10T18:56:13Z</time>
      </trkpt>
      <trkpt lat="28.3561" lon="-10.6103">
        <ele>211.7</ele>
        <time>2012-05-10T18:56:18Z</time>
      </trkpt>
      <trkpt lat="28.35609" lon="-10.61053">
        <ele>211.5</ele>
        <time>2012-05-10T18:56:23Z</time>
      </trkpt>
      <trkpt lat="28.35611" lon="-10.61075">
        <ele>210.6</ele>
        <time>2012-05-10T18:56:28Z</time>
      </trkpt>
      <trkpt lat="28.3562" lon="-10.61096">
        <ele>210.3</ele>
        <time>2012-05-10T18:56:33Z</time>
      </trkpt>
      <trkpt lat="28.35621" lon="-10.6112">
        <ele>209.8</ele>
        <time>2012-05-10T18:56:38Z</time>
      </trkpt>
      <trkpt lat="28.35621" lon="-10.6116">
        <ele>209.3</ele>
        <time>2012-05-10T18:56:43Z</time>
      </trkpt>
      <trkpt lat="28.35626" lon="-10.61184">
        <ele>208.9</ele>
        <time>2012-05-10T18:56:48Z</time>
      </trkpt>
      <trkpt lat="28.3563" lon="-10.61207">
        <ele>208.2</ele>
        <time>2012-05-10T18:56:53Z</time>
      </trkpt>
      <trkpt lat="28.35629" lon="-10.61229">
        <ele>208.1</ele>
        <time>2012-05-10T18:56:58Z</time>
      </trkpt>
      <trkpt lat="28.35634" lon="-10.61249">
        <ele>207.4</ele>
        <time>2012-05-10T18:57:03Z</time>
      </trkpt>
      <trkpt lat="28.35639" lon="-10.61274">
        <ele>206.2</ele>
        <time>2012-05-10T18:57:08Z</time>
      </trkpt>
      <trkpt lat="28.35642" lon="-10.61295">
        <ele>204.8</ele>
        <time>2012-05-10T18:57:13Z</time>
      </trkpt>
      <trkpt lat="28.35645" lon="-10.61318">
        <ele>203.1</ele>
        <time>2012-05-10T18:57:18Z</time>
      </trkpt>
      <trkpt lat="28.3564" lon="-10.61339">
        <ele>203</ele>
        <time>2012-05-10T18:57:23Z</time>
      </trkpt>
      <trkpt lat="28.35637" lon="-10.61361">
        <ele>204.6</ele>
        <time>2012-05-10T18:57:28Z</time>
      </trkpt>
      <trkpt lat="28.35648" lon="-10.61384">
        <ele>207</ele>
        <time>2012-05-10T18:57:33Z</time>
      </trkpt>
      <trkpt lat="28.35659" lon="-10.61404">
        <ele>207.7</ele>
        <time>2012-05-10T18:57:38Z</time>
      </trkpt>
      <trkpt lat="28.3566" lon="-10.61427">
        <ele>207.4</ele>
        <time>2012-05-10T18:57:43Z</time>
      </trkpt>
      <trkpt lat="28.35658" lon="-10.61448">
        <ele>207.8</ele>
        <time>2012-05-10T18:57:48Z</time>
      </trkpt>
      <trkpt lat="28.3566" lon="-10.61472">
        <ele>207.8</ele>
        <time>2012-05-10T18:57:53Z</time>
      </trkpt>
      <trkpt lat="28.35664" lon="-10.61493">
        <ele>206.8</ele>
        <time>2012-05-10T18:57:58Z</time>
      </trkpt>
      <trkpt lat="28.35665" lon="-10.61518">
        <ele>206</ele>
        <time>2012-05-10T18:58:03Z</time>
      </trkpt>
      <trkpt lat="28.35677" lon="-10.61538">
        <ele>205.7</ele>
        <time>2012-05-10T18:58:08Z</time>
      </trkpt>
      <trkpt lat="28.35692" lon="-10.61551">
        <ele>206.7</ele>
        <time>2012-05-10T18:58:13Z</time>
      </trkpt>
      <trkpt lat="28.3571" lon="-10.61569">
        <ele>207.2</ele>
        <time>2012-05-10T18:58:18Z</time>
      </trkpt>
      <trkpt lat="28.35727" lon="-10.61588">
        <ele>208.1</ele>
        <time>2012-05-10T18:58:23Z</time>
      </trkpt>
      <trkpt lat="28.35744" lon="-10.61599">
        <ele>208.4</ele>
        <time>2012-05-10T18:58:28Z</time>
      </trkpt>
      <trkpt lat="28.3576" lon="-10.61612">
        <ele>208.7</ele>
        <time>2012-05-10T18:58:33Z</time>
      </trkpt>
      <trkpt lat="28.35778" lon="-10.61634">
        <ele>208.9</ele>
        <time>2012-05-10T18:58:38Z</time>
      </trkpt>
      <trkpt lat="28.35794" lon="-10.61652">
        <ele>208.9</ele>
        <time>2012-05-10T18:58:43Z</time>
      </trkpt>
      <trkpt lat="28.35806" lon="-10.61672">
        <ele>208.4</ele>
        <time>2012-05-10T18:58:48Z</time>
      </trkpt>
      <trkpt lat="28.35817" lon="-10.61692">
        <ele>207.9</ele>
        <time>2012-05-10T18:58:53Z</time>
      </trkpt>
      <trkpt lat="28.35829" lon="-10.61707">
        <ele>207.5</ele>
        <time>2012-05-10T18:58:58Z</time>
      </trkpt>
      <trkpt lat="28.35847" lon="-10.61724">
        <ele>207.3</ele>
        <time>2012-05-10T18:59:03Z</time>
      </trkpt>
      <trkpt lat="28.3586" lon="-10.61744">
        <ele>206.4</ele>
        <time>2012-05-10T18:59:08Z</time>
      </trkpt>
      <trkpt lat="28.35874" lon="-10.61759">
        <ele>205.5</ele>
        <time>2012-05-10T18:59:13Z</time>
      </trkpt>
      <trkpt lat="28.35884" lon="-10.61776">
        <ele>206.8</ele>
        <time>2012-05-10T18:59:18Z</time>
      </trkpt>
      <trkpt lat="28.35898" lon="-10.61792">
        <ele>206.4</ele>
        <time>2012-05-10T18:59:23Z</time>
      </trkpt>
      <trkpt lat="28.35913" lon="-10.61803">
        <ele>205.8</ele>
        <time>2012-05-10T18:59:28Z</time>
      </trkpt>
      <trkpt lat="28.35934" lon="-10.61809">
        <ele>203.7</ele>
        <time>2012-05-10T18:59:33Z</time>
      </trkpt>
      <trkpt lat="28.35954" lon="-10.61811">
        <ele>201.9</ele>
        <time>2012-05-10T18:59:38Z</time>
      </trkpt>
      <trkpt lat="28.35971" lon="-10.6182">
        <ele>200.4</ele>
        <time>2012-05-10T18:59:43Z</time>
      </trkpt>
      <trkpt lat="28.3598" lon="-10.61845">
        <ele>198.9</ele>
        <time>2012-05-10T18:59:48Z</time>
      </trkpt>
      <trkpt lat="28.35988" lon="-10.61865">
        <ele>197.5</ele>
        <time>2012-05-10T18:59:53Z</time>
      </trkpt>
      <trkpt lat="28.35996" lon="-10.61884">
        <ele>196.7</ele>
        <time>2012-05-10T18:59:58Z</time>
      </trkpt>
      <trkpt lat="28.35997" lon="-10.61908">
        <ele>195.9</ele>
        <time>2012-05-10T19:00:03Z</time>
      </trkpt>
      <trkpt lat="28.3599" lon="-10.61927">
        <ele>194.4</ele>
        <time>2012-05-10T19:00:08Z</time>
      </trkpt>
      <trkpt lat="28.35984" lon="-10.61949">
        <ele>195.2</ele>
        <time>2012-05-10T19:00:13Z</time>
      </trkpt>
      <trkpt lat="28.35982" lon="-10.61971">
        <ele>196.6</ele>
        <time>2012-05-10T19:00:18Z</time>
      </trkpt>
      <trkpt lat="28.35987" lon="-10.62009">
        <ele>197.8</ele>
        <time>2012-05-10T19:00:23Z</time>
      </trkpt>
      <trkpt lat="28.35976" lon="-10.62029">
        <ele>199.8</ele>
        <time>2012-05-10T19:00:28Z</time>
      </trkpt>
      <trkpt lat="28.35958" lon="-10.62046">
        <ele>199.8</ele>
        <time>2012-05-10T19:00:33Z</time>
      </trkpt>
      <trkpt lat="28.35936" lon="-10.62064">
        <ele>200.9</ele>
        <time>2012-05-10T19:00:38Z</time>
      </trkpt>
      <trkpt lat="28.35918" lon="-10.62076">
        <ele>201.5</ele>
        <time>2012-05-10T19:00:43Z</time>
      </trkpt>
      <trkpt lat="28.35897" lon="-10.62085">
        <ele>202.4</ele>
        <time>2012-05-10T19:00:48Z</time>
      </trkpt>
      <trkpt lat="28.35877" lon="-10.62094">
        <ele>203.7</ele>
        <time>2012-05-10T19:00:53Z</time>
      </trkpt>
      <trkpt lat="28.35858" lon="-10.62103">
        <ele>204.8</ele>
        <time>2012-05-10T19:00:58Z</time>
      </trkpt>
      <trkpt lat="28.35841" lon="-10.62115">
        <ele>206.1</ele>
        <time>2012-05-10T19:01:03Z</time>
      </trkpt>
      <trkpt lat="28.35833" lon="-10.62135">
        <ele>206.2</ele>
        <time>2012-05-10T19:01:08Z</time>
      </trkpt>
      <trkpt lat="28.35829" lon="-10.6216">
        <ele>205.7</ele>
        <time>2012-05-10T19:01:13Z</time>
      </trkpt>
      <trkpt lat="28.35829" lon="-10.62204">
        <ele>203.6</ele>
        <time>2012-05-10T19:01:18Z</time>
      </trkpt>
      <trkpt lat="28.3583" lon="-10.62227">
        <ele>202.5</ele>
        <time>2012-05-10T19:01:23Z</time>
      </trkpt>
      <trkpt lat="28.35835" lon="-10.62247">
        <ele>201.3</ele>
        <time>2012-05-10T19:01:28Z</time>
      </trkpt>
      <trkpt lat="28.3584" lon="-10.62271">
        <ele>200.1</ele>
        <time>2012-05-10T19:01:33Z</time>
      </trkpt>
      <trkpt lat="28.35838" lon="-10.62292">
        <ele>196.9</ele>
        <time>2012-05-10T19:01:38Z</time>
      </trkpt>
      <trkpt lat="28.35832" lon="-10.62312">
        <ele>197.4</ele>
        <time>2012-05-10T19:01:43Z</time>
      </trkpt>
      <trkpt lat="28.35837" lon="-10.62334">
        <ele>195.9</ele>
        <time>2012-05-10T19:01:48Z</time>
      </trkpt>
      <trkpt lat="28.35849" lon="-10.62352">
        <ele>196.3</ele>
        <time>2012-05-10T19:01:53Z</time>
      </trkpt>
      <trkpt lat="28.35862" lon="-10.62371">
        <ele>195.8</ele>
        <time>2012-05-10T19:01:58Z</time>
      </trkpt>
      <trkpt lat="28.35876" lon="-10.62386">
        <ele>195.9</ele>
        <time>2012-05-10T19:02:03Z</time>
      </trkpt>
      <trkpt lat="28.3589" lon="-10.62404">
        <ele>197</ele>
        <time>2012-05-10T19:02:08Z</time>
      </trkpt>
      <trkpt lat="28.35909" lon="-10.6243">
        <ele>198.7</ele>
        <time>2012-05-10T19:02:13Z</time>
      </trkpt>
      <trkpt lat="28.3592" lon="-10.6245">
        <ele>199.1</ele>
        <time>2012-05-10T19:02:18Z</time>
      </trkpt>
      <trkpt lat="28.35927" lon="-10.62474">
        <ele>199</ele>
        <time>2012-05-10T19:02:23Z</time>
      </trkpt>
      <trkpt lat="28.35933" lon="-10.62497">
        <ele>197.9</ele>
        <time>2012-05-10T19:02:28Z</time>
      </trkpt>
      <trkpt lat="28.35937" lon="-10.62518">
        <ele>197.4</ele>
        <time>2012-05-10T19:02:33Z</time>
      </trkpt>
      <trkpt lat="28.35938" lon="-10.62539">
        <ele>197.8</ele>
        <time>2012-05-10T19:02:38Z</time>
      </trkpt>
      <trkpt lat="28.3594" lon="-10.62565">
        <ele>199.7</ele>
        <time>2012-05-10T19:02:43Z</time>
      </trkpt>
      <trkpt lat="28.35941" lon="-10.6259">
        <ele>199.3</ele>
        <time>2012-05-10T19:02:48Z</time>
      </trkpt>
      <trkpt lat="28.35937" lon="-10.62613">
        <ele>199</ele>
        <time>2012-05-10T19:02:53Z</time>
      </trkpt>
      <trkpt lat="28.35931" lon="-10.62639">
        <ele>199.3</ele>
        <time>2012-05-10T19:02:58Z</time>
      </trkpt>
      <trkpt lat="28.35928" lon="-10.6266">
        <ele>199.6</ele>
        <time>2012-05-10T19:03:03Z</time>
      </trkpt>
      <trkpt lat="28.35925" lon="-10.62681">
        <ele>199.5</ele>
        <time>2012-05-10T19:03:08Z</time>
      </trkpt>
      <trkpt lat="28.35918" lon="-10.62701">
        <ele>199.7</ele>
        <time>2012-05-10T19:03:13Z</time>
      </trkpt>
      <trkpt lat="28.35916" lon="-10.62722">
        <ele>199.5</ele>
        <time>2012-05-10T19:03:18Z</time>
      </trkpt>
      <trkpt lat="28.35921" lon="-10.62744">
        <ele>198.8</ele>
        <time>2012-05-10T19:03:23Z</time>
      </trkpt>
      <trkpt lat="28.35932" lon="-10.62766">
        <ele>197.8</ele>
        <time>2012-05-10T19:03:28Z</time>
      </trkpt>
      <trkpt lat="28.35945" lon="-10.62791">
        <ele>196.8</ele>
        <time>2012-05-10T19:03:33Z</time>
      </trkpt>
      <trkpt lat="28.3596" lon="-10.62818">
        <ele>196</ele>
        <time>2012-05-10T19:03:38Z</time>
      </trkpt>
      <trkpt lat="28.35974" lon="-10.62845">
        <ele>195</ele>
        <time>2012-05-10T19:03:43Z</time>
      </trkpt>
      <trkpt lat="28.35986" lon="-10.62874">
        <ele>194.5</ele>
        <time>2012-05-10T19:03:48Z</time>
      </trkpt>
      <trkpt lat="28.35994" lon="-10.62893">
        <ele>194</ele>
        <time>2012-05-10T19:03:53Z</time>
      </trkpt>
      <trkpt lat="28.3601" lon="-10.62928">
        <ele>193.5</ele>
        <time>2012-05-10T19:03:58Z</time>
      </trkpt>
      <trkpt lat="28.36029" lon="-10.6296">
        <ele>192.7</ele>
        <time>2012-05-10T19:04:03Z</time>
      </trkpt>
      <trkpt lat="28.36047" lon="-10.62991">
        <ele>191.8</ele>
        <time>2012-05-10T19:04:08Z</time>
      </trkpt>
      <trkpt lat="28.36064" lon="-10.6302">
        <ele>190.8</ele>
        <time>2012-05-10T19:04:13Z</time>
      </trkpt>
      <trkpt lat="28.36078" lon="-10.63042">
        <ele>190.1</ele>
        <time>2012-05-10T19:04:18Z</time>
      </trkpt>
      <trkpt lat="28.36093" lon="-10.63064">
        <ele>189.4</ele>
        <time>2012-05-10T19:04:23Z</time>
      </trkpt>
      <trkpt lat="28.36108" lon="-10.63083">
        <ele>188.7</ele>
        <time>2012-05-10T19:04:28Z</time>
      </trkpt>
      <trkpt lat="28.36126" lon="-10.63099">
        <ele>189</ele>
        <time>2012-05-10T19:04:33Z</time>
      </trkpt>
      <trkpt lat="28.36144" lon="-10.63116">
        <ele>189.2</ele>
        <time>2012-05-10T19:04:38Z</time>
      </trkpt>
      <trkpt lat="28.36164" lon="-10.63132">
        <ele>189.3</ele>
        <time>2012-05-10T19:04:43Z</time>
      </trkpt>
      <trkpt lat="28.36185" lon="-10.63149">
        <ele>189.3</ele>
        <time>2012-05-10T19:04:48Z</time>
      </trkpt>
      <trkpt lat="28.36205" lon="-10.63167">
        <ele>189.4</ele>
        <time>2012-05-10T19:04:53Z</time>
      </trkpt>
      <trkpt lat="28.36224" lon="-10.63185">
        <ele>189</ele>
        <time>2012-05-10T19:04:58Z</time>
      </trkpt>
      <trkpt lat="28.36246" lon="-10.63197">
        <ele>189</ele>
        <time>2012-05-10T19:05:03Z</time>
      </trkpt>
      <trkpt lat="28.3627" lon="-10.63206">
        <ele>188.5</ele>
        <time>2012-05-10T19:05:08Z</time>
      </trkpt>
      <trkpt lat="28.36294" lon="-10.63216">
        <ele>188</ele>
        <time>2012-05-10T19:05:13Z</time>
      </trkpt>
      <trkpt lat="28.36317" lon="-10.63227">
        <ele>187.6</ele>
        <time>2012-05-10T19:05:18Z</time>
      </trkpt>
      <trkpt lat="28.36338" lon="-10.6324">
        <ele>187.2</ele>
        <time>2012-05-10T19:05:23Z</time>
      </trkpt>
      <trkpt lat="28.36356" lon="-10.63258">
        <ele>186.7</ele>
        <time>2012-05-10T19:05:28Z</time>
      </trkpt>
      <trkpt lat="28.36372" lon="-10.63275">
        <ele>185.8</ele>
        <time>2012-05-10T19:05:33Z</time>
      </trkpt>
      <trkpt lat="28.36387" lon="-10.6329">
        <ele>184.9</ele>
        <time>2012-05-10T19:05:38Z</time>
      </trkpt>
      <trkpt lat="28.36396" lon="-10.6331">
        <ele>183.7</ele>
        <time>2012-05-10T19:05:43Z</time>
      </trkpt>
      <trkpt lat="28.36398" lon="-10.63333">
        <ele>182.5</ele>
        <time>2012-05-10T19:05:48Z</time>
      </trkpt>
      <trkpt lat="28.36402" lon="-10.63357">
        <ele>181.1</ele>
        <time>2012-05-10T19:05:53Z</time>
      </trkpt>
      <trkpt lat="28.36407" lon="-10.6338">
        <ele>179.8</ele>
        <time>2012-05-10T19:05:58Z</time>
      </trkpt>
      <trkpt lat="28.3641" lon="-10.63429">
        <ele>174.7</ele>
        <time>2012-05-10T19:06:03Z</time>
      </trkpt>
      <trkpt lat="28.36407" lon="-10.63452">
        <ele>173</ele>
        <time>2012-05-10T19:06:08Z</time>
      </trkpt>
      <trkpt lat="28.36401" lon="-10.63474">
        <ele>172.1</ele>
        <time>2012-05-10T19:06:13Z</time>
      </trkpt>
      <trkpt lat="28.36399" lon="-10.63497">
        <ele>170.2</ele>
        <time>2012-05-10T19:06:18Z</time>
      </trkpt>
      <trkpt lat="28.36396" lon="-10.63518">
        <ele>168.6</ele>
        <time>2012-05-10T19:06:23Z</time>
      </trkpt>
      <trkpt lat="28.36385" lon="-10.63536">
        <ele>167.7</ele>
        <time>2012-05-10T19:06:28Z</time>
      </trkpt>
      <trkpt lat="28.36371" lon="-10.63558">
        <ele>168.3</ele>
        <time>2012-05-10T19:06:33Z</time>
      </trkpt>
      <trkpt lat="28.36364" lon="-10.63584">
        <ele>169.7</ele>
        <time>2012-05-10T19:06:38Z</time>
      </trkpt>
      <trkpt lat="28.36363" lon="-10.63611">
        <ele>169.8</ele>
        <time>2012-05-10T19:06:43Z</time>
      </trkpt>
      <trkpt lat="28.36366" lon="-10.63652">
        <ele>168.4</ele>
        <time>2012-05-10T19:06:48Z</time>
      </trkpt>
      <trkpt lat="28.36368" lon="-10.63677">
        <ele>168.7</ele>
        <time>2012-05-10T19:06:53Z</time>
      </trkpt>
      <trkpt lat="28.36372" lon="-10.63699">
        <ele>168.7</ele>
        <time>2012-05-10T19:06:58Z</time>
      </trkpt>
      <trkpt lat="28.36382" lon="-10.63717">
        <ele>167.4</ele>
        <time>2012-05-10T19:07:03Z</time>
      </trkpt>
      <trkpt lat="28.36395" lon="-10.63735">
        <ele>165.9</ele>
        <time>2012-05-10T19:07:08Z</time>
      </trkpt>
      <trkpt lat="28.3641" lon="-10.63752">
        <ele>167</ele>
        <time>2012-05-10T19:07:13Z</time>
      </trkpt>
      <trkpt lat="28.36419" lon="-10.63771">
        <ele>166.5</ele>
        <time>2012-05-10T19:07:18Z</time>
      </trkpt>
      <trkpt lat="28.36421" lon="-10.63791">
        <ele>165</ele>
        <time>2012-05-10T19:07:23Z</time>
      </trkpt>
      <trkpt lat="28.36424" lon="-10.63813">
        <ele>163.6</ele>
        <time>2012-05-10T19:07:28Z</time>
      </trkpt>
      <trkpt lat="28.36418" lon="-10.63838">
        <ele>165.7</ele>
        <time>2012-05-10T19:07:33Z</time>
      </trkpt>
      <trkpt lat="28.36402" lon="-10.63855">
        <ele>167</ele>
        <time>2012-05-10T19:07:38Z</time>
      </trkpt>
      <trkpt lat="28.36386" lon="-10.63865">
        <ele>168.2</ele>
        <time>2012-05-10T19:07:43Z</time>
      </trkpt>
      <trkpt lat="28.3637" lon="-10.63884">
        <ele>169.4</ele>
        <time>2012-05-10T19:07:48Z</time>
      </trkpt>
      <trkpt lat="28.36363" lon="-10.63905">
        <ele>168.7</ele>
        <time>2012-05-10T19:07:53Z</time>
      </trkpt>
      <trkpt lat="28.36366" lon="-10.6393">
        <ele>167.8</ele>
        <time>2012-05-10T19:07:58Z</time>
      </trkpt>
      <trkpt lat="28.36379" lon="-10.63982">
        <ele>166.6</ele>
        <time>2012-05-10T19:08:03Z</time>
      </trkpt>
      <trkpt lat="28.36396" lon="-10.63998">
        <ele>167.3</ele>
        <time>2012-05-10T19:08:08Z</time>
      </trkpt>
      <trkpt lat="28.3641" lon="-10.6402">
        <ele>167.6</ele>
        <time>2012-05-10T19:08:13Z</time>
      </trkpt>
      <trkpt lat="28.36419" lon="-10.64039">
        <ele>166.5</ele>
        <time>2012-05-10T19:08:18Z</time>
      </trkpt>
      <trkpt lat="28.36433" lon="-10.6407">
        <ele>165.6</ele>
        <time>2012-05-10T19:08:23Z</time>
      </trkpt>
      <trkpt lat="28.36448" lon="-10.641">
        <ele>164.6</ele>
        <time>2012-05-10T19:08:28Z</time>
      </trkpt>
      <trkpt lat="28.36456" lon="-10.64119">
        <ele>164.4</ele>
        <time>2012-05-10T19:08:33Z</time>
      </trkpt>
      <trkpt lat="28.36469" lon="-10.64143">
        <ele>164.8</ele>
        <time>2012-05-10T19:08:38Z</time>
      </trkpt>
      <trkpt lat="28.36495" lon="-10.64185">
        <ele>166.2</ele>
        <time>2012-05-10T19:08:43Z</time>
      </trkpt>
      <trkpt lat="28.36505" lon="-10.64209">
        <ele>166.1</ele>
        <time>2012-05-10T19:08:48Z</time>
      </trkpt>
      <trkpt lat="28.36514" lon="-10.64237">
        <ele>165.3</ele>
        <time>2012-05-10T19:08:53Z</time>
      </trkpt>
      <trkpt lat="28.36527" lon="-10.64267">
        <ele>164.2</ele>
        <time>2012-05-10T19:08:58Z</time>
      </trkpt>
      <trkpt lat="28.36531" lon="-10.64288">
        <ele>163.8</ele>
        <time>2012-05-10T19:09:03Z</time>
      </trkpt>
      <trkpt lat="28.36536" lon="-10.64309">
        <ele>163.5</ele>
        <time>2012-05-10T19:09:08Z</time>
      </trkpt>
      <trkpt lat="28.36543" lon="-10.64329">
        <ele>162.9</ele>
        <time>2012-05-10T19:09:13Z</time>
      </trkpt>
      <trkpt lat="28.36568" lon="-10.64392">
        <ele>160.3</ele>
        <time>2012-05-10T19:09:18Z</time>
      </trkpt>
      <trkpt lat="28.3658" lon="-10.64416">
        <ele>160.6</ele>
        <time>2012-05-10T19:09:23Z</time>
      </trkpt>
      <trkpt lat="28.36588" lon="-10.64436">
        <ele>160.8</ele>
        <time>2012-05-10T19:09:28Z</time>
      </trkpt>
      <trkpt lat="28.366" lon="-10.64459">
        <ele>161</ele>
        <time>2012-05-10T19:09:33Z</time>
      </trkpt>
      <trkpt lat="28.3662" lon="-10.64493">
        <ele>160.3</ele>
        <time>2012-05-10T19:09:38Z</time>
      </trkpt>
      <trkpt lat="28.36629" lon="-10.64517">
        <ele>160.2</ele>
        <time>2012-05-10T19:09:43Z</time>
      </trkpt>
      <trkpt lat="28.36634" lon="-10.64543">
        <ele>160.5</ele>
        <time>2012-05-10T19:09:48Z</time>
      </trkpt>
      <trkpt lat="28.36642" lon="-10.64569">
        <ele>160.3</ele>
        <time>2012-05-10T19:09:53Z</time>
      </trkpt>
      <trkpt lat="28.36657" lon="-10.64603">
        <ele>161.6</ele>
        <time>2012-05-10T19:09:58Z</time>
      </trkpt>
      <trkpt lat="28.36673" lon="-10.64627">
        <ele>162.8</ele>
        <time>2012-05-10T19:10:03Z</time>
      </trkpt>
      <trkpt lat="28.36686" lon="-10.64652">
        <ele>163</ele>
        <time>2012-05-10T19:10:08Z</time>
      </trkpt>
      <trkpt lat="28.36692" lon="-10.64673">
        <ele>162.1</ele>
        <time>2012-05-10T19:10:13Z</time>
      </trkpt>
      <trkpt lat="28.36697" lon="-10.64694">
        <ele>161.3</ele>
        <time>2012-05-10T19:10:18Z</time>
      </trkpt>
      <trkpt lat="28.367" lon="-10.64722">
        <ele>160.4</ele>
        <time>2012-05-10T19:10:23Z</time>
      </trkpt>
      <trkpt lat="28.3671" lon="-10.64746">
        <ele>159.6</ele>
        <time>2012-05-10T19:10:28Z</time>
      </trkpt>
      <trkpt lat="28.36721" lon="-10.64777">
        <ele>158.5</ele>
        <time>2012-05-10T19:10:33Z</time>
      </trkpt>
      <trkpt lat="28.36727" lon="-10.64802">
        <ele>157.5</ele>
        <time>2012-05-10T19:10:38Z</time>
      </trkpt>
      <trkpt lat="28.36722" lon="-10.64826">
        <ele>158.5</ele>
        <time>2012-05-10T19:10:43Z</time>
      </trkpt>
      <trkpt lat="28.36706" lon="-10.64842">
        <ele>159.5</ele>
        <time>2012-05-10T19:10:48Z</time>
      </trkpt>
      <trkpt lat="28.36699" lon="-10.64864">
        <ele>160.1</ele>
        <time>2012-05-10T19:10:53Z</time>
      </trkpt>
      <trkpt lat="28.36712" lon="-10.64883">
        <ele>159.9</ele>
        <time>2012-05-10T19:10:58Z</time>
      </trkpt>
      <trkpt lat="28.36728" lon="-10.64894">
        <ele>160.4</ele>
        <time>2012-05-10T19:11:03Z</time>
      </trkpt>
      <trkpt lat="28.36743" lon="-10.64908">
        <ele>163.4</ele>
        <time>2012-05-10T19:11:08Z</time>
      </trkpt>
      <trkpt lat="28.36748" lon="-10.64931">
        <ele>164.1</ele>
        <time>2012-05-10T19:11:13Z</time>
      </trkpt>
      <trkpt lat="28.36746" lon="-10.64953">
        <ele>164.8</ele>
        <time>2012-05-10T19:11:18Z</time>
      </trkpt>
      <trkpt lat="28.36737" lon="-10.64973">
        <ele>166.5</ele>
        <time>2012-05-10T19:11:23Z</time>
      </trkpt>
      <trkpt lat="28.36728" lon="-10.64995">
        <ele>167.2</ele>
        <time>2012-05-10T19:11:28Z</time>
      </trkpt>
      <trkpt lat="28.36721" lon="-10.6502">
        <ele>167.4</ele>
        <time>2012-05-10T19:11:33Z</time>
      </trkpt>
      <trkpt lat="28.36715" lon="-10.65068">
        <ele>168.4</ele>
        <time>2012-05-10T19:11:38Z</time>
      </trkpt>
      <trkpt lat="28.36715" lon="-10.65088">
        <ele>169.1</ele>
        <time>2012-05-10T19:11:43Z</time>
      </trkpt>
      <trkpt lat="28.36716" lon="-10.65109">
        <ele>169.8</ele>
        <time>2012-05-10T19:11:48Z</time>
      </trkpt>
      <trkpt lat="28.36715" lon="-10.65138">
        <ele>171.1</ele>
        <time>2012-05-10T19:11:53Z</time>
      </trkpt>
      <trkpt lat="28.36709" lon="-10.65185">
        <ele>173.3</ele>
        <time>2012-05-10T19:11:58Z</time>
      </trkpt>
      <trkpt lat="28.36712" lon="-10.65214">
        <ele>174.6</ele>
        <time>2012-05-10T19:12:03Z</time>
      </trkpt>
      <trkpt lat="28.36713" lon="-10.65244">
        <ele>175</ele>
        <time>2012-05-10T19:12:08Z</time>
      </trkpt>
      <trkpt lat="28.36719" lon="-10.65274">
        <ele>175.6</ele>
        <time>2012-05-10T19:12:13Z</time>
      </trkpt>
      <trkpt lat="28.36728" lon="-10.653">
        <ele>176.1</ele>
        <time>2012-05-10T19:12:18Z</time>
      </trkpt>
      <trkpt lat="28.36733" lon="-10.65329">
        <ele>175.5</ele>
        <time>2012-05-10T19:12:23Z</time>
      </trkpt>
      <trkpt lat="28.36736" lon="-10.65351">
        <ele>175.3</ele>
        <time>2012-05-10T19:12:28Z</time>
      </trkpt>
      <trkpt lat="28.36741" lon="-10.65374">
        <ele>175.7</ele>
        <time>2012-05-10T19:12:33Z</time>
      </trkpt>
      <trkpt lat="28.3675" lon="-10.65419">
        <ele>176.8</ele>
        <time>2012-05-10T19:12:38Z</time>
      </trkpt>
      <trkpt lat="28.36751" lon="-10.65441">
        <ele>177.4</ele>
        <time>2012-05-10T19:12:43Z</time>
      </trkpt>
      <trkpt lat="28.36751" lon="-10.65473">
        <ele>177.7</ele>
        <time>2012-05-10T19:12:48Z</time>
      </trkpt>
      <trkpt lat="28.36755" lon="-10.65496">
        <ele>178.2</ele>
        <time>2012-05-10T19:12:53Z</time>
      </trkpt>
      <trkpt lat="28.36756" lon="-10.65517">
        <ele>178.6</ele>
        <time>2012-05-10T19:12:58Z</time>
      </trkpt>
      <trkpt lat="28.36754" lon="-10.65538">
        <ele>178.6</ele>
        <time>2012-05-10T19:13:03Z</time>
      </trkpt>
      <trkpt lat="28.36748" lon="-10.6556">
        <ele>178.9</ele>
        <time>2012-05-10T19:13:08Z</time>
      </trkpt>
      <trkpt lat="28.36739" lon="-10.65581">
        <ele>179.6</ele>
        <time>2012-05-10T19:13:13Z</time>
      </trkpt>
      <trkpt lat="28.36728" lon="-10.65599">
        <ele>179.4</ele>
        <time>2012-05-10T19:13:18Z</time>
      </trkpt>
      <trkpt lat="28.36698" lon="-10.65649">
        <ele>179.6</ele>
        <time>2012-05-10T19:13:23Z</time>
      </trkpt>
      <trkpt lat="28.36672" lon="-10.65702">
        <ele>181.2</ele>
        <time>2012-05-10T19:13:28Z</time>
      </trkpt>
      <trkpt lat="28.36665" lon="-10.65725">
        <ele>182.3</ele>
        <time>2012-05-10T19:13:33Z</time>
      </trkpt>
      <trkpt lat="28.36661" lon="-10.65747">
        <ele>183.5</ele>
        <time>2012-05-10T19:13:38Z</time>
      </trkpt>
      <trkpt lat="28.36654" lon="-10.65778">
        <ele>184.3</ele>
        <time>2012-05-10T19:13:43Z</time>
      </trkpt>
      <trkpt lat="28.36646" lon="-10.65798">
        <ele>185</ele>
        <time>2012-05-10T19:13:48Z</time>
      </trkpt>
      <trkpt lat="28.36635" lon="-10.65829">
        <ele>185.7</ele>
        <time>2012-05-10T19:13:53Z</time>
      </trkpt>
      <trkpt lat="28.36631" lon="-10.65854">
        <ele>186.5</ele>
        <time>2012-05-10T19:13:58Z</time>
      </trkpt>
      <trkpt lat="28.3663" lon="-10.65877">
        <ele>187.7</ele>
        <time>2012-05-10T19:14:03Z</time>
      </trkpt>
      <trkpt lat="28.36629" lon="-10.65905">
        <ele>189.2</ele>
        <time>2012-05-10T19:14:08Z</time>
      </trkpt>
      <trkpt lat="28.36618" lon="-10.65927">
        <ele>190.3</ele>
        <time>2012-05-10T19:14:13Z</time>
      </trkpt>
      <trkpt lat="28.36599" lon="-10.65944">
        <ele>189.7</ele>
        <time>2012-05-10T19:14:18Z</time>
      </trkpt>
      <trkpt lat="28.36581" lon="-10.6595">
        <ele>189.7</ele>
        <time>2012-05-10T19:14:23Z</time>
      </trkpt>
      <trkpt lat="28.3655" lon="-10.65957">
        <ele>193</ele>
        <time>2012-05-10T19:14:28Z</time>
      </trkpt>
      <trkpt lat="28.3653" lon="-10.65969">
        <ele>195.3</ele>
        <time>2012-05-10T19:14:33Z</time>
      </trkpt>
      <trkpt lat="28.36512" lon="-10.65983">
        <ele>196.8</ele>
        <time>2012-05-10T19:14:38Z</time>
      </trkpt>
      <trkpt lat="28.36508" lon="-10.66003">
        <ele>197.1</ele>
        <time>2012-05-10T19:14:43Z</time>
      </trkpt>
      <trkpt lat="28.36514" lon="-10.66028">
        <ele>197.4</ele>
        <time>2012-05-10T19:14:48Z</time>
      </trkpt>
      <trkpt lat="28.36516" lon="-10.66052">
        <ele>197.5</ele>
        <time>2012-05-10T19:14:53Z</time>
      </trkpt>
      <trkpt lat="28.36508" lon="-10.66076">
        <ele>196.8</ele>
        <time>2012-05-10T19:14:58Z</time>
      </trkpt>
      <trkpt lat="28.36501" lon="-10.66104">
        <ele>195</ele>
        <time>2012-05-10T19:15:03Z</time>
      </trkpt>
      <trkpt lat="28.36497" lon="-10.66131">
        <ele>192.7</ele>
        <time>2012-05-10T19:15:08Z</time>
      </trkpt>
      <trkpt lat="28.36485" lon="-10.66153">
        <ele>190.5</ele>
        <time>2012-05-10T19:15:13Z</time>
      </trkpt>
      <trkpt lat="28.36468" lon="-10.66169">
        <ele>189.3</ele>
        <time>2012-05-10T19:15:18Z</time>
      </trkpt>
      <trkpt lat="28.3645" lon="-10.66177">
        <ele>189</ele>
        <time>2012-05-10T19:15:23Z</time>
      </trkpt>
      <trkpt lat="28.3643" lon="-10.66174">
        <ele>188.5</ele>
        <time>2012-05-10T19:15:28Z</time>
      </trkpt>
      <trkpt lat="28.36412" lon="-10.66174">
        <ele>187.7</ele>
        <time>2012-05-10T19:15:33Z</time>
      </trkpt>
      <trkpt lat="28.36398" lon="-10.66188">
        <ele>187.5</ele>
        <time>2012-05-10T19:15:38Z</time>
      </trkpt>
      <trkpt lat="28.36376" lon="-10.66224">
        <ele>189.7</ele>
        <time>2012-05-10T19:15:43Z</time>
      </trkpt>
      <trkpt lat="28.36367" lon="-10.66244">
        <ele>190.4</ele>
        <time>2012-05-10T19:15:48Z</time>
      </trkpt>
      <trkpt lat="28.36363" lon="-10.66268">
        <ele>191.3</ele>
        <time>2012-05-10T19:15:53Z</time>
      </trkpt>
      <trkpt lat="28.36356" lon="-10.66294">
        <ele>191.9</ele>
        <time>2012-05-10T19:15:58Z</time>
      </trkpt>
      <trkpt lat="28.36349" lon="-10.66322">
        <ele>192.7</ele>
        <time>2012-05-10T19:16:03Z</time>
      </trkpt>
      <trkpt lat="28.36339" lon="-10.66339">
        <ele>193.2</ele>
        <time>2012-05-10T19:16:08Z</time>
      </trkpt>
      <trkpt lat="28.36325" lon="-10.66355">
        <ele>193.3</ele>
        <time>2012-05-10T19:16:13Z</time>
      </trkpt>
      <trkpt lat="28.3631" lon="-10.66368">
        <ele>193.6</ele>
        <time>2012-05-10T19:16:18Z</time>
      </trkpt>
      <trkpt lat="28.36291" lon="-10.66387">
        <ele>193.5</ele>
        <time>2012-05-10T19:16:23Z</time>
      </trkpt>
      <trkpt lat="28.36278" lon="-10.66411">
        <ele>193.8</ele>
        <time>2012-05-10T19:16:28Z</time>
      </trkpt>
      <trkpt lat="28.36266" lon="-10.66434">
        <ele>194.2</ele>
        <time>2012-05-10T19:16:33Z</time>
      </trkpt>
      <trkpt lat="28.36256" lon="-10.66458">
        <ele>194.3</ele>
        <time>2012-05-10T19:16:38Z</time>
      </trkpt>
      <trkpt lat="28.36246" lon="-10.66492">
        <ele>194.7</ele>
        <time>2012-05-10T19:16:43Z</time>
      </trkpt>
      <trkpt lat="28.36235" lon="-10.66516">
        <ele>195.3</ele>
        <time>2012-05-10T19:16:48Z</time>
      </trkpt>
      <trkpt lat="28.36213" lon="-10.66558">
        <ele>195.9</ele>
        <time>2012-05-10T19:16:53Z</time>
      </trkpt>
      <trkpt lat="28.36202" lon="-10.66585">
        <ele>196</ele>
        <time>2012-05-10T19:16:58Z</time>
      </trkpt>
      <trkpt lat="28.36191" lon="-10.6661">
        <ele>196.3</ele>
        <time>2012-05-10T19:17:03Z</time>
      </trkpt>
      <trkpt lat="28.36177" lon="-10.66647">
        <ele>199</ele>
        <time>2012-05-10T19:17:08Z</time>
      </trkpt>
      <trkpt lat="28.3617" lon="-10.66667">
        <ele>199.9</ele>
        <time>2012-05-10T19:17:13Z</time>
      </trkpt>
      <trkpt lat="28.36161" lon="-10.66697">
        <ele>200.4</ele>
        <time>2012-05-10T19:17:18Z</time>
      </trkpt>
      <trkpt lat="28.36153" lon="-10.66716">
        <ele>200.6</ele>
        <time>2012-05-10T19:17:23Z</time>
      </trkpt>
      <trkpt lat="28.36144" lon="-10.66735">
        <ele>200.6</ele>
        <time>2012-05-10T19:17:28Z</time>
      </trkpt>
      <trkpt lat="28.36135" lon="-10.66761">
        <ele>200.3</ele>
        <time>2012-05-10T19:17:33Z</time>
      </trkpt>
      <trkpt lat="28.36129" lon="-10.66788">
        <ele>200.6</ele>
        <time>2012-05-10T19:17:38Z</time>
      </trkpt>
      <trkpt lat="28.36119" lon="-10.6681">
        <ele>200.4</ele>
        <time>2012-05-10T19:17:43Z</time>
      </trkpt>
      <trkpt lat="28.36114" lon="-10.66834">
        <ele>200.3</ele>
        <time>2012-05-10T19:17:48Z</time>
      </trkpt>
      <trkpt lat="28.36113" lon="-10.66861">
        <ele>200.8</ele>
        <time>2012-05-10T19:17:53Z</time>
      </trkpt>
      <trkpt lat="28.36107" lon="-10.66888">
        <ele>201.7</ele>
        <time>2012-05-10T19:17:58Z</time>
      </trkpt>
      <trkpt lat="28.361" lon="-10.66909">
        <ele>202.1</ele>
        <time>2012-05-10T19:18:03Z</time>
      </trkpt>
      <trkpt lat="28.36104" lon="-10.66929">
        <ele>202.5</ele>
        <time>2012-05-10T19:18:08Z</time>
      </trkpt>
      <trkpt lat="28.36108" lon="-10.66955">
        <ele>202.2</ele>
        <time>2012-05-10T19:18:13Z</time>
      </trkpt>
      <trkpt lat="28.36107" lon="-10.66976">
        <ele>202.2</ele>
        <time>2012-05-10T19:18:18Z</time>
      </trkpt>
      <trkpt lat="28.36103" lon="-10.67004">
        <ele>202.8</ele>
        <time>2012-05-10T19:18:23Z</time>
      </trkpt>
      <trkpt lat="28.36097" lon="-10.67045">
        <ele>203.1</ele>
        <time>2012-05-10T19:18:28Z</time>
      </trkpt>
      <trkpt lat="28.36089" lon="-10.67073">
        <ele>202.9</ele>
        <time>2012-05-10T19:18:33Z</time>
      </trkpt>
      <trkpt lat="28.36078" lon="-10.67102">
        <ele>203.6</ele>
        <time>2012-05-10T19:18:38Z</time>
      </trkpt>
      <trkpt lat="28.36076" lon="-10.67132">
        <ele>203.7</ele>
        <time>2012-05-10T19:18:43Z</time>
      </trkpt>
      <trkpt lat="28.36073" lon="-10.67159">
        <ele>204.2</ele>
        <time>2012-05-10T19:18:48Z</time>
      </trkpt>
      <trkpt lat="28.36066" lon="-10.67182">
        <ele>205.3</ele>
        <time>2012-05-10T19:18:53Z</time>
      </trkpt>
      <trkpt lat="28.36073" lon="-10.67209">
        <ele>205.4</ele>
        <time>2012-05-10T19:18:58Z</time>
      </trkpt>
      <trkpt lat="28.36077" lon="-10.67232">
        <ele>205.8</ele>
        <time>2012-05-10T19:19:03Z</time>
      </trkpt>
      <trkpt lat="28.36089" lon="-10.67288">
        <ele>206</ele>
        <time>2012-05-10T19:19:08Z</time>
      </trkpt>
      <trkpt lat="28.36099" lon="-10.6731">
        <ele>206.2</ele>
        <time>2012-05-10T19:19:13Z</time>
      </trkpt>
      <trkpt lat="28.36105" lon="-10.67331">
        <ele>206.3</ele>
        <time>2012-05-10T19:19:18Z</time>
      </trkpt>
      <trkpt lat="28.36112" lon="-10.67357">
        <ele>207.1</ele>
        <time>2012-05-10T19:19:23Z</time>
      </trkpt>
      <trkpt lat="28.36127" lon="-10.67383">
        <ele>207.6</ele>
        <time>2012-05-10T19:19:28Z</time>
      </trkpt>
      <trkpt lat="28.36138" lon="-10.67402">
        <ele>208.1</ele>
        <time>2012-05-10T19:19:33Z</time>
      </trkpt>
      <trkpt lat="28.36153" lon="-10.67427">
        <ele>208.6</ele>
        <time>2012-05-10T19:19:38Z</time>
      </trkpt>
      <trkpt lat="28.36159" lon="-10.67455">
        <ele>209.1</ele>
        <time>2012-05-10T19:19:43Z</time>
      </trkpt>
      <trkpt lat="28.36161" lon="-10.67483">
        <ele>210.1</ele>
        <time>2012-05-10T19:19:48Z</time>
      </trkpt>
      <trkpt lat="28.36166" lon="-10.67509">
        <ele>211.1</ele>
        <time>2012-05-10T19:19:53Z</time>
      </trkpt>
      <trkpt lat="28.36159" lon="-10.67529">
        <ele>212.3</ele>
        <time>2012-05-10T19:19:58Z</time>
      </trkpt>
      <trkpt lat="28.36141" lon="-10.67545">
        <ele>213.7</ele>
        <time>2012-05-10T19:20:03Z</time>
      </trkpt>
      <trkpt lat="28.36131" lon="-10.67563">
        <ele>214.6</ele>
        <time>2012-05-10T19:20:08Z</time>
      </trkpt>
      <trkpt lat="28.36133" lon="-10.67589">
        <ele>214.4</ele>
        <time>2012-05-10T19:20:13Z</time>
      </trkpt>
      <trkpt lat="28.36143" lon="-10.67611">
        <ele>214</ele>
        <time>2012-05-10T19:20:18Z</time>
      </trkpt>
      <trkpt lat="28.36146" lon="-10.67646">
        <ele>213.8</ele>
        <time>2012-05-10T19:20:23Z</time>
      </trkpt>
      <trkpt lat="28.36158" lon="-10.67673">
        <ele>214.3</ele>
        <time>2012-05-10T19:20:28Z</time>
      </trkpt>
      <trkpt lat="28.36168" lon="-10.67694">
        <ele>214.4</ele>
        <time>2012-05-10T19:20:33Z</time>
      </trkpt>
      <trkpt lat="28.36178" lon="-10.6772">
        <ele>214.6</ele>
        <time>2012-05-10T19:20:38Z</time>
      </trkpt>
      <trkpt lat="28.36177" lon="-10.67744">
        <ele>215.2</ele>
        <time>2012-05-10T19:20:43Z</time>
      </trkpt>
      <trkpt lat="28.36175" lon="-10.67766">
        <ele>214.7</ele>
        <time>2012-05-10T19:20:48Z</time>
      </trkpt>
      <trkpt lat="28.36167" lon="-10.6779">
        <ele>212.3</ele>
        <time>2012-05-10T19:20:53Z</time>
      </trkpt>
      <trkpt lat="28.36164" lon="-10.67816">
        <ele>208.9</ele>
        <time>2012-05-10T19:20:58Z</time>
      </trkpt>
      <trkpt lat="28.36166" lon="-10.67841">
        <ele>204.8</ele>
        <time>2012-05-10T19:21:03Z</time>
      </trkpt>
      <trkpt lat="28.3618" lon="-10.67857">
        <ele>203.1</ele>
        <time>2012-05-10T19:21:08Z</time>
      </trkpt>
      <trkpt lat="28.3618" lon="-10.67876">
        <ele>201.2</ele>
        <time>2012-05-10T19:21:13Z</time>
      </trkpt>
      <trkpt lat="28.36165" lon="-10.6789">
        <ele>198.9</ele>
        <time>2012-05-10T19:21:18Z</time>
      </trkpt>
      <trkpt lat="28.36151" lon="-10.67904">
        <ele>197.9</ele>
        <time>2012-05-10T19:21:23Z</time>
      </trkpt>
      <trkpt lat="28.3614" lon="-10.6792">
        <ele>198.5</ele>
        <time>2012-05-10T19:21:28Z</time>
      </trkpt>
      <trkpt lat="28.36121" lon="-10.67922">
        <ele>201.6</ele>
        <time>2012-05-10T19:21:33Z</time>
      </trkpt>
      <trkpt lat="28.36102" lon="-10.67919">
        <ele>203.6</ele>
        <time>2012-05-10T19:21:38Z</time>
      </trkpt>
      <trkpt lat="28.36084" lon="-10.67927">
        <ele>206.3</ele>
        <time>2012-05-10T19:21:43Z</time>
      </trkpt>
      <trkpt lat="28.3607" lon="-10.67941">
        <ele>208.5</ele>
        <time>2012-05-10T19:21:48Z</time>
      </trkpt>
      <trkpt lat="28.36056" lon="-10.67958">
        <ele>209.7</ele>
        <time>2012-05-10T19:21:53Z</time>
      </trkpt>
      <trkpt lat="28.3605" lon="-10.67984">
        <ele>211.8</ele>
        <time>2012-05-10T19:21:58Z</time>
      </trkpt>
      <trkpt lat="28.36052" lon="-10.68014">
        <ele>213</ele>
        <time>2012-05-10T19:22:03Z</time>
      </trkpt>
      <trkpt lat="28.36041" lon="-10.68038">
        <ele>213.6</ele>
        <time>2012-05-10T19:22:08Z</time>
      </trkpt>
      <trkpt lat="28.36031" lon="-10.68059">
        <ele>214.8</ele>
        <time>2012-05-10T19:22:13Z</time>
      </trkpt>
      <trkpt lat="28.36025" lon="-10.6808">
        <ele>216.3</ele>
        <time>2012-05-10T19:22:18Z</time>
      </trkpt>
      <trkpt lat="28.3602" lon="-10.68101">
        <ele>217.8</ele>
        <time>2012-05-10T19:22:23Z</time>
      </trkpt>
      <trkpt lat="28.36008" lon="-10.68118">
        <ele>217.7</ele>
        <time>2012-05-10T19:22:28Z</time>
      </trkpt>
      <trkpt lat="28.35996" lon="-10.68134">
        <ele>216.8</ele>
        <time>2012-05-10T19:22:33Z</time>
      </trkpt>
      <trkpt lat="28.35987" lon="-10.68155">
        <ele>215.7</ele>
        <time>2012-05-10T19:22:38Z</time>
      </trkpt>
      <trkpt lat="28.35976" lon="-10.68174">
        <ele>214.9</ele>
        <time>2012-05-10T19:22:43Z</time>
      </trkpt>
      <trkpt lat="28.35963" lon="-10.68188">
        <ele>214.2</ele>
        <time>2012-05-10T19:22:48Z</time>
      </trkpt>
      <trkpt lat="28.35949" lon="-10.68203">
        <ele>212.5</ele>
        <time>2012-05-10T19:22:53Z</time>
      </trkpt>
      <trkpt lat="28.3595" lon="-10.68229">
        <ele>213.1</ele>
        <time>2012-05-10T19:22:58Z</time>
      </trkpt>
      <trkpt lat="28.35945" lon="-10.6825">
        <ele>214.5</ele>
        <time>2012-05-10T19:23:03Z</time>
      </trkpt>
      <trkpt lat="28.35937" lon="-10.6827">
        <ele>216.5</ele>
        <time>2012-05-10T19:23:08Z</time>
      </trkpt>
      <trkpt lat="28.3593" lon="-10.683">
        <ele>218.3</ele>
        <time>2012-05-10T19:23:13Z</time>
      </trkpt>
      <trkpt lat="28.3592" lon="-10.68322">
        <ele>219.9</ele>
        <time>2012-05-10T19:23:18Z</time>
      </trkpt>
      <trkpt lat="28.35909" lon="-10.68343">
        <ele>221</ele>
        <time>2012-05-10T19:23:23Z</time>
      </trkpt>
      <trkpt lat="28.35895" lon="-10.68359">
        <ele>220.8</ele>
        <time>2012-05-10T19:23:28Z</time>
      </trkpt>
      <trkpt lat="28.35885" lon="-10.68376">
        <ele>219.7</ele>
        <time>2012-05-10T19:23:33Z</time>
      </trkpt>
      <trkpt lat="28.35873" lon="-10.68395">
        <ele>218.3</ele>
        <time>2012-05-10T19:23:38Z</time>
      </trkpt>
      <trkpt lat="28.35866" lon="-10.68411">
        <ele>218.6</ele>
        <time>2012-05-10T19:23:43Z</time>
      </trkpt>
      <trkpt lat="28.35869" lon="-10.68431">
        <ele>218.2</ele>
        <time>2012-05-10T19:23:48Z</time>
      </trkpt>
      <trkpt lat="28.35852" lon="-10.68444">
        <ele>218.9</ele>
        <time>2012-05-10T19:23:53Z</time>
      </trkpt>
      <trkpt lat="28.35834" lon="-10.68452">
        <ele>220</ele>
        <time>2012-05-10T19:23:58Z</time>
      </trkpt>
      <trkpt lat="28.35815" lon="-10.68455">
        <ele>220.9</ele>
        <time>2012-05-10T19:24:03Z</time>
      </trkpt>
      <trkpt lat="28.35788" lon="-10.68453">
        <ele>221.9</ele>
        <time>2012-05-10T19:24:08Z</time>
      </trkpt>
      <trkpt lat="28.3577" lon="-10.68463">
        <ele>221.7</ele>
        <time>2012-05-10T19:24:13Z</time>
      </trkpt>
      <trkpt lat="28.35749" lon="-10.68472">
        <ele>221.1</ele>
        <time>2012-05-10T19:24:18Z</time>
      </trkpt>
      <trkpt lat="28.35727" lon="-10.68478">
        <ele>221.3</ele>
        <time>2012-05-10T19:24:23Z</time>
      </trkpt>
      <trkpt lat="28.35706" lon="-10.68474">
        <ele>222.3</ele>
        <time>2012-05-10T19:24:28Z</time>
      </trkpt>
      <trkpt lat="28.35685" lon="-10.68472">
        <ele>223.1</ele>
        <time>2012-05-10T19:24:33Z</time>
      </trkpt>
      <trkpt lat="28.35663" lon="-10.6848">
        <ele>223.8</ele>
        <time>2012-05-10T19:24:38Z</time>
      </trkpt>
      <trkpt lat="28.35637" lon="-10.68489">
        <ele>224</ele>
        <time>2012-05-10T19:24:43Z</time>
      </trkpt>
      <trkpt lat="28.35613" lon="-10.68497">
        <ele>224.4</ele>
        <time>2012-05-10T19:24:48Z</time>
      </trkpt>
      <trkpt lat="28.35591" lon="-10.68507">
        <ele>225.1</ele>
        <time>2012-05-10T19:24:53Z</time>
      </trkpt>
      <trkpt lat="28.35571" lon="-10.68514">
        <ele>225.9</ele>
        <time>2012-05-10T19:24:58Z</time>
      </trkpt>
      <trkpt lat="28.35552" lon="-10.68527">
        <ele>225.3</ele>
        <time>2012-05-10T19:25:03Z</time>
      </trkpt>
      <trkpt lat="28.35529" lon="-10.68537">
        <ele>226.1</ele>
        <time>2012-05-10T19:25:08Z</time>
      </trkpt>
      <trkpt lat="28.3549" lon="-10.68562">
        <ele>227.5</ele>
        <time>2012-05-10T19:25:13Z</time>
      </trkpt>
      <trkpt lat="28.35469" lon="-10.68576">
        <ele>228.5</ele>
        <time>2012-05-10T19:25:18Z</time>
      </trkpt>
      <trkpt lat="28.35447" lon="-10.68588">
        <ele>229.5</ele>
        <time>2012-05-10T19:25:23Z</time>
      </trkpt>
      <trkpt lat="28.3541" lon="-10.68608">
        <ele>230.7</ele>
        <time>2012-05-10T19:25:28Z</time>
      </trkpt>
      <trkpt lat="28.35392" lon="-10.68622">
        <ele>231.9</ele>
        <time>2012-05-10T19:25:33Z</time>
      </trkpt>
      <trkpt lat="28.35375" lon="-10.68641">
        <ele>232.1</ele>
        <time>2012-05-10T19:25:38Z</time>
      </trkpt>
      <trkpt lat="28.35356" lon="-10.68653">
        <ele>233.3</ele>
        <time>2012-05-10T19:25:43Z</time>
      </trkpt>
      <trkpt lat="28.35339" lon="-10.68666">
        <ele>234.4</ele>
        <time>2012-05-10T19:25:48Z</time>
      </trkpt>
      <trkpt lat="28.35324" lon="-10.68682">
        <ele>234.9</ele>
        <time>2012-05-10T19:25:53Z</time>
      </trkpt>
      <trkpt lat="28.35313" lon="-10.68702">
        <ele>235.8</ele>
        <time>2012-05-10T19:25:58Z</time>
      </trkpt>
      <trkpt lat="28.35309" lon="-10.68724">
        <ele>235.2</ele>
        <time>2012-05-10T19:26:03Z</time>
      </trkpt>
      <trkpt lat="28.35309" lon="-10.68746">
        <ele>234.2</ele>
        <time>2012-05-10T19:26:08Z</time>
      </trkpt>
      <trkpt lat="28.353" lon="-10.68764">
        <ele>233.6</ele>
        <time>2012-05-10T19:26:13Z</time>
      </trkpt>
      <trkpt lat="28.3528" lon="-10.68779">
        <ele>233.4</ele>
        <time>2012-05-10T19:26:18Z</time>
      </trkpt>
      <trkpt lat="28.35262" lon="-10.6879">
        <ele>233.6</ele>
        <time>2012-05-10T19:26:23Z</time>
      </trkpt>
      <trkpt lat="28.35248" lon="-10.68807">
        <ele>234.5</ele>
        <time>2012-05-10T19:26:28Z</time>
      </trkpt>
      <trkpt lat="28.35232" lon="-10.68823">
        <ele>235</ele>
        <time>2012-05-10T19:26:33Z</time>
      </trkpt>
      <trkpt lat="28.3522" lon="-10.68843">
        <ele>235.6</ele>
        <time>2012-05-10T19:26:38Z</time>
      </trkpt>
      <trkpt lat="28.35207" lon="-10.68863">
        <ele>236.3</ele>
        <time>2012-05-10T19:26:43Z</time>
      </trkpt>
      <trkpt lat="28.35192" lon="-10.68882">
        <ele>236.8</ele>
        <time>2012-05-10T19:26:48Z</time>
      </trkpt>
      <trkpt lat="28.35174" lon="-10.68896">
        <ele>237.1</ele>
        <time>2012-05-10T19:26:53Z</time>
      </trkpt>
      <trkpt lat="28.3516" lon="-10.68914">
        <ele>237.7</ele>
        <time>2012-05-10T19:26:58Z</time>
      </trkpt>
      <trkpt lat="28.35149" lon="-10.68931">
        <ele>238.5</ele>
        <time>2012-05-10T19:27:03Z</time>
      </trkpt>
      <trkpt lat="28.35136" lon="-10.68951">
        <ele>239.2</ele>
        <time>2012-05-10T19:27:08Z</time>
      </trkpt>
      <trkpt lat="28.35118" lon="-10.68963">
        <ele>239.4</ele>
        <time>2012-05-10T19:27:13Z</time>
      </trkpt>
      <trkpt lat="28.35102" lon="-10.68975">
        <ele>239.7</ele>
        <time>2012-05-10T19:27:18Z</time>
      </trkpt>
      <trkpt lat="28.35089" lon="-10.68992">
        <ele>239.9</ele>
        <time>2012-05-10T19:27:23Z</time>
      </trkpt>
      <trkpt lat="28.35077" lon="-10.69007">
        <ele>240.6</ele>
        <time>2012-05-10T19:27:28Z</time>
      </trkpt>
      <trkpt lat="28.35075" lon="-10.69026">
        <ele>240.6</ele>
        <time>2012-05-10T19:27:33Z</time>
      </trkpt>
      <trkpt lat="28.35071" lon="-10.69046">
        <ele>241.2</ele>
        <time>2012-05-10T19:27:38Z</time>
      </trkpt>
      <trkpt lat="28.35054" lon="-10.69067">
        <ele>241.7</ele>
        <time>2012-05-10T19:27:43Z</time>
      </trkpt>
      <trkpt lat="28.3504" lon="-10.69084">
        <ele>242.4</ele>
        <time>2012-05-10T19:27:48Z</time>
      </trkpt>
      <trkpt lat="28.35027" lon="-10.69099">
        <ele>243</ele>
        <time>2012-05-10T19:27:53Z</time>
      </trkpt>
      <trkpt lat="28.35018" lon="-10.69122">
        <ele>243.9</ele>
        <time>2012-05-10T19:27:58Z</time>
      </trkpt>
      <trkpt lat="28.35" lon="-10.69161">
        <ele>245.1</ele>
        <time>2012-05-10T19:28:03Z</time>
      </trkpt>
      <trkpt lat="28.34984" lon="-10.69182">
        <ele>245.6</ele>
        <time>2012-05-10T19:28:08Z</time>
      </trkpt>
      <trkpt lat="28.34973" lon="-10.69203">
        <ele>246.6</ele>
        <time>2012-05-10T19:28:13Z</time>
      </trkpt>
      <trkpt lat="28.34959" lon="-10.69217">
        <ele>247</ele>
        <time>2012-05-10T19:28:18Z</time>
      </trkpt>
      <trkpt lat="28.34943" lon="-10.69228">
        <ele>247.4</ele>
        <time>2012-05-10T19:28:23Z</time>
      </trkpt>
      <trkpt lat="28.34927" lon="-10.6924">
        <ele>247.9</ele>
        <time>2012-05-10T19:28:28Z</time>
      </trkpt>
      <trkpt lat="28.34916" lon="-10.69256">
        <ele>248.5</ele>
        <time>2012-05-10T19:28:33Z</time>
      </trkpt>
      <trkpt lat="28.34909" lon="-10.69277">
        <ele>249.8</ele>
        <time>2012-05-10T19:28:38Z</time>
      </trkpt>
      <trkpt lat="28.34904" lon="-10.69301">
        <ele>250.9</ele>
        <time>2012-05-10T19:28:43Z</time>
      </trkpt>
      <trkpt lat="28.34897" lon="-10.69329">
        <ele>252</ele>
        <time>2012-05-10T19:28:48Z</time>
      </trkpt>
      <trkpt lat="28.3489" lon="-10.69358">
        <ele>253.4</ele>
        <time>2012-05-10T19:28:53Z</time>
      </trkpt>
      <trkpt lat="28.34891" lon="-10.69387">
        <ele>254.9</ele>
        <time>2012-05-10T19:28:58Z</time>
      </trkpt>
      <trkpt lat="28.34895" lon="-10.69412">
        <ele>255.1</ele>
        <time>2012-05-10T19:29:03Z</time>
      </trkpt>
      <trkpt lat="28.34894" lon="-10.69436">
        <ele>256.8</ele>
        <time>2012-05-10T19:29:08Z</time>
      </trkpt>
      <trkpt lat="28.34888" lon="-10.69456">
        <ele>257.9</ele>
        <time>2012-05-10T19:29:13Z</time>
      </trkpt>
      <trkpt lat="28.3488" lon="-10.6948">
        <ele>259.3</ele>
        <time>2012-05-10T19:29:18Z</time>
      </trkpt>
      <trkpt lat="28.34874" lon="-10.69501">
        <ele>260.5</ele>
        <time>2012-05-10T19:29:23Z</time>
      </trkpt>
      <trkpt lat="28.34866" lon="-10.69524">
        <ele>263.6</ele>
        <time>2012-05-10T19:29:28Z</time>
      </trkpt>
      <trkpt lat="28.34863" lon="-10.69545">
        <ele>266</ele>
        <time>2012-05-10T19:29:33Z</time>
      </trkpt>
      <trkpt lat="28.34854" lon="-10.69569">
        <ele>268.6</ele>
        <time>2012-05-10T19:29:38Z</time>
      </trkpt>
      <trkpt lat="28.34848" lon="-10.69591">
        <ele>270.7</ele>
        <time>2012-05-10T19:29:43Z</time>
      </trkpt>
      <trkpt lat="28.34839" lon="-10.69613">
        <ele>272.3</ele>
        <time>2012-05-10T19:29:48Z</time>
      </trkpt>
      <trkpt lat="28.34828" lon="-10.69635">
        <ele>274.3</ele>
        <time>2012-05-10T19:29:53Z</time>
      </trkpt>
      <trkpt lat="28.34819" lon="-10.69658">
        <ele>276</ele>
        <time>2012-05-10T19:29:58Z</time>
      </trkpt>
      <trkpt lat="28.34813" lon="-10.69685">
        <ele>277.2</ele>
        <time>2012-05-10T19:30:03Z</time>
      </trkpt>
      <trkpt lat="28.34805" lon="-10.69711">
        <ele>279.4</ele>
        <time>2012-05-10T19:30:08Z</time>
      </trkpt>
      <trkpt lat="28.34798" lon="-10.69733">
        <ele>281.8</ele>
        <time>2012-05-10T19:30:13Z</time>
      </trkpt>
      <trkpt lat="28.3479" lon="-10.6978">
        <ele>284.3</ele>
        <time>2012-05-10T19:30:18Z</time>
      </trkpt>
      <trkpt lat="28.34791" lon="-10.69803">
        <ele>286.4</ele>
        <time>2012-05-10T19:30:23Z</time>
      </trkpt>
      <trkpt lat="28.34788" lon="-10.69824">
        <ele>288</ele>
        <time>2012-05-10T19:30:28Z</time>
      </trkpt>
      <trkpt lat="28.34781" lon="-10.69846">
        <ele>287.9</ele>
        <time>2012-05-10T19:30:33Z</time>
      </trkpt>
      <trkpt lat="28.3477" lon="-10.69866">
        <ele>288.6</ele>
        <time>2012-05-10T19:30:38Z</time>
      </trkpt>
      <trkpt lat="28.3476" lon="-10.69887">
        <ele>289.8</ele>
        <time>2012-05-10T19:30:43Z</time>
      </trkpt>
      <trkpt lat="28.34746" lon="-10.69922">
        <ele>291.8</ele>
        <time>2012-05-10T19:30:48Z</time>
      </trkpt>
      <trkpt lat="28.34735" lon="-10.69943">
        <ele>293.4</ele>
        <time>2012-05-10T19:30:53Z</time>
      </trkpt>
      <trkpt lat="28.34726" lon="-10.69965">
        <ele>295</ele>
        <time>2012-05-10T19:30:58Z</time>
      </trkpt>
      <trkpt lat="28.34722" lon="-10.69993">
        <ele>296.5</ele>
        <time>2012-05-10T19:31:03Z</time>
      </trkpt>
      <trkpt lat="28.34719" lon="-10.7003">
        <ele>298</ele>
        <time>2012-05-10T19:31:08Z</time>
      </trkpt>
      <trkpt lat="28.34717" lon="-10.70055">
        <ele>296.3</ele>
        <time>2012-05-10T19:31:13Z</time>
      </trkpt>
      <trkpt lat="28.34716" lon="-10.70078">
        <ele>293.6</ele>
        <time>2012-05-10T19:31:18Z</time>
      </trkpt>
      <trkpt lat="28.34724" lon="-10.701">
        <ele>291.2</ele>
        <time>2012-05-10T19:31:23Z</time>
      </trkpt>
      <trkpt lat="28.34732" lon="-10.70119">
        <ele>289.7</ele>
        <time>2012-05-10T19:31:28Z</time>
      </trkpt>
      <trkpt lat="28.34735" lon="-10.70143">
        <ele>288</ele>
        <time>2012-05-10T19:31:33Z</time>
      </trkpt>
      <trkpt lat="28.34736" lon="-10.70172">
        <ele>286.7</ele>
        <time>2012-05-10T19:31:38Z</time>
      </trkpt>
      <trkpt lat="28.34731" lon="-10.70195">
        <ele>285</ele>
        <time>2012-05-10T19:31:43Z</time>
      </trkpt>
      <trkpt lat="28.34725" lon="-10.70217">
        <ele>283.2</ele>
        <time>2012-05-10T19:31:48Z</time>
      </trkpt>
      <trkpt lat="28.34721" lon="-10.70256">
        <ele>279.6</ele>
        <time>2012-05-10T19:31:53Z</time>
      </trkpt>
      <trkpt lat="28.34713" lon="-10.70277">
        <ele>277.9</ele>
        <time>2012-05-10T19:31:58Z</time>
      </trkpt>
      <trkpt lat="28.34702" lon="-10.70296">
        <ele>276</ele>
        <time>2012-05-10T19:32:03Z</time>
      </trkpt>
      <trkpt lat="28.34689" lon="-10.7032">
        <ele>274.3</ele>
        <time>2012-05-10T19:32:08Z</time>
      </trkpt>
      <trkpt lat="28.34692" lon="-10.7034">
        <ele>272.8</ele>
        <time>2012-05-10T19:32:13Z</time>
      </trkpt>
      <trkpt lat="28.34709" lon="-10.70365">
        <ele>270.1</ele>
        <time>2012-05-10T19:32:18Z</time>
      </trkpt>
      <trkpt lat="28.34716" lon="-10.70385">
        <ele>267.8</ele>
        <time>2012-05-10T19:32:23Z</time>
      </trkpt>
      <trkpt lat="28.34717" lon="-10.7041">
        <ele>265.1</ele>
        <time>2012-05-10T19:32:28Z</time>
      </trkpt>
      <trkpt lat="28.3471" lon="-10.70434">
        <ele>262.5</ele>
        <time>2012-05-10T19:32:33Z</time>
      </trkpt>
      <trkpt lat="28.34707" lon="-10.70454">
        <ele>262.1</ele>
        <time>2012-05-10T19:32:38Z</time>
      </trkpt>
      <trkpt lat="28.34711" lon="-10.70476">
        <ele>261.3</ele>
        <time>2012-05-10T19:32:43Z</time>
      </trkpt>
      <trkpt lat="28.34731" lon="-10.70489">
        <ele>259</ele>
        <time>2012-05-10T19:32:48Z</time>
      </trkpt>
      <trkpt lat="28.34743" lon="-10.70505">
        <ele>257.5</ele>
        <time>2012-05-10T19:32:53Z</time>
      </trkpt>
      <trkpt lat="28.3475" lon="-10.70528">
        <ele>256</ele>
        <time>2012-05-10T19:32:58Z</time>
      </trkpt>
      <trkpt lat="28.34744" lon="-10.7055">
        <ele>255.7</ele>
        <time>2012-05-10T19:33:03Z</time>
      </trkpt>
      <trkpt lat="28.34754" lon="-10.70571">
        <ele>255</ele>
        <time>2012-05-10T19:33:08Z</time>
      </trkpt>
      <trkpt lat="28.34769" lon="-10.70595">
        <ele>253.2</ele>
        <time>2012-05-10T19:33:13Z</time>
      </trkpt>
      <trkpt lat="28.34767" lon="-10.7062">
        <ele>253.8</ele>
        <time>2012-05-10T19:33:18Z</time>
      </trkpt>
      <trkpt lat="28.34765" lon="-10.70643">
        <ele>252.7</ele>
        <time>2012-05-10T19:33:23Z</time>
      </trkpt>
      <trkpt lat="28.34758" lon="-10.7067">
        <ele>251.6</ele>
        <time>2012-05-10T19:33:28Z</time>
      </trkpt>
      <trkpt lat="28.34745" lon="-10.7069">
        <ele>252.3</ele>
        <time>2012-05-10T19:33:33Z</time>
      </trkpt>
      <trkpt lat="28.34732" lon="-10.7071">
        <ele>253.2</ele>
        <time>2012-05-10T19:33:38Z</time>
      </trkpt>
      <trkpt lat="28.34719" lon="-10.70727">
        <ele>254.3</ele>
        <time>2012-05-10T19:33:43Z</time>
      </trkpt>
      <trkpt lat="28.34704" lon="-10.70741">
        <ele>255.1</ele>
        <time>2012-05-10T19:33:48Z</time>
      </trkpt>
      <trkpt lat="28.34686" lon="-10.70756">
        <ele>255.7</ele>
        <time>2012-05-10T19:33:53Z</time>
      </trkpt>
      <trkpt lat="28.34665" lon="-10.70762">
        <ele>257.9</ele>
        <time>2012-05-10T19:33:58Z</time>
      </trkpt>
      <trkpt lat="28.34646" lon="-10.70771">
        <ele>260</ele>
        <time>2012-05-10T19:34:03Z</time>
      </trkpt>
      <trkpt lat="28.34625" lon="-10.70785">
        <ele>261</ele>
        <time>2012-05-10T19:34:08Z</time>
      </trkpt>
      <trkpt lat="28.34601" lon="-10.70797">
        <ele>262.1</ele>
        <time>2012-05-10T19:34:13Z</time>
      </trkpt>
      <trkpt lat="28.34583" lon="-10.70803">
        <ele>263.3</ele>
        <time>2012-05-10T19:34:18Z</time>
      </trkpt>
      <trkpt lat="28.34562" lon="-10.70815">
        <ele>265.1</ele>
        <time>2012-05-10T19:34:23Z</time>
      </trkpt>
      <trkpt lat="28.34548" lon="-10.70829">
        <ele>266</ele>
        <time>2012-05-10T19:34:28Z</time>
      </trkpt>
      <trkpt lat="28.34532" lon="-10.7084">
        <ele>266.3</ele>
        <time>2012-05-10T19:34:33Z</time>
      </trkpt>
      <trkpt lat="28.34516" lon="-10.70854">
        <ele>266.7</ele>
        <time>2012-05-10T19:34:38Z</time>
      </trkpt>
      <trkpt lat="28.34491" lon="-10.70879">
        <ele>266</ele>
        <time>2012-05-10T19:34:43Z</time>
      </trkpt>
      <trkpt lat="28.34477" lon="-10.70895">
        <ele>265.2</ele>
        <time>2012-05-10T19:34:48Z</time>
      </trkpt>
      <trkpt lat="28.34464" lon="-10.7091">
        <ele>265.2</ele>
        <time>2012-05-10T19:34:53Z</time>
      </trkpt>
      <trkpt lat="28.34446" lon="-10.70921">
        <ele>266.3</ele>
        <time>2012-05-10T19:34:58Z</time>
      </trkpt>
      <trkpt lat="28.34416" lon="-10.70934">
        <ele>268.5</ele>
        <time>2012-05-10T19:35:03Z</time>
      </trkpt>
      <trkpt lat="28.34391" lon="-10.70944">
        <ele>269.3</ele>
        <time>2012-05-10T19:35:08Z</time>
      </trkpt>
      <trkpt lat="28.34364" lon="-10.70952">
        <ele>270.1</ele>
        <time>2012-05-10T19:35:13Z</time>
      </trkpt>
      <trkpt lat="28.34343" lon="-10.70959">
        <ele>270.5</ele>
        <time>2012-05-10T19:35:18Z</time>
      </trkpt>
      <trkpt lat="28.34322" lon="-10.70968">
        <ele>271.2</ele>
        <time>2012-05-10T19:35:23Z</time>
      </trkpt>
      <trkpt lat="28.34301" lon="-10.70977">
        <ele>272.2</ele>
        <time>2012-05-10T19:35:28Z</time>
      </trkpt>
      <trkpt lat="28.34281" lon="-10.70985">
        <ele>273.9</ele>
        <time>2012-05-10T19:35:33Z</time>
      </trkpt>
      <trkpt lat="28.34264" lon="-10.70997">
        <ele>274.9</ele>
        <time>2012-05-10T19:35:38Z</time>
      </trkpt>
      <trkpt lat="28.34231" lon="-10.71019">
        <ele>275.4</ele>
        <time>2012-05-10T19:35:43Z</time>
      </trkpt>
      <trkpt lat="28.34215" lon="-10.71034">
        <ele>276.3</ele>
        <time>2012-05-10T19:35:48Z</time>
      </trkpt>
      <trkpt lat="28.34207" lon="-10.71059">
        <ele>276.3</ele>
        <time>2012-05-10T19:35:53Z</time>
      </trkpt>
      <trkpt lat="28.34192" lon="-10.71078">
        <ele>276.5</ele>
        <time>2012-05-10T19:35:58Z</time>
      </trkpt>
      <trkpt lat="28.34174" lon="-10.71092">
        <ele>277.1</ele>
        <time>2012-05-10T19:36:03Z</time>
      </trkpt>
      <trkpt lat="28.34156" lon="-10.71109">
        <ele>277.1</ele>
        <time>2012-05-10T19:36:08Z</time>
      </trkpt>
      <trkpt lat="28.34149" lon="-10.71128">
        <ele>277.2</ele>
        <time>2012-05-10T19:36:13Z</time>
      </trkpt>
      <trkpt lat="28.34135" lon="-10.71143">
        <ele>277.9</ele>
        <time>2012-05-10T19:36:18Z</time>
      </trkpt>
      <trkpt lat="28.34114" lon="-10.71156">
        <ele>278.7</ele>
        <time>2012-05-10T19:36:23Z</time>
      </trkpt>
      <trkpt lat="28.34093" lon="-10.71168">
        <ele>279.8</ele>
        <time>2012-05-10T19:36:28Z</time>
      </trkpt>
      <trkpt lat="28.34072" lon="-10.71179">
        <ele>281.3</ele>
        <time>2012-05-10T19:36:33Z</time>
      </trkpt>
      <trkpt lat="28.34055" lon="-10.71192">
        <ele>282</ele>
        <time>2012-05-10T19:36:38Z</time>
      </trkpt>
      <trkpt lat="28.34039" lon="-10.71205">
        <ele>282.2</ele>
        <time>2012-05-10T19:36:43Z</time>
      </trkpt>
      <trkpt lat="28.34021" lon="-10.71212">
        <ele>282.7</ele>
        <time>2012-05-10T19:36:48Z</time>
      </trkpt>
      <trkpt lat="28.34007" lon="-10.7123">
        <ele>283.3</ele>
        <time>2012-05-10T19:36:53Z</time>
      </trkpt>
      <trkpt lat="28.33994" lon="-10.71245">
        <ele>283</ele>
        <time>2012-05-10T19:36:58Z</time>
      </trkpt>
      <trkpt lat="28.33978" lon="-10.71257">
        <ele>283.2</ele>
        <time>2012-05-10T19:37:03Z</time>
      </trkpt>
      <trkpt lat="28.33962" lon="-10.71271">
        <ele>283.8</ele>
        <time>2012-05-10T19:37:08Z</time>
      </trkpt>
      <trkpt lat="28.33947" lon="-10.71285">
        <ele>284.2</ele>
        <time>2012-05-10T19:37:13Z</time>
      </trkpt>
      <trkpt lat="28.33933" lon="-10.71301">
        <ele>284.4</ele>
        <time>2012-05-10T19:37:18Z</time>
      </trkpt>
      <trkpt lat="28.33925" lon="-10.71323">
        <ele>283</ele>
        <time>2012-05-10T19:37:23Z</time>
      </trkpt>
      <trkpt lat="28.33913" lon="-10.71342">
        <ele>285.4</ele>
        <time>2012-05-10T19:37:28Z</time>
      </trkpt>
      <trkpt lat="28.33898" lon="-10.71355">
        <ele>288.3</ele>
        <time>2012-05-10T19:37:33Z</time>
      </trkpt>
      <trkpt lat="28.33881" lon="-10.7137">
        <ele>289.8</ele>
        <time>2012-05-10T19:37:38Z</time>
      </trkpt>
      <trkpt lat="28.33864" lon="-10.7138">
        <ele>290.1</ele>
        <time>2012-05-10T19:37:43Z</time>
      </trkpt>
      <trkpt lat="28.33846" lon="-10.71385">
        <ele>290.8</ele>
        <time>2012-05-10T19:37:48Z</time>
      </trkpt>
      <trkpt lat="28.33825" lon="-10.71392">
        <ele>291.3</ele>
        <time>2012-05-10T19:37:53Z</time>
      </trkpt>
      <trkpt lat="28.33806" lon="-10.71402">
        <ele>292.1</ele>
        <time>2012-05-10T19:37:58Z</time>
      </trkpt>
      <trkpt lat="28.33789" lon="-10.71413">
        <ele>293.2</ele>
        <time>2012-05-10T19:38:03Z</time>
      </trkpt>
      <trkpt lat="28.33771" lon="-10.71427">
        <ele>294.9</ele>
        <time>2012-05-10T19:38:08Z</time>
      </trkpt>
      <trkpt lat="28.33754" lon="-10.71436">
        <ele>295.9</ele>
        <time>2012-05-10T19:38:13Z</time>
      </trkpt>
      <trkpt lat="28.33721" lon="-10.71451">
        <ele>296.7</ele>
        <time>2012-05-10T19:38:18Z</time>
      </trkpt>
      <trkpt lat="28.33701" lon="-10.7146">
        <ele>298.1</ele>
        <time>2012-05-10T19:38:23Z</time>
      </trkpt>
      <trkpt lat="28.33669" lon="-10.71477">
        <ele>300</ele>
        <time>2012-05-10T19:38:28Z</time>
      </trkpt>
      <trkpt lat="28.33645" lon="-10.71491">
        <ele>302.1</ele>
        <time>2012-05-10T19:38:33Z</time>
      </trkpt>
      <trkpt lat="28.33628" lon="-10.71499">
        <ele>302.1</ele>
        <time>2012-05-10T19:38:38Z</time>
      </trkpt>
      <trkpt lat="28.3361" lon="-10.71503">
        <ele>302.5</ele>
        <time>2012-05-10T19:38:43Z</time>
      </trkpt>
      <trkpt lat="28.33586" lon="-10.7151">
        <ele>299.1</ele>
        <time>2012-05-10T19:38:48Z</time>
      </trkpt>
      <trkpt lat="28.33569" lon="-10.71518">
        <ele>299.8</ele>
        <time>2012-05-10T19:38:53Z</time>
      </trkpt>
      <trkpt lat="28.33547" lon="-10.71521">
        <ele>299.8</ele>
        <time>2012-05-10T19:38:58Z</time>
      </trkpt>
      <trkpt lat="28.33535" lon="-10.71541">
        <ele>299</ele>
        <time>2012-05-10T19:39:03Z</time>
      </trkpt>
      <trkpt lat="28.33523" lon="-10.71562">
        <ele>299.2</ele>
        <time>2012-05-10T19:39:08Z</time>
      </trkpt>
      <trkpt lat="28.33512" lon="-10.71579">
        <ele>299.4</ele>
        <time>2012-05-10T19:39:13Z</time>
      </trkpt>
      <trkpt lat="28.33499" lon="-10.71593">
        <ele>299.4</ele>
        <time>2012-05-10T19:39:18Z</time>
      </trkpt>
      <trkpt lat="28.33484" lon="-10.71606">
        <ele>300.5</ele>
        <time>2012-05-10T19:39:23Z</time>
      </trkpt>
      <trkpt lat="28.33474" lon="-10.71626">
        <ele>302.3</ele>
        <time>2012-05-10T19:39:28Z</time>
      </trkpt>
      <trkpt lat="28.33467" lon="-10.71648">
        <ele>303.9</ele>
        <time>2012-05-10T19:39:33Z</time>
      </trkpt>
      <trkpt lat="28.3347" lon="-10.71669">
        <ele>307</ele>
        <time>2012-05-10T19:39:38Z</time>
      </trkpt>
      <trkpt lat="28.33473" lon="-10.7169">
        <ele>307.8</ele>
        <time>2012-05-10T19:39:43Z</time>
      </trkpt>
      <trkpt lat="28.33475" lon="-10.71715">
        <ele>308.5</ele>
        <time>2012-05-10T19:39:48Z</time>
      </trkpt>
      <trkpt lat="28.33471" lon="-10.7175">
        <ele>309.2</ele>
        <time>2012-05-10T19:39:53Z</time>
      </trkpt>
      <trkpt lat="28.33463" lon="-10.71769">
        <ele>309.2</ele>
        <time>2012-05-10T19:39:58Z</time>
      </trkpt>
      <trkpt lat="28.33458" lon="-10.71792">
        <ele>310.5</ele>
        <time>2012-05-10T19:40:03Z</time>
      </trkpt>
      <trkpt lat="28.33454" lon="-10.71812">
        <ele>310.9</ele>
        <time>2012-05-10T19:40:08Z</time>
      </trkpt>
      <trkpt lat="28.3345" lon="-10.71832">
        <ele>311</ele>
        <time>2012-05-10T19:40:13Z</time>
      </trkpt>
      <trkpt lat="28.33444" lon="-10.71854">
        <ele>310.2</ele>
        <time>2012-05-10T19:40:18Z</time>
      </trkpt>
      <trkpt lat="28.33432" lon="-10.71873">
        <ele>310.3</ele>
        <time>2012-05-10T19:40:23Z</time>
      </trkpt>
      <trkpt lat="28.33416" lon="-10.71885">
        <ele>311.8</ele>
        <time>2012-05-10T19:40:28Z</time>
      </trkpt>
      <trkpt lat="28.33398" lon="-10.71901">
        <ele>315.2</ele>
        <time>2012-05-10T19:40:33Z</time>
      </trkpt>
      <trkpt lat="28.33382" lon="-10.71913">
        <ele>319.2</ele>
        <time>2012-05-10T19:40:38Z</time>
      </trkpt>
      <trkpt lat="28.33367" lon="-10.71926">
        <ele>322.6</ele>
        <time>2012-05-10T19:40:43Z</time>
      </trkpt>
      <trkpt lat="28.33352" lon="-10.71938">
        <ele>324.4</ele>
        <time>2012-05-10T19:40:48Z</time>
      </trkpt>
      <trkpt lat="28.33337" lon="-10.71953">
        <ele>323.9</ele>
        <time>2012-05-10T19:40:53Z</time>
      </trkpt>
      <trkpt lat="28.3332" lon="-10.71962">
        <ele>323</ele>
        <time>2012-05-10T19:40:58Z</time>
      </trkpt>
      <trkpt lat="28.33301" lon="-10.71973">
        <ele>322.3</ele>
        <time>2012-05-10T19:41:03Z</time>
      </trkpt>
      <trkpt lat="28.33286" lon="-10.71986">
        <ele>321.5</ele>
        <time>2012-05-10T19:41:08Z</time>
      </trkpt>
      <trkpt lat="28.33266" lon="-10.72006">
        <ele>322.3</ele>
        <time>2012-05-10T19:41:13Z</time>
      </trkpt>
      <trkpt lat="28.33247" lon="-10.7202">
        <ele>322.7</ele>
        <time>2012-05-10T19:41:18Z</time>
      </trkpt>
      <trkpt lat="28.33233" lon="-10.72039">
        <ele>323.3</ele>
        <time>2012-05-10T19:41:23Z</time>
      </trkpt>
      <trkpt lat="28.33218" lon="-10.72053">
        <ele>323.8</ele>
        <time>2012-05-10T19:41:28Z</time>
      </trkpt>
      <trkpt lat="28.33198" lon="-10.72063">
        <ele>324.4</ele>
        <time>2012-05-10T19:41:33Z</time>
      </trkpt>
      <trkpt lat="28.33149" lon="-10.72088">
        <ele>328.5</ele>
        <time>2012-05-10T19:41:38Z</time>
      </trkpt>
      <trkpt lat="28.33128" lon="-10.72101">
        <ele>329.6</ele>
        <time>2012-05-10T19:41:43Z</time>
      </trkpt>
      <trkpt lat="28.33107" lon="-10.72112">
        <ele>330.7</ele>
        <time>2012-05-10T19:41:48Z</time>
      </trkpt>
      <trkpt lat="28.33093" lon="-10.72126">
        <ele>331.8</ele>
        <time>2012-05-10T19:41:53Z</time>
      </trkpt>
      <trkpt lat="28.33079" lon="-10.72143">
        <ele>333.8</ele>
        <time>2012-05-10T19:41:58Z</time>
      </trkpt>
      <trkpt lat="28.33063" lon="-10.72156">
        <ele>335.9</ele>
        <time>2012-05-10T19:42:03Z</time>
      </trkpt>
      <trkpt lat="28.33052" lon="-10.72178">
        <ele>337.5</ele>
        <time>2012-05-10T19:42:08Z</time>
      </trkpt>
      <trkpt lat="28.33046" lon="-10.72203">
        <ele>338.8</ele>
        <time>2012-05-10T19:42:13Z</time>
      </trkpt>
      <trkpt lat="28.33039" lon="-10.72227">
        <ele>339.8</ele>
        <time>2012-05-10T19:42:18Z</time>
      </trkpt>
      <trkpt lat="28.33031" lon="-10.72257">
        <ele>339.9</ele>
        <time>2012-05-10T19:42:23Z</time>
      </trkpt>
      <trkpt lat="28.33022" lon="-10.72276">
        <ele>340.2</ele>
        <time>2012-05-10T19:42:28Z</time>
      </trkpt>
      <trkpt lat="28.3301" lon="-10.72294">
        <ele>341.5</ele>
        <time>2012-05-10T19:42:33Z</time>
      </trkpt>
      <trkpt lat="28.32997" lon="-10.72316">
        <ele>341.4</ele>
        <time>2012-05-10T19:42:38Z</time>
      </trkpt>
      <trkpt lat="28.32987" lon="-10.72338">
        <ele>342.8</ele>
        <time>2012-05-10T19:42:43Z</time>
      </trkpt>
      <trkpt lat="28.32978" lon="-10.7236">
        <ele>343.5</ele>
        <time>2012-05-10T19:42:48Z</time>
      </trkpt>
      <trkpt lat="28.32968" lon="-10.72379">
        <ele>344.5</ele>
        <time>2012-05-10T19:42:53Z</time>
      </trkpt>
      <trkpt lat="28.32955" lon="-10.72397">
        <ele>344.8</ele>
        <time>2012-05-10T19:42:58Z</time>
      </trkpt>
      <trkpt lat="28.32929" lon="-10.72431">
        <ele>344.8</ele>
        <time>2012-05-10T19:43:03Z</time>
      </trkpt>
      <trkpt lat="28.32921" lon="-10.7245">
        <ele>344.6</ele>
        <time>2012-05-10T19:43:08Z</time>
      </trkpt>
      <trkpt lat="28.32914" lon="-10.72472">
        <ele>342.6</ele>
        <time>2012-05-10T19:43:13Z</time>
      </trkpt>
      <trkpt lat="28.32903" lon="-10.72491">
        <ele>342.1</ele>
        <time>2012-05-10T19:43:18Z</time>
      </trkpt>
      <trkpt lat="28.32883" lon="-10.72501">
        <ele>341.6</ele>
        <time>2012-05-10T19:43:23Z</time>
      </trkpt>
      <trkpt lat="28.32865" lon="-10.72492">
        <ele>343.1</ele>
        <time>2012-05-10T19:43:28Z</time>
      </trkpt>
      <trkpt lat="28.32856" lon="-10.7247">
        <ele>344.4</ele>
        <time>2012-05-10T19:43:33Z</time>
      </trkpt>
      <trkpt lat="28.32849" lon="-10.72445">
        <ele>343.4</ele>
        <time>2012-05-10T19:43:38Z</time>
      </trkpt>
      <trkpt lat="28.32847" lon="-10.72424">
        <ele>339.2</ele>
        <time>2012-05-10T19:43:43Z</time>
      </trkpt>
      <trkpt lat="28.32846" lon="-10.72401">
        <ele>339.5</ele>
        <time>2012-05-10T19:43:48Z</time>
      </trkpt>
      <trkpt lat="28.32842" lon="-10.72381">
        <ele>342.5</ele>
        <time>2012-05-10T19:43:53Z</time>
      </trkpt>
      <trkpt lat="28.32831" lon="-10.72364">
        <ele>344.1</ele>
        <time>2012-05-10T19:43:58Z</time>
      </trkpt>
      <trkpt lat="28.32814" lon="-10.72353">
        <ele>348.4</ele>
        <time>2012-05-10T19:44:03Z</time>
      </trkpt>
      <trkpt lat="28.32798" lon="-10.7234">
        <ele>348.6</ele>
        <time>2012-05-10T19:44:08Z</time>
      </trkpt>
      <trkpt lat="28.32778" lon="-10.72339">
        <ele>350.5</ele>
        <time>2012-05-10T19:44:13Z</time>
      </trkpt>
      <trkpt lat="28.32754" lon="-10.72339">
        <ele>354.2</ele>
        <time>2012-05-10T19:44:18Z</time>
      </trkpt>
      <trkpt lat="28.32735" lon="-10.72332">
        <ele>355.3</ele>
        <time>2012-05-10T19:44:23Z</time>
      </trkpt>
      <trkpt lat="28.32725" lon="-10.72315">
        <ele>358.2</ele>
        <time>2012-05-10T19:44:28Z</time>
      </trkpt>
      <trkpt lat="28.32719" lon="-10.7229">
        <ele>362.8</ele>
        <time>2012-05-10T19:44:33Z</time>
      </trkpt>
      <trkpt lat="28.32712" lon="-10.7227">
        <ele>366.6</ele>
        <time>2012-05-10T19:44:38Z</time>
      </trkpt>
      <trkpt lat="28.32705" lon="-10.72251">
        <ele>369.7</ele>
        <time>2012-05-10T19:44:43Z</time>
      </trkpt>
      <trkpt lat="28.32694" lon="-10.72234">
        <ele>373.1</ele>
        <time>2012-05-10T19:44:48Z</time>
      </trkpt>
      <trkpt lat="28.32687" lon="-10.72217">
        <ele>376.1</ele>
        <time>2012-05-10T19:44:53Z</time>
      </trkpt>
      <trkpt lat="28.32707" lon="-10.7222">
        <ele>380.6</ele>
        <time>2012-05-10T19:44:58Z</time>
      </trkpt>
      <trkpt lat="28.32728" lon="-10.72224">
        <ele>382.1</ele>
        <time>2012-05-10T19:45:03Z</time>
      </trkpt>
      <trkpt lat="28.32739" lon="-10.72216">
        <ele>386</ele>
        <time>2012-05-10T19:45:08Z</time>
      </trkpt>
      <trkpt lat="28.32738" lon="-10.72193">
        <ele>388.3</ele>
        <time>2012-05-10T19:45:13Z</time>
      </trkpt>
      <trkpt lat="28.3275" lon="-10.72174">
        <ele>391.9</ele>
        <time>2012-05-10T19:45:18Z</time>
      </trkpt>
      <trkpt lat="28.32764" lon="-10.72158">
        <ele>395.6</ele>
        <time>2012-05-10T19:45:23Z</time>
      </trkpt>
      <trkpt lat="28.32779" lon="-10.72145">
        <ele>396.9</ele>
        <time>2012-05-10T19:45:28Z</time>
      </trkpt>
      <trkpt lat="28.32784" lon="-10.72123">
        <ele>398.1</ele>
        <time>2012-05-10T19:45:33Z</time>
      </trkpt>
      <trkpt lat="28.32783" lon="-10.72101">
        <ele>399.6</ele>
        <time>2012-05-10T19:45:38Z</time>
      </trkpt>
      <trkpt lat="28.32777" lon="-10.72082">
        <ele>400.5</ele>
        <time>2012-05-10T19:45:43Z</time>
      </trkpt>
      <trkpt lat="28.32761" lon="-10.72068">
        <ele>399.5</ele>
        <time>2012-05-10T19:45:48Z</time>
      </trkpt>
      <trkpt lat="28.32739" lon="-10.72067">
        <ele>398.5</ele>
        <time>2012-05-10T19:45:53Z</time>
      </trkpt>
      <trkpt lat="28.32715" lon="-10.72068">
        <ele>398.1</ele>
        <time>2012-05-10T19:45:58Z</time>
      </trkpt>
      <trkpt lat="28.32693" lon="-10.72069">
        <ele>399.5</ele>
        <time>2012-05-10T19:46:03Z</time>
      </trkpt>
      <trkpt lat="28.32676" lon="-10.7206">
        <ele>401.3</ele>
        <time>2012-05-10T19:46:08Z</time>
      </trkpt>
      <trkpt lat="28.32663" lon="-10.72045">
        <ele>402.7</ele>
        <time>2012-05-10T19:46:13Z</time>
      </trkpt>
      <trkpt lat="28.32648" lon="-10.72031">
        <ele>403.7</ele>
        <time>2012-05-10T19:46:18Z</time>
      </trkpt>
      <trkpt lat="28.3263" lon="-10.72022">
        <ele>405.9</ele>
        <time>2012-05-10T19:46:23Z</time>
      </trkpt>
      <trkpt lat="28.32611" lon="-10.72019">
        <ele>408.6</ele>
        <time>2012-05-10T19:46:28Z</time>
      </trkpt>
      <trkpt lat="28.32591" lon="-10.72019">
        <ele>411.1</ele>
        <time>2012-05-10T19:46:33Z</time>
      </trkpt>
      <trkpt lat="28.32576" lon="-10.72005">
        <ele>414.6</ele>
        <time>2012-05-10T19:46:38Z</time>
      </trkpt>
      <trkpt lat="28.32568" lon="-10.71983">
        <ele>417.2</ele>
        <time>2012-05-10T19:46:43Z</time>
      </trkpt>
      <trkpt lat="28.32553" lon="-10.7197">
        <ele>418.1</ele>
        <time>2012-05-10T19:46:48Z</time>
      </trkpt>
      <trkpt lat="28.32548" lon="-10.71953">
        <ele>421.7</ele>
        <time>2012-05-10T19:46:53Z</time>
      </trkpt>
      <trkpt lat="28.32558" lon="-10.71934">
        <ele>425.2</ele>
        <time>2012-05-10T19:46:58Z</time>
      </trkpt>
      <trkpt lat="28.32569" lon="-10.71917">
        <ele>427.6</ele>
        <time>2012-05-10T19:47:03Z</time>
      </trkpt>
      <trkpt lat="28.32584" lon="-10.71905">
        <ele>428.6</ele>
        <time>2012-05-10T19:47:08Z</time>
      </trkpt>
      <trkpt lat="28.32601" lon="-10.7189">
        <ele>431.6</ele>
        <time>2012-05-10T19:47:13Z</time>
      </trkpt>
      <trkpt lat="28.3262" lon="-10.71894">
        <ele>433.6</ele>
        <time>2012-05-10T19:47:18Z</time>
      </trkpt>
      <trkpt lat="28.32638" lon="-10.71912">
        <ele>436.6</ele>
        <time>2012-05-10T19:47:23Z</time>
      </trkpt>
      <trkpt lat="28.32646" lon="-10.71894">
        <ele>440.4</ele>
        <time>2012-05-10T19:47:28Z</time>
      </trkpt>
      <trkpt lat="28.32655" lon="-10.71871">
        <ele>443.6</ele>
        <time>2012-05-10T19:47:33Z</time>
      </trkpt>
      <trkpt lat="28.32667" lon="-10.71854">
        <ele>447.3</ele>
        <time>2012-05-10T19:47:38Z</time>
      </trkpt>
      <trkpt lat="28.32678" lon="-10.71833">
        <ele>451.6</ele>
        <time>2012-05-10T19:47:43Z</time>
      </trkpt>
      <trkpt lat="28.32685" lon="-10.71811">
        <ele>454.3</ele>
        <time>2012-05-10T19:47:48Z</time>
      </trkpt>
      <trkpt lat="28.32691" lon="-10.71789">
        <ele>457.3</ele>
        <time>2012-05-10T19:47:53Z</time>
      </trkpt>
      <trkpt lat="28.32694" lon="-10.71765">
        <ele>460.7</ele>
        <time>2012-05-10T19:47:58Z</time>
      </trkpt>
      <trkpt lat="28.32697" lon="-10.71745">
        <ele>463.4</ele>
        <time>2012-05-10T19:48:03Z</time>
      </trkpt>
      <trkpt lat="28.32689" lon="-10.71727">
        <ele>465.8</ele>
        <time>2012-05-10T19:48:08Z</time>
      </trkpt>
      <trkpt lat="28.32669" lon="-10.71722">
        <ele>466.4</ele>
        <time>2012-05-10T19:48:13Z</time>
      </trkpt>
      <trkpt lat="28.32648" lon="-10.71716">
        <ele>468.1</ele>
        <time>2012-05-10T19:48:18Z</time>
      </trkpt>
      <trkpt lat="28.32627" lon="-10.71717">
        <ele>469.2</ele>
        <time>2012-05-10T19:48:23Z</time>
      </trkpt>
      <trkpt lat="28.32607" lon="-10.71728">
        <ele>470.7</ele>
        <time>2012-05-10T19:48:28Z</time>
      </trkpt>
      <trkpt lat="28.32589" lon="-10.71745">
        <ele>471.5</ele>
        <time>2012-05-10T19:48:33Z</time>
      </trkpt>
      <trkpt lat="28.32572" lon="-10.71755">
        <ele>472.3</ele>
        <time>2012-05-10T19:48:38Z</time>
      </trkpt>
      <trkpt lat="28.32556" lon="-10.71768">
        <ele>472.1</ele>
        <time>2012-05-10T19:48:43Z</time>
      </trkpt>
      <trkpt lat="28.32536" lon="-10.71777">
        <ele>472.6</ele>
        <time>2012-05-10T19:48:48Z</time>
      </trkpt>
      <trkpt lat="28.32519" lon="-10.71787">
        <ele>474.3</ele>
        <time>2012-05-10T19:48:53Z</time>
      </trkpt>
      <trkpt lat="28.32498" lon="-10.71786">
        <ele>474.6</ele>
        <time>2012-05-10T19:48:58Z</time>
      </trkpt>
      <trkpt lat="28.32477" lon="-10.71784">
        <ele>472.8</ele>
        <time>2012-05-10T19:49:03Z</time>
      </trkpt>
      <trkpt lat="28.32458" lon="-10.7179">
        <ele>470.3</ele>
        <time>2012-05-10T19:49:08Z</time>
      </trkpt>
      <trkpt lat="28.32437" lon="-10.71795">
        <ele>468.3</ele>
        <time>2012-05-10T19:49:13Z</time>
      </trkpt>
      <trkpt lat="28.32416" lon="-10.71806">
        <ele>466.6</ele>
        <time>2012-05-10T19:49:18Z</time>
      </trkpt>
      <trkpt lat="28.32397" lon="-10.71818">
        <ele>464.8</ele>
        <time>2012-05-10T19:49:23Z</time>
      </trkpt>
      <trkpt lat="28.32381" lon="-10.71837">
        <ele>463.8</ele>
        <time>2012-05-10T19:49:28Z</time>
      </trkpt>
      <trkpt lat="28.32362" lon="-10.71851">
        <ele>463.2</ele>
        <time>2012-05-10T19:49:33Z</time>
      </trkpt>
      <trkpt lat="28.32341" lon="-10.71853">
        <ele>464.1</ele>
        <time>2012-05-10T19:49:38Z</time>
      </trkpt>
      <trkpt lat="28.32323" lon="-10.71857">
        <ele>466.3</ele>
        <time>2012-05-10T19:49:43Z</time>
      </trkpt>
      <trkpt lat="28.32305" lon="-10.71852">
        <ele>467</ele>
        <time>2012-05-10T19:49:48Z</time>
      </trkpt>
      <trkpt lat="28.32291" lon="-10.71838">
        <ele>465.2</ele>
        <time>2012-05-10T19:49:53Z</time>
      </trkpt>
      <trkpt lat="28.32272" lon="-10.71838">
        <ele>464.9</ele>
        <time>2012-05-10T19:49:58Z</time>
      </trkpt>
      <trkpt lat="28.32254" lon="-10.71839">
        <ele>464.7</ele>
        <time>2012-05-10T19:50:03Z</time>
      </trkpt>
      <trkpt lat="28.32231" lon="-10.71844">
        <ele>465.8</ele>
        <time>2012-05-10T19:50:08Z</time>
      </trkpt>
      <trkpt lat="28.32211" lon="-10.71849">
        <ele>467.3</ele>
        <time>2012-05-10T19:50:13Z</time>
      </trkpt>
      <trkpt lat="28.32192" lon="-10.71857">
        <ele>467.2</ele>
        <time>2012-05-10T19:50:18Z</time>
      </trkpt>
      <trkpt lat="28.32173" lon="-10.71862">
        <ele>468.9</ele>
        <time>2012-05-10T19:50:23Z</time>
      </trkpt>
      <trkpt lat="28.32156" lon="-10.71848">
        <ele>468.1</ele>
        <time>2012-05-10T19:50:28Z</time>
      </trkpt>
      <trkpt lat="28.32143" lon="-10.71834">
        <ele>466.7</ele>
        <time>2012-05-10T19:50:33Z</time>
      </trkpt>
      <trkpt lat="28.32124" lon="-10.71836">
        <ele>467</ele>
        <time>2012-05-10T19:50:38Z</time>
      </trkpt>
      <trkpt lat="28.32102" lon="-10.71842">
        <ele>468.5</ele>
        <time>2012-05-10T19:50:43Z</time>
      </trkpt>
      <trkpt lat="28.3208" lon="-10.71843">
        <ele>468.4</ele>
        <time>2012-05-10T19:50:48Z</time>
      </trkpt>
      <trkpt lat="28.32061" lon="-10.71845">
        <ele>468.6</ele>
        <time>2012-05-10T19:50:53Z</time>
      </trkpt>
      <trkpt lat="28.32041" lon="-10.71843">
        <ele>469</ele>
        <time>2012-05-10T19:50:58Z</time>
      </trkpt>
      <trkpt lat="28.32012" lon="-10.71838">
        <ele>470</ele>
        <time>2012-05-10T19:51:03Z</time>
      </trkpt>
      <trkpt lat="28.31989" lon="-10.71842">
        <ele>471.7</ele>
        <time>2012-05-10T19:51:08Z</time>
      </trkpt>
      <trkpt lat="28.31962" lon="-10.71847">
        <ele>472.5</ele>
        <time>2012-05-10T19:51:13Z</time>
      </trkpt>
      <trkpt lat="28.31939" lon="-10.71847">
        <ele>473.1</ele>
        <time>2012-05-10T19:51:18Z</time>
      </trkpt>
      <trkpt lat="28.31917" lon="-10.71851">
        <ele>473.8</ele>
        <time>2012-05-10T19:51:23Z</time>
      </trkpt>
      <trkpt lat="28.319" lon="-10.71862">
        <ele>475.2</ele>
        <time>2012-05-10T19:51:28Z</time>
      </trkpt>
      <trkpt lat="28.31884" lon="-10.71873">
        <ele>476.9</ele>
        <time>2012-05-10T19:51:33Z</time>
      </trkpt>
      <trkpt lat="28.31859" lon="-10.71886">
        <ele>477.6</ele>
        <time>2012-05-10T19:51:38Z</time>
      </trkpt>
      <trkpt lat="28.31838" lon="-10.71891">
        <ele>478.7</ele>
        <time>2012-05-10T19:51:43Z</time>
      </trkpt>
      <trkpt lat="28.3182" lon="-10.71899">
        <ele>479.8</ele>
        <time>2012-05-10T19:51:48Z</time>
      </trkpt>
      <trkpt lat="28.31803" lon="-10.71912">
        <ele>481.4</ele>
        <time>2012-05-10T19:51:53Z</time>
      </trkpt>
      <trkpt lat="28.31778" lon="-10.71918">
        <ele>480.5</ele>
        <time>2012-05-10T19:51:58Z</time>
      </trkpt>
      <trkpt lat="28.31755" lon="-10.71924">
        <ele>479.5</ele>
        <time>2012-05-10T19:52:03Z</time>
      </trkpt>
      <trkpt lat="28.31732" lon="-10.71931">
        <ele>479.7</ele>
        <time>2012-05-10T19:52:08Z</time>
      </trkpt>
      <trkpt lat="28.31711" lon="-10.71936">
        <ele>479.9</ele>
        <time>2012-05-10T19:52:13Z</time>
      </trkpt>
      <trkpt lat="28.31691" lon="-10.71938">
        <ele>480.8</ele>
        <time>2012-05-10T19:52:18Z</time>
      </trkpt>
      <trkpt lat="28.31672" lon="-10.71941">
        <ele>481.2</ele>
        <time>2012-05-10T19:52:23Z</time>
      </trkpt>
      <trkpt lat="28.31647" lon="-10.71944">
        <ele>482.1</ele>
        <time>2012-05-10T19:52:28Z</time>
      </trkpt>
      <trkpt lat="28.31607" lon="-10.71948">
        <ele>483.7</ele>
        <time>2012-05-10T19:52:33Z</time>
      </trkpt>
      <trkpt lat="28.31589" lon="-10.71956">
        <ele>485.1</ele>
        <time>2012-05-10T19:52:38Z</time>
      </trkpt>
      <trkpt lat="28.31572" lon="-10.7197">
        <ele>486.5</ele>
        <time>2012-05-10T19:52:43Z</time>
      </trkpt>
      <trkpt lat="28.31557" lon="-10.71989">
        <ele>487.5</ele>
        <time>2012-05-10T19:52:48Z</time>
      </trkpt>
      <trkpt lat="28.31535" lon="-10.7202">
        <ele>488</ele>
        <time>2012-05-10T19:52:53Z</time>
      </trkpt>
      <trkpt lat="28.31522" lon="-10.72039">
        <ele>488</ele>
        <time>2012-05-10T19:52:58Z</time>
      </trkpt>
      <trkpt lat="28.31509" lon="-10.72058">
        <ele>488.5</ele>
        <time>2012-05-10T19:53:03Z</time>
      </trkpt>
      <trkpt lat="28.31491" lon="-10.72081">
        <ele>489.4</ele>
        <time>2012-05-10T19:53:08Z</time>
      </trkpt>
      <trkpt lat="28.31483" lon="-10.721">
        <ele>489.3</ele>
        <time>2012-05-10T19:53:13Z</time>
      </trkpt>
      <trkpt lat="28.3147" lon="-10.72119">
        <ele>489.5</ele>
        <time>2012-05-10T19:53:18Z</time>
      </trkpt>
      <trkpt lat="28.31455" lon="-10.72136">
        <ele>490.9</ele>
        <time>2012-05-10T19:53:23Z</time>
      </trkpt>
      <trkpt lat="28.31442" lon="-10.72156">
        <ele>492.3</ele>
        <time>2012-05-10T19:53:28Z</time>
      </trkpt>
      <trkpt lat="28.31428" lon="-10.72169">
        <ele>493.2</ele>
        <time>2012-05-10T19:53:33Z</time>
      </trkpt>
      <trkpt lat="28.31407" lon="-10.72188">
        <ele>496.2</ele>
        <time>2012-05-10T19:53:38Z</time>
      </trkpt>
      <trkpt lat="28.31389" lon="-10.72206">
        <ele>497.1</ele>
        <time>2012-05-10T19:53:43Z</time>
      </trkpt>
      <trkpt lat="28.31372" lon="-10.72219">
        <ele>498.9</ele>
        <time>2012-05-10T19:53:48Z</time>
      </trkpt>
      <trkpt lat="28.31356" lon="-10.72233">
        <ele>500.6</ele>
        <time>2012-05-10T19:53:53Z</time>
      </trkpt>
      <trkpt lat="28.31341" lon="-10.72251">
        <ele>503.2</ele>
        <time>2012-05-10T19:53:58Z</time>
      </trkpt>
      <trkpt lat="28.31332" lon="-10.72274">
        <ele>506.2</ele>
        <time>2012-05-10T19:54:03Z</time>
      </trkpt>
      <trkpt lat="28.31321" lon="-10.72297">
        <ele>510.9</ele>
        <time>2012-05-10T19:54:08Z</time>
      </trkpt>
      <trkpt lat="28.31303" lon="-10.72307">
        <ele>514.4</ele>
        <time>2012-05-10T19:54:13Z</time>
      </trkpt>
      <trkpt lat="28.31302" lon="-10.72305">
        <ele>514</ele>
        <time>2012-05-10T19:54:18Z</time>
      </trkpt>
      <trkpt lat="28.31302" lon="-10.72307">
        <ele>509.6</ele>
        <time>2012-05-10T19:54:23Z</time>
      </trkpt>
      <trkpt lat="28.31301" lon="-10.72304">
        <ele>514.8</ele>
        <time>2012-05-10T19:54:28Z</time>
      </trkpt>
      <trkpt lat="28.31301" lon="-10.72306">
        <ele>513.4</ele>
        <time>2012-05-10T19:54:33Z</time>
      </trkpt>
      <trkpt lat="28.31301" lon="-10.72306">
        <ele>515.4</ele>
        <time>2012-05-10T19:54:38Z</time>
      </trkpt>
      <trkpt lat="28.31302" lon="-10.72306">
        <ele>515</ele>
        <time>2012-05-10T19:54:43Z</time>
      </trkpt>
      <trkpt lat="28.31302" lon="-10.72306">
        <ele>515.5</ele>
        <time>2012-05-10T19:54:48Z</time>
      </trkpt>
      <trkpt lat="28.31303" lon="-10.72306">
        <ele>514</ele>
        <time>2012-05-10T19:54:53Z</time>
      </trkpt>
      <trkpt lat="28.31302" lon="-10.72307">
        <ele>513.6</ele>
        <time>2012-05-10T19:54:58Z</time>
      </trkpt>
      <trkpt lat="28.31303" lon="-10.72307">
        <ele>514.5</ele>
        <time>2012-05-10T19:55:03Z</time>
      </trkpt>
      <trkpt lat="28.31302" lon="-10.72307">
        <ele>515.4</ele>
        <time>2012-05-10T19:55:08Z</time>
      </trkpt>
      <trkpt lat="28.31302" lon="-10.72306">
        <ele>516.8</ele>
        <time>2012-05-10T19:55:13Z</time>
      </trkpt>
      <trkpt lat="28.31301" lon="-10.72306">
        <ele>514.2</ele>
        <time>2012-05-10T19:55:18Z</time>
      </trkpt>
      <trkpt lat="28.31301" lon="-10.72308">
        <ele>510.5</ele>
        <time>2012-05-10T19:55:23Z</time>
      </trkpt>
      <trkpt lat="28.313" lon="-10.72307">
        <ele>512</ele>
        <time>2012-05-10T19:55:28Z</time>
      </trkpt>
      <trkpt lat="28.313" lon="-10.72307">
        <ele>513.2</ele>
        <time>2012-05-10T19:55:33Z</time>
      </trkpt>
      <trkpt lat="28.31299" lon="-10.72308">
        <ele>512</ele>
        <time>2012-05-10T19:55:38Z</time>
      </trkpt>
      <trkpt lat="28.313" lon="-10.72307">
        <ele>512.5</ele>
        <time>2012-05-10T19:55:43Z</time>
      </trkpt>
      <trkpt lat="28.313" lon="-10.72306">
        <ele>514.7</ele>
        <time>2012-05-10T19:55:48Z</time>
      </trkpt>
      <trkpt lat="28.313" lon="-10.72306">
        <ele>514.6</ele>
        <time>2012-05-10T19:55:53Z</time>
      </trkpt>
      <trkpt lat="28.31299" lon="-10.72305">
        <ele>516.5</ele>
        <time>2012-05-10T19:55:58Z</time>
      </trkpt>
      <trkpt lat="28.31299" lon="-10.72305">
        <ele>516.5</ele>
        <time>2012-05-10T19:56:03Z</time>
      </trkpt>
      <trkpt lat="28.31299" lon="-10.72305">
        <ele>517.2</ele>
        <time>2012-05-10T19:56:08Z</time>
      </trkpt>
      <trkpt lat="28.31299" lon="-10.72307">
        <ele>515</ele>
        <time>2012-05-10T19:56:13Z</time>
      </trkpt>
      <trkpt lat="28.31299" lon="-10.72307">
        <ele>513.7</ele>
        <time>2012-05-10T19:56:18Z</time>
      </trkpt>
      <trkpt lat="28.31299" lon="-10.72307">
        <ele>516</ele>
        <time>2012-05-10T19:56:23Z</time>
      </trkpt>
      <trkpt lat="28.31299" lon="-10.72306">
        <ele>516.3</ele>
        <time>2012-05-10T19:56:28Z</time>
      </trkpt>
      <trkpt lat="28.31299" lon="-10.72304">
        <ele>520</ele>
        <time>2012-05-10T19:56:33Z</time>
      </trkpt>
      <trkpt lat="28.31298" lon="-10.72306">
        <ele>518.3</ele>
        <time>2012-05-10T19:56:38Z</time>
      </trkpt>
      <trkpt lat="28.31299" lon="-10.72307">
        <ele>516.3</ele>
        <time>2012-05-10T19:56:43Z</time>
      </trkpt>
      <trkpt lat="28.31301" lon="-10.72307">
        <ele>515.8</ele>
        <time>2012-05-10T19:56:48Z</time>
      </trkpt>
      <trkpt lat="28.31301" lon="-10.72307">
        <ele>516.2</ele>
        <time>2012-05-10T19:56:53Z</time>
      </trkpt>
      <trkpt lat="28.313" lon="-10.72306">
        <ele>517.3</ele>
        <time>2012-05-10T19:56:58Z</time>
      </trkpt>
      <trkpt lat="28.31301" lon="-10.72307">
        <ele>516.5</ele>
        <time>2012-05-10T19:57:03Z</time>
      </trkpt>
      <trkpt lat="28.313" lon="-10.72308">
        <ele>515.5</ele>
        <time>2012-05-10T19:57:08Z</time>
      </trkpt>
      <trkpt lat="28.313" lon="-10.72308">
        <ele>515.8</ele>
        <time>2012-05-10T19:57:13Z</time>
      </trkpt>
      <trkpt lat="28.313" lon="-10.72308">
        <ele>513.6</ele>
        <time>2012-05-10T19:57:18Z</time>
      </trkpt>
      <trkpt lat="28.313" lon="-10.72309">
        <ele>511.5</ele>
        <time>2012-05-10T19:57:23Z</time>
      </trkpt>
      <trkpt lat="28.31285" lon="-10.723">
        <ele>514.2</ele>
        <time>2012-05-10T19:57:28Z</time>
      </trkpt>
      <trkpt lat="28.31267" lon="-10.72291">
        <ele>516.5</ele>
        <time>2012-05-10T19:57:33Z</time>
      </trkpt>
      <trkpt lat="28.31251" lon="-10.7228">
        <ele>517.3</ele>
        <time>2012-05-10T19:57:38Z</time>
      </trkpt>
      <trkpt lat="28.31229" lon="-10.72259">
        <ele>517.3</ele>
        <time>2012-05-10T19:57:43Z</time>
      </trkpt>
      <trkpt lat="28.31212" lon="-10.72251">
        <ele>518</ele>
        <time>2012-05-10T19:57:48Z</time>
      </trkpt>
      <trkpt lat="28.31188" lon="-10.72243">
        <ele>518.5</ele>
        <time>2012-05-10T19:57:53Z</time>
      </trkpt>
      <trkpt lat="28.31169" lon="-10.72239">
        <ele>518.3</ele>
        <time>2012-05-10T19:57:58Z</time>
      </trkpt>
      <trkpt lat="28.31151" lon="-10.72234">
        <ele>518.1</ele>
        <time>2012-05-10T19:58:03Z</time>
      </trkpt>
      <trkpt lat="28.3113" lon="-10.72226">
        <ele>518.5</ele>
        <time>2012-05-10T19:58:08Z</time>
      </trkpt>
      <trkpt lat="28.3111" lon="-10.72219">
        <ele>518.9</ele>
        <time>2012-05-10T19:58:13Z</time>
      </trkpt>
      <trkpt lat="28.31086" lon="-10.72214">
        <ele>519.8</ele>
        <time>2012-05-10T19:58:18Z</time>
      </trkpt>
      <trkpt lat="28.31065" lon="-10.72214">
        <ele>519.8</ele>
        <time>2012-05-10T19:58:23Z</time>
      </trkpt>
      <trkpt lat="28.31047" lon="-10.72215">
        <ele>519.4</ele>
        <time>2012-05-10T19:58:28Z</time>
      </trkpt>
      <trkpt lat="28.31021" lon="-10.72217">
        <ele>520.9</ele>
        <time>2012-05-10T19:58:33Z</time>
      </trkpt>
      <trkpt lat="28.30992" lon="-10.72218">
        <ele>523</ele>
        <time>2012-05-10T19:58:38Z</time>
      </trkpt>
      <trkpt lat="28.30971" lon="-10.72219">
        <ele>523.2</ele>
        <time>2012-05-10T19:58:43Z</time>
      </trkpt>
      <trkpt lat="28.30951" lon="-10.7221">
        <ele>520.9</ele>
        <time>2012-05-10T19:58:48Z</time>
      </trkpt>
      <trkpt lat="28.30933" lon="-10.72201">
        <ele>518.5</ele>
        <time>2012-05-10T19:58:53Z</time>
      </trkpt>
      <trkpt lat="28.30912" lon="-10.72197">
        <ele>515.7</ele>
        <time>2012-05-10T19:58:58Z</time>
      </trkpt>
      <trkpt lat="28.30894" lon="-10.72203">
        <ele>511.9</ele>
        <time>2012-05-10T19:59:03Z</time>
      </trkpt>
      <trkpt lat="28.30876" lon="-10.72212">
        <ele>512.2</ele>
        <time>2012-05-10T19:59:08Z</time>
      </trkpt>
      <trkpt lat="28.30859" lon="-10.72216">
        <ele>510.4</ele>
        <time>2012-05-10T19:59:13Z</time>
      </trkpt>
      <trkpt lat="28.30843" lon="-10.72229">
        <ele>510.4</ele>
        <time>2012-05-10T19:59:18Z</time>
      </trkpt>
      <trkpt lat="28.30825" lon="-10.72232">
        <ele>509.1</ele>
        <time>2012-05-10T19:59:23Z</time>
      </trkpt>
      <trkpt lat="28.30806" lon="-10.72231">
        <ele>509.7</ele>
        <time>2012-05-10T19:59:28Z</time>
      </trkpt>
      <trkpt lat="28.30787" lon="-10.72234">
        <ele>509.9</ele>
        <time>2012-05-10T19:59:33Z</time>
      </trkpt>
      <trkpt lat="28.30769" lon="-10.72236">
        <ele>509.4</ele>
        <time>2012-05-10T19:59:38Z</time>
      </trkpt>
      <trkpt lat="28.3075" lon="-10.72242">
        <ele>511.8</ele>
        <time>2012-05-10T19:59:43Z</time>
      </trkpt>
      <trkpt lat="28.30732" lon="-10.72247">
        <ele>513.5</ele>
        <time>2012-05-10T19:59:48Z</time>
      </trkpt>
      <trkpt lat="28.30714" lon="-10.72256">
        <ele>513.5</ele>
        <time>2012-05-10T19:59:53Z</time>
      </trkpt>
      <trkpt lat="28.30695" lon="-10.72264">
        <ele>514</ele>
        <time>2012-05-10T19:59:58Z</time>
      </trkpt>
      <trkpt lat="28.30676" lon="-10.72269">
        <ele>513.1</ele>
        <time>2012-05-10T20:00:03Z</time>
      </trkpt>
      <trkpt lat="28.30657" lon="-10.72273">
        <ele>512.3</ele>
        <time>2012-05-10T20:00:08Z</time>
      </trkpt>
      <trkpt lat="28.30639" lon="-10.72277">
        <ele>512.4</ele>
        <time>2012-05-10T20:00:13Z</time>
      </trkpt>
      <trkpt lat="28.30621" lon="-10.72281">
        <ele>512.8</ele>
        <time>2012-05-10T20:00:18Z</time>
      </trkpt>
      <trkpt lat="28.30603" lon="-10.72287">
        <ele>511.8</ele>
        <time>2012-05-10T20:00:23Z</time>
      </trkpt>
      <trkpt lat="28.30586" lon="-10.72294">
        <ele>512.7</ele>
        <time>2012-05-10T20:00:28Z</time>
      </trkpt>
      <trkpt lat="28.3057" lon="-10.72305">
        <ele>514.2</ele>
        <time>2012-05-10T20:00:33Z</time>
      </trkpt>
      <trkpt lat="28.30554" lon="-10.72317">
        <ele>515.2</ele>
        <time>2012-05-10T20:00:38Z</time>
      </trkpt>
      <trkpt lat="28.30541" lon="-10.72332">
        <ele>516.1</ele>
        <time>2012-05-10T20:00:43Z</time>
      </trkpt>
      <trkpt lat="28.30532" lon="-10.72349">
        <ele>514.8</ele>
        <time>2012-05-10T20:00:48Z</time>
      </trkpt>
      <trkpt lat="28.30527" lon="-10.7236">
        <ele>515.4</ele>
        <time>2012-05-10T20:00:53Z</time>
      </trkpt>
      <trkpt lat="28.30515" lon="-10.72375">
        <ele>517.1</ele>
        <time>2012-05-10T20:00:58Z</time>
      </trkpt>
      <trkpt lat="28.30501" lon="-10.72391">
        <ele>520.7</ele>
        <time>2012-05-10T20:01:03Z</time>
      </trkpt>
      <trkpt lat="28.30487" lon="-10.72404">
        <ele>523.6</ele>
        <time>2012-05-10T20:01:08Z</time>
      </trkpt>
      <trkpt lat="28.30475" lon="-10.72421">
        <ele>528.7</ele>
        <time>2012-05-10T20:01:13Z</time>
      </trkpt>
      <trkpt lat="28.30465" lon="-10.72437">
        <ele>529.2</ele>
        <time>2012-05-10T20:01:18Z</time>
      </trkpt>
      <trkpt lat="28.30449" lon="-10.7245">
        <ele>531</ele>
        <time>2012-05-10T20:01:23Z</time>
      </trkpt>
      <trkpt lat="28.30433" lon="-10.72462">
        <ele>529.2</ele>
        <time>2012-05-10T20:01:28Z</time>
      </trkpt>
      <trkpt lat="28.30416" lon="-10.72473">
        <ele>526.3</ele>
        <time>2012-05-10T20:01:33Z</time>
      </trkpt>
      <trkpt lat="28.30398" lon="-10.72483">
        <ele>527.2</ele>
        <time>2012-05-10T20:01:38Z</time>
      </trkpt>
      <trkpt lat="28.30379" lon="-10.72488">
        <ele>527.4</ele>
        <time>2012-05-10T20:01:43Z</time>
      </trkpt>
      <trkpt lat="28.30362" lon="-10.72494">
        <ele>528.7</ele>
        <time>2012-05-10T20:01:48Z</time>
      </trkpt>
      <trkpt lat="28.30343" lon="-10.72503">
        <ele>529.4</ele>
        <time>2012-05-10T20:01:53Z</time>
      </trkpt>
      <trkpt lat="28.30325" lon="-10.72515">
        <ele>528.6</ele>
        <time>2012-05-10T20:01:58Z</time>
      </trkpt>
      <trkpt lat="28.30309" lon="-10.72528">
        <ele>529.9</ele>
        <time>2012-05-10T20:02:03Z</time>
      </trkpt>
      <trkpt lat="28.30289" lon="-10.72546">
        <ele>531.2</ele>
        <time>2012-05-10T20:02:08Z</time>
      </trkpt>
      <trkpt lat="28.30269" lon="-10.72563">
        <ele>531.2</ele>
        <time>2012-05-10T20:02:13Z</time>
      </trkpt>
      <trkpt lat="28.30252" lon="-10.72576">
        <ele>531.6</ele>
        <time>2012-05-10T20:02:18Z</time>
      </trkpt>
      <trkpt lat="28.3024" lon="-10.72596">
        <ele>533.5</ele>
        <time>2012-05-10T20:02:23Z</time>
      </trkpt>
      <trkpt lat="28.30234" lon="-10.72616">
        <ele>534.1</ele>
        <time>2012-05-10T20:02:28Z</time>
      </trkpt>
      <trkpt lat="28.30226" lon="-10.72636">
        <ele>535</ele>
        <time>2012-05-10T20:02:33Z</time>
      </trkpt>
      <trkpt lat="28.30208" lon="-10.72649">
        <ele>535.6</ele>
        <time>2012-05-10T20:02:38Z</time>
      </trkpt>
      <trkpt lat="28.3019" lon="-10.72651">
        <ele>536.1</ele>
        <time>2012-05-10T20:02:43Z</time>
      </trkpt>
      <trkpt lat="28.30171" lon="-10.72648">
        <ele>537.9</ele>
        <time>2012-05-10T20:02:48Z</time>
      </trkpt>
      <trkpt lat="28.30152" lon="-10.72646">
        <ele>539.9</ele>
        <time>2012-05-10T20:02:53Z</time>
      </trkpt>
      <trkpt lat="28.30134" lon="-10.72655">
        <ele>539.8</ele>
        <time>2012-05-10T20:02:58Z</time>
      </trkpt>
      <trkpt lat="28.30121" lon="-10.7267">
        <ele>540.8</ele>
        <time>2012-05-10T20:03:03Z</time>
      </trkpt>
      <trkpt lat="28.30109" lon="-10.72688">
        <ele>541.2</ele>
        <time>2012-05-10T20:03:08Z</time>
      </trkpt>
      <trkpt lat="28.30091" lon="-10.72697">
        <ele>541</ele>
        <time>2012-05-10T20:03:13Z</time>
      </trkpt>
      <trkpt lat="28.30075" lon="-10.72707">
        <ele>543.8</ele>
        <time>2012-05-10T20:03:18Z</time>
      </trkpt>
      <trkpt lat="28.3006" lon="-10.7272">
        <ele>544.2</ele>
        <time>2012-05-10T20:03:23Z</time>
      </trkpt>
      <trkpt lat="28.30042" lon="-10.72728">
        <ele>545.3</ele>
        <time>2012-05-10T20:03:28Z</time>
      </trkpt>
      <trkpt lat="28.30024" lon="-10.72732">
        <ele>545.5</ele>
        <time>2012-05-10T20:03:33Z</time>
      </trkpt>
      <trkpt lat="28.30005" lon="-10.72739">
        <ele>548.7</ele>
        <time>2012-05-10T20:03:38Z</time>
      </trkpt>
      <trkpt lat="28.29984" lon="-10.72748">
        <ele>549.9</ele>
        <time>2012-05-10T20:03:43Z</time>
      </trkpt>
      <trkpt lat="28.2997" lon="-10.72763">
        <ele>550</ele>
        <time>2012-05-10T20:03:48Z</time>
      </trkpt>
      <trkpt lat="28.29961" lon="-10.72782">
        <ele>549.5</ele>
        <time>2012-05-10T20:03:53Z</time>
      </trkpt>
      <trkpt lat="28.29951" lon="-10.72803">
        <ele>549.1</ele>
        <time>2012-05-10T20:03:58Z</time>
      </trkpt>
      <trkpt lat="28.29942" lon="-10.72823">
        <ele>549.9</ele>
        <time>2012-05-10T20:04:03Z</time>
      </trkpt>
      <trkpt lat="28.29928" lon="-10.72836">
        <ele>549.6</ele>
        <time>2012-05-10T20:04:08Z</time>
      </trkpt>
      <trkpt lat="28.29909" lon="-10.72846">
        <ele>550.2</ele>
        <time>2012-05-10T20:04:13Z</time>
      </trkpt>
      <trkpt lat="28.29856" lon="-10.72874">
        <ele>553.3</ele>
        <time>2012-05-10T20:04:18Z</time>
      </trkpt>
      <trkpt lat="28.29839" lon="-10.72887">
        <ele>554.2</ele>
        <time>2012-05-10T20:04:23Z</time>
      </trkpt>
      <trkpt lat="28.29824" lon="-10.72899">
        <ele>554.5</ele>
        <time>2012-05-10T20:04:28Z</time>
      </trkpt>
      <trkpt lat="28.29809" lon="-10.72914">
        <ele>554.6</ele>
        <time>2012-05-10T20:04:33Z</time>
      </trkpt>
      <trkpt lat="28.29795" lon="-10.72932">
        <ele>555.6</ele>
        <time>2012-05-10T20:04:38Z</time>
      </trkpt>
      <trkpt lat="28.29783" lon="-10.72951">
        <ele>556.2</ele>
        <time>2012-05-10T20:04:43Z</time>
      </trkpt>
      <trkpt lat="28.29764" lon="-10.72969">
        <ele>557.5</ele>
        <time>2012-05-10T20:04:48Z</time>
      </trkpt>
      <trkpt lat="28.29748" lon="-10.72984">
        <ele>558.9</ele>
        <time>2012-05-10T20:04:53Z</time>
      </trkpt>
      <trkpt lat="28.29731" lon="-10.73">
        <ele>558.8</ele>
        <time>2012-05-10T20:04:58Z</time>
      </trkpt>
      <trkpt lat="28.29717" lon="-10.73016">
        <ele>559.3</ele>
        <time>2012-05-10T20:05:03Z</time>
      </trkpt>
      <trkpt lat="28.29692" lon="-10.73041">
        <ele>562.3</ele>
        <time>2012-05-10T20:05:08Z</time>
      </trkpt>
      <trkpt lat="28.29675" lon="-10.73047">
        <ele>563.2</ele>
        <time>2012-05-10T20:05:13Z</time>
      </trkpt>
      <trkpt lat="28.29655" lon="-10.73053">
        <ele>563.9</ele>
        <time>2012-05-10T20:05:18Z</time>
      </trkpt>
      <trkpt lat="28.29642" lon="-10.73068">
        <ele>563.9</ele>
        <time>2012-05-10T20:05:23Z</time>
      </trkpt>
      <trkpt lat="28.29628" lon="-10.73085">
        <ele>564</ele>
        <time>2012-05-10T20:05:28Z</time>
      </trkpt>
      <trkpt lat="28.29613" lon="-10.73101">
        <ele>565.1</ele>
        <time>2012-05-10T20:05:33Z</time>
      </trkpt>
      <trkpt lat="28.29601" lon="-10.73118">
        <ele>566.2</ele>
        <time>2012-05-10T20:05:38Z</time>
      </trkpt>
      <trkpt lat="28.29584" lon="-10.73125">
        <ele>567.6</ele>
        <time>2012-05-10T20:05:43Z</time>
      </trkpt>
      <trkpt lat="28.29566" lon="-10.73126">
        <ele>568.5</ele>
        <time>2012-05-10T20:05:48Z</time>
      </trkpt>
      <trkpt lat="28.29548" lon="-10.73138">
        <ele>569.7</ele>
        <time>2012-05-10T20:05:53Z</time>
      </trkpt>
      <trkpt lat="28.2953" lon="-10.73152">
        <ele>570.3</ele>
        <time>2012-05-10T20:05:58Z</time>
      </trkpt>
      <trkpt lat="28.29514" lon="-10.73167">
        <ele>571.4</ele>
        <time>2012-05-10T20:06:03Z</time>
      </trkpt>
      <trkpt lat="28.29497" lon="-10.73191">
        <ele>572.9</ele>
        <time>2012-05-10T20:06:08Z</time>
      </trkpt>
      <trkpt lat="28.29482" lon="-10.73207">
        <ele>573.8</ele>
        <time>2012-05-10T20:06:13Z</time>
      </trkpt>
      <trkpt lat="28.29464" lon="-10.73217">
        <ele>574.4</ele>
        <time>2012-05-10T20:06:18Z</time>
      </trkpt>
      <trkpt lat="28.29449" lon="-10.73231">
        <ele>576.2</ele>
        <time>2012-05-10T20:06:23Z</time>
      </trkpt>
      <trkpt lat="28.29432" lon="-10.73241">
        <ele>576.9</ele>
        <time>2012-05-10T20:06:28Z</time>
      </trkpt>
      <trkpt lat="28.29417" lon="-10.73252">
        <ele>577.1</ele>
        <time>2012-05-10T20:06:33Z</time>
      </trkpt>
      <trkpt lat="28.294" lon="-10.73264">
        <ele>579.4</ele>
        <time>2012-05-10T20:06:38Z</time>
      </trkpt>
      <trkpt lat="28.29385" lon="-10.73275">
        <ele>581.4</ele>
        <time>2012-05-10T20:06:43Z</time>
      </trkpt>
      <trkpt lat="28.29369" lon="-10.7329">
        <ele>582</ele>
        <time>2012-05-10T20:06:48Z</time>
      </trkpt>
      <trkpt lat="28.29354" lon="-10.73306">
        <ele>582.7</ele>
        <time>2012-05-10T20:06:53Z</time>
      </trkpt>
      <trkpt lat="28.29339" lon="-10.733">
        <ele>582.4</ele>
        <time>2012-05-10T20:06:58Z</time>
      </trkpt>
      <trkpt lat="28.29324" lon="-10.73308">
        <ele>582.8</ele>
        <time>2012-05-10T20:07:03Z</time>
      </trkpt>
      <trkpt lat="28.29312" lon="-10.73324">
        <ele>584.9</ele>
        <time>2012-05-10T20:07:08Z</time>
      </trkpt>
      <trkpt lat="28.29298" lon="-10.73339">
        <ele>587.5</ele>
        <time>2012-05-10T20:07:13Z</time>
      </trkpt>
      <trkpt lat="28.29287" lon="-10.73357">
        <ele>589.9</ele>
        <time>2012-05-10T20:07:18Z</time>
      </trkpt>
      <trkpt lat="28.29279" lon="-10.73376">
        <ele>591.9</ele>
        <time>2012-05-10T20:07:23Z</time>
      </trkpt>
      <trkpt lat="28.29267" lon="-10.73394">
        <ele>595.1</ele>
        <time>2012-05-10T20:07:28Z</time>
      </trkpt>
      <trkpt lat="28.29254" lon="-10.73407">
        <ele>598</ele>
        <time>2012-05-10T20:07:33Z</time>
      </trkpt>
      <trkpt lat="28.29237" lon="-10.73411">
        <ele>601.4</ele>
        <time>2012-05-10T20:07:38Z</time>
      </trkpt>
      <trkpt lat="28.2923" lon="-10.73389">
        <ele>603.9</ele>
        <time>2012-05-10T20:07:43Z</time>
      </trkpt>
      <trkpt lat="28.29223" lon="-10.73367">
        <ele>606.5</ele>
        <time>2012-05-10T20:07:48Z</time>
      </trkpt>
      <trkpt lat="28.29214" lon="-10.73348">
        <ele>607.7</ele>
        <time>2012-05-10T20:07:53Z</time>
      </trkpt>
      <trkpt lat="28.292" lon="-10.73334">
        <ele>610.8</ele>
        <time>2012-05-10T20:07:58Z</time>
      </trkpt>
      <trkpt lat="28.29184" lon="-10.73322">
        <ele>616.1</ele>
        <time>2012-05-10T20:08:03Z</time>
      </trkpt>
      <trkpt lat="28.2917" lon="-10.73306">
        <ele>620.3</ele>
        <time>2012-05-10T20:08:08Z</time>
      </trkpt>
      <trkpt lat="28.29156" lon="-10.7329">
        <ele>624.9</ele>
        <time>2012-05-10T20:08:13Z</time>
      </trkpt>
      <trkpt lat="28.2914" lon="-10.73274">
        <ele>626.9</ele>
        <time>2012-05-10T20:08:18Z</time>
      </trkpt>
      <trkpt lat="28.29129" lon="-10.73258">
        <ele>628.9</ele>
        <time>2012-05-10T20:08:23Z</time>
      </trkpt>
      <trkpt lat="28.2912" lon="-10.73238">
        <ele>632.6</ele>
        <time>2012-05-10T20:08:28Z</time>
      </trkpt>
      <trkpt lat="28.29129" lon="-10.73219">
        <ele>633.7</ele>
        <time>2012-05-10T20:08:33Z</time>
      </trkpt>
      <trkpt lat="28.29141" lon="-10.732">
        <ele>635</ele>
        <time>2012-05-10T20:08:38Z</time>
      </trkpt>
      <trkpt lat="28.29154" lon="-10.73185">
        <ele>637</ele>
        <time>2012-05-10T20:08:43Z</time>
      </trkpt>
      <trkpt lat="28.29168" lon="-10.73169">
        <ele>639.3</ele>
        <time>2012-05-10T20:08:48Z</time>
      </trkpt>
      <trkpt lat="28.29182" lon="-10.73156">
        <ele>642</ele>
        <time>2012-05-10T20:08:53Z</time>
      </trkpt>
      <trkpt lat="28.29194" lon="-10.73141">
        <ele>644.9</ele>
        <time>2012-05-10T20:08:58Z</time>
      </trkpt>
      <trkpt lat="28.29196" lon="-10.73127">
        <ele>648.9</ele>
        <time>2012-05-10T20:09:03Z</time>
      </trkpt>
      <trkpt lat="28.2918" lon="-10.73138">
        <ele>650.4</ele>
        <time>2012-05-10T20:09:08Z</time>
      </trkpt>
      <trkpt lat="28.29162" lon="-10.73148">
        <ele>651.2</ele>
        <time>2012-05-10T20:09:13Z</time>
      </trkpt>
      <trkpt lat="28.29147" lon="-10.7316">
        <ele>650.5</ele>
        <time>2012-05-10T20:09:18Z</time>
      </trkpt>
      <trkpt lat="28.29131" lon="-10.73169">
        <ele>651.8</ele>
        <time>2012-05-10T20:09:23Z</time>
      </trkpt>
      <trkpt lat="28.29115" lon="-10.73179">
        <ele>654.6</ele>
        <time>2012-05-10T20:09:28Z</time>
      </trkpt>
      <trkpt lat="28.29099" lon="-10.73193">
        <ele>657.1</ele>
        <time>2012-05-10T20:09:33Z</time>
      </trkpt>
      <trkpt lat="28.29081" lon="-10.73204">
        <ele>659.9</ele>
        <time>2012-05-10T20:09:38Z</time>
      </trkpt>
      <trkpt lat="28.29064" lon="-10.73217">
        <ele>662.4</ele>
        <time>2012-05-10T20:09:43Z</time>
      </trkpt>
      <trkpt lat="28.29047" lon="-10.73229">
        <ele>663.6</ele>
        <time>2012-05-10T20:09:48Z</time>
      </trkpt>
      <trkpt lat="28.29038" lon="-10.73242">
        <ele>664.7</ele>
        <time>2012-05-10T20:09:53Z</time>
      </trkpt>
      <trkpt lat="28.29039" lon="-10.73244">
        <ele>663.1</ele>
        <time>2012-05-10T20:09:58Z</time>
      </trkpt>
      <trkpt lat="28.29039" lon="-10.73247">
        <ele>661.2</ele>
        <time>2012-05-10T20:10:03Z</time>
      </trkpt>
      <trkpt lat="28.29039" lon="-10.73249">
        <ele>659.3</ele>
        <time>2012-05-10T20:10:08Z</time>
      </trkpt>
      <trkpt lat="28.29039" lon="-10.73248">
        <ele>661.1</ele>
        <time>2012-05-10T20:10:13Z</time>
      </trkpt>
      <trkpt lat="28.29039" lon="-10.73249">
        <ele>660.1</ele>
        <time>2012-05-10T20:10:18Z</time>
      </trkpt>
      <trkpt lat="28.29039" lon="-10.73247">
        <ele>661.7</ele>
        <time>2012-05-10T20:10:23Z</time>
      </trkpt>
      <trkpt lat="28.29039" lon="-10.73247">
        <ele>661.5</ele>
        <time>2012-05-10T20:10:28Z</time>
      </trkpt>
      <trkpt lat="28.29039" lon="-10.73246">
        <ele>659.4</ele>
        <time>2012-05-10T20:10:33Z</time>
      </trkpt>
      <trkpt lat="28.2904" lon="-10.73246">
        <ele>659.2</ele>
        <time>2012-05-10T20:10:38Z</time>
      </trkpt>
      <trkpt lat="28.29039" lon="-10.73246">
        <ele>659.5</ele>
        <time>2012-05-10T20:10:43Z</time>
      </trkpt>
      <trkpt lat="28.29041" lon="-10.73246">
        <ele>661.8</ele>
        <time>2012-05-10T20:10:48Z</time>
      </trkpt>
      <trkpt lat="28.29041" lon="-10.73245">
        <ele>662.5</ele>
        <time>2012-05-10T20:10:53Z</time>
      </trkpt>
      <trkpt lat="28.29039" lon="-10.73245">
        <ele>663.1</ele>
        <time>2012-05-10T20:10:58Z</time>
      </trkpt>
      <trkpt lat="28.2904" lon="-10.73245">
        <ele>662.2</ele>
        <time>2012-05-10T20:11:03Z</time>
      </trkpt>
      <trkpt lat="28.2904" lon="-10.73244">
        <ele>662.3</ele>
        <time>2012-05-10T20:11:08Z</time>
      </trkpt>
      <trkpt lat="28.2904" lon="-10.73244">
        <ele>664.2</ele>
        <time>2012-05-10T20:11:13Z</time>
      </trkpt>
      <trkpt lat="28.2904" lon="-10.73244">
        <ele>664.8</ele>
        <time>2012-05-10T20:11:18Z</time>
      </trkpt>
      <trkpt lat="28.2904" lon="-10.73245">
        <ele>664.4</ele>
        <time>2012-05-10T20:11:23Z</time>
      </trkpt>
      <trkpt lat="28.2904" lon="-10.73245">
        <ele>664.4</ele>
        <time>2012-05-10T20:11:28Z</time>
      </trkpt>
      <trkpt lat="28.2904" lon="-10.73244">
        <ele>663.3</ele>
        <time>2012-05-10T20:11:33Z</time>
      </trkpt>
      <trkpt lat="28.29039" lon="-10.73249">
        <ele>664.5</ele>
        <time>2012-05-10T20:11:38Z</time>
      </trkpt>
      <trkpt lat="28.29038" lon="-10.73271">
        <ele>668.6</ele>
        <time>2012-05-10T20:11:43Z</time>
      </trkpt>
      <trkpt lat="28.29034" lon="-10.73292">
        <ele>672.2</ele>
        <time>2012-05-10T20:11:48Z</time>
      </trkpt>
      <trkpt lat="28.29025" lon="-10.73311">
        <ele>674.7</ele>
        <time>2012-05-10T20:11:53Z</time>
      </trkpt>
      <trkpt lat="28.29019" lon="-10.73331">
        <ele>677</ele>
        <time>2012-05-10T20:11:58Z</time>
      </trkpt>
      <trkpt lat="28.29022" lon="-10.73354">
        <ele>680.6</ele>
        <time>2012-05-10T20:12:03Z</time>
      </trkpt>
      <trkpt lat="28.29028" lon="-10.73375">
        <ele>683.9</ele>
        <time>2012-05-10T20:12:08Z</time>
      </trkpt>
      <trkpt lat="28.29021" lon="-10.73396">
        <ele>686.2</ele>
        <time>2012-05-10T20:12:13Z</time>
      </trkpt>
      <trkpt lat="28.29015" lon="-10.73419">
        <ele>688</ele>
        <time>2012-05-10T20:12:18Z</time>
      </trkpt>
      <trkpt lat="28.29008" lon="-10.73441">
        <ele>689.8</ele>
        <time>2012-05-10T20:12:23Z</time>
      </trkpt>
      <trkpt lat="28.29" lon="-10.73463">
        <ele>691.4</ele>
        <time>2012-05-10T20:12:28Z</time>
      </trkpt>
      <trkpt lat="28.28996" lon="-10.73485">
        <ele>693.6</ele>
        <time>2012-05-10T20:12:33Z</time>
      </trkpt>
      <trkpt lat="28.2899" lon="-10.73505">
        <ele>695.5</ele>
        <time>2012-05-10T20:12:38Z</time>
      </trkpt>
      <trkpt lat="28.28984" lon="-10.73525">
        <ele>697.2</ele>
        <time>2012-05-10T20:12:43Z</time>
      </trkpt>
      <trkpt lat="28.28978" lon="-10.73549">
        <ele>699</ele>
        <time>2012-05-10T20:12:48Z</time>
      </trkpt>
      <trkpt lat="28.28974" lon="-10.73572">
        <ele>700.1</ele>
        <time>2012-05-10T20:12:53Z</time>
      </trkpt>
      <trkpt lat="28.28984" lon="-10.73589">
        <ele>702.5</ele>
        <time>2012-05-10T20:12:58Z</time>
      </trkpt>
      <trkpt lat="28.28999" lon="-10.73604">
        <ele>705.1</ele>
        <time>2012-05-10T20:13:03Z</time>
      </trkpt>
      <trkpt lat="28.29014" lon="-10.73619">
        <ele>707.3</ele>
        <time>2012-05-10T20:13:08Z</time>
      </trkpt>
      <trkpt lat="28.29028" lon="-10.73634">
        <ele>709.2</ele>
        <time>2012-05-10T20:13:13Z</time>
      </trkpt>
      <trkpt lat="28.29037" lon="-10.73652">
        <ele>710.1</ele>
        <time>2012-05-10T20:13:18Z</time>
      </trkpt>
      <trkpt lat="28.29044" lon="-10.73672">
        <ele>710.4</ele>
        <time>2012-05-10T20:13:23Z</time>
      </trkpt>
      <trkpt lat="28.2905" lon="-10.73692">
        <ele>710.3</ele>
        <time>2012-05-10T20:13:28Z</time>
      </trkpt>
      <trkpt lat="28.2906" lon="-10.73709">
        <ele>709.3</ele>
        <time>2012-05-10T20:13:33Z</time>
      </trkpt>
      <trkpt lat="28.29073" lon="-10.73724">
        <ele>708.8</ele>
        <time>2012-05-10T20:13:38Z</time>
      </trkpt>
      <trkpt lat="28.29091" lon="-10.73734">
        <ele>707.9</ele>
        <time>2012-05-10T20:13:43Z</time>
      </trkpt>
      <trkpt lat="28.29108" lon="-10.73741">
        <ele>707.5</ele>
        <time>2012-05-10T20:13:48Z</time>
      </trkpt>
      <trkpt lat="28.29125" lon="-10.73749">
        <ele>706</ele>
        <time>2012-05-10T20:13:53Z</time>
      </trkpt>
      <trkpt lat="28.29144" lon="-10.73748">
        <ele>705.6</ele>
        <time>2012-05-10T20:13:58Z</time>
      </trkpt>
      <trkpt lat="28.29161" lon="-10.73755">
        <ele>703.4</ele>
        <time>2012-05-10T20:14:03Z</time>
      </trkpt>
      <trkpt lat="28.2918" lon="-10.73757">
        <ele>700.5</ele>
        <time>2012-05-10T20:14:08Z</time>
      </trkpt>
      <trkpt lat="28.29199" lon="-10.73758">
        <ele>697.7</ele>
        <time>2012-05-10T20:14:13Z</time>
      </trkpt>
      <trkpt lat="28.29217" lon="-10.73756">
        <ele>695.9</ele>
        <time>2012-05-10T20:14:18Z</time>
      </trkpt>
      <trkpt lat="28.29235" lon="-10.73755">
        <ele>692.7</ele>
        <time>2012-05-10T20:14:23Z</time>
      </trkpt>
      <trkpt lat="28.29253" lon="-10.73757">
        <ele>690.1</ele>
        <time>2012-05-10T20:14:28Z</time>
      </trkpt>
      <trkpt lat="28.2927" lon="-10.73751">
        <ele>687.6</ele>
        <time>2012-05-10T20:14:33Z</time>
      </trkpt>
      <trkpt lat="28.29288" lon="-10.7374">
        <ele>685.7</ele>
        <time>2012-05-10T20:14:38Z</time>
      </trkpt>
      <trkpt lat="28.29304" lon="-10.73729">
        <ele>684.5</ele>
        <time>2012-05-10T20:14:43Z</time>
      </trkpt>
      <trkpt lat="28.29317" lon="-10.73715">
        <ele>683.6</ele>
        <time>2012-05-10T20:14:48Z</time>
      </trkpt>
      <trkpt lat="28.29331" lon="-10.73701">
        <ele>682.2</ele>
        <time>2012-05-10T20:14:53Z</time>
      </trkpt>
      <trkpt lat="28.29347" lon="-10.7369">
        <ele>680.5</ele>
        <time>2012-05-10T20:14:58Z</time>
      </trkpt>
      <trkpt lat="28.29362" lon="-10.73678">
        <ele>679.7</ele>
        <time>2012-05-10T20:15:03Z</time>
      </trkpt>
      <trkpt lat="28.29374" lon="-10.73661">
        <ele>679.7</ele>
        <time>2012-05-10T20:15:08Z</time>
      </trkpt>
      <trkpt lat="28.29389" lon="-10.7365">
        <ele>680.9</ele>
        <time>2012-05-10T20:15:13Z</time>
      </trkpt>
      <trkpt lat="28.29407" lon="-10.73646">
        <ele>682.4</ele>
        <time>2012-05-10T20:15:18Z</time>
      </trkpt>
      <trkpt lat="28.29422" lon="-10.73633">
        <ele>683.2</ele>
        <time>2012-05-10T20:15:23Z</time>
      </trkpt>
      <trkpt lat="28.2944" lon="-10.73627">
        <ele>684.3</ele>
        <time>2012-05-10T20:15:28Z</time>
      </trkpt>
      <trkpt lat="28.29453" lon="-10.73613">
        <ele>685.5</ele>
        <time>2012-05-10T20:15:33Z</time>
      </trkpt>
      <trkpt lat="28.29462" lon="-10.73595">
        <ele>688.4</ele>
        <time>2012-05-10T20:15:38Z</time>
      </trkpt>
      <trkpt lat="28.29481" lon="-10.73584">
        <ele>688.7</ele>
        <time>2012-05-10T20:15:43Z</time>
      </trkpt>
      <trkpt lat="28.29496" lon="-10.73572">
        <ele>689.3</ele>
        <time>2012-05-10T20:15:48Z</time>
      </trkpt>
      <trkpt lat="28.29511" lon="-10.73557">
        <ele>689.3</ele>
        <time>2012-05-10T20:15:53Z</time>
      </trkpt>
      <trkpt lat="28.29525" lon="-10.73543">
        <ele>689.7</ele>
        <time>2012-05-10T20:15:58Z</time>
      </trkpt>
      <trkpt lat="28.29539" lon="-10.73529">
        <ele>689.8</ele>
        <time>2012-05-10T20:16:03Z</time>
      </trkpt>
      <trkpt lat="28.29555" lon="-10.73516">
        <ele>689.3</ele>
        <time>2012-05-10T20:16:08Z</time>
      </trkpt>
      <trkpt lat="28.29572" lon="-10.73506">
        <ele>688.2</ele>
        <time>2012-05-10T20:16:13Z</time>
      </trkpt>
      <trkpt lat="28.29588" lon="-10.73494">
        <ele>687.6</ele>
        <time>2012-05-10T20:16:18Z</time>
      </trkpt>
      <trkpt lat="28.296" lon="-10.73477">
        <ele>688.8</ele>
        <time>2012-05-10T20:16:23Z</time>
      </trkpt>
      <trkpt lat="28.29613" lon="-10.73464">
        <ele>688.6</ele>
        <time>2012-05-10T20:16:28Z</time>
      </trkpt>
      <trkpt lat="28.29631" lon="-10.73454">
        <ele>687.4</ele>
        <time>2012-05-10T20:16:33Z</time>
      </trkpt>
      <trkpt lat="28.29647" lon="-10.73445">
        <ele>688</ele>
        <time>2012-05-10T20:16:38Z</time>
      </trkpt>
      <trkpt lat="28.29664" lon="-10.73434">
        <ele>687</ele>
        <time>2012-05-10T20:16:43Z</time>
      </trkpt>
      <trkpt lat="28.29681" lon="-10.73423">
        <ele>685.4</ele>
        <time>2012-05-10T20:16:48Z</time>
      </trkpt>
      <trkpt lat="28.29698" lon="-10.73415">
        <ele>683.6</ele>
        <time>2012-05-10T20:16:53Z</time>
      </trkpt>
      <trkpt lat="28.29715" lon="-10.734">
        <ele>683.1</ele>
        <time>2012-05-10T20:16:58Z</time>
      </trkpt>
      <trkpt lat="28.29731" lon="-10.7339">
        <ele>681.8</ele>
        <time>2012-05-10T20:17:03Z</time>
      </trkpt>
      <trkpt lat="28.29749" lon="-10.73373">
        <ele>681.9</ele>
        <time>2012-05-10T20:17:08Z</time>
      </trkpt>
      <trkpt lat="28.29762" lon="-10.73358">
        <ele>681.4</ele>
        <time>2012-05-10T20:17:13Z</time>
      </trkpt>
      <trkpt lat="28.29778" lon="-10.73349">
        <ele>680.6</ele>
        <time>2012-05-10T20:17:18Z</time>
      </trkpt>
      <trkpt lat="28.29793" lon="-10.73336">
        <ele>680.9</ele>
        <time>2012-05-10T20:17:23Z</time>
      </trkpt>
      <trkpt lat="28.29808" lon="-10.73323">
        <ele>680.7</ele>
        <time>2012-05-10T20:17:28Z</time>
      </trkpt>
      <trkpt lat="28.2982" lon="-10.73309">
        <ele>680.7</ele>
        <time>2012-05-10T20:17:33Z</time>
      </trkpt>
      <trkpt lat="28.29837" lon="-10.73301">
        <ele>681.6</ele>
        <time>2012-05-10T20:17:38Z</time>
      </trkpt>
      <trkpt lat="28.29854" lon="-10.73294">
        <ele>680.8</ele>
        <time>2012-05-10T20:17:43Z</time>
      </trkpt>
      <trkpt lat="28.2987" lon="-10.73284">
        <ele>679.9</ele>
        <time>2012-05-10T20:17:48Z</time>
      </trkpt>
      <trkpt lat="28.29887" lon="-10.73278">
        <ele>679</ele>
        <time>2012-05-10T20:17:53Z</time>
      </trkpt>
      <trkpt lat="28.29905" lon="-10.73271">
        <ele>678.8</ele>
        <time>2012-05-10T20:17:58Z</time>
      </trkpt>
      <trkpt lat="28.29919" lon="-10.73258">
        <ele>679.9</ele>
        <time>2012-05-10T20:18:03Z</time>
      </trkpt>
      <trkpt lat="28.29935" lon="-10.73242">
        <ele>679.9</ele>
        <time>2012-05-10T20:18:08Z</time>
      </trkpt>
      <trkpt lat="28.29949" lon="-10.73228">
        <ele>680.3</ele>
        <time>2012-05-10T20:18:13Z</time>
      </trkpt>
      <trkpt lat="28.29964" lon="-10.73214">
        <ele>680.2</ele>
        <time>2012-05-10T20:18:18Z</time>
      </trkpt>
      <trkpt lat="28.29979" lon="-10.73202">
        <ele>679.8</ele>
        <time>2012-05-10T20:18:23Z</time>
      </trkpt>
      <trkpt lat="28.29996" lon="-10.7319">
        <ele>679.7</ele>
        <time>2012-05-10T20:18:28Z</time>
      </trkpt>
      <trkpt lat="28.30011" lon="-10.73178">
        <ele>679.8</ele>
        <time>2012-05-10T20:18:33Z</time>
      </trkpt>
      <trkpt lat="28.30025" lon="-10.73166">
        <ele>679.6</ele>
        <time>2012-05-10T20:18:38Z</time>
      </trkpt>
      <trkpt lat="28.30042" lon="-10.73155">
        <ele>681.3</ele>
        <time>2012-05-10T20:18:43Z</time>
      </trkpt>
      <trkpt lat="28.3006" lon="-10.7315">
        <ele>681.5</ele>
        <time>2012-05-10T20:18:48Z</time>
      </trkpt>
      <trkpt lat="28.30075" lon="-10.73136">
        <ele>682.8</ele>
        <time>2012-05-10T20:18:53Z</time>
      </trkpt>
      <trkpt lat="28.30089" lon="-10.73123">
        <ele>683.3</ele>
        <time>2012-05-10T20:18:58Z</time>
      </trkpt>
      <trkpt lat="28.30105" lon="-10.73112">
        <ele>683.1</ele>
        <time>2012-05-10T20:19:03Z</time>
      </trkpt>
      <trkpt lat="28.30119" lon="-10.73095">
        <ele>684.3</ele>
        <time>2012-05-10T20:19:08Z</time>
      </trkpt>
      <trkpt lat="28.30139" lon="-10.7308">
        <ele>683.9</ele>
        <time>2012-05-10T20:19:13Z</time>
      </trkpt>
      <trkpt lat="28.30153" lon="-10.73067">
        <ele>683.8</ele>
        <time>2012-05-10T20:19:18Z</time>
      </trkpt>
      <trkpt lat="28.30167" lon="-10.73055">
        <ele>683.5</ele>
        <time>2012-05-10T20:19:23Z</time>
      </trkpt>
      <trkpt lat="28.30186" lon="-10.73051">
        <ele>684.4</ele>
        <time>2012-05-10T20:19:28Z</time>
      </trkpt>
      <trkpt lat="28.30203" lon="-10.73043">
        <ele>684</ele>
        <time>2012-05-10T20:19:33Z</time>
      </trkpt>
      <trkpt lat="28.3022" lon="-10.73031">
        <ele>683.6</ele>
        <time>2012-05-10T20:19:38Z</time>
      </trkpt>
      <trkpt lat="28.30234" lon="-10.73017">
        <ele>683.4</ele>
        <time>2012-05-10T20:19:43Z</time>
      </trkpt>
      <trkpt lat="28.30249" lon="-10.73004">
        <ele>683.6</ele>
        <time>2012-05-10T20:19:48Z</time>
      </trkpt>
      <trkpt lat="28.30266" lon="-10.72992">
        <ele>682.1</ele>
        <time>2012-05-10T20:19:53Z</time>
      </trkpt>
      <trkpt lat="28.30282" lon="-10.7298">
        <ele>681.6</ele>
        <time>2012-05-10T20:19:58Z</time>
      </trkpt>
      <trkpt lat="28.30301" lon="-10.72963">
        <ele>681.2</ele>
        <time>2012-05-10T20:20:03Z</time>
      </trkpt>
      <trkpt lat="28.30319" lon="-10.72953">
        <ele>681</ele>
        <time>2012-05-10T20:20:08Z</time>
      </trkpt>
      <trkpt lat="28.30335" lon="-10.72939">
        <ele>680.4</ele>
        <time>2012-05-10T20:20:13Z</time>
      </trkpt>
      <trkpt lat="28.30348" lon="-10.72923">
        <ele>680.3</ele>
        <time>2012-05-10T20:20:18Z</time>
      </trkpt>
      <trkpt lat="28.30368" lon="-10.72918">
        <ele>679.1</ele>
        <time>2012-05-10T20:20:23Z</time>
      </trkpt>
      <trkpt lat="28.30386" lon="-10.72909">
        <ele>678.2</ele>
        <time>2012-05-10T20:20:28Z</time>
      </trkpt>
      <trkpt lat="28.30403" lon="-10.72896">
        <ele>678.2</ele>
        <time>2012-05-10T20:20:33Z</time>
      </trkpt>
      <trkpt lat="28.30419" lon="-10.72885">
        <ele>678.4</ele>
        <time>2012-05-10T20:20:38Z</time>
      </trkpt>
      <trkpt lat="28.30441" lon="-10.72872">
        <ele>678</ele>
        <time>2012-05-10T20:20:43Z</time>
      </trkpt>
      <trkpt lat="28.30458" lon="-10.7286">
        <ele>678.1</ele>
        <time>2012-05-10T20:20:48Z</time>
      </trkpt>
      <trkpt lat="28.30471" lon="-10.72845">
        <ele>678.7</ele>
        <time>2012-05-10T20:20:53Z</time>
      </trkpt>
      <trkpt lat="28.30484" lon="-10.72831">
        <ele>679.5</ele>
        <time>2012-05-10T20:20:58Z</time>
      </trkpt>
      <trkpt lat="28.30502" lon="-10.72825">
        <ele>678.4</ele>
        <time>2012-05-10T20:21:03Z</time>
      </trkpt>
      <trkpt lat="28.3052" lon="-10.72817">
        <ele>678.1</ele>
        <time>2012-05-10T20:21:08Z</time>
      </trkpt>
      <trkpt lat="28.30536" lon="-10.72806">
        <ele>678.2</ele>
        <time>2012-05-10T20:21:13Z</time>
      </trkpt>
      <trkpt lat="28.30553" lon="-10.72794">
        <ele>678.7</ele>
        <time>2012-05-10T20:21:18Z</time>
      </trkpt>
      <trkpt lat="28.3057" lon="-10.72781">
        <ele>679.3</ele>
        <time>2012-05-10T20:21:23Z</time>
      </trkpt>
      <trkpt lat="28.3059" lon="-10.72773">
        <ele>680</ele>
        <time>2012-05-10T20:21:28Z</time>
      </trkpt>
      <trkpt lat="28.30608" lon="-10.72762">
        <ele>680.8</ele>
        <time>2012-05-10T20:21:33Z</time>
      </trkpt>
      <trkpt lat="28.30626" lon="-10.72751">
        <ele>681.7</ele>
        <time>2012-05-10T20:21:38Z</time>
      </trkpt>
      <trkpt lat="28.30643" lon="-10.72739">
        <ele>682.4</ele>
        <time>2012-05-10T20:21:43Z</time>
      </trkpt>
      <trkpt lat="28.30661" lon="-10.72728">
        <ele>682.7</ele>
        <time>2012-05-10T20:21:48Z</time>
      </trkpt>
      <trkpt lat="28.30679" lon="-10.7272">
        <ele>683.5</ele>
        <time>2012-05-10T20:21:53Z</time>
      </trkpt>
      <trkpt lat="28.30697" lon="-10.72707">
        <ele>684.8</ele>
        <time>2012-05-10T20:21:58Z</time>
      </trkpt>
      <trkpt lat="28.3071" lon="-10.72693">
        <ele>685.6</ele>
        <time>2012-05-10T20:22:03Z</time>
      </trkpt>
      <trkpt lat="28.30728" lon="-10.72686">
        <ele>687.3</ele>
        <time>2012-05-10T20:22:08Z</time>
      </trkpt>
      <trkpt lat="28.30747" lon="-10.72684">
        <ele>689</ele>
        <time>2012-05-10T20:22:13Z</time>
      </trkpt>
      <trkpt lat="28.30767" lon="-10.72692">
        <ele>689.1</ele>
        <time>2012-05-10T20:22:18Z</time>
      </trkpt>
      <trkpt lat="28.30784" lon="-10.72702">
        <ele>688.7</ele>
        <time>2012-05-10T20:22:23Z</time>
      </trkpt>
      <trkpt lat="28.30801" lon="-10.72715">
        <ele>688.9</ele>
        <time>2012-05-10T20:22:28Z</time>
      </trkpt>
      <trkpt lat="28.30815" lon="-10.72728">
        <ele>689</ele>
        <time>2012-05-10T20:22:33Z</time>
      </trkpt>
      <trkpt lat="28.30828" lon="-10.72743">
        <ele>688.5</ele>
        <time>2012-05-10T20:22:38Z</time>
      </trkpt>
      <trkpt lat="28.3084" lon="-10.72761">
        <ele>688.5</ele>
        <time>2012-05-10T20:22:43Z</time>
      </trkpt>
      <trkpt lat="28.30852" lon="-10.7278">
        <ele>687.7</ele>
        <time>2012-05-10T20:22:48Z</time>
      </trkpt>
      <trkpt lat="28.30868" lon="-10.72795">
        <ele>688.6</ele>
        <time>2012-05-10T20:22:53Z</time>
      </trkpt>
      <trkpt lat="28.30878" lon="-10.72812">
        <ele>688.8</ele>
        <time>2012-05-10T20:22:58Z</time>
      </trkpt>
      <trkpt lat="28.30893" lon="-10.72824">
        <ele>689.4</ele>
        <time>2012-05-10T20:23:03Z</time>
      </trkpt>
      <trkpt lat="28.30897" lon="-10.72836">
        <ele>689.5</ele>
        <time>2012-05-10T20:23:08Z</time>
      </trkpt>
      <trkpt lat="28.30896" lon="-10.72836">
        <ele>689.7</ele>
        <time>2012-05-10T20:23:13Z</time>
      </trkpt>
      <trkpt lat="28.30896" lon="-10.72837">
        <ele>689.2</ele>
        <time>2012-05-10T20:23:18Z</time>
      </trkpt>
      <trkpt lat="28.30895" lon="-10.72838">
        <ele>689.2</ele>
        <time>2012-05-10T20:23:23Z</time>
      </trkpt>
      <trkpt lat="28.30896" lon="-10.72838">
        <ele>689.1</ele>
        <time>2012-05-10T20:23:28Z</time>
      </trkpt>
      <trkpt lat="28.30897" lon="-10.72837">
        <ele>689.1</ele>
        <time>2012-05-10T20:23:33Z</time>
      </trkpt>
      <trkpt lat="28.30897" lon="-10.72837">
        <ele>688.6</ele>
        <time>2012-05-10T20:23:38Z</time>
      </trkpt>
      <trkpt lat="28.30897" lon="-10.72836">
        <ele>688.3</ele>
        <time>2012-05-10T20:23:43Z</time>
      </trkpt>
      <trkpt lat="28.30897" lon="-10.72837">
        <ele>688.9</ele>
        <time>2012-05-10T20:23:48Z</time>
      </trkpt>
      <trkpt lat="28.30898" lon="-10.72837">
        <ele>688.3</ele>
        <time>2012-05-10T20:23:53Z</time>
      </trkpt>
      <trkpt lat="28.30897" lon="-10.72836">
        <ele>687.8</ele>
        <time>2012-05-10T20:23:58Z</time>
      </trkpt>
      <trkpt lat="28.30897" lon="-10.72836">
        <ele>687.9</ele>
        <time>2012-05-10T20:24:03Z</time>
      </trkpt>
      <trkpt lat="28.30897" lon="-10.72836">
        <ele>688.1</ele>
        <time>2012-05-10T20:24:08Z</time>
      </trkpt>
      <trkpt lat="28.30896" lon="-10.72836">
        <ele>688.8</ele>
        <time>2012-05-10T20:24:13Z</time>
      </trkpt>
      <trkpt lat="28.30896" lon="-10.72836">
        <ele>688.7</ele>
        <time>2012-05-10T20:24:18Z</time>
      </trkpt>
      <trkpt lat="28.30896" lon="-10.72836">
        <ele>689.6</ele>
        <time>2012-05-10T20:24:23Z</time>
      </trkpt>
      <trkpt lat="28.30896" lon="-10.72836">
        <ele>689.6</ele>
        <time>2012-05-10T20:24:28Z</time>
      </trkpt>
      <trkpt lat="28.30896" lon="-10.72836">
        <ele>689.5</ele>
        <time>2012-05-10T20:24:33Z</time>
      </trkpt>
      <trkpt lat="28.30897" lon="-10.72841">
        <ele>689.5</ele>
        <time>2012-05-10T20:24:38Z</time>
      </trkpt>
      <trkpt lat="28.309" lon="-10.72863">
        <ele>689.2</ele>
        <time>2012-05-10T20:24:43Z</time>
      </trkpt>
      <trkpt lat="28.30903" lon="-10.72892">
        <ele>688.6</ele>
        <time>2012-05-10T20:24:48Z</time>
      </trkpt>
      <trkpt lat="28.30907" lon="-10.72917">
        <ele>688</ele>
        <time>2012-05-10T20:24:53Z</time>
      </trkpt>
      <trkpt lat="28.30912" lon="-10.72942">
        <ele>687.8</ele>
        <time>2012-05-10T20:24:58Z</time>
      </trkpt>
      <trkpt lat="28.3091" lon="-10.72967">
        <ele>687.1</ele>
        <time>2012-05-10T20:25:03Z</time>
      </trkpt>
      <trkpt lat="28.30901" lon="-10.72986">
        <ele>686.3</ele>
        <time>2012-05-10T20:25:08Z</time>
      </trkpt>
      <trkpt lat="28.30894" lon="-10.73006">
        <ele>685</ele>
        <time>2012-05-10T20:25:13Z</time>
      </trkpt>
      <trkpt lat="28.30891" lon="-10.73028">
        <ele>684.9</ele>
        <time>2012-05-10T20:25:18Z</time>
      </trkpt>
      <trkpt lat="28.3089" lon="-10.7305">
        <ele>685.3</ele>
        <time>2012-05-10T20:25:23Z</time>
      </trkpt>
      <trkpt lat="28.30884" lon="-10.7307">
        <ele>685.1</ele>
        <time>2012-05-10T20:25:28Z</time>
      </trkpt>
      <trkpt lat="28.30876" lon="-10.73095">
        <ele>685.8</ele>
        <time>2012-05-10T20:25:33Z</time>
      </trkpt>
      <trkpt lat="28.30872" lon="-10.73116">
        <ele>686.4</ele>
        <time>2012-05-10T20:25:38Z</time>
      </trkpt>
      <trkpt lat="28.30868" lon="-10.73139">
        <ele>687.5</ele>
        <time>2012-05-10T20:25:43Z</time>
      </trkpt>
      <trkpt lat="28.30857" lon="-10.73159">
        <ele>688.3</ele>
        <time>2012-05-10T20:25:48Z</time>
      </trkpt>
      <trkpt lat="28.30852" lon="-10.73179">
        <ele>689.2</ele>
        <time>2012-05-10T20:25:53Z</time>
      </trkpt>
      <trkpt lat="28.30845" lon="-10.732">
        <ele>690</ele>
        <time>2012-05-10T20:25:58Z</time>
      </trkpt>
      <trkpt lat="28.30838" lon="-10.73222">
        <ele>690.7</ele>
        <time>2012-05-10T20:26:03Z</time>
      </trkpt>
      <trkpt lat="28.30832" lon="-10.73244">
        <ele>691.2</ele>
        <time>2012-05-10T20:26:08Z</time>
      </trkpt>
      <trkpt lat="28.30824" lon="-10.73264">
        <ele>691.5</ele>
        <time>2012-05-10T20:26:13Z</time>
      </trkpt>
      <trkpt lat="28.30812" lon="-10.73283">
        <ele>691.9</ele>
        <time>2012-05-10T20:26:18Z</time>
      </trkpt>
      <trkpt lat="28.30802" lon="-10.73304">
        <ele>692.7</ele>
        <time>2012-05-10T20:26:23Z</time>
      </trkpt>
      <trkpt lat="28.30795" lon="-10.73327">
        <ele>693.8</ele>
        <time>2012-05-10T20:26:28Z</time>
      </trkpt>
      <trkpt lat="28.30787" lon="-10.73357">
        <ele>695.2</ele>
        <time>2012-05-10T20:26:33Z</time>
      </trkpt>
      <trkpt lat="28.30779" lon="-10.73382">
        <ele>696.1</ele>
        <time>2012-05-10T20:26:38Z</time>
      </trkpt>
      <trkpt lat="28.30772" lon="-10.73401">
        <ele>696.8</ele>
        <time>2012-05-10T20:26:43Z</time>
      </trkpt>
      <trkpt lat="28.30764" lon="-10.73424">
        <ele>697.4</ele>
        <time>2012-05-10T20:26:48Z</time>
      </trkpt>
      <trkpt lat="28.30757" lon="-10.73448">
        <ele>698.4</ele>
        <time>2012-05-10T20:26:53Z</time>
      </trkpt>
      <trkpt lat="28.30749" lon="-10.73469">
        <ele>699.4</ele>
        <time>2012-05-10T20:26:58Z</time>
      </trkpt>
      <trkpt lat="28.30743" lon="-10.73492">
        <ele>700.1</ele>
        <time>2012-05-10T20:27:03Z</time>
      </trkpt>
      <trkpt lat="28.30734" lon="-10.73514">
        <ele>701.1</ele>
        <time>2012-05-10T20:27:08Z</time>
      </trkpt>
      <trkpt lat="28.30726" lon="-10.73533">
        <ele>702.1</ele>
        <time>2012-05-10T20:27:13Z</time>
      </trkpt>
      <trkpt lat="28.30716" lon="-10.73555">
        <ele>703.3</ele>
        <time>2012-05-10T20:27:18Z</time>
      </trkpt>
      <trkpt lat="28.3071" lon="-10.73576">
        <ele>704.7</ele>
        <time>2012-05-10T20:27:23Z</time>
      </trkpt>
      <trkpt lat="28.30706" lon="-10.73596">
        <ele>705.9</ele>
        <time>2012-05-10T20:27:28Z</time>
      </trkpt>
      <trkpt lat="28.30696" lon="-10.73616">
        <ele>707.2</ele>
        <time>2012-05-10T20:27:33Z</time>
      </trkpt>
      <trkpt lat="28.30685" lon="-10.73633">
        <ele>708.2</ele>
        <time>2012-05-10T20:27:38Z</time>
      </trkpt>
      <trkpt lat="28.30673" lon="-10.73659">
        <ele>709.6</ele>
        <time>2012-05-10T20:27:43Z</time>
      </trkpt>
      <trkpt lat="28.30661" lon="-10.73674">
        <ele>710</ele>
        <time>2012-05-10T20:27:48Z</time>
      </trkpt>
      <trkpt lat="28.30651" lon="-10.73696">
        <ele>710.9</ele>
        <time>2012-05-10T20:27:53Z</time>
      </trkpt>
      <trkpt lat="28.30639" lon="-10.73714">
        <ele>711.2</ele>
        <time>2012-05-10T20:27:58Z</time>
      </trkpt>
      <trkpt lat="28.30631" lon="-10.73735">
        <ele>712.2</ele>
        <time>2012-05-10T20:28:03Z</time>
      </trkpt>
      <trkpt lat="28.30624" lon="-10.73757">
        <ele>713.5</ele>
        <time>2012-05-10T20:28:08Z</time>
      </trkpt>
      <trkpt lat="28.30617" lon="-10.73806">
        <ele>715.6</ele>
        <time>2012-05-10T20:28:13Z</time>
      </trkpt>
      <trkpt lat="28.30615" lon="-10.73831">
        <ele>716.1</ele>
        <time>2012-05-10T20:28:18Z</time>
      </trkpt>
      <trkpt lat="28.30611" lon="-10.73851">
        <ele>716.7</ele>
        <time>2012-05-10T20:28:23Z</time>
      </trkpt>
      <trkpt lat="28.30603" lon="-10.73873">
        <ele>717.8</ele>
        <time>2012-05-10T20:28:28Z</time>
      </trkpt>
      <trkpt lat="28.306" lon="-10.73897">
        <ele>718.7</ele>
        <time>2012-05-10T20:28:33Z</time>
      </trkpt>
      <trkpt lat="28.30603" lon="-10.73923">
        <ele>719</ele>
        <time>2012-05-10T20:28:38Z</time>
      </trkpt>
      <trkpt lat="28.30603" lon="-10.73949">
        <ele>718.9</ele>
        <time>2012-05-10T20:28:43Z</time>
      </trkpt>
      <trkpt lat="28.306" lon="-10.73973">
        <ele>718.6</ele>
        <time>2012-05-10T20:28:48Z</time>
      </trkpt>
      <trkpt lat="28.30602" lon="-10.73997">
        <ele>717.9</ele>
        <time>2012-05-10T20:28:53Z</time>
      </trkpt>
      <trkpt lat="28.30609" lon="-10.74021">
        <ele>718.3</ele>
        <time>2012-05-10T20:28:58Z</time>
      </trkpt>
      <trkpt lat="28.30608" lon="-10.74042">
        <ele>718</ele>
        <time>2012-05-10T20:29:03Z</time>
      </trkpt>
      <trkpt lat="28.30605" lon="-10.7408">
        <ele>716.9</ele>
        <time>2012-05-10T20:29:08Z</time>
      </trkpt>
      <trkpt lat="28.30605" lon="-10.74105">
        <ele>716.1</ele>
        <time>2012-05-10T20:29:13Z</time>
      </trkpt>
      <trkpt lat="28.30605" lon="-10.74131">
        <ele>715.4</ele>
        <time>2012-05-10T20:29:18Z</time>
      </trkpt>
      <trkpt lat="28.30603" lon="-10.74152">
        <ele>714.8</ele>
        <time>2012-05-10T20:29:23Z</time>
      </trkpt>
      <trkpt lat="28.30603" lon="-10.74173">
        <ele>713.9</ele>
        <time>2012-05-10T20:29:28Z</time>
      </trkpt>
      <trkpt lat="28.30602" lon="-10.74194">
        <ele>713.3</ele>
        <time>2012-05-10T20:29:33Z</time>
      </trkpt>
      <trkpt lat="28.30601" lon="-10.74221">
        <ele>712.4</ele>
        <time>2012-05-10T20:29:38Z</time>
      </trkpt>
      <trkpt lat="28.30604" lon="-10.74247">
        <ele>710.5</ele>
        <time>2012-05-10T20:29:43Z</time>
      </trkpt>
      <trkpt lat="28.30604" lon="-10.74273">
        <ele>709.8</ele>
        <time>2012-05-10T20:29:48Z</time>
      </trkpt>
      <trkpt lat="28.30604" lon="-10.74312">
        <ele>708.9</ele>
        <time>2012-05-10T20:29:53Z</time>
      </trkpt>
      <trkpt lat="28.30602" lon="-10.74339">
        <ele>707.9</ele>
        <time>2012-05-10T20:29:58Z</time>
      </trkpt>
      <trkpt lat="28.30598" lon="-10.74364">
        <ele>706.6</ele>
        <time>2012-05-10T20:30:03Z</time>
      </trkpt>
      <trkpt lat="28.30595" lon="-10.74385">
        <ele>705.3</ele>
        <time>2012-05-10T20:30:08Z</time>
      </trkpt>
      <trkpt lat="28.30589" lon="-10.74418">
        <ele>703.2</ele>
        <time>2012-05-10T20:30:13Z</time>
      </trkpt>
      <trkpt lat="28.30579" lon="-10.74454">
        <ele>700.2</ele>
        <time>2012-05-10T20:30:18Z</time>
      </trkpt>
      <trkpt lat="28.30574" lon="-10.74475">
        <ele>698.8</ele>
        <time>2012-05-10T20:30:23Z</time>
      </trkpt>
      <trkpt lat="28.30565" lon="-10.74496">
        <ele>697.4</ele>
        <time>2012-05-10T20:30:28Z</time>
      </trkpt>
      <trkpt lat="28.30558" lon="-10.74517">
        <ele>695.9</ele>
        <time>2012-05-10T20:30:33Z</time>
      </trkpt>
      <trkpt lat="28.30548" lon="-10.74538">
        <ele>694.4</ele>
        <time>2012-05-10T20:30:38Z</time>
      </trkpt>
      <trkpt lat="28.30537" lon="-10.74558">
        <ele>693.2</ele>
        <time>2012-05-10T20:30:43Z</time>
      </trkpt>
      <trkpt lat="28.30508" lon="-10.74611">
        <ele>690.3</ele>
        <time>2012-05-10T20:30:48Z</time>
      </trkpt>
      <trkpt lat="28.305" lon="-10.74629">
        <ele>688.9</ele>
        <time>2012-05-10T20:30:53Z</time>
      </trkpt>
      <trkpt lat="28.30491" lon="-10.74647">
        <ele>686.8</ele>
        <time>2012-05-10T20:30:58Z</time>
      </trkpt>
      <trkpt lat="28.3048" lon="-10.74668">
        <ele>684.6</ele>
        <time>2012-05-10T20:31:03Z</time>
      </trkpt>
      <trkpt lat="28.30466" lon="-10.74689">
        <ele>680.9</ele>
        <time>2012-05-10T20:31:08Z</time>
      </trkpt>
      <trkpt lat="28.30456" lon="-10.74707">
        <ele>680.1</ele>
        <time>2012-05-10T20:31:13Z</time>
      </trkpt>
      <trkpt lat="28.30448" lon="-10.74727">
        <ele>679.3</ele>
        <time>2012-05-10T20:31:18Z</time>
      </trkpt>
      <trkpt lat="28.30438" lon="-10.74747">
        <ele>678</ele>
        <time>2012-05-10T20:31:23Z</time>
      </trkpt>
      <trkpt lat="28.30433" lon="-10.74768">
        <ele>674.6</ele>
        <time>2012-05-10T20:31:28Z</time>
      </trkpt>
      <trkpt lat="28.30428" lon="-10.74794">
        <ele>670.9</ele>
        <time>2012-05-10T20:31:33Z</time>
      </trkpt>
      <trkpt lat="28.30421" lon="-10.74817">
        <ele>667.7</ele>
        <time>2012-05-10T20:31:38Z</time>
      </trkpt>
      <trkpt lat="28.30407" lon="-10.7485">
        <ele>664.8</ele>
        <time>2012-05-10T20:31:43Z</time>
      </trkpt>
      <trkpt lat="28.30401" lon="-10.74873">
        <ele>661.3</ele>
        <time>2012-05-10T20:31:48Z</time>
      </trkpt>
      <trkpt lat="28.30404" lon="-10.74893">
        <ele>658.3</ele>
        <time>2012-05-10T20:31:53Z</time>
      </trkpt>
      <trkpt lat="28.3042" lon="-10.74896">
        <ele>655.6</ele>
        <time>2012-05-10T20:31:58Z</time>
      </trkpt>
      <trkpt lat="28.30434" lon="-10.74883">
        <ele>654.6</ele>
        <time>2012-05-10T20:32:03Z</time>
      </trkpt>
      <trkpt lat="28.30447" lon="-10.74887">
        <ele>653</ele>
        <time>2012-05-10T20:32:08Z</time>
      </trkpt>
      <trkpt lat="28.3044" lon="-10.74907">
        <ele>650.3</ele>
        <time>2012-05-10T20:32:13Z</time>
      </trkpt>
      <trkpt lat="28.30434" lon="-10.74931">
        <ele>646.9</ele>
        <time>2012-05-10T20:32:18Z</time>
      </trkpt>
      <trkpt lat="28.30423" lon="-10.74967">
        <ele>642.4</ele>
        <time>2012-05-10T20:32:23Z</time>
      </trkpt>
      <trkpt lat="28.30417" lon="-10.74995">
        <ele>637.7</ele>
        <time>2012-05-10T20:32:28Z</time>
      </trkpt>
      <trkpt lat="28.3041" lon="-10.75016">
        <ele>634.3</ele>
        <time>2012-05-10T20:32:33Z</time>
      </trkpt>
      <trkpt lat="28.304" lon="-10.75036">
        <ele>633</ele>
        <time>2012-05-10T20:32:38Z</time>
      </trkpt>
      <trkpt lat="28.30391" lon="-10.75055">
        <ele>630.4</ele>
        <time>2012-05-10T20:32:43Z</time>
      </trkpt>
      <trkpt lat="28.30384" lon="-10.75076">
        <ele>626.7</ele>
        <time>2012-05-10T20:32:48Z</time>
      </trkpt>
      <trkpt lat="28.30373" lon="-10.75096">
        <ele>624.2</ele>
        <time>2012-05-10T20:32:53Z</time>
      </trkpt>
      <trkpt lat="28.30358" lon="-10.75113">
        <ele>622.9</ele>
        <time>2012-05-10T20:32:58Z</time>
      </trkpt>
      <trkpt lat="28.30342" lon="-10.75129">
        <ele>622.1</ele>
        <time>2012-05-10T20:33:03Z</time>
      </trkpt>
      <trkpt lat="28.30314" lon="-10.75158">
        <ele>619.3</ele>
        <time>2012-05-10T20:33:08Z</time>
      </trkpt>
      <trkpt lat="28.30298" lon="-10.75175">
        <ele>617.3</ele>
        <time>2012-05-10T20:33:13Z</time>
      </trkpt>
      <trkpt lat="28.3029" lon="-10.75196">
        <ele>614.6</ele>
        <time>2012-05-10T20:33:18Z</time>
      </trkpt>
      <trkpt lat="28.30279" lon="-10.75213">
        <ele>613.4</ele>
        <time>2012-05-10T20:33:23Z</time>
      </trkpt>
      <trkpt lat="28.30261" lon="-10.75234">
        <ele>610.1</ele>
        <time>2012-05-10T20:33:28Z</time>
      </trkpt>
      <trkpt lat="28.30248" lon="-10.75251">
        <ele>606.8</ele>
        <time>2012-05-10T20:33:33Z</time>
      </trkpt>
      <trkpt lat="28.30235" lon="-10.75265">
        <ele>603.7</ele>
        <time>2012-05-10T20:33:38Z</time>
      </trkpt>
      <trkpt lat="28.30219" lon="-10.75275">
        <ele>601.5</ele>
        <time>2012-05-10T20:33:43Z</time>
      </trkpt>
      <trkpt lat="28.30203" lon="-10.7529">
        <ele>598.9</ele>
        <time>2012-05-10T20:33:48Z</time>
      </trkpt>
      <trkpt lat="28.30191" lon="-10.75306">
        <ele>595.8</ele>
        <time>2012-05-10T20:33:53Z</time>
      </trkpt>
      <trkpt lat="28.30171" lon="-10.75329">
        <ele>590.3</ele>
        <time>2012-05-10T20:33:58Z</time>
      </trkpt>
      <trkpt lat="28.30157" lon="-10.75348">
        <ele>586.3</ele>
        <time>2012-05-10T20:34:03Z</time>
      </trkpt>
      <trkpt lat="28.30134" lon="-10.75376">
        <ele>579.7</ele>
        <time>2012-05-10T20:34:08Z</time>
      </trkpt>
      <trkpt lat="28.3012" lon="-10.75392">
        <ele>576.8</ele>
        <time>2012-05-10T20:34:13Z</time>
      </trkpt>
      <trkpt lat="28.30107" lon="-10.75409">
        <ele>574.8</ele>
        <time>2012-05-10T20:34:18Z</time>
      </trkpt>
      <trkpt lat="28.30096" lon="-10.75427">
        <ele>572.6</ele>
        <time>2012-05-10T20:34:23Z</time>
      </trkpt>
      <trkpt lat="28.30077" lon="-10.75464">
        <ele>567.8</ele>
        <time>2012-05-10T20:34:28Z</time>
      </trkpt>
      <trkpt lat="28.30061" lon="-10.75481">
        <ele>565.8</ele>
        <time>2012-05-10T20:34:33Z</time>
      </trkpt>
      <trkpt lat="28.30046" lon="-10.75494">
        <ele>565.6</ele>
        <time>2012-05-10T20:34:38Z</time>
      </trkpt>
      <trkpt lat="28.30032" lon="-10.75513">
        <ele>564.7</ele>
        <time>2012-05-10T20:34:43Z</time>
      </trkpt>
      <trkpt lat="28.30021" lon="-10.7553">
        <ele>563.2</ele>
        <time>2012-05-10T20:34:48Z</time>
      </trkpt>
      <trkpt lat="28.30006" lon="-10.75544">
        <ele>561.8</ele>
        <time>2012-05-10T20:34:53Z</time>
      </trkpt>
      <trkpt lat="28.29992" lon="-10.75559">
        <ele>561</ele>
        <time>2012-05-10T20:34:58Z</time>
      </trkpt>
      <trkpt lat="28.29982" lon="-10.75579">
        <ele>560.1</ele>
        <time>2012-05-10T20:35:03Z</time>
      </trkpt>
      <trkpt lat="28.29969" lon="-10.75601">
        <ele>559.9</ele>
        <time>2012-05-10T20:35:08Z</time>
      </trkpt>
      <trkpt lat="28.29956" lon="-10.75616">
        <ele>557.7</ele>
        <time>2012-05-10T20:35:13Z</time>
      </trkpt>
      <trkpt lat="28.29939" lon="-10.75626">
        <ele>556.4</ele>
        <time>2012-05-10T20:35:18Z</time>
      </trkpt>
      <trkpt lat="28.29911" lon="-10.75639">
        <ele>556.2</ele>
        <time>2012-05-10T20:35:23Z</time>
      </trkpt>
      <trkpt lat="28.2989" lon="-10.75651">
        <ele>555.7</ele>
        <time>2012-05-10T20:35:28Z</time>
      </trkpt>
      <trkpt lat="28.29877" lon="-10.75668">
        <ele>555.3</ele>
        <time>2012-05-10T20:35:33Z</time>
      </trkpt>
      <trkpt lat="28.29865" lon="-10.75692">
        <ele>553.6</ele>
        <time>2012-05-10T20:35:38Z</time>
      </trkpt>
      <trkpt lat="28.29833" lon="-10.75748">
        <ele>550.1</ele>
        <time>2012-05-10T20:35:43Z</time>
      </trkpt>
      <trkpt lat="28.29821" lon="-10.75766">
        <ele>548.3</ele>
        <time>2012-05-10T20:35:48Z</time>
      </trkpt>
      <trkpt lat="28.29807" lon="-10.75784">
        <ele>547.5</ele>
        <time>2012-05-10T20:35:53Z</time>
      </trkpt>
      <trkpt lat="28.29791" lon="-10.758">
        <ele>546.7</ele>
        <time>2012-05-10T20:35:58Z</time>
      </trkpt>
      <trkpt lat="28.29772" lon="-10.75812">
        <ele>546.7</ele>
        <time>2012-05-10T20:36:03Z</time>
      </trkpt>
      <trkpt lat="28.29751" lon="-10.75824">
        <ele>546.2</ele>
        <time>2012-05-10T20:36:08Z</time>
      </trkpt>
      <trkpt lat="28.29736" lon="-10.75837">
        <ele>545.8</ele>
        <time>2012-05-10T20:36:13Z</time>
      </trkpt>
      <trkpt lat="28.29723" lon="-10.75854">
        <ele>545.8</ele>
        <time>2012-05-10T20:36:18Z</time>
      </trkpt>
      <trkpt lat="28.29712" lon="-10.75874">
        <ele>544.3</ele>
        <time>2012-05-10T20:36:23Z</time>
      </trkpt>
      <trkpt lat="28.29708" lon="-10.75894">
        <ele>543.3</ele>
        <time>2012-05-10T20:36:28Z</time>
      </trkpt>
      <trkpt lat="28.29699" lon="-10.75914">
        <ele>542</ele>
        <time>2012-05-10T20:36:33Z</time>
      </trkpt>
      <trkpt lat="28.29687" lon="-10.75934">
        <ele>541</ele>
        <time>2012-05-10T20:36:38Z</time>
      </trkpt>
      <trkpt lat="28.29682" lon="-10.75957">
        <ele>540.5</ele>
        <time>2012-05-10T20:36:43Z</time>
      </trkpt>
      <trkpt lat="28.2968" lon="-10.75981">
        <ele>539.4</ele>
        <time>2012-05-10T20:36:48Z</time>
      </trkpt>
      <trkpt lat="28.2968" lon="-10.76005">
        <ele>539.5</ele>
        <time>2012-05-10T20:36:53Z</time>
      </trkpt>
      <trkpt lat="28.29681" lon="-10.76027">
        <ele>539.9</ele>
        <time>2012-05-10T20:36:58Z</time>
      </trkpt>
      <trkpt lat="28.29677" lon="-10.7605">
        <ele>539.2</ele>
        <time>2012-05-10T20:37:03Z</time>
      </trkpt>
      <trkpt lat="28.29673" lon="-10.76073">
        <ele>538.2</ele>
        <time>2012-05-10T20:37:08Z</time>
      </trkpt>
      <trkpt lat="28.2967" lon="-10.76097">
        <ele>537.3</ele>
        <time>2012-05-10T20:37:13Z</time>
      </trkpt>
      <trkpt lat="28.29663" lon="-10.76119">
        <ele>535.8</ele>
        <time>2012-05-10T20:37:18Z</time>
      </trkpt>
      <trkpt lat="28.29649" lon="-10.76138">
        <ele>534.8</ele>
        <time>2012-05-10T20:37:23Z</time>
      </trkpt>
      <trkpt lat="28.29637" lon="-10.76158">
        <ele>534.8</ele>
        <time>2012-05-10T20:37:28Z</time>
      </trkpt>
      <trkpt lat="28.29626" lon="-10.76178">
        <ele>534.7</ele>
        <time>2012-05-10T20:37:33Z</time>
      </trkpt>
      <trkpt lat="28.29615" lon="-10.76196">
        <ele>533.6</ele>
        <time>2012-05-10T20:37:38Z</time>
      </trkpt>
      <trkpt lat="28.29592" lon="-10.76248">
        <ele>531</ele>
        <time>2012-05-10T20:37:43Z</time>
      </trkpt>
      <trkpt lat="28.29578" lon="-10.76274">
        <ele>530.1</ele>
        <time>2012-05-10T20:37:48Z</time>
      </trkpt>
      <trkpt lat="28.29566" lon="-10.76296">
        <ele>530.9</ele>
        <time>2012-05-10T20:37:53Z</time>
      </trkpt>
      <trkpt lat="28.29546" lon="-10.76312">
        <ele>531.1</ele>
        <time>2012-05-10T20:37:58Z</time>
      </trkpt>
      <trkpt lat="28.29531" lon="-10.76325">
        <ele>531.3</ele>
        <time>2012-05-10T20:38:03Z</time>
      </trkpt>
      <trkpt lat="28.29511" lon="-10.76345">
        <ele>531.7</ele>
        <time>2012-05-10T20:38:08Z</time>
      </trkpt>
      <trkpt lat="28.29498" lon="-10.76362">
        <ele>531.3</ele>
        <time>2012-05-10T20:38:13Z</time>
      </trkpt>
      <trkpt lat="28.29486" lon="-10.76382">
        <ele>530.8</ele>
        <time>2012-05-10T20:38:18Z</time>
      </trkpt>
      <trkpt lat="28.29476" lon="-10.76404">
        <ele>530.5</ele>
        <time>2012-05-10T20:38:23Z</time>
      </trkpt>
      <trkpt lat="28.29459" lon="-10.76449">
        <ele>527.6</ele>
        <time>2012-05-10T20:38:28Z</time>
      </trkpt>
      <trkpt lat="28.29449" lon="-10.76471">
        <ele>526.1</ele>
        <time>2012-05-10T20:38:33Z</time>
      </trkpt>
      <trkpt lat="28.29434" lon="-10.765">
        <ele>525.1</ele>
        <time>2012-05-10T20:38:38Z</time>
      </trkpt>
      <trkpt lat="28.29421" lon="-10.7652">
        <ele>524.6</ele>
        <time>2012-05-10T20:38:43Z</time>
      </trkpt>
      <trkpt lat="28.29405" lon="-10.76539">
        <ele>523.9</ele>
        <time>2012-05-10T20:38:48Z</time>
      </trkpt>
      <trkpt lat="28.29385" lon="-10.76562">
        <ele>523.1</ele>
        <time>2012-05-10T20:38:53Z</time>
      </trkpt>
      <trkpt lat="28.29367" lon="-10.76574">
        <ele>523.3</ele>
        <time>2012-05-10T20:38:58Z</time>
      </trkpt>
      <trkpt lat="28.2935" lon="-10.76587">
        <ele>523.7</ele>
        <time>2012-05-10T20:39:03Z</time>
      </trkpt>
      <trkpt lat="28.29337" lon="-10.76606">
        <ele>523.6</ele>
        <time>2012-05-10T20:39:08Z</time>
      </trkpt>
      <trkpt lat="28.29327" lon="-10.76626">
        <ele>523.2</ele>
        <time>2012-05-10T20:39:13Z</time>
      </trkpt>
      <trkpt lat="28.29319" lon="-10.76646">
        <ele>522.6</ele>
        <time>2012-05-10T20:39:18Z</time>
      </trkpt>
      <trkpt lat="28.29302" lon="-10.76688">
        <ele>521</ele>
        <time>2012-05-10T20:39:23Z</time>
      </trkpt>
      <trkpt lat="28.29287" lon="-10.76707">
        <ele>520.5</ele>
        <time>2012-05-10T20:39:28Z</time>
      </trkpt>
      <trkpt lat="28.29254" lon="-10.76752">
        <ele>519.6</ele>
        <time>2012-05-10T20:39:33Z</time>
      </trkpt>
      <trkpt lat="28.29241" lon="-10.76769">
        <ele>519.6</ele>
        <time>2012-05-10T20:39:38Z</time>
      </trkpt>
      <trkpt lat="28.29223" lon="-10.76786">
        <ele>518.8</ele>
        <time>2012-05-10T20:39:43Z</time>
      </trkpt>
      <trkpt lat="28.29207" lon="-10.76797">
        <ele>518.1</ele>
        <time>2012-05-10T20:39:48Z</time>
      </trkpt>
      <trkpt lat="28.29188" lon="-10.768">
        <ele>517.3</ele>
        <time>2012-05-10T20:39:53Z</time>
      </trkpt>
      <trkpt lat="28.29167" lon="-10.76797">
        <ele>517.5</ele>
        <time>2012-05-10T20:39:58Z</time>
      </trkpt>
      <trkpt lat="28.29132" lon="-10.76791">
        <ele>517.9</ele>
        <time>2012-05-10T20:40:03Z</time>
      </trkpt>
      <trkpt lat="28.29114" lon="-10.76792">
        <ele>518.2</ele>
        <time>2012-05-10T20:40:08Z</time>
      </trkpt>
      <trkpt lat="28.29097" lon="-10.76803">
        <ele>517.9</ele>
        <time>2012-05-10T20:40:13Z</time>
      </trkpt>
      <trkpt lat="28.29077" lon="-10.76815">
        <ele>518</ele>
        <time>2012-05-10T20:40:18Z</time>
      </trkpt>
      <trkpt lat="28.29059" lon="-10.76824">
        <ele>517.8</ele>
        <time>2012-05-10T20:40:23Z</time>
      </trkpt>
      <trkpt lat="28.2904" lon="-10.76833">
        <ele>517.5</ele>
        <time>2012-05-10T20:40:28Z</time>
      </trkpt>
      <trkpt lat="28.2902" lon="-10.76847">
        <ele>517.7</ele>
        <time>2012-05-10T20:40:33Z</time>
      </trkpt>
      <trkpt lat="28.28996" lon="-10.76858">
        <ele>517.7</ele>
        <time>2012-05-10T20:40:38Z</time>
      </trkpt>
      <trkpt lat="28.28979" lon="-10.76872">
        <ele>517.7</ele>
        <time>2012-05-10T20:40:43Z</time>
      </trkpt>
      <trkpt lat="28.28962" lon="-10.76886">
        <ele>517.7</ele>
        <time>2012-05-10T20:40:48Z</time>
      </trkpt>
      <trkpt lat="28.28932" lon="-10.76913">
        <ele>517.6</ele>
        <time>2012-05-10T20:40:53Z</time>
      </trkpt>
      <trkpt lat="28.28912" lon="-10.7693">
        <ele>517.5</ele>
        <time>2012-05-10T20:40:58Z</time>
      </trkpt>
      <trkpt lat="28.28886" lon="-10.76955">
        <ele>516.8</ele>
        <time>2012-05-10T20:41:03Z</time>
      </trkpt>
      <trkpt lat="28.28867" lon="-10.76974">
        <ele>516.5</ele>
        <time>2012-05-10T20:41:08Z</time>
      </trkpt>
      <trkpt lat="28.28834" lon="-10.7701">
        <ele>516.1</ele>
        <time>2012-05-10T20:41:13Z</time>
      </trkpt>
      <trkpt lat="28.28821" lon="-10.77031">
        <ele>515.7</ele>
        <time>2012-05-10T20:41:18Z</time>
      </trkpt>
      <trkpt lat="28.28804" lon="-10.77049">
        <ele>515.3</ele>
        <time>2012-05-10T20:41:23Z</time>
      </trkpt>
      <trkpt lat="28.28788" lon="-10.77068">
        <ele>515.2</ele>
        <time>2012-05-10T20:41:28Z</time>
      </trkpt>
      <trkpt lat="28.28775" lon="-10.77084">
        <ele>515</ele>
        <time>2012-05-10T20:41:33Z</time>
      </trkpt>
      <trkpt lat="28.28761" lon="-10.77099">
        <ele>514.6</ele>
        <time>2012-05-10T20:41:38Z</time>
      </trkpt>
      <trkpt lat="28.28746" lon="-10.77112">
        <ele>514.5</ele>
        <time>2012-05-10T20:41:43Z</time>
      </trkpt>
      <trkpt lat="28.28729" lon="-10.7712">
        <ele>514.6</ele>
        <time>2012-05-10T20:41:48Z</time>
      </trkpt>
      <trkpt lat="28.28704" lon="-10.77127">
        <ele>514.3</ele>
        <time>2012-05-10T20:41:53Z</time>
      </trkpt>
      <trkpt lat="28.28679" lon="-10.77137">
        <ele>513.7</ele>
        <time>2012-05-10T20:41:58Z</time>
      </trkpt>
      <trkpt lat="28.28663" lon="-10.77147">
        <ele>513</ele>
        <time>2012-05-10T20:42:03Z</time>
      </trkpt>
      <trkpt lat="28.28642" lon="-10.77165">
        <ele>512.6</ele>
        <time>2012-05-10T20:42:08Z</time>
      </trkpt>
      <trkpt lat="28.28625" lon="-10.77184">
        <ele>512.1</ele>
        <time>2012-05-10T20:42:13Z</time>
      </trkpt>
      <trkpt lat="28.28609" lon="-10.77206">
        <ele>512.6</ele>
        <time>2012-05-10T20:42:18Z</time>
      </trkpt>
      <trkpt lat="28.28594" lon="-10.77225">
        <ele>512.1</ele>
        <time>2012-05-10T20:42:23Z</time>
      </trkpt>
      <trkpt lat="28.28576" lon="-10.77242">
        <ele>511.8</ele>
        <time>2012-05-10T20:42:28Z</time>
      </trkpt>
      <trkpt lat="28.28554" lon="-10.7726">
        <ele>512.3</ele>
        <time>2012-05-10T20:42:33Z</time>
      </trkpt>
      <trkpt lat="28.28537" lon="-10.77268">
        <ele>512.7</ele>
        <time>2012-05-10T20:42:38Z</time>
      </trkpt>
      <trkpt lat="28.28511" lon="-10.77273">
        <ele>512.7</ele>
        <time>2012-05-10T20:42:43Z</time>
      </trkpt>
      <trkpt lat="28.28492" lon="-10.77278">
        <ele>512.1</ele>
        <time>2012-05-10T20:42:48Z</time>
      </trkpt>
      <trkpt lat="28.28472" lon="-10.77285">
        <ele>511.2</ele>
        <time>2012-05-10T20:42:53Z</time>
      </trkpt>
      <trkpt lat="28.28429" lon="-10.773">
        <ele>508.8</ele>
        <time>2012-05-10T20:42:58Z</time>
      </trkpt>
      <trkpt lat="28.2835" lon="-10.77321">
        <ele>505.9</ele>
        <time>2012-05-10T20:43:03Z</time>
      </trkpt>
      <trkpt lat="28.28323" lon="-10.77327">
        <ele>505.4</ele>
        <time>2012-05-10T20:43:08Z</time>
      </trkpt>
      <trkpt lat="28.28296" lon="-10.77329">
        <ele>505</ele>
        <time>2012-05-10T20:43:13Z</time>
      </trkpt>
      <trkpt lat="28.28273" lon="-10.77338">
        <ele>504.3</ele>
        <time>2012-05-10T20:43:18Z</time>
      </trkpt>
      <trkpt lat="28.28254" lon="-10.77359">
        <ele>503.6</ele>
        <time>2012-05-10T20:43:23Z</time>
      </trkpt>
      <trkpt lat="28.28241" lon="-10.77373">
        <ele>503.2</ele>
        <time>2012-05-10T20:43:28Z</time>
      </trkpt>
      <trkpt lat="28.28226" lon="-10.77386">
        <ele>502.9</ele>
        <time>2012-05-10T20:43:33Z</time>
      </trkpt>
      <trkpt lat="28.28211" lon="-10.77399">
        <ele>502.5</ele>
        <time>2012-05-10T20:43:38Z</time>
      </trkpt>
      <trkpt lat="28.28188" lon="-10.77417">
        <ele>502.4</ele>
        <time>2012-05-10T20:43:43Z</time>
      </trkpt>
      <trkpt lat="28.28174" lon="-10.77432">
        <ele>502.3</ele>
        <time>2012-05-10T20:43:48Z</time>
      </trkpt>
      <trkpt lat="28.28154" lon="-10.77455">
        <ele>502.1</ele>
        <time>2012-05-10T20:43:53Z</time>
      </trkpt>
      <trkpt lat="28.28142" lon="-10.77471">
        <ele>501.7</ele>
        <time>2012-05-10T20:43:58Z</time>
      </trkpt>
      <trkpt lat="28.28127" lon="-10.77496">
        <ele>500.8</ele>
        <time>2012-05-10T20:44:03Z</time>
      </trkpt>
      <trkpt lat="28.28097" lon="-10.77542">
        <ele>499.5</ele>
        <time>2012-05-10T20:44:08Z</time>
      </trkpt>
      <trkpt lat="28.28084" lon="-10.77562">
        <ele>498.8</ele>
        <time>2012-05-10T20:44:13Z</time>
      </trkpt>
      <trkpt lat="28.28063" lon="-10.77587">
        <ele>498.4</ele>
        <time>2012-05-10T20:44:18Z</time>
      </trkpt>
      <trkpt lat="28.28042" lon="-10.77612">
        <ele>497.6</ele>
        <time>2012-05-10T20:44:23Z</time>
      </trkpt>
      <trkpt lat="28.28029" lon="-10.77634">
        <ele>497.2</ele>
        <time>2012-05-10T20:44:28Z</time>
      </trkpt>
      <trkpt lat="28.28002" lon="-10.77677">
        <ele>498.6</ele>
        <time>2012-05-10T20:44:33Z</time>
      </trkpt>
      <trkpt lat="28.27985" lon="-10.77697">
        <ele>499</ele>
        <time>2012-05-10T20:44:38Z</time>
      </trkpt>
      <trkpt lat="28.27965" lon="-10.77716">
        <ele>498.2</ele>
        <time>2012-05-10T20:44:43Z</time>
      </trkpt>
      <trkpt lat="28.2795" lon="-10.77727">
        <ele>497.9</ele>
        <time>2012-05-10T20:44:48Z</time>
      </trkpt>
      <trkpt lat="28.27917" lon="-10.77751">
        <ele>496.7</ele>
        <time>2012-05-10T20:44:53Z</time>
      </trkpt>
      <trkpt lat="28.27895" lon="-10.77765">
        <ele>496.6</ele>
        <time>2012-05-10T20:44:58Z</time>
      </trkpt>
      <trkpt lat="28.27848" lon="-10.77792">
        <ele>494</ele>
        <time>2012-05-10T20:45:03Z</time>
      </trkpt>
      <trkpt lat="28.27825" lon="-10.77804">
        <ele>493.6</ele>
        <time>2012-05-10T20:45:08Z</time>
      </trkpt>
      <trkpt lat="28.27808" lon="-10.77824">
        <ele>493.3</ele>
        <time>2012-05-10T20:45:13Z</time>
      </trkpt>
      <trkpt lat="28.27787" lon="-10.77843">
        <ele>493.4</ele>
        <time>2012-05-10T20:45:18Z</time>
      </trkpt>
      <trkpt lat="28.27773" lon="-10.77859">
        <ele>493.1</ele>
        <time>2012-05-10T20:45:23Z</time>
      </trkpt>
      <trkpt lat="28.2775" lon="-10.77883">
        <ele>492.8</ele>
        <time>2012-05-10T20:45:28Z</time>
      </trkpt>
      <trkpt lat="28.27735" lon="-10.77899">
        <ele>492.8</ele>
        <time>2012-05-10T20:45:33Z</time>
      </trkpt>
      <trkpt lat="28.27696" lon="-10.77935">
        <ele>492.9</ele>
        <time>2012-05-10T20:45:38Z</time>
      </trkpt>
      <trkpt lat="28.27676" lon="-10.77958">
        <ele>492.3</ele>
        <time>2012-05-10T20:45:43Z</time>
      </trkpt>
      <trkpt lat="28.27662" lon="-10.77972">
        <ele>492.1</ele>
        <time>2012-05-10T20:45:48Z</time>
      </trkpt>
      <trkpt lat="28.27647" lon="-10.77986">
        <ele>491.9</ele>
        <time>2012-05-10T20:45:53Z</time>
      </trkpt>
      <trkpt lat="28.2763" lon="-10.77997">
        <ele>491.6</ele>
        <time>2012-05-10T20:45:58Z</time>
      </trkpt>
      <trkpt lat="28.27613" lon="-10.78007">
        <ele>491.2</ele>
        <time>2012-05-10T20:46:03Z</time>
      </trkpt>
      <trkpt lat="28.27596" lon="-10.78017">
        <ele>490.9</ele>
        <time>2012-05-10T20:46:08Z</time>
      </trkpt>
      <trkpt lat="28.27571" lon="-10.78033">
        <ele>490.7</ele>
        <time>2012-05-10T20:46:13Z</time>
      </trkpt>
      <trkpt lat="28.27539" lon="-10.78058">
        <ele>490.1</ele>
        <time>2012-05-10T20:46:18Z</time>
      </trkpt>
      <trkpt lat="28.27524" lon="-10.78071">
        <ele>489.8</ele>
        <time>2012-05-10T20:46:23Z</time>
      </trkpt>
      <trkpt lat="28.27497" lon="-10.78096">
        <ele>489.5</ele>
        <time>2012-05-10T20:46:28Z</time>
      </trkpt>
      <trkpt lat="28.27483" lon="-10.78112">
        <ele>489.2</ele>
        <time>2012-05-10T20:46:33Z</time>
      </trkpt>
      <trkpt lat="28.27467" lon="-10.78124">
        <ele>488.8</ele>
        <time>2012-05-10T20:46:38Z</time>
      </trkpt>
      <trkpt lat="28.27446" lon="-10.78136">
        <ele>488.2</ele>
        <time>2012-05-10T20:46:43Z</time>
      </trkpt>
      <trkpt lat="28.27402" lon="-10.7816">
        <ele>485.9</ele>
        <time>2012-05-10T20:46:48Z</time>
      </trkpt>
      <trkpt lat="28.27379" lon="-10.78175">
        <ele>485.4</ele>
        <time>2012-05-10T20:46:53Z</time>
      </trkpt>
      <trkpt lat="28.27364" lon="-10.78189">
        <ele>484.7</ele>
        <time>2012-05-10T20:46:58Z</time>
      </trkpt>
      <trkpt lat="28.27335" lon="-10.78216">
        <ele>484.1</ele>
        <time>2012-05-10T20:47:03Z</time>
      </trkpt>
      <trkpt lat="28.27317" lon="-10.78236">
        <ele>484</ele>
        <time>2012-05-10T20:47:08Z</time>
      </trkpt>
      <trkpt lat="28.27299" lon="-10.78253">
        <ele>483.8</ele>
        <time>2012-05-10T20:47:13Z</time>
      </trkpt>
      <trkpt lat="28.27278" lon="-10.78269">
        <ele>484.3</ele>
        <time>2012-05-10T20:47:18Z</time>
      </trkpt>
      <trkpt lat="28.27263" lon="-10.7828">
        <ele>483.8</ele>
        <time>2012-05-10T20:47:23Z</time>
      </trkpt>
      <trkpt lat="28.27211" lon="-10.78322">
        <ele>483.1</ele>
        <time>2012-05-10T20:47:28Z</time>
      </trkpt>
      <trkpt lat="28.27194" lon="-10.78337">
        <ele>483.1</ele>
        <time>2012-05-10T20:47:33Z</time>
      </trkpt>
      <trkpt lat="28.27171" lon="-10.78358">
        <ele>483</ele>
        <time>2012-05-10T20:47:38Z</time>
      </trkpt>
      <trkpt lat="28.27148" lon="-10.78379">
        <ele>483.2</ele>
        <time>2012-05-10T20:47:43Z</time>
      </trkpt>
      <trkpt lat="28.27134" lon="-10.78394">
        <ele>483.1</ele>
        <time>2012-05-10T20:47:48Z</time>
      </trkpt>
      <trkpt lat="28.27118" lon="-10.78407">
        <ele>482.7</ele>
        <time>2012-05-10T20:47:53Z</time>
      </trkpt>
      <trkpt lat="28.27102" lon="-10.78422">
        <ele>482.1</ele>
        <time>2012-05-10T20:47:58Z</time>
      </trkpt>
      <trkpt lat="28.27064" lon="-10.7846">
        <ele>481.1</ele>
        <time>2012-05-10T20:48:03Z</time>
      </trkpt>
      <trkpt lat="28.27051" lon="-10.78474">
        <ele>480.7</ele>
        <time>2012-05-10T20:48:08Z</time>
      </trkpt>
      <trkpt lat="28.27029" lon="-10.78492">
        <ele>480.4</ele>
        <time>2012-05-10T20:48:13Z</time>
      </trkpt>
      <trkpt lat="28.27015" lon="-10.78505">
        <ele>479.9</ele>
        <time>2012-05-10T20:48:18Z</time>
      </trkpt>
      <trkpt lat="28.26994" lon="-10.78523">
        <ele>479.4</ele>
        <time>2012-05-10T20:48:23Z</time>
      </trkpt>
      <trkpt lat="28.26961" lon="-10.7855">
        <ele>478.8</ele>
        <time>2012-05-10T20:48:28Z</time>
      </trkpt>
      <trkpt lat="28.26938" lon="-10.78565">
        <ele>478.4</ele>
        <time>2012-05-10T20:48:33Z</time>
      </trkpt>
      <trkpt lat="28.26919" lon="-10.78579">
        <ele>478</ele>
        <time>2012-05-10T20:48:38Z</time>
      </trkpt>
      <trkpt lat="28.269" lon="-10.78593">
        <ele>477.6</ele>
        <time>2012-05-10T20:48:43Z</time>
      </trkpt>
      <trkpt lat="28.26879" lon="-10.78606">
        <ele>477.4</ele>
        <time>2012-05-10T20:48:48Z</time>
      </trkpt>
      <trkpt lat="28.26856" lon="-10.78616">
        <ele>476.5</ele>
        <time>2012-05-10T20:48:53Z</time>
      </trkpt>
      <trkpt lat="28.26828" lon="-10.78626">
        <ele>474.6</ele>
        <time>2012-05-10T20:48:58Z</time>
      </trkpt>
      <trkpt lat="28.26802" lon="-10.78638">
        <ele>473</ele>
        <time>2012-05-10T20:49:03Z</time>
      </trkpt>
      <trkpt lat="28.26782" lon="-10.78642">
        <ele>471.8</ele>
        <time>2012-05-10T20:49:08Z</time>
      </trkpt>
      <trkpt lat="28.26761" lon="-10.78641">
        <ele>471</ele>
        <time>2012-05-10T20:49:13Z</time>
      </trkpt>
      <trkpt lat="28.26741" lon="-10.78637">
        <ele>471.3</ele>
        <time>2012-05-10T20:49:18Z</time>
      </trkpt>
      <trkpt lat="28.26721" lon="-10.78639">
        <ele>471</ele>
        <time>2012-05-10T20:49:23Z</time>
      </trkpt>
      <trkpt lat="28.26702" lon="-10.78649">
        <ele>470.6</ele>
        <time>2012-05-10T20:49:28Z</time>
      </trkpt>
      <trkpt lat="28.26671" lon="-10.7867">
        <ele>470.2</ele>
        <time>2012-05-10T20:49:33Z</time>
      </trkpt>
      <trkpt lat="28.26578" lon="-10.78735">
        <ele>468.9</ele>
        <time>2012-05-10T20:49:38Z</time>
      </trkpt>
      <trkpt lat="28.26553" lon="-10.78753">
        <ele>468.5</ele>
        <time>2012-05-10T20:49:43Z</time>
      </trkpt>
      <trkpt lat="28.26537" lon="-10.78765">
        <ele>468.5</ele>
        <time>2012-05-10T20:49:48Z</time>
      </trkpt>
      <trkpt lat="28.26512" lon="-10.78783">
        <ele>468.2</ele>
        <time>2012-05-10T20:49:53Z</time>
      </trkpt>
      <trkpt lat="28.26481" lon="-10.78807">
        <ele>467.3</ele>
        <time>2012-05-10T20:49:58Z</time>
      </trkpt>
      <trkpt lat="28.26465" lon="-10.78819">
        <ele>467.2</ele>
        <time>2012-05-10T20:50:03Z</time>
      </trkpt>
      <trkpt lat="28.26449" lon="-10.78831">
        <ele>467.9</ele>
        <time>2012-05-10T20:50:08Z</time>
      </trkpt>
      <trkpt lat="28.26434" lon="-10.78845">
        <ele>468.9</ele>
        <time>2012-05-10T20:50:13Z</time>
      </trkpt>
      <trkpt lat="28.26418" lon="-10.78859">
        <ele>469.4</ele>
        <time>2012-05-10T20:50:18Z</time>
      </trkpt>
      <trkpt lat="28.26387" lon="-10.78886">
        <ele>469.2</ele>
        <time>2012-05-10T20:50:23Z</time>
      </trkpt>
      <trkpt lat="28.26374" lon="-10.789">
        <ele>468.7</ele>
        <time>2012-05-10T20:50:28Z</time>
      </trkpt>
      <trkpt lat="28.26355" lon="-10.78921">
        <ele>468.8</ele>
        <time>2012-05-10T20:50:33Z</time>
      </trkpt>
      <trkpt lat="28.26336" lon="-10.78942">
        <ele>468.7</ele>
        <time>2012-05-10T20:50:38Z</time>
      </trkpt>
      <trkpt lat="28.26311" lon="-10.78965">
        <ele>468.1</ele>
        <time>2012-05-10T20:50:43Z</time>
      </trkpt>
      <trkpt lat="28.26292" lon="-10.7898">
        <ele>467.7</ele>
        <time>2012-05-10T20:50:48Z</time>
      </trkpt>
      <trkpt lat="28.26256" lon="-10.79005">
        <ele>467</ele>
        <time>2012-05-10T20:50:53Z</time>
      </trkpt>
      <trkpt lat="28.26238" lon="-10.79017">
        <ele>467.1</ele>
        <time>2012-05-10T20:50:58Z</time>
      </trkpt>
      <trkpt lat="28.26214" lon="-10.79033">
        <ele>467.5</ele>
        <time>2012-05-10T20:51:03Z</time>
      </trkpt>
      <trkpt lat="28.26195" lon="-10.7905">
        <ele>467.4</ele>
        <time>2012-05-10T20:51:08Z</time>
      </trkpt>
      <trkpt lat="28.26096" lon="-10.79136">
        <ele>465.7</ele>
        <time>2012-05-10T20:51:13Z</time>
      </trkpt>
      <trkpt lat="28.26068" lon="-10.79159">
        <ele>465.5</ele>
        <time>2012-05-10T20:51:18Z</time>
      </trkpt>
      <trkpt lat="28.2604" lon="-10.79186">
        <ele>465</ele>
        <time>2012-05-10T20:51:23Z</time>
      </trkpt>
      <trkpt lat="28.26023" lon="-10.79199">
        <ele>464.7</ele>
        <time>2012-05-10T20:51:28Z</time>
      </trkpt>
      <trkpt lat="28.26004" lon="-10.7921">
        <ele>464</ele>
        <time>2012-05-10T20:51:33Z</time>
      </trkpt>
      <trkpt lat="28.25985" lon="-10.79221">
        <ele>463.4</ele>
        <time>2012-05-10T20:51:38Z</time>
      </trkpt>
      <trkpt lat="28.25965" lon="-10.79231">
        <ele>462.9</ele>
        <time>2012-05-10T20:51:43Z</time>
      </trkpt>
      <trkpt lat="28.25944" lon="-10.7924">
        <ele>462.3</ele>
        <time>2012-05-10T20:51:48Z</time>
      </trkpt>
      <trkpt lat="28.25923" lon="-10.79247">
        <ele>461.3</ele>
        <time>2012-05-10T20:51:53Z</time>
      </trkpt>
      <trkpt lat="28.2578" lon="-10.79295">
        <ele>457.6</ele>
        <time>2012-05-10T20:51:58Z</time>
      </trkpt>
      <trkpt lat="28.25741" lon="-10.79306">
        <ele>457.1</ele>
        <time>2012-05-10T20:52:03Z</time>
      </trkpt>
      <trkpt lat="28.25702" lon="-10.79319">
        <ele>456.3</ele>
        <time>2012-05-10T20:52:08Z</time>
      </trkpt>
      <trkpt lat="28.25675" lon="-10.79328">
        <ele>455.5</ele>
        <time>2012-05-10T20:52:13Z</time>
      </trkpt>
      <trkpt lat="28.25654" lon="-10.79332">
        <ele>454.7</ele>
        <time>2012-05-10T20:52:18Z</time>
      </trkpt>
      <trkpt lat="28.25635" lon="-10.7934">
        <ele>453.9</ele>
        <time>2012-05-10T20:52:23Z</time>
      </trkpt>
      <trkpt lat="28.25611" lon="-10.7935">
        <ele>452.8</ele>
        <time>2012-05-10T20:52:28Z</time>
      </trkpt>
      <trkpt lat="28.25593" lon="-10.79355">
        <ele>451.9</ele>
        <time>2012-05-10T20:52:33Z</time>
      </trkpt>
      <trkpt lat="28.25575" lon="-10.7936">
        <ele>451</ele>
        <time>2012-05-10T20:52:38Z</time>
      </trkpt>
      <trkpt lat="28.25546" lon="-10.79367">
        <ele>450.2</ele>
        <time>2012-05-10T20:52:43Z</time>
      </trkpt>
      <trkpt lat="28.25517" lon="-10.79375">
        <ele>449.1</ele>
        <time>2012-05-10T20:52:48Z</time>
      </trkpt>
      <trkpt lat="28.25488" lon="-10.79381">
        <ele>448.4</ele>
        <time>2012-05-10T20:52:53Z</time>
      </trkpt>
      <trkpt lat="28.2546" lon="-10.79387">
        <ele>448</ele>
        <time>2012-05-10T20:52:58Z</time>
      </trkpt>
      <trkpt lat="28.25388" lon="-10.79406">
        <ele>446.3</ele>
        <time>2012-05-10T20:53:03Z</time>
      </trkpt>
      <trkpt lat="28.25363" lon="-10.79414">
        <ele>446.2</ele>
        <time>2012-05-10T20:53:08Z</time>
      </trkpt>
      <trkpt lat="28.2533" lon="-10.79427">
        <ele>445.9</ele>
        <time>2012-05-10T20:53:13Z</time>
      </trkpt>
      <trkpt lat="28.25307" lon="-10.79439">
        <ele>445.8</ele>
        <time>2012-05-10T20:53:18Z</time>
      </trkpt>
      <trkpt lat="28.25281" lon="-10.7945">
        <ele>445.5</ele>
        <time>2012-05-10T20:53:23Z</time>
      </trkpt>
      <trkpt lat="28.25253" lon="-10.7946">
        <ele>444.8</ele>
        <time>2012-05-10T20:53:28Z</time>
      </trkpt>
      <trkpt lat="28.25224" lon="-10.7947">
        <ele>444.5</ele>
        <time>2012-05-10T20:53:33Z</time>
      </trkpt>
      <trkpt lat="28.25204" lon="-10.79479">
        <ele>444.4</ele>
        <time>2012-05-10T20:53:38Z</time>
      </trkpt>
      <trkpt lat="28.25142" lon="-10.79506">
        <ele>443</ele>
        <time>2012-05-10T20:53:43Z</time>
      </trkpt>
      <trkpt lat="28.25102" lon="-10.79525">
        <ele>443.1</ele>
        <time>2012-05-10T20:53:48Z</time>
      </trkpt>
      <trkpt lat="28.25085" lon="-10.79539">
        <ele>443</ele>
        <time>2012-05-10T20:53:53Z</time>
      </trkpt>
      <trkpt lat="28.25052" lon="-10.79568">
        <ele>444.3</ele>
        <time>2012-05-10T20:53:58Z</time>
      </trkpt>
      <trkpt lat="28.25034" lon="-10.79583">
        <ele>444.5</ele>
        <time>2012-05-10T20:54:03Z</time>
      </trkpt>
      <trkpt lat="28.25016" lon="-10.796">
        <ele>444.5</ele>
        <time>2012-05-10T20:54:08Z</time>
      </trkpt>
      <trkpt lat="28.24981" lon="-10.79632">
        <ele>444.8</ele>
        <time>2012-05-10T20:54:13Z</time>
      </trkpt>
      <trkpt lat="28.24965" lon="-10.79646">
        <ele>443.8</ele>
        <time>2012-05-10T20:54:18Z</time>
      </trkpt>
      <trkpt lat="28.24952" lon="-10.79661">
        <ele>443.4</ele>
        <time>2012-05-10T20:54:23Z</time>
      </trkpt>
      <trkpt lat="28.24906" lon="-10.79721">
        <ele>442.7</ele>
        <time>2012-05-10T20:54:28Z</time>
      </trkpt>
      <trkpt lat="28.24893" lon="-10.79737">
        <ele>441.9</ele>
        <time>2012-05-10T20:54:33Z</time>
      </trkpt>
      <trkpt lat="28.24884" lon="-10.79757">
        <ele>440.3</ele>
        <time>2012-05-10T20:54:38Z</time>
      </trkpt>
      <trkpt lat="28.24869" lon="-10.79778">
        <ele>440</ele>
        <time>2012-05-10T20:54:43Z</time>
      </trkpt>
      <trkpt lat="28.24851" lon="-10.798">
        <ele>439.8</ele>
        <time>2012-05-10T20:54:48Z</time>
      </trkpt>
      <trkpt lat="28.2477" lon="-10.79893">
        <ele>437.7</ele>
        <time>2012-05-10T20:54:53Z</time>
      </trkpt>
      <trkpt lat="28.24753" lon="-10.79908">
        <ele>437.3</ele>
        <time>2012-05-10T20:54:58Z</time>
      </trkpt>
      <trkpt lat="28.24738" lon="-10.79925">
        <ele>436.5</ele>
        <time>2012-05-10T20:55:03Z</time>
      </trkpt>
      <trkpt lat="28.24723" lon="-10.7994">
        <ele>436.3</ele>
        <time>2012-05-10T20:55:08Z</time>
      </trkpt>
      <trkpt lat="28.24694" lon="-10.79967">
        <ele>436.3</ele>
        <time>2012-05-10T20:55:13Z</time>
      </trkpt>
      <trkpt lat="28.24672" lon="-10.79989">
        <ele>436.2</ele>
        <time>2012-05-10T20:55:18Z</time>
      </trkpt>
      <trkpt lat="28.24657" lon="-10.80006">
        <ele>436.2</ele>
        <time>2012-05-10T20:55:23Z</time>
      </trkpt>
      <trkpt lat="28.2464" lon="-10.80025">
        <ele>436.5</ele>
        <time>2012-05-10T20:55:28Z</time>
      </trkpt>
      <trkpt lat="28.2462" lon="-10.80043">
        <ele>436.5</ele>
        <time>2012-05-10T20:55:33Z</time>
      </trkpt>
      <trkpt lat="28.24603" lon="-10.80066">
        <ele>436.9</ele>
        <time>2012-05-10T20:55:38Z</time>
      </trkpt>
      <trkpt lat="28.24583" lon="-10.80086">
        <ele>437.7</ele>
        <time>2012-05-10T20:55:43Z</time>
      </trkpt>
      <trkpt lat="28.24563" lon="-10.80106">
        <ele>437.1</ele>
        <time>2012-05-10T20:55:48Z</time>
      </trkpt>
      <trkpt lat="28.24546" lon="-10.80127">
        <ele>435.7</ele>
        <time>2012-05-10T20:55:53Z</time>
      </trkpt>
      <trkpt lat="28.24505" lon="-10.80179">
        <ele>435.4</ele>
        <time>2012-05-10T20:55:58Z</time>
      </trkpt>
      <trkpt lat="28.24488" lon="-10.80204">
        <ele>434.9</ele>
        <time>2012-05-10T20:56:03Z</time>
      </trkpt>
      <trkpt lat="28.24475" lon="-10.80219">
        <ele>434.3</ele>
        <time>2012-05-10T20:56:08Z</time>
      </trkpt>
      <trkpt lat="28.24454" lon="-10.80242">
        <ele>433.9</ele>
        <time>2012-05-10T20:56:13Z</time>
      </trkpt>
      <trkpt lat="28.24442" lon="-10.80259">
        <ele>433.8</ele>
        <time>2012-05-10T20:56:18Z</time>
      </trkpt>
      <trkpt lat="28.24428" lon="-10.80278">
        <ele>433</ele>
        <time>2012-05-10T20:56:23Z</time>
      </trkpt>
      <trkpt lat="28.24411" lon="-10.80292">
        <ele>433</ele>
        <time>2012-05-10T20:56:28Z</time>
      </trkpt>
      <trkpt lat="28.24401" lon="-10.80309">
        <ele>432.1</ele>
        <time>2012-05-10T20:56:33Z</time>
      </trkpt>
      <trkpt lat="28.24384" lon="-10.80331">
        <ele>432.2</ele>
        <time>2012-05-10T20:56:38Z</time>
      </trkpt>
      <trkpt lat="28.24368" lon="-10.8035">
        <ele>431.8</ele>
        <time>2012-05-10T20:56:43Z</time>
      </trkpt>
      <trkpt lat="28.24351" lon="-10.80366">
        <ele>430.9</ele>
        <time>2012-05-10T20:56:48Z</time>
      </trkpt>
      <trkpt lat="28.24278" lon="-10.80442">
        <ele>431.6</ele>
        <time>2012-05-10T20:56:53Z</time>
      </trkpt>
      <trkpt lat="28.24254" lon="-10.80467">
        <ele>431.2</ele>
        <time>2012-05-10T20:56:58Z</time>
      </trkpt>
      <trkpt lat="28.24236" lon="-10.80482">
        <ele>431.4</ele>
        <time>2012-05-10T20:57:03Z</time>
      </trkpt>
      <trkpt lat="28.2414" lon="-10.8056">
        <ele>426.7</ele>
        <time>2012-05-10T20:57:08Z</time>
      </trkpt>
      <trkpt lat="28.24125" lon="-10.80573">
        <ele>426.2</ele>
        <time>2012-05-10T20:57:13Z</time>
      </trkpt>
      <trkpt lat="28.24103" lon="-10.80592">
        <ele>425.9</ele>
        <time>2012-05-10T20:57:18Z</time>
      </trkpt>
      <trkpt lat="28.24085" lon="-10.80603">
        <ele>425</ele>
        <time>2012-05-10T20:57:23Z</time>
      </trkpt>
      <trkpt lat="28.24066" lon="-10.8061">
        <ele>424.9</ele>
        <time>2012-05-10T20:57:28Z</time>
      </trkpt>
      <trkpt lat="28.24045" lon="-10.80614">
        <ele>425.1</ele>
        <time>2012-05-10T20:57:33Z</time>
      </trkpt>
      <trkpt lat="28.24024" lon="-10.8062">
        <ele>425.3</ele>
        <time>2012-05-10T20:57:38Z</time>
      </trkpt>
      <trkpt lat="28.24004" lon="-10.80627">
        <ele>424.8</ele>
        <time>2012-05-10T20:57:43Z</time>
      </trkpt>
      <trkpt lat="28.23978" lon="-10.80631">
        <ele>424.4</ele>
        <time>2012-05-10T20:57:48Z</time>
      </trkpt>
      <trkpt lat="28.23956" lon="-10.80625">
        <ele>424.4</ele>
        <time>2012-05-10T20:57:53Z</time>
      </trkpt>
      <trkpt lat="28.23938" lon="-10.8061">
        <ele>423.8</ele>
        <time>2012-05-10T20:57:58Z</time>
      </trkpt>
      <trkpt lat="28.23924" lon="-10.80593">
        <ele>423.5</ele>
        <time>2012-05-10T20:58:03Z</time>
      </trkpt>
      <trkpt lat="28.23907" lon="-10.80566">
        <ele>422.6</ele>
        <time>2012-05-10T20:58:08Z</time>
      </trkpt>
      <trkpt lat="28.23884" lon="-10.80539">
        <ele>422.5</ele>
        <time>2012-05-10T20:58:13Z</time>
      </trkpt>
      <trkpt lat="28.23865" lon="-10.80513">
        <ele>423.8</ele>
        <time>2012-05-10T20:58:18Z</time>
      </trkpt>
      <trkpt lat="28.23824" lon="-10.80463">
        <ele>426.4</ele>
        <time>2012-05-10T20:58:23Z</time>
      </trkpt>
      <trkpt lat="28.23804" lon="-10.80453">
        <ele>426.9</ele>
        <time>2012-05-10T20:58:28Z</time>
      </trkpt>
      <trkpt lat="28.2378" lon="-10.80454">
        <ele>427.2</ele>
        <time>2012-05-10T20:58:33Z</time>
      </trkpt>
      <trkpt lat="28.23754" lon="-10.80461">
        <ele>426.5</ele>
        <time>2012-05-10T20:58:38Z</time>
      </trkpt>
      <trkpt lat="28.2373" lon="-10.80474">
        <ele>426.3</ele>
        <time>2012-05-10T20:58:43Z</time>
      </trkpt>
      <trkpt lat="28.23713" lon="-10.80485">
        <ele>426.2</ele>
        <time>2012-05-10T20:58:48Z</time>
      </trkpt>
      <trkpt lat="28.23697" lon="-10.80495">
        <ele>425.5</ele>
        <time>2012-05-10T20:58:53Z</time>
      </trkpt>
      <trkpt lat="28.23681" lon="-10.80507">
        <ele>424.9</ele>
        <time>2012-05-10T20:58:58Z</time>
      </trkpt>
      <trkpt lat="28.23656" lon="-10.80528">
        <ele>425.2</ele>
        <time>2012-05-10T20:59:03Z</time>
      </trkpt>
      <trkpt lat="28.23639" lon="-10.80541">
        <ele>424.9</ele>
        <time>2012-05-10T20:59:08Z</time>
      </trkpt>
      <trkpt lat="28.23606" lon="-10.80564">
        <ele>424</ele>
        <time>2012-05-10T20:59:13Z</time>
      </trkpt>
      <trkpt lat="28.23591" lon="-10.80579">
        <ele>424.1</ele>
        <time>2012-05-10T20:59:18Z</time>
      </trkpt>
      <trkpt lat="28.23578" lon="-10.80596">
        <ele>424.1</ele>
        <time>2012-05-10T20:59:23Z</time>
      </trkpt>
      <trkpt lat="28.23564" lon="-10.80612">
        <ele>424</ele>
        <time>2012-05-10T20:59:28Z</time>
      </trkpt>
      <trkpt lat="28.23549" lon="-10.80627">
        <ele>424.2</ele>
        <time>2012-05-10T20:59:33Z</time>
      </trkpt>
      <trkpt lat="28.2352" lon="-10.80655">
        <ele>423.2</ele>
        <time>2012-05-10T20:59:38Z</time>
      </trkpt>
      <trkpt lat="28.23505" lon="-10.80667">
        <ele>423</ele>
        <time>2012-05-10T20:59:43Z</time>
      </trkpt>
      <trkpt lat="28.23481" lon="-10.80685">
        <ele>422.1</ele>
        <time>2012-05-10T20:59:48Z</time>
      </trkpt>
      <trkpt lat="28.23463" lon="-10.80697">
        <ele>421</ele>
        <time>2012-05-10T20:59:53Z</time>
      </trkpt>
      <trkpt lat="28.23444" lon="-10.80708">
        <ele>420.1</ele>
        <time>2012-05-10T20:59:58Z</time>
      </trkpt>
      <trkpt lat="28.23424" lon="-10.80723">
        <ele>419.6</ele>
        <time>2012-05-10T21:00:03Z</time>
      </trkpt>
      <trkpt lat="28.23401" lon="-10.80738">
        <ele>419.3</ele>
        <time>2012-05-10T21:00:08Z</time>
      </trkpt>
      <trkpt lat="28.23386" lon="-10.8075">
        <ele>419.2</ele>
        <time>2012-05-10T21:00:13Z</time>
      </trkpt>
      <trkpt lat="28.23342" lon="-10.80786">
        <ele>419.4</ele>
        <time>2012-05-10T21:00:18Z</time>
      </trkpt>
      <trkpt lat="28.23321" lon="-10.80803">
        <ele>419.1</ele>
        <time>2012-05-10T21:00:23Z</time>
      </trkpt>
      <trkpt lat="28.23304" lon="-10.80816">
        <ele>419.1</ele>
        <time>2012-05-10T21:00:28Z</time>
      </trkpt>
      <trkpt lat="28.23286" lon="-10.80829">
        <ele>418.8</ele>
        <time>2012-05-10T21:00:33Z</time>
      </trkpt>
      <trkpt lat="28.23264" lon="-10.80843">
        <ele>418.2</ele>
        <time>2012-05-10T21:00:38Z</time>
      </trkpt>
      <trkpt lat="28.23233" lon="-10.8086">
        <ele>416.6</ele>
        <time>2012-05-10T21:00:43Z</time>
      </trkpt>
      <trkpt lat="28.23213" lon="-10.80871">
        <ele>415.5</ele>
        <time>2012-05-10T21:00:48Z</time>
      </trkpt>
      <trkpt lat="28.23134" lon="-10.80912">
        <ele>413.7</ele>
        <time>2012-05-10T21:00:53Z</time>
      </trkpt>
      <trkpt lat="28.23112" lon="-10.80927">
        <ele>413.8</ele>
        <time>2012-05-10T21:00:58Z</time>
      </trkpt>
      <trkpt lat="28.23089" lon="-10.8094">
        <ele>413.3</ele>
        <time>2012-05-10T21:01:03Z</time>
      </trkpt>
      <trkpt lat="28.23015" lon="-10.80978">
        <ele>411.7</ele>
        <time>2012-05-10T21:01:08Z</time>
      </trkpt>
      <trkpt lat="28.22999" lon="-10.80989">
        <ele>411.5</ele>
        <time>2012-05-10T21:01:13Z</time>
      </trkpt>
      <trkpt lat="28.22976" lon="-10.81005">
        <ele>411</ele>
        <time>2012-05-10T21:01:18Z</time>
      </trkpt>
      <trkpt lat="28.22954" lon="-10.81021">
        <ele>410.5</ele>
        <time>2012-05-10T21:01:23Z</time>
      </trkpt>
      <trkpt lat="28.22932" lon="-10.81037">
        <ele>409.9</ele>
        <time>2012-05-10T21:01:28Z</time>
      </trkpt>
      <trkpt lat="28.22912" lon="-10.81056">
        <ele>409.5</ele>
        <time>2012-05-10T21:01:33Z</time>
      </trkpt>
      <trkpt lat="28.2289" lon="-10.81074">
        <ele>409.6</ele>
        <time>2012-05-10T21:01:38Z</time>
      </trkpt>
      <trkpt lat="28.22876" lon="-10.81087">
        <ele>409.6</ele>
        <time>2012-05-10T21:01:43Z</time>
      </trkpt>
      <trkpt lat="28.22827" lon="-10.81131">
        <ele>409.1</ele>
        <time>2012-05-10T21:01:48Z</time>
      </trkpt>
      <trkpt lat="28.22807" lon="-10.81146">
        <ele>408.6</ele>
        <time>2012-05-10T21:01:53Z</time>
      </trkpt>
      <trkpt lat="28.22787" lon="-10.81163">
        <ele>408.3</ele>
        <time>2012-05-10T21:01:58Z</time>
      </trkpt>
      <trkpt lat="28.22771" lon="-10.81187">
        <ele>408.8</ele>
        <time>2012-05-10T21:02:03Z</time>
      </trkpt>
      <trkpt lat="28.22758" lon="-10.81202">
        <ele>409.4</ele>
        <time>2012-05-10T21:02:08Z</time>
      </trkpt>
      <trkpt lat="28.22732" lon="-10.81231">
        <ele>411.3</ele>
        <time>2012-05-10T21:02:13Z</time>
      </trkpt>
      <trkpt lat="28.22715" lon="-10.8125">
        <ele>411.4</ele>
        <time>2012-05-10T21:02:18Z</time>
      </trkpt>
      <trkpt lat="28.22679" lon="-10.81287">
        <ele>410.7</ele>
        <time>2012-05-10T21:02:23Z</time>
      </trkpt>
      <trkpt lat="28.2266" lon="-10.81304">
        <ele>409.7</ele>
        <time>2012-05-10T21:02:28Z</time>
      </trkpt>
      <trkpt lat="28.2264" lon="-10.8132">
        <ele>408.6</ele>
        <time>2012-05-10T21:02:33Z</time>
      </trkpt>
      <trkpt lat="28.22622" lon="-10.81338">
        <ele>407.3</ele>
        <time>2012-05-10T21:02:38Z</time>
      </trkpt>
      <trkpt lat="28.22605" lon="-10.81359">
        <ele>406.3</ele>
        <time>2012-05-10T21:02:43Z</time>
      </trkpt>
      <trkpt lat="28.22591" lon="-10.81383">
        <ele>405.3</ele>
        <time>2012-05-10T21:02:48Z</time>
      </trkpt>
      <trkpt lat="28.2258" lon="-10.814">
        <ele>404.8</ele>
        <time>2012-05-10T21:02:53Z</time>
      </trkpt>
      <trkpt lat="28.22563" lon="-10.81426">
        <ele>403.5</ele>
        <time>2012-05-10T21:02:58Z</time>
      </trkpt>
      <trkpt lat="28.22538" lon="-10.81458">
        <ele>403</ele>
        <time>2012-05-10T21:03:03Z</time>
      </trkpt>
      <trkpt lat="28.22522" lon="-10.8148">
        <ele>402.6</ele>
        <time>2012-05-10T21:03:08Z</time>
      </trkpt>
      <trkpt lat="28.22514" lon="-10.81498">
        <ele>402.5</ele>
        <time>2012-05-10T21:03:13Z</time>
      </trkpt>
      <trkpt lat="28.22502" lon="-10.81516">
        <ele>403</ele>
        <time>2012-05-10T21:03:18Z</time>
      </trkpt>
      <trkpt lat="28.22491" lon="-10.81534">
        <ele>403.2</ele>
        <time>2012-05-10T21:03:23Z</time>
      </trkpt>
      <trkpt lat="28.22474" lon="-10.81563">
        <ele>403.4</ele>
        <time>2012-05-10T21:03:28Z</time>
      </trkpt>
      <trkpt lat="28.22453" lon="-10.816">
        <ele>404.1</ele>
        <time>2012-05-10T21:03:33Z</time>
      </trkpt>
      <trkpt lat="28.22428" lon="-10.81645">
        <ele>403.7</ele>
        <time>2012-05-10T21:03:38Z</time>
      </trkpt>
      <trkpt lat="28.22418" lon="-10.81664">
        <ele>403.1</ele>
        <time>2012-05-10T21:03:43Z</time>
      </trkpt>
      <trkpt lat="28.22404" lon="-10.81693">
        <ele>403.1</ele>
        <time>2012-05-10T21:03:48Z</time>
      </trkpt>
      <trkpt lat="28.22376" lon="-10.81741">
        <ele>402.8</ele>
        <time>2012-05-10T21:03:53Z</time>
      </trkpt>
      <trkpt lat="28.22362" lon="-10.81759">
        <ele>402.7</ele>
        <time>2012-05-10T21:03:58Z</time>
      </trkpt>
      <trkpt lat="28.22304" lon="-10.81828">
        <ele>402.7</ele>
        <time>2012-05-10T21:04:03Z</time>
      </trkpt>
      <trkpt lat="28.22288" lon="-10.81843">
        <ele>402.4</ele>
        <time>2012-05-10T21:04:08Z</time>
      </trkpt>
      <trkpt lat="28.22246" lon="-10.81883">
        <ele>401.1</ele>
        <time>2012-05-10T21:04:13Z</time>
      </trkpt>
      <trkpt lat="28.22228" lon="-10.81893">
        <ele>400.7</ele>
        <time>2012-05-10T21:04:18Z</time>
      </trkpt>
      <trkpt lat="28.22212" lon="-10.81908">
        <ele>401.1</ele>
        <time>2012-05-10T21:04:23Z</time>
      </trkpt>
      <trkpt lat="28.22192" lon="-10.81924">
        <ele>401</ele>
        <time>2012-05-10T21:04:28Z</time>
      </trkpt>
      <trkpt lat="28.22169" lon="-10.81941">
        <ele>400.2</ele>
        <time>2012-05-10T21:04:33Z</time>
      </trkpt>
      <trkpt lat="28.22141" lon="-10.81966">
        <ele>399.4</ele>
        <time>2012-05-10T21:04:38Z</time>
      </trkpt>
      <trkpt lat="28.22112" lon="-10.8199">
        <ele>398.3</ele>
        <time>2012-05-10T21:04:43Z</time>
      </trkpt>
      <trkpt lat="28.22097" lon="-10.82005">
        <ele>399</ele>
        <time>2012-05-10T21:04:48Z</time>
      </trkpt>
      <trkpt lat="28.22073" lon="-10.82029">
        <ele>399.5</ele>
        <time>2012-05-10T21:04:53Z</time>
      </trkpt>
      <trkpt lat="28.22" lon="-10.82096">
        <ele>399.3</ele>
        <time>2012-05-10T21:04:58Z</time>
      </trkpt>
      <trkpt lat="28.2198" lon="-10.82112">
        <ele>399.3</ele>
        <time>2012-05-10T21:05:03Z</time>
      </trkpt>
      <trkpt lat="28.21942" lon="-10.82142">
        <ele>398.8</ele>
        <time>2012-05-10T21:05:08Z</time>
      </trkpt>
      <trkpt lat="28.21924" lon="-10.82153">
        <ele>397.8</ele>
        <time>2012-05-10T21:05:13Z</time>
      </trkpt>
      <trkpt lat="28.21908" lon="-10.82166">
        <ele>397.7</ele>
        <time>2012-05-10T21:05:18Z</time>
      </trkpt>
      <trkpt lat="28.21893" lon="-10.82177">
        <ele>397.3</ele>
        <time>2012-05-10T21:05:23Z</time>
      </trkpt>
      <trkpt lat="28.21871" lon="-10.82188">
        <ele>395.2</ele>
        <time>2012-05-10T21:05:28Z</time>
      </trkpt>
      <trkpt lat="28.21853" lon="-10.822">
        <ele>393.8</ele>
        <time>2012-05-10T21:05:33Z</time>
      </trkpt>
      <trkpt lat="28.21832" lon="-10.82216">
        <ele>393.9</ele>
        <time>2012-05-10T21:05:38Z</time>
      </trkpt>
      <trkpt lat="28.21802" lon="-10.82238">
        <ele>393.7</ele>
        <time>2012-05-10T21:05:43Z</time>
      </trkpt>
      <trkpt lat="28.2177" lon="-10.82263">
        <ele>393.3</ele>
        <time>2012-05-10T21:05:48Z</time>
      </trkpt>
      <trkpt lat="28.21753" lon="-10.82273">
        <ele>392.8</ele>
        <time>2012-05-10T21:05:53Z</time>
      </trkpt>
      <trkpt lat="28.21736" lon="-10.82284">
        <ele>392.9</ele>
        <time>2012-05-10T21:05:58Z</time>
      </trkpt>
      <trkpt lat="28.2172" lon="-10.82298">
        <ele>392.8</ele>
        <time>2012-05-10T21:06:03Z</time>
      </trkpt>
      <trkpt lat="28.21702" lon="-10.82311">
        <ele>392.2</ele>
        <time>2012-05-10T21:06:08Z</time>
      </trkpt>
      <trkpt lat="28.21665" lon="-10.82336">
        <ele>391</ele>
        <time>2012-05-10T21:06:13Z</time>
      </trkpt>
      <trkpt lat="28.2161" lon="-10.82379">
        <ele>390.1</ele>
        <time>2012-05-10T21:06:18Z</time>
      </trkpt>
      <trkpt lat="28.21574" lon="-10.82406">
        <ele>389.4</ele>
        <time>2012-05-10T21:06:23Z</time>
      </trkpt>
      <trkpt lat="28.21557" lon="-10.8242">
        <ele>389.2</ele>
        <time>2012-05-10T21:06:28Z</time>
      </trkpt>
      <trkpt lat="28.2154" lon="-10.82433">
        <ele>388.8</ele>
        <time>2012-05-10T21:06:33Z</time>
      </trkpt>
      <trkpt lat="28.21524" lon="-10.82446">
        <ele>388.4</ele>
        <time>2012-05-10T21:06:38Z</time>
      </trkpt>
      <trkpt lat="28.21508" lon="-10.82458">
        <ele>387.6</ele>
        <time>2012-05-10T21:06:43Z</time>
      </trkpt>
      <trkpt lat="28.21493" lon="-10.82471">
        <ele>386.5</ele>
        <time>2012-05-10T21:06:48Z</time>
      </trkpt>
      <trkpt lat="28.21456" lon="-10.82503">
        <ele>385.8</ele>
        <time>2012-05-10T21:06:53Z</time>
      </trkpt>
      <trkpt lat="28.21441" lon="-10.82519">
        <ele>386.6</ele>
        <time>2012-05-10T21:06:58Z</time>
      </trkpt>
      <trkpt lat="28.21426" lon="-10.82534">
        <ele>387.9</ele>
        <time>2012-05-10T21:07:03Z</time>
      </trkpt>
      <trkpt lat="28.2141" lon="-10.82548">
        <ele>389.1</ele>
        <time>2012-05-10T21:07:08Z</time>
      </trkpt>
      <trkpt lat="28.21377" lon="-10.82578">
        <ele>390.9</ele>
        <time>2012-05-10T21:07:13Z</time>
      </trkpt>
      <trkpt lat="28.21362" lon="-10.82595">
        <ele>390</ele>
        <time>2012-05-10T21:07:18Z</time>
      </trkpt>
      <trkpt lat="28.21348" lon="-10.82611">
        <ele>389.4</ele>
        <time>2012-05-10T21:07:23Z</time>
      </trkpt>
      <trkpt lat="28.21332" lon="-10.82625">
        <ele>388.9</ele>
        <time>2012-05-10T21:07:28Z</time>
      </trkpt>
      <trkpt lat="28.21318" lon="-10.8264">
        <ele>388.3</ele>
        <time>2012-05-10T21:07:33Z</time>
      </trkpt>
      <trkpt lat="28.21305" lon="-10.82655">
        <ele>388.2</ele>
        <time>2012-05-10T21:07:38Z</time>
      </trkpt>
      <trkpt lat="28.21286" lon="-10.82678">
        <ele>388</ele>
        <time>2012-05-10T21:07:43Z</time>
      </trkpt>
      <trkpt lat="28.21274" lon="-10.82695">
        <ele>387.6</ele>
        <time>2012-05-10T21:07:48Z</time>
      </trkpt>
      <trkpt lat="28.21255" lon="-10.82723">
        <ele>387.1</ele>
        <time>2012-05-10T21:07:53Z</time>
      </trkpt>
      <trkpt lat="28.21226" lon="-10.82761">
        <ele>386.5</ele>
        <time>2012-05-10T21:07:58Z</time>
      </trkpt>
      <trkpt lat="28.21198" lon="-10.82797">
        <ele>385.8</ele>
        <time>2012-05-10T21:08:03Z</time>
      </trkpt>
      <trkpt lat="28.21185" lon="-10.82817">
        <ele>385.1</ele>
        <time>2012-05-10T21:08:08Z</time>
      </trkpt>
      <trkpt lat="28.21171" lon="-10.82835">
        <ele>385</ele>
        <time>2012-05-10T21:08:13Z</time>
      </trkpt>
      <trkpt lat="28.21158" lon="-10.82855">
        <ele>384.4</ele>
        <time>2012-05-10T21:08:18Z</time>
      </trkpt>
      <trkpt lat="28.21145" lon="-10.82876">
        <ele>384</ele>
        <time>2012-05-10T21:08:23Z</time>
      </trkpt>
      <trkpt lat="28.21085" lon="-10.82959">
        <ele>384.3</ele>
        <time>2012-05-10T21:08:28Z</time>
      </trkpt>
      <trkpt lat="28.21068" lon="-10.82978">
        <ele>384</ele>
        <time>2012-05-10T21:08:33Z</time>
      </trkpt>
      <trkpt lat="28.21052" lon="-10.82998">
        <ele>383.2</ele>
        <time>2012-05-10T21:08:38Z</time>
      </trkpt>
      <trkpt lat="28.21027" lon="-10.83027">
        <ele>383</ele>
        <time>2012-05-10T21:08:43Z</time>
      </trkpt>
      <trkpt lat="28.20973" lon="-10.83087">
        <ele>382.4</ele>
        <time>2012-05-10T21:08:48Z</time>
      </trkpt>
      <trkpt lat="28.20959" lon="-10.83101">
        <ele>381.8</ele>
        <time>2012-05-10T21:08:53Z</time>
      </trkpt>
      <trkpt lat="28.20945" lon="-10.83116">
        <ele>381.4</ele>
        <time>2012-05-10T21:08:58Z</time>
      </trkpt>
      <trkpt lat="28.20933" lon="-10.83132">
        <ele>381.4</ele>
        <time>2012-05-10T21:09:03Z</time>
      </trkpt>
      <trkpt lat="28.20909" lon="-10.83168">
        <ele>380.9</ele>
        <time>2012-05-10T21:09:08Z</time>
      </trkpt>
      <trkpt lat="28.20899" lon="-10.83187">
        <ele>380</ele>
        <time>2012-05-10T21:09:13Z</time>
      </trkpt>
      <trkpt lat="28.2089" lon="-10.83207">
        <ele>379</ele>
        <time>2012-05-10T21:09:18Z</time>
      </trkpt>
      <trkpt lat="28.20877" lon="-10.83249">
        <ele>376.6</ele>
        <time>2012-05-10T21:09:23Z</time>
      </trkpt>
      <trkpt lat="28.2086" lon="-10.83305">
        <ele>372.3</ele>
        <time>2012-05-10T21:09:28Z</time>
      </trkpt>
      <trkpt lat="28.20842" lon="-10.83353">
        <ele>369.5</ele>
        <time>2012-05-10T21:09:33Z</time>
      </trkpt>
      <trkpt lat="28.20832" lon="-10.83379">
        <ele>368.3</ele>
        <time>2012-05-10T21:09:38Z</time>
      </trkpt>
      <trkpt lat="28.20824" lon="-10.83407">
        <ele>367.7</ele>
        <time>2012-05-10T21:09:43Z</time>
      </trkpt>
      <trkpt lat="28.20818" lon="-10.83427">
        <ele>366.5</ele>
        <time>2012-05-10T21:09:48Z</time>
      </trkpt>
      <trkpt lat="28.2081" lon="-10.83446">
        <ele>365.7</ele>
        <time>2012-05-10T21:09:53Z</time>
      </trkpt>
      <trkpt lat="28.20801" lon="-10.83466">
        <ele>364.6</ele>
        <time>2012-05-10T21:09:58Z</time>
      </trkpt>
      <trkpt lat="28.2079" lon="-10.83496">
        <ele>363.8</ele>
        <time>2012-05-10T21:10:03Z</time>
      </trkpt>
      <trkpt lat="28.20778" lon="-10.83528">
        <ele>363.4</ele>
        <time>2012-05-10T21:10:08Z</time>
      </trkpt>
      <trkpt lat="28.20766" lon="-10.8355">
        <ele>362.7</ele>
        <time>2012-05-10T21:10:13Z</time>
      </trkpt>
      <trkpt lat="28.20749" lon="-10.83582">
        <ele>362.2</ele>
        <time>2012-05-10T21:10:18Z</time>
      </trkpt>
      <trkpt lat="28.20735" lon="-10.83608">
        <ele>361.7</ele>
        <time>2012-05-10T21:10:23Z</time>
      </trkpt>
      <trkpt lat="28.20723" lon="-10.83633">
        <ele>361.4</ele>
        <time>2012-05-10T21:10:28Z</time>
      </trkpt>
      <trkpt lat="28.2071" lon="-10.83659">
        <ele>360.6</ele>
        <time>2012-05-10T21:10:33Z</time>
      </trkpt>
      <trkpt lat="28.20671" lon="-10.83727">
        <ele>359.2</ele>
        <time>2012-05-10T21:10:38Z</time>
      </trkpt>
      <trkpt lat="28.20656" lon="-10.83748">
        <ele>358.6</ele>
        <time>2012-05-10T21:10:43Z</time>
      </trkpt>
      <trkpt lat="28.20633" lon="-10.83778">
        <ele>358.2</ele>
        <time>2012-05-10T21:10:48Z</time>
      </trkpt>
      <trkpt lat="28.20585" lon="-10.83846">
        <ele>357.3</ele>
        <time>2012-05-10T21:10:53Z</time>
      </trkpt>
      <trkpt lat="28.20573" lon="-10.83863">
        <ele>357.3</ele>
        <time>2012-05-10T21:10:58Z</time>
      </trkpt>
      <trkpt lat="28.20552" lon="-10.83887">
        <ele>357.5</ele>
        <time>2012-05-10T21:11:03Z</time>
      </trkpt>
      <trkpt lat="28.20492" lon="-10.83968">
        <ele>357.9</ele>
        <time>2012-05-10T21:11:08Z</time>
      </trkpt>
      <trkpt lat="28.2047" lon="-10.83994">
        <ele>357.8</ele>
        <time>2012-05-10T21:11:13Z</time>
      </trkpt>
      <trkpt lat="28.20436" lon="-10.84039">
        <ele>356.9</ele>
        <time>2012-05-10T21:11:18Z</time>
      </trkpt>
      <trkpt lat="28.20405" lon="-10.84086">
        <ele>356.9</ele>
        <time>2012-05-10T21:11:23Z</time>
      </trkpt>
      <trkpt lat="28.20392" lon="-10.84102">
        <ele>356.8</ele>
        <time>2012-05-10T21:11:28Z</time>
      </trkpt>
      <trkpt lat="28.20386" lon="-10.84128">
        <ele>356.4</ele>
        <time>2012-05-10T21:11:33Z</time>
      </trkpt>
      <trkpt lat="28.20385" lon="-10.84153">
        <ele>354.7</ele>
        <time>2012-05-10T21:11:38Z</time>
      </trkpt>
      <trkpt lat="28.20383" lon="-10.84184">
        <ele>354.3</ele>
        <time>2012-05-10T21:11:43Z</time>
      </trkpt>
      <trkpt lat="28.20378" lon="-10.84209">
        <ele>353.5</ele>
        <time>2012-05-10T21:11:48Z</time>
      </trkpt>
      <trkpt lat="28.20378" lon="-10.84235">
        <ele>353</ele>
        <time>2012-05-10T21:11:53Z</time>
      </trkpt>
      <trkpt lat="28.20375" lon="-10.84261">
        <ele>352.6</ele>
        <time>2012-05-10T21:11:58Z</time>
      </trkpt>
      <trkpt lat="28.20373" lon="-10.84286">
        <ele>352</ele>
        <time>2012-05-10T21:12:03Z</time>
      </trkpt>
      <trkpt lat="28.20372" lon="-10.84323">
        <ele>351.3</ele>
        <time>2012-05-10T21:12:08Z</time>
      </trkpt>
      <trkpt lat="28.20371" lon="-10.84348">
        <ele>350.7</ele>
        <time>2012-05-10T21:12:13Z</time>
      </trkpt>
      <trkpt lat="28.20369" lon="-10.84377">
        <ele>351.1</ele>
        <time>2012-05-10T21:12:18Z</time>
      </trkpt>
      <trkpt lat="28.20357" lon="-10.84402">
        <ele>351.8</ele>
        <time>2012-05-10T21:12:23Z</time>
      </trkpt>
      <trkpt lat="28.20343" lon="-10.84434">
        <ele>351.1</ele>
        <time>2012-05-10T21:12:28Z</time>
      </trkpt>
      <trkpt lat="28.20329" lon="-10.84466">
        <ele>350.5</ele>
        <time>2012-05-10T21:12:33Z</time>
      </trkpt>
      <trkpt lat="28.20321" lon="-10.84489">
        <ele>349.9</ele>
        <time>2012-05-10T21:12:38Z</time>
      </trkpt>
      <trkpt lat="28.20299" lon="-10.84557">
        <ele>348.8</ele>
        <time>2012-05-10T21:12:43Z</time>
      </trkpt>
      <trkpt lat="28.20281" lon="-10.84623">
        <ele>348.5</ele>
        <time>2012-05-10T21:12:48Z</time>
      </trkpt>
      <trkpt lat="28.20273" lon="-10.84654">
        <ele>348.3</ele>
        <time>2012-05-10T21:12:53Z</time>
      </trkpt>
      <trkpt lat="28.20268" lon="-10.84675">
        <ele>348.1</ele>
        <time>2012-05-10T21:12:58Z</time>
      </trkpt>
      <trkpt lat="28.20262" lon="-10.84697">
        <ele>347.9</ele>
        <time>2012-05-10T21:13:03Z</time>
      </trkpt>
      <trkpt lat="28.20254" lon="-10.84719">
        <ele>348</ele>
        <time>2012-05-10T21:13:08Z</time>
      </trkpt>
      <trkpt lat="28.20248" lon="-10.8474">
        <ele>348.2</ele>
        <time>2012-05-10T21:13:13Z</time>
      </trkpt>
      <trkpt lat="28.20243" lon="-10.84766">
        <ele>347.8</ele>
        <time>2012-05-10T21:13:18Z</time>
      </trkpt>
      <trkpt lat="28.20237" lon="-10.84791">
        <ele>347</ele>
        <time>2012-05-10T21:13:23Z</time>
      </trkpt>
      <trkpt lat="28.20226" lon="-10.84811">
        <ele>347.4</ele>
        <time>2012-05-10T21:13:28Z</time>
      </trkpt>
      <trkpt lat="28.20207" lon="-10.84857">
        <ele>346.5</ele>
        <time>2012-05-10T21:13:33Z</time>
      </trkpt>
      <trkpt lat="28.20175" lon="-10.84937">
        <ele>344.4</ele>
        <time>2012-05-10T21:13:38Z</time>
      </trkpt>
      <trkpt lat="28.20159" lon="-10.84972">
        <ele>343.3</ele>
        <time>2012-05-10T21:13:43Z</time>
      </trkpt>
      <trkpt lat="28.20096" lon="-10.85094">
        <ele>340.7</ele>
        <time>2012-05-10T21:13:48Z</time>
      </trkpt>
      <trkpt lat="28.20078" lon="-10.85135">
        <ele>339.2</ele>
        <time>2012-05-10T21:13:53Z</time>
      </trkpt>
      <trkpt lat="28.20065" lon="-10.85167">
        <ele>338.3</ele>
        <time>2012-05-10T21:13:58Z</time>
      </trkpt>
      <trkpt lat="28.20054" lon="-10.85187">
        <ele>338.8</ele>
        <time>2012-05-10T21:14:03Z</time>
      </trkpt>
      <trkpt lat="28.20035" lon="-10.85204">
        <ele>339.9</ele>
        <time>2012-05-10T21:14:08Z</time>
      </trkpt>
      <trkpt lat="28.20019" lon="-10.85216">
        <ele>340.1</ele>
        <time>2012-05-10T21:14:13Z</time>
      </trkpt>
      <trkpt lat="28.19942" lon="-10.85277">
        <ele>339.1</ele>
        <time>2012-05-10T21:14:18Z</time>
      </trkpt>
      <trkpt lat="28.19844" lon="-10.85356">
        <ele>337.7</ele>
        <time>2012-05-10T21:14:23Z</time>
      </trkpt>
      <trkpt lat="28.19825" lon="-10.85375">
        <ele>338</ele>
        <time>2012-05-10T21:14:28Z</time>
      </trkpt>
      <trkpt lat="28.19806" lon="-10.85395">
        <ele>338</ele>
        <time>2012-05-10T21:14:33Z</time>
      </trkpt>
      <trkpt lat="28.1979" lon="-10.85419">
        <ele>337.5</ele>
        <time>2012-05-10T21:14:38Z</time>
      </trkpt>
      <trkpt lat="28.19777" lon="-10.85443">
        <ele>336.4</ele>
        <time>2012-05-10T21:14:43Z</time>
      </trkpt>
      <trkpt lat="28.19762" lon="-10.85467">
        <ele>335.9</ele>
        <time>2012-05-10T21:14:48Z</time>
      </trkpt>
      <trkpt lat="28.19719" lon="-10.85537">
        <ele>335.2</ele>
        <time>2012-05-10T21:14:53Z</time>
      </trkpt>
      <trkpt lat="28.19705" lon="-10.85559">
        <ele>335.2</ele>
        <time>2012-05-10T21:14:58Z</time>
      </trkpt>
      <trkpt lat="28.19675" lon="-10.85613">
        <ele>334.5</ele>
        <time>2012-05-10T21:15:03Z</time>
      </trkpt>
      <trkpt lat="28.19657" lon="-10.85651">
        <ele>332.6</ele>
        <time>2012-05-10T21:15:08Z</time>
      </trkpt>
      <trkpt lat="28.19646" lon="-10.85672">
        <ele>331.6</ele>
        <time>2012-05-10T21:15:13Z</time>
      </trkpt>
      <trkpt lat="28.19637" lon="-10.8569">
        <ele>331.3</ele>
        <time>2012-05-10T21:15:18Z</time>
      </trkpt>
      <trkpt lat="28.19623" lon="-10.85719">
        <ele>331.5</ele>
        <time>2012-05-10T21:15:23Z</time>
      </trkpt>
      <trkpt lat="28.19615" lon="-10.85738">
        <ele>331.9</ele>
        <time>2012-05-10T21:15:28Z</time>
      </trkpt>
      <trkpt lat="28.19607" lon="-10.85758">
        <ele>331.7</ele>
        <time>2012-05-10T21:15:33Z</time>
      </trkpt>
      <trkpt lat="28.19586" lon="-10.85807">
        <ele>329.3</ele>
        <time>2012-05-10T21:15:38Z</time>
      </trkpt>
      <trkpt lat="28.1958" lon="-10.85827">
        <ele>328.5</ele>
        <time>2012-05-10T21:15:43Z</time>
      </trkpt>
      <trkpt lat="28.19572" lon="-10.85846">
        <ele>328.3</ele>
        <time>2012-05-10T21:15:48Z</time>
      </trkpt>
      <trkpt lat="28.19556" lon="-10.8588">
        <ele>327.7</ele>
        <time>2012-05-10T21:15:53Z</time>
      </trkpt>
      <trkpt lat="28.19546" lon="-10.85906">
        <ele>327.5</ele>
        <time>2012-05-10T21:15:58Z</time>
      </trkpt>
      <trkpt lat="28.19497" lon="-10.86017">
        <ele>328.3</ele>
        <time>2012-05-10T21:16:03Z</time>
      </trkpt>
      <trkpt lat="28.19482" lon="-10.86045">
        <ele>328</ele>
        <time>2012-05-10T21:16:08Z</time>
      </trkpt>
      <trkpt lat="28.19404" lon="-10.8619">
        <ele>323.3</ele>
        <time>2012-05-10T21:16:13Z</time>
      </trkpt>
      <trkpt lat="28.19334" lon="-10.86307">
        <ele>321.9</ele>
        <time>2012-05-10T21:16:18Z</time>
      </trkpt>
      <trkpt lat="28.1931" lon="-10.86344">
        <ele>318.7</ele>
        <time>2012-05-10T21:16:23Z</time>
      </trkpt>
      <trkpt lat="28.19281" lon="-10.86394">
        <ele>317.9</ele>
        <time>2012-05-10T21:16:28Z</time>
      </trkpt>
      <trkpt lat="28.19227" lon="-10.8649">
        <ele>317.2</ele>
        <time>2012-05-10T21:16:33Z</time>
      </trkpt>
      <trkpt lat="28.19141" lon="-10.86632">
        <ele>316.9</ele>
        <time>2012-05-10T21:16:38Z</time>
      </trkpt>
      <trkpt lat="28.19123" lon="-10.86651">
        <ele>317.4</ele>
        <time>2012-05-10T21:16:43Z</time>
      </trkpt>
      <trkpt lat="28.19102" lon="-10.8667">
        <ele>317.6</ele>
        <time>2012-05-10T21:16:48Z</time>
      </trkpt>
      <trkpt lat="28.18996" lon="-10.86762">
        <ele>317</ele>
        <time>2012-05-10T21:16:53Z</time>
      </trkpt>
      <trkpt lat="28.18742" lon="-10.8697">
        <ele>313.8</ele>
        <time>2012-05-10T21:16:58Z</time>
      </trkpt>
      <trkpt lat="28.18508" lon="-10.87165">
        <ele>309.3</ele>
        <time>2012-05-10T21:17:03Z</time>
      </trkpt>
      <trkpt lat="28.18485" lon="-10.87187">
        <ele>308.8</ele>
        <time>2012-05-10T21:17:08Z</time>
      </trkpt>
      <trkpt lat="28.18452" lon="-10.8722">
        <ele>308.7</ele>
        <time>2012-05-10T21:17:13Z</time>
      </trkpt>
      <trkpt lat="28.18408" lon="-10.87269">
        <ele>308.8</ele>
        <time>2012-05-10T21:17:18Z</time>
      </trkpt>
      <trkpt lat="28.18377" lon="-10.87305">
        <ele>308.6</ele>
        <time>2012-05-10T21:17:23Z</time>
      </trkpt>
      <trkpt lat="28.18307" lon="-10.87389">
        <ele>308.1</ele>
        <time>2012-05-10T21:17:28Z</time>
      </trkpt>
      <trkpt lat="28.18267" lon="-10.87432">
        <ele>307.5</ele>
        <time>2012-05-10T21:17:33Z</time>
      </trkpt>
      <trkpt lat="28.182" lon="-10.87498">
        <ele>306.9</ele>
        <time>2012-05-10T21:17:38Z</time>
      </trkpt>
      <trkpt lat="28.18169" lon="-10.87531">
        <ele>306.5</ele>
        <time>2012-05-10T21:17:43Z</time>
      </trkpt>
      <trkpt lat="28.18151" lon="-10.87556">
        <ele>306.1</ele>
        <time>2012-05-10T21:17:48Z</time>
      </trkpt>
      <trkpt lat="28.18134" lon="-10.87585">
        <ele>305.7</ele>
        <time>2012-05-10T21:17:53Z</time>
      </trkpt>
      <trkpt lat="28.18118" lon="-10.87618">
        <ele>305.4</ele>
        <time>2012-05-10T21:17:58Z</time>
      </trkpt>
      <trkpt lat="28.17969" lon="-10.87938">
        <ele>298.6</ele>
        <time>2012-05-10T21:18:03Z</time>
      </trkpt>
      <trkpt lat="28.17937" lon="-10.88013">
        <ele>297.5</ele>
        <time>2012-05-10T21:18:08Z</time>
      </trkpt>
      <trkpt lat="28.1793" lon="-10.88035">
        <ele>297.2</ele>
        <time>2012-05-10T21:18:13Z</time>
      </trkpt>
      <trkpt lat="28.17914" lon="-10.88043">
        <ele>297.2</ele>
        <time>2012-05-10T21:18:18Z</time>
      </trkpt>
      <trkpt lat="28.17895" lon="-10.88046">
        <ele>296.7</ele>
        <time>2012-05-10T21:18:23Z</time>
      </trkpt>
      <trkpt lat="28.17874" lon="-10.88052">
        <ele>296.6</ele>
        <time>2012-05-10T21:18:28Z</time>
      </trkpt>
      <trkpt lat="28.17849" lon="-10.88063">
        <ele>296.4</ele>
        <time>2012-05-10T21:18:33Z</time>
      </trkpt>
      <trkpt lat="28.17824" lon="-10.88077">
        <ele>296.2</ele>
        <time>2012-05-10T21:18:38Z</time>
      </trkpt>
      <trkpt lat="28.17797" lon="-10.88095">
        <ele>296.3</ele>
        <time>2012-05-10T21:18:43Z</time>
      </trkpt>
      <trkpt lat="28.17771" lon="-10.88118">
        <ele>296.4</ele>
        <time>2012-05-10T21:18:48Z</time>
      </trkpt>
      <trkpt lat="28.17747" lon="-10.88148">
        <ele>296.3</ele>
        <time>2012-05-10T21:18:53Z</time>
      </trkpt>
      <trkpt lat="28.17735" lon="-10.88164">
        <ele>296.2</ele>
        <time>2012-05-10T21:18:58Z</time>
      </trkpt>
      <trkpt lat="28.17659" lon="-10.88273">
        <ele>294.8</ele>
        <time>2012-05-10T21:19:03Z</time>
      </trkpt>
      <trkpt lat="28.1747" lon="-10.88551">
        <ele>290.3</ele>
        <time>2012-05-10T21:19:08Z</time>
      </trkpt>
      <trkpt lat="28.17443" lon="-10.88586">
        <ele>289.3</ele>
        <time>2012-05-10T21:19:13Z</time>
      </trkpt>
      <trkpt lat="28.17413" lon="-10.88621">
        <ele>289</ele>
        <time>2012-05-10T21:19:18Z</time>
      </trkpt>
      <trkpt lat="28.17397" lon="-10.88637">
        <ele>289</ele>
        <time>2012-05-10T21:19:23Z</time>
      </trkpt>
      <trkpt lat="28.17379" lon="-10.88653">
        <ele>288.9</ele>
        <time>2012-05-10T21:19:28Z</time>
      </trkpt>
      <trkpt lat="28.17362" lon="-10.88667">
        <ele>288.8</ele>
        <time>2012-05-10T21:19:33Z</time>
      </trkpt>
      <trkpt lat="28.17343" lon="-10.88681">
        <ele>288.7</ele>
        <time>2012-05-10T21:19:38Z</time>
      </trkpt>
      <trkpt lat="28.17324" lon="-10.88694">
        <ele>288.6</ele>
        <time>2012-05-10T21:19:43Z</time>
      </trkpt>
      <trkpt lat="28.17304" lon="-10.88706">
        <ele>288.5</ele>
        <time>2012-05-10T21:19:48Z</time>
      </trkpt>
      <trkpt lat="28.17283" lon="-10.88717">
        <ele>288.2</ele>
        <time>2012-05-10T21:19:53Z</time>
      </trkpt>
      <trkpt lat="28.1726" lon="-10.88727">
        <ele>288</ele>
        <time>2012-05-10T21:19:58Z</time>
      </trkpt>
      <trkpt lat="28.17237" lon="-10.88736">
        <ele>287.8</ele>
        <time>2012-05-10T21:20:03Z</time>
      </trkpt>
      <trkpt lat="28.17213" lon="-10.88744">
        <ele>288.1</ele>
        <time>2012-05-10T21:20:08Z</time>
      </trkpt>
      <trkpt lat="28.17188" lon="-10.88751">
        <ele>288.4</ele>
        <time>2012-05-10T21:20:13Z</time>
      </trkpt>
      <trkpt lat="28.17136" lon="-10.88763">
        <ele>288.7</ele>
        <time>2012-05-10T21:20:18Z</time>
      </trkpt>
      <trkpt lat="28.16795" lon="-10.88829">
        <ele>290.2</ele>
        <time>2012-05-10T21:20:23Z</time>
      </trkpt>
      <trkpt lat="28.16746" lon="-10.88837">
        <ele>290</ele>
        <time>2012-05-10T21:20:28Z</time>
      </trkpt>
      <trkpt lat="28.16721" lon="-10.88839">
        <ele>289.2</ele>
        <time>2012-05-10T21:20:33Z</time>
      </trkpt>
      <trkpt lat="28.16695" lon="-10.8884">
        <ele>288.5</ele>
        <time>2012-05-10T21:20:38Z</time>
      </trkpt>
      <trkpt lat="28.16668" lon="-10.88839">
        <ele>287.9</ele>
        <time>2012-05-10T21:20:43Z</time>
      </trkpt>
      <trkpt lat="28.16642" lon="-10.88837">
        <ele>287.4</ele>
        <time>2012-05-10T21:20:48Z</time>
      </trkpt>
      <trkpt lat="28.16443" lon="-10.88825">
        <ele>283.6</ele>
        <time>2012-05-10T21:20:53Z</time>
      </trkpt>
      <trkpt lat="28.16422" lon="-10.88828">
        <ele>283.1</ele>
        <time>2012-05-10T21:20:58Z</time>
      </trkpt>
      <trkpt lat="28.16402" lon="-10.88833">
        <ele>282.9</ele>
        <time>2012-05-10T21:21:03Z</time>
      </trkpt>
      <trkpt lat="28.16381" lon="-10.88842">
        <ele>283.1</ele>
        <time>2012-05-10T21:21:08Z</time>
      </trkpt>
      <trkpt lat="28.16362" lon="-10.88852">
        <ele>283.1</ele>
        <time>2012-05-10T21:21:13Z</time>
      </trkpt>
      <trkpt lat="28.16342" lon="-10.88864">
        <ele>282.9</ele>
        <time>2012-05-10T21:21:18Z</time>
      </trkpt>
      <trkpt lat="28.1628" lon="-10.88904">
        <ele>282.5</ele>
        <time>2012-05-10T21:21:23Z</time>
      </trkpt>
      <trkpt lat="28.16138" lon="-10.88997">
        <ele>280.6</ele>
        <time>2012-05-10T21:21:28Z</time>
      </trkpt>
      <trkpt lat="28.16117" lon="-10.89007">
        <ele>280.3</ele>
        <time>2012-05-10T21:21:33Z</time>
      </trkpt>
      <trkpt lat="28.16097" lon="-10.89017">
        <ele>279.9</ele>
        <time>2012-05-10T21:21:38Z</time>
      </trkpt>
      <trkpt lat="28.16076" lon="-10.89025">
        <ele>279.8</ele>
        <time>2012-05-10T21:21:43Z</time>
      </trkpt>
      <trkpt lat="28.16054" lon="-10.89032">
        <ele>279.6</ele>
        <time>2012-05-10T21:21:48Z</time>
      </trkpt>
      <trkpt lat="28.16009" lon="-10.89044">
        <ele>279</ele>
        <time>2012-05-10T21:21:53Z</time>
      </trkpt>
      <trkpt lat="28.15986" lon="-10.89048">
        <ele>278.9</ele>
        <time>2012-05-10T21:21:58Z</time>
      </trkpt>
      <trkpt lat="28.15963" lon="-10.89052">
        <ele>278.2</ele>
        <time>2012-05-10T21:22:03Z</time>
      </trkpt>
      <trkpt lat="28.15939" lon="-10.89053">
        <ele>277.7</ele>
        <time>2012-05-10T21:22:08Z</time>
      </trkpt>
      <trkpt lat="28.15914" lon="-10.89054">
        <ele>277.2</ele>
        <time>2012-05-10T21:22:13Z</time>
      </trkpt>
      <trkpt lat="28.15613" lon="-10.89051">
        <ele>271.7</ele>
        <time>2012-05-10T21:22:18Z</time>
      </trkpt>
      <trkpt lat="28.1557" lon="-10.89047">
        <ele>271.2</ele>
        <time>2012-05-10T21:22:23Z</time>
      </trkpt>
      <trkpt lat="28.15549" lon="-10.89043">
        <ele>271</ele>
        <time>2012-05-10T21:22:28Z</time>
      </trkpt>
      <trkpt lat="28.15507" lon="-10.89035">
        <ele>270.6</ele>
        <time>2012-05-10T21:22:33Z</time>
      </trkpt>
      <trkpt lat="28.15444" lon="-10.89019">
        <ele>269.9</ele>
        <time>2012-05-10T21:22:38Z</time>
      </trkpt>
      <trkpt lat="28.1538" lon="-10.88999">
        <ele>269.2</ele>
        <time>2012-05-10T21:22:43Z</time>
      </trkpt>
      <trkpt lat="28.15049" lon="-10.88893">
        <ele>269.3</ele>
        <time>2012-05-10T21:22:48Z</time>
      </trkpt>
      <trkpt lat="28.14949" lon="-10.8887">
        <ele>268.5</ele>
        <time>2012-05-10T21:22:53Z</time>
      </trkpt>
      <trkpt lat="28.14897" lon="-10.88862">
        <ele>267.7</ele>
        <time>2012-05-10T21:22:58Z</time>
      </trkpt>
      <trkpt lat="28.14844" lon="-10.88856">
        <ele>266.4</ele>
        <time>2012-05-10T21:23:03Z</time>
      </trkpt>
      <trkpt lat="28.14688" lon="-10.88847">
        <ele>259.7</ele>
        <time>2012-05-10T21:23:08Z</time>
      </trkpt>
      <trkpt lat="28.14247" lon="-10.88839">
        <ele>255.6</ele>
        <time>2012-05-10T21:23:13Z</time>
      </trkpt>
      <trkpt lat="28.14168" lon="-10.8883">
        <ele>255.2</ele>
        <time>2012-05-10T21:23:18Z</time>
      </trkpt>
      <trkpt lat="28.14117" lon="-10.88819">
        <ele>254.6</ele>
        <time>2012-05-10T21:23:23Z</time>
      </trkpt>
      <trkpt lat="28.14041" lon="-10.88799">
        <ele>254.2</ele>
        <time>2012-05-10T21:23:28Z</time>
      </trkpt>
      <trkpt lat="28.13991" lon="-10.88783">
        <ele>254.1</ele>
        <time>2012-05-10T21:23:33Z</time>
      </trkpt>
      <trkpt lat="28.13917" lon="-10.88755">
        <ele>253.8</ele>
        <time>2012-05-10T21:23:38Z</time>
      </trkpt>
      <trkpt lat="28.13695" lon="-10.88668">
        <ele>254.6</ele>
        <time>2012-05-10T21:23:43Z</time>
      </trkpt>
      <trkpt lat="28.13645" lon="-10.88653">
        <ele>254.8</ele>
        <time>2012-05-10T21:23:48Z</time>
      </trkpt>
      <trkpt lat="28.1354" lon="-10.88625">
        <ele>254.3</ele>
        <time>2012-05-10T21:23:53Z</time>
      </trkpt>
      <trkpt lat="28.13488" lon="-10.88615">
        <ele>253.8</ele>
        <time>2012-05-10T21:23:58Z</time>
      </trkpt>
      <trkpt lat="28.13406" lon="-10.88602">
        <ele>252.8</ele>
        <time>2012-05-10T21:24:03Z</time>
      </trkpt>
      <trkpt lat="28.13351" lon="-10.88596">
        <ele>252.3</ele>
        <time>2012-05-10T21:24:08Z</time>
      </trkpt>
      <trkpt lat="28.13267" lon="-10.88592">
        <ele>251</ele>
        <time>2012-05-10T21:24:13Z</time>
      </trkpt>
      <trkpt lat="28.13182" lon="-10.88591">
        <ele>249.4</ele>
        <time>2012-05-10T21:24:18Z</time>
      </trkpt>
      <trkpt lat="28.1265" lon="-10.8859">
        <ele>240.8</ele>
        <time>2012-05-10T21:24:23Z</time>
      </trkpt>
      <trkpt lat="28.12165" lon="-10.88588">
        <ele>237.5</ele>
        <time>2012-05-10T21:24:28Z</time>
      </trkpt>
      <trkpt lat="28.12117" lon="-10.88584">
        <ele>237.3</ele>
        <time>2012-05-10T21:24:33Z</time>
      </trkpt>
      <trkpt lat="28.1207" lon="-10.88578">
        <ele>237</ele>
        <time>2012-05-10T21:24:38Z</time>
      </trkpt>
      <trkpt lat="28.12047" lon="-10.88573">
        <ele>236.8</ele>
        <time>2012-05-10T21:24:43Z</time>
      </trkpt>
      <trkpt lat="28.12025" lon="-10.88568">
        <ele>236.7</ele>
        <time>2012-05-10T21:24:48Z</time>
      </trkpt>
      <trkpt lat="28.1198" lon="-10.88555">
        <ele>236.9</ele>
        <time>2012-05-10T21:24:53Z</time>
      </trkpt>
      <trkpt lat="28.11912" lon="-10.88533">
        <ele>237.4</ele>
        <time>2012-05-10T21:24:58Z</time>
      </trkpt>
      <trkpt lat="28.11867" lon="-10.88516">
        <ele>237.5</ele>
        <time>2012-05-10T21:25:03Z</time>
      </trkpt>
      <trkpt lat="28.11824" lon="-10.88496">
        <ele>237.7</ele>
        <time>2012-05-10T21:25:08Z</time>
      </trkpt>
      <trkpt lat="28.11783" lon="-10.88474">
        <ele>237.4</ele>
        <time>2012-05-10T21:25:13Z</time>
      </trkpt>
      <trkpt lat="28.11763" lon="-10.88462">
        <ele>237.3</ele>
        <time>2012-05-10T21:25:18Z</time>
      </trkpt>
      <trkpt lat="28.11724" lon="-10.88436">
        <ele>236.9</ele>
        <time>2012-05-10T21:25:23Z</time>
      </trkpt>
      <trkpt lat="28.11667" lon="-10.88393">
        <ele>237.3</ele>
        <time>2012-05-10T21:25:28Z</time>
      </trkpt>
      <trkpt lat="28.11464" lon="-10.8824">
        <ele>241.8</ele>
        <time>2012-05-10T21:25:33Z</time>
      </trkpt>
      <trkpt lat="28.1141" lon="-10.88205">
        <ele>242.5</ele>
        <time>2012-05-10T21:25:38Z</time>
      </trkpt>
      <trkpt lat="28.11391" lon="-10.88194">
        <ele>242.7</ele>
        <time>2012-05-10T21:25:43Z</time>
      </trkpt>
      <trkpt lat="28.11372" lon="-10.88185">
        <ele>242.9</ele>
        <time>2012-05-10T21:25:48Z</time>
      </trkpt>
      <trkpt lat="28.11353" lon="-10.88177">
        <ele>243</ele>
        <time>2012-05-10T21:25:53Z</time>
      </trkpt>
      <trkpt lat="28.11334" lon="-10.8817">
        <ele>243.1</ele>
        <time>2012-05-10T21:25:58Z</time>
      </trkpt>
      <trkpt lat="28.11314" lon="-10.88164">
        <ele>243.1</ele>
        <time>2012-05-10T21:26:03Z</time>
      </trkpt>
      <trkpt lat="28.11274" lon="-10.88152">
        <ele>242.9</ele>
        <time>2012-05-10T21:26:08Z</time>
      </trkpt>
      <trkpt lat="28.10885" lon="-10.88047">
        <ele>235.9</ele>
        <time>2012-05-10T21:26:13Z</time>
      </trkpt>
      <trkpt lat="28.10762" lon="-10.88017">
        <ele>234.7</ele>
        <time>2012-05-10T21:26:18Z</time>
      </trkpt>
      <trkpt lat="28.10729" lon="-10.88018">
        <ele>234.8</ele>
        <time>2012-05-10T21:26:23Z</time>
      </trkpt>
      <trkpt lat="28.10698" lon="-10.88032">
        <ele>235.4</ele>
        <time>2012-05-10T21:26:28Z</time>
      </trkpt>
      <trkpt lat="28.10668" lon="-10.88052">
        <ele>236</ele>
        <time>2012-05-10T21:26:33Z</time>
      </trkpt>
      <trkpt lat="28.10622" lon="-10.88086">
        <ele>237.1</ele>
        <time>2012-05-10T21:26:38Z</time>
      </trkpt>
      <trkpt lat="28.1033" lon="-10.88318">
        <ele>239</ele>
        <time>2012-05-10T21:26:43Z</time>
      </trkpt>
      <trkpt lat="28.10271" lon="-10.8837">
        <ele>239.1</ele>
        <time>2012-05-10T21:26:48Z</time>
      </trkpt>
      <trkpt lat="28.10257" lon="-10.88384">
        <ele>239.2</ele>
        <time>2012-05-10T21:26:53Z</time>
      </trkpt>
      <trkpt lat="28.10244" lon="-10.88398">
        <ele>239.3</ele>
        <time>2012-05-10T21:26:58Z</time>
      </trkpt>
      <trkpt lat="28.10232" lon="-10.88413">
        <ele>239.2</ele>
        <time>2012-05-10T21:27:03Z</time>
      </trkpt>
      <trkpt lat="28.10208" lon="-10.88446">
        <ele>239.4</ele>
        <time>2012-05-10T21:27:08Z</time>
      </trkpt>
      <trkpt lat="28.09946" lon="-10.88818">
        <ele>240.3</ele>
        <time>2012-05-10T21:27:13Z</time>
      </trkpt>
      <trkpt lat="28.09774" lon="-10.89061">
        <ele>243.9</ele>
        <time>2012-05-10T21:27:18Z</time>
      </trkpt>
      <trkpt lat="28.09759" lon="-10.89077">
        <ele>244.5</ele>
        <time>2012-05-10T21:27:23Z</time>
      </trkpt>
      <trkpt lat="28.09728" lon="-10.89108">
        <ele>245.3</ele>
        <time>2012-05-10T21:27:28Z</time>
      </trkpt>
      <trkpt lat="28.09712" lon="-10.89123">
        <ele>245.7</ele>
        <time>2012-05-10T21:27:33Z</time>
      </trkpt>
      <trkpt lat="28.09695" lon="-10.89137">
        <ele>246.1</ele>
        <time>2012-05-10T21:27:38Z</time>
      </trkpt>
      <trkpt lat="28.09678" lon="-10.8915">
        <ele>246.5</ele>
        <time>2012-05-10T21:27:43Z</time>
      </trkpt>
      <trkpt lat="28.09642" lon="-10.89175">
        <ele>247.4</ele>
        <time>2012-05-10T21:27:48Z</time>
      </trkpt>
      <trkpt lat="28.09284" lon="-10.89413">
        <ele>256.8</ele>
        <time>2012-05-10T21:27:53Z</time>
      </trkpt>
      <trkpt lat="28.09265" lon="-10.89422">
        <ele>257.2</ele>
        <time>2012-05-10T21:27:58Z</time>
      </trkpt>
      <trkpt lat="28.09246" lon="-10.89429">
        <ele>257.4</ele>
        <time>2012-05-10T21:28:03Z</time>
      </trkpt>
      <trkpt lat="28.09227" lon="-10.89434">
        <ele>258</ele>
        <time>2012-05-10T21:28:08Z</time>
      </trkpt>
      <trkpt lat="28.09207" lon="-10.89436">
        <ele>258</ele>
        <time>2012-05-10T21:28:13Z</time>
      </trkpt>
      <trkpt lat="28.09187" lon="-10.89436">
        <ele>257.9</ele>
        <time>2012-05-10T21:28:18Z</time>
      </trkpt>
      <trkpt lat="28.09167" lon="-10.89434">
        <ele>257.8</ele>
        <time>2012-05-10T21:28:23Z</time>
      </trkpt>
      <trkpt lat="28.09147" lon="-10.8943">
        <ele>257.8</ele>
        <time>2012-05-10T21:28:28Z</time>
      </trkpt>
      <trkpt lat="28.09128" lon="-10.89424">
        <ele>257.8</ele>
        <time>2012-05-10T21:28:33Z</time>
      </trkpt>
      <trkpt lat="28.09109" lon="-10.89417">
        <ele>257.6</ele>
        <time>2012-05-10T21:28:38Z</time>
      </trkpt>
      <trkpt lat="28.09091" lon="-10.89409">
        <ele>257.6</ele>
        <time>2012-05-10T21:28:43Z</time>
      </trkpt>
      <trkpt lat="28.09073" lon="-10.894">
        <ele>257.4</ele>
        <time>2012-05-10T21:28:48Z</time>
      </trkpt>
      <trkpt lat="28.09055" lon="-10.89388">
        <ele>257.4</ele>
        <time>2012-05-10T21:28:53Z</time>
      </trkpt>
      <trkpt lat="28.09039" lon="-10.89374">
        <ele>257.3</ele>
        <time>2012-05-10T21:28:58Z</time>
      </trkpt>
      <trkpt lat="28.09024" lon="-10.89358">
        <ele>257.4</ele>
        <time>2012-05-10T21:29:03Z</time>
      </trkpt>
      <trkpt lat="28.0901" lon="-10.89341">
        <ele>257.5</ele>
        <time>2012-05-10T21:29:08Z</time>
      </trkpt>
      <trkpt lat="28.0867" lon="-10.88936">
        <ele>269</ele>
        <time>2012-05-10T21:29:13Z</time>
      </trkpt>
      <trkpt lat="28.08517" lon="-10.88756">
        <ele>273.5</ele>
        <time>2012-05-10T21:29:18Z</time>
      </trkpt>
      <trkpt lat="28.08482" lon="-10.88719">
        <ele>274.4</ele>
        <time>2012-05-10T21:29:23Z</time>
      </trkpt>
      <trkpt lat="28.08427" lon="-10.88667">
        <ele>275.4</ele>
        <time>2012-05-10T21:29:28Z</time>
      </trkpt>
      <trkpt lat="28.08389" lon="-10.88635">
        <ele>275.7</ele>
        <time>2012-05-10T21:29:33Z</time>
      </trkpt>
      <trkpt lat="28.08349" lon="-10.88605">
        <ele>275.3</ele>
        <time>2012-05-10T21:29:38Z</time>
      </trkpt>
      <trkpt lat="28.08307" lon="-10.88577">
        <ele>274.4</ele>
        <time>2012-05-10T21:29:43Z</time>
      </trkpt>
      <trkpt lat="28.08263" lon="-10.88551">
        <ele>273.1</ele>
        <time>2012-05-10T21:29:48Z</time>
      </trkpt>
      <trkpt lat="28.0824" lon="-10.88539">
        <ele>272.6</ele>
        <time>2012-05-10T21:29:53Z</time>
      </trkpt>
      <trkpt lat="28.08194" lon="-10.88517">
        <ele>271.6</ele>
        <time>2012-05-10T21:29:58Z</time>
      </trkpt>
      <trkpt lat="28.08034" lon="-10.88438">
        <ele>266.2</ele>
        <time>2012-05-10T21:30:03Z</time>
      </trkpt>
      <trkpt lat="28.07562" lon="-10.882">
        <ele>255.7</ele>
        <time>2012-05-10T21:30:08Z</time>
      </trkpt>
      <trkpt lat="28.07352" lon="-10.88092">
        <ele>254.3</ele>
        <time>2012-05-10T21:30:13Z</time>
      </trkpt>
      <trkpt lat="28.07259" lon="-10.88036">
        <ele>251.9</ele>
        <time>2012-05-10T21:30:18Z</time>
      </trkpt>
      <trkpt lat="28.06867" lon="-10.87782">
        <ele>247.8</ele>
        <time>2012-05-10T21:30:23Z</time>
      </trkpt>
      <trkpt lat="28.0677" lon="-10.87711">
        <ele>247.6</ele>
        <time>2012-05-10T21:30:28Z</time>
      </trkpt>
      <trkpt lat="28.06674" lon="-10.87637">
        <ele>248.2</ele>
        <time>2012-05-10T21:30:33Z</time>
      </trkpt>
      <trkpt lat="28.06628" lon="-10.87596">
        <ele>247.9</ele>
        <time>2012-05-10T21:30:38Z</time>
      </trkpt>
      <trkpt lat="28.06538" lon="-10.87507">
        <ele>246.1</ele>
        <time>2012-05-10T21:30:43Z</time>
      </trkpt>
      <trkpt lat="28.06448" lon="-10.87413">
        <ele>245.3</ele>
        <time>2012-05-10T21:30:48Z</time>
      </trkpt>
      <trkpt lat="28.06002" lon="-10.86916">
        <ele>246.2</ele>
        <time>2012-05-10T21:30:53Z</time>
      </trkpt>
      <trkpt lat="28.05544" lon="-10.86403">
        <ele>250.8</ele>
        <time>2012-05-10T21:30:58Z</time>
      </trkpt>
      <trkpt lat="28.05135" lon="-10.85943">
        <ele>256</ele>
        <time>2012-05-10T21:31:03Z</time>
      </trkpt>
      <trkpt lat="28.0472" lon="-10.85478">
        <ele>258.6</ele>
        <time>2012-05-10T21:31:08Z</time>
      </trkpt>
      <trkpt lat="28.04665" lon="-10.8541">
        <ele>259</ele>
        <time>2012-05-10T21:31:13Z</time>
      </trkpt>
      <trkpt lat="28.0463" lon="-10.85364">
        <ele>258.9</ele>
        <time>2012-05-10T21:31:18Z</time>
      </trkpt>
      <trkpt lat="28.04515" lon="-10.85197">
        <ele>258.3</ele>
        <time>2012-05-10T21:31:23Z</time>
      </trkpt>
      <trkpt lat="28.04194" lon="-10.84716">
        <ele>258</ele>
        <time>2012-05-10T21:31:28Z</time>
      </trkpt>
      <trkpt lat="28.03856" lon="-10.84211">
        <ele>259.5</ele>
        <time>2012-05-10T21:31:33Z</time>
      </trkpt>
      <trkpt lat="28.03532" lon="-10.83728">
        <ele>261.6</ele>
        <time>2012-05-10T21:31:38Z</time>
      </trkpt>
      <trkpt lat="28.03197" lon="-10.83228">
        <ele>263.8</ele>
        <time>2012-05-10T21:31:43Z</time>
      </trkpt>
      <trkpt lat="28.02883" lon="-10.82757">
        <ele>265.8</ele>
        <time>2012-05-10T21:31:48Z</time>
      </trkpt>
      <trkpt lat="28.0281" lon="-10.8265">
        <ele>266.5</ele>
        <time>2012-05-10T21:31:53Z</time>
      </trkpt>
      <trkpt lat="28.02778" lon="-10.82611">
        <ele>266.7</ele>
        <time>2012-05-10T21:31:58Z</time>
      </trkpt>
      <trkpt lat="28.02744" lon="-10.82573">
        <ele>267.3</ele>
        <time>2012-05-10T21:32:03Z</time>
      </trkpt>
      <trkpt lat="28.02675" lon="-10.82501">
        <ele>268.2</ele>
        <time>2012-05-10T21:32:08Z</time>
      </trkpt>
      <trkpt lat="28.02604" lon="-10.82433">
        <ele>269</ele>
        <time>2012-05-10T21:32:13Z</time>
      </trkpt>
      <trkpt lat="28.02248" lon="-10.8211">
        <ele>269.6</ele>
        <time>2012-05-10T21:32:18Z</time>
      </trkpt>
      <trkpt lat="28.01938" lon="-10.8183">
        <ele>271.7</ele>
        <time>2012-05-10T21:32:23Z</time>
      </trkpt>
      <trkpt lat="28.01917" lon="-10.81807">
        <ele>272</ele>
        <time>2012-05-10T21:32:28Z</time>
      </trkpt>
      <trkpt lat="28.01899" lon="-10.81781">
        <ele>272.4</ele>
        <time>2012-05-10T21:32:33Z</time>
      </trkpt>
      <trkpt lat="28.01885" lon="-10.81752">
        <ele>272.6</ele>
        <time>2012-05-10T21:32:38Z</time>
      </trkpt>
      <trkpt lat="28.01865" lon="-10.81708">
        <ele>272.9</ele>
        <time>2012-05-10T21:32:43Z</time>
      </trkpt>
      <trkpt lat="28.01848" lon="-10.81683">
        <ele>273.1</ele>
        <time>2012-05-10T21:32:48Z</time>
      </trkpt>
      <trkpt lat="28.01824" lon="-10.81665">
        <ele>273.5</ele>
        <time>2012-05-10T21:32:53Z</time>
      </trkpt>
      <trkpt lat="28.01796" lon="-10.81653">
        <ele>273.5</ele>
        <time>2012-05-10T21:32:58Z</time>
      </trkpt>
      <trkpt lat="28.01682" lon="-10.8161">
        <ele>273.1</ele>
        <time>2012-05-10T21:33:03Z</time>
      </trkpt>
      <trkpt lat="28.01655" lon="-10.81594">
        <ele>272.7</ele>
        <time>2012-05-10T21:33:08Z</time>
      </trkpt>
      <trkpt lat="28.01629" lon="-10.81573">
        <ele>272.4</ele>
        <time>2012-05-10T21:33:13Z</time>
      </trkpt>
      <trkpt lat="28.01516" lon="-10.8148">
        <ele>272</ele>
        <time>2012-05-10T21:33:18Z</time>
      </trkpt>
      <trkpt lat="28.01491" lon="-10.81456">
        <ele>273.3</ele>
        <time>2012-05-10T21:33:23Z</time>
      </trkpt>
      <trkpt lat="28.01477" lon="-10.81441">
        <ele>274.3</ele>
        <time>2012-05-10T21:33:28Z</time>
      </trkpt>
      <trkpt lat="28.01466" lon="-10.81425">
        <ele>275.2</ele>
        <time>2012-05-10T21:33:33Z</time>
      </trkpt>
      <trkpt lat="28.01458" lon="-10.81406">
        <ele>277</ele>
        <time>2012-05-10T21:33:38Z</time>
      </trkpt>
      <trkpt lat="28.01437" lon="-10.81403">
        <ele>278.9</ele>
        <time>2012-05-10T21:33:43Z</time>
      </trkpt>
      <trkpt lat="28.01417" lon="-10.81413">
        <ele>279</ele>
        <time>2012-05-10T21:33:48Z</time>
      </trkpt>
      <trkpt lat="28.01401" lon="-10.81434">
        <ele>276.5</ele>
        <time>2012-05-10T21:33:53Z</time>
      </trkpt>
      <trkpt lat="28.01379" lon="-10.81464">
        <ele>275.1</ele>
        <time>2012-05-10T21:33:58Z</time>
      </trkpt>
      <trkpt lat="28.01359" lon="-10.81476">
        <ele>275</ele>
        <time>2012-05-10T21:34:03Z</time>
      </trkpt>
      <trkpt lat="28.01339" lon="-10.81484">
        <ele>275.7</ele>
        <time>2012-05-10T21:34:08Z</time>
      </trkpt>
      <trkpt lat="28.01321" lon="-10.81493">
        <ele>275.9</ele>
        <time>2012-05-10T21:34:13Z</time>
      </trkpt>
      <trkpt lat="28.01299" lon="-10.81494">
        <ele>274.6</ele>
        <time>2012-05-10T21:34:18Z</time>
      </trkpt>
      <trkpt lat="28.01283" lon="-10.81506">
        <ele>272.5</ele>
        <time>2012-05-10T21:34:23Z</time>
      </trkpt>
      <trkpt lat="28.01271" lon="-10.81522">
        <ele>271.9</ele>
        <time>2012-05-10T21:34:28Z</time>
      </trkpt>
      <trkpt lat="28.01253" lon="-10.81536">
        <ele>272</ele>
        <time>2012-05-10T21:34:33Z</time>
      </trkpt>
      <trkpt lat="28.01233" lon="-10.81546">
        <ele>272.7</ele>
        <time>2012-05-10T21:34:38Z</time>
      </trkpt>
      <trkpt lat="28.01204" lon="-10.81558">
        <ele>273.4</ele>
        <time>2012-05-10T21:34:43Z</time>
      </trkpt>
      <trkpt lat="28.0117" lon="-10.81563">
        <ele>273.3</ele>
        <time>2012-05-10T21:34:48Z</time>
      </trkpt>
      <trkpt lat="28.01143" lon="-10.81563">
        <ele>273.3</ele>
        <time>2012-05-10T21:34:53Z</time>
      </trkpt>
      <trkpt lat="28.01117" lon="-10.81565">
        <ele>272.7</ele>
        <time>2012-05-10T21:34:58Z</time>
      </trkpt>
      <trkpt lat="28.01083" lon="-10.81568">
        <ele>272</ele>
        <time>2012-05-10T21:35:03Z</time>
      </trkpt>
      <trkpt lat="28.01057" lon="-10.81563">
        <ele>272.2</ele>
        <time>2012-05-10T21:35:08Z</time>
      </trkpt>
      <trkpt lat="28.0103" lon="-10.81554">
        <ele>272.3</ele>
        <time>2012-05-10T21:35:13Z</time>
      </trkpt>
      <trkpt lat="28.01012" lon="-10.81547">
        <ele>271.7</ele>
        <time>2012-05-10T21:35:18Z</time>
      </trkpt>
      <trkpt lat="28.00994" lon="-10.81538">
        <ele>271.8</ele>
        <time>2012-05-10T21:35:23Z</time>
      </trkpt>
      <trkpt lat="28.00976" lon="-10.81531">
        <ele>271.9</ele>
        <time>2012-05-10T21:35:28Z</time>
      </trkpt>
      <trkpt lat="28.00958" lon="-10.8153">
        <ele>272.5</ele>
        <time>2012-05-10T21:35:33Z</time>
      </trkpt>
      <trkpt lat="28.00939" lon="-10.8153">
        <ele>272.3</ele>
        <time>2012-05-10T21:35:38Z</time>
      </trkpt>
      <trkpt lat="28.00921" lon="-10.81524">
        <ele>272.7</ele>
        <time>2012-05-10T21:35:43Z</time>
      </trkpt>
      <trkpt lat="28.00899" lon="-10.8151">
        <ele>272.5</ele>
        <time>2012-05-10T21:35:48Z</time>
      </trkpt>
      <trkpt lat="28.00879" lon="-10.81499">
        <ele>272.3</ele>
        <time>2012-05-10T21:35:53Z</time>
      </trkpt>
      <trkpt lat="28.00857" lon="-10.81497">
        <ele>272.6</ele>
        <time>2012-05-10T21:35:58Z</time>
      </trkpt>
      <trkpt lat="28.00835" lon="-10.81491">
        <ele>272.2</ele>
        <time>2012-05-10T21:36:03Z</time>
      </trkpt>
      <trkpt lat="28.00813" lon="-10.81484">
        <ele>271.9</ele>
        <time>2012-05-10T21:36:08Z</time>
      </trkpt>
      <trkpt lat="28.00765" lon="-10.81473">
        <ele>271.2</ele>
        <time>2012-05-10T21:36:13Z</time>
      </trkpt>
      <trkpt lat="28.00743" lon="-10.81475">
        <ele>273.3</ele>
        <time>2012-05-10T21:36:18Z</time>
      </trkpt>
      <trkpt lat="28.00719" lon="-10.81474">
        <ele>274.6</ele>
        <time>2012-05-10T21:36:23Z</time>
      </trkpt>
      <trkpt lat="28.00699" lon="-10.81468">
        <ele>274.7</ele>
        <time>2012-05-10T21:36:28Z</time>
      </trkpt>
      <trkpt lat="28.00677" lon="-10.81464">
        <ele>274.9</ele>
        <time>2012-05-10T21:36:33Z</time>
      </trkpt>
      <trkpt lat="28.00654" lon="-10.81457">
        <ele>274.7</ele>
        <time>2012-05-10T21:36:38Z</time>
      </trkpt>
      <trkpt lat="28.00631" lon="-10.81442">
        <ele>274.6</ele>
        <time>2012-05-10T21:36:43Z</time>
      </trkpt>
      <trkpt lat="28.00606" lon="-10.81434">
        <ele>274.9</ele>
        <time>2012-05-10T21:36:48Z</time>
      </trkpt>
      <trkpt lat="28.00587" lon="-10.81431">
        <ele>275.5</ele>
        <time>2012-05-10T21:36:53Z</time>
      </trkpt>
      <trkpt lat="28.00568" lon="-10.81433">
        <ele>275.9</ele>
        <time>2012-05-10T21:36:58Z</time>
      </trkpt>
      <trkpt lat="28.0055" lon="-10.81431">
        <ele>276.3</ele>
        <time>2012-05-10T21:37:03Z</time>
      </trkpt>
      <trkpt lat="28.00526" lon="-10.81417">
        <ele>276.5</ele>
        <time>2012-05-10T21:37:08Z</time>
      </trkpt>
      <trkpt lat="28.00508" lon="-10.81409">
        <ele>276.6</ele>
        <time>2012-05-10T21:37:13Z</time>
      </trkpt>
      <trkpt lat="28.00489" lon="-10.81403">
        <ele>276.9</ele>
        <time>2012-05-10T21:37:18Z</time>
      </trkpt>
      <trkpt lat="28.00469" lon="-10.81403">
        <ele>277.4</ele>
        <time>2012-05-10T21:37:23Z</time>
      </trkpt>
      <trkpt lat="28.00449" lon="-10.814">
        <ele>277.8</ele>
        <time>2012-05-10T21:37:28Z</time>
      </trkpt>
      <trkpt lat="28.00428" lon="-10.81397">
        <ele>277.8</ele>
        <time>2012-05-10T21:37:33Z</time>
      </trkpt>
      <trkpt lat="28.00395" lon="-10.81393">
        <ele>278.1</ele>
        <time>2012-05-10T21:37:38Z</time>
      </trkpt>
      <trkpt lat="28.00362" lon="-10.81389">
        <ele>278.2</ele>
        <time>2012-05-10T21:37:43Z</time>
      </trkpt>
      <trkpt lat="28.00341" lon="-10.81388">
        <ele>278.8</ele>
        <time>2012-05-10T21:37:48Z</time>
      </trkpt>
      <trkpt lat="28.0032" lon="-10.81383">
        <ele>279</ele>
        <time>2012-05-10T21:37:53Z</time>
      </trkpt>
      <trkpt lat="28.00301" lon="-10.81378">
        <ele>279.5</ele>
        <time>2012-05-10T21:37:58Z</time>
      </trkpt>
      <trkpt lat="28.00281" lon="-10.81378">
        <ele>279.9</ele>
        <time>2012-05-10T21:38:03Z</time>
      </trkpt>
      <trkpt lat="28.00261" lon="-10.81381">
        <ele>280</ele>
        <time>2012-05-10T21:38:08Z</time>
      </trkpt>
      <trkpt lat="28.00239" lon="-10.81381">
        <ele>280.2</ele>
        <time>2012-05-10T21:38:13Z</time>
      </trkpt>
      <trkpt lat="28.00217" lon="-10.81377">
        <ele>280.4</ele>
        <time>2012-05-10T21:38:18Z</time>
      </trkpt>
      <trkpt lat="28.00195" lon="-10.81377">
        <ele>280.4</ele>
        <time>2012-05-10T21:38:23Z</time>
      </trkpt>
      <trkpt lat="28.00172" lon="-10.81383">
        <ele>280.8</ele>
        <time>2012-05-10T21:38:28Z</time>
      </trkpt>
      <trkpt lat="28.00136" lon="-10.81394">
        <ele>281.3</ele>
        <time>2012-05-10T21:38:33Z</time>
      </trkpt>
      <trkpt lat="28.0011" lon="-10.81397">
        <ele>281.7</ele>
        <time>2012-05-10T21:38:38Z</time>
      </trkpt>
      <trkpt lat="28.00085" lon="-10.81401">
        <ele>282.1</ele>
        <time>2012-05-10T21:38:43Z</time>
      </trkpt>
      <trkpt lat="28.0006" lon="-10.81409">
        <ele>282.7</ele>
        <time>2012-05-10T21:38:48Z</time>
      </trkpt>
      <trkpt lat="28.00036" lon="-10.81415">
        <ele>283</ele>
        <time>2012-05-10T21:38:53Z</time>
      </trkpt>
      <trkpt lat="28.00012" lon="-10.81419">
        <ele>283.3</ele>
        <time>2012-05-10T21:38:58Z</time>
      </trkpt>
      <trkpt lat="27.9999" lon="-10.81421">
        <ele>282.9</ele>
        <time>2012-05-10T21:39:03Z</time>
      </trkpt>
      <trkpt lat="27.99966" lon="-10.81425">
        <ele>283</ele>
        <time>2012-05-10T21:39:08Z</time>
      </trkpt>
      <trkpt lat="27.99943" lon="-10.81433">
        <ele>282.9</ele>
        <time>2012-05-10T21:39:13Z</time>
      </trkpt>
      <trkpt lat="27.9992" lon="-10.81445">
        <ele>282.8</ele>
        <time>2012-05-10T21:39:18Z</time>
      </trkpt>
      <trkpt lat="27.99885" lon="-10.81464">
        <ele>283.6</ele>
        <time>2012-05-10T21:39:23Z</time>
      </trkpt>
      <trkpt lat="27.9985" lon="-10.8148">
        <ele>284.8</ele>
        <time>2012-05-10T21:39:28Z</time>
      </trkpt>
      <trkpt lat="27.99829" lon="-10.81495">
        <ele>285</ele>
        <time>2012-05-10T21:39:33Z</time>
      </trkpt>
      <trkpt lat="27.99811" lon="-10.81514">
        <ele>285.1</ele>
        <time>2012-05-10T21:39:38Z</time>
      </trkpt>
      <trkpt lat="27.99791" lon="-10.81529">
        <ele>285.6</ele>
        <time>2012-05-10T21:39:43Z</time>
      </trkpt>
      <trkpt lat="27.99772" lon="-10.81544">
        <ele>286.1</ele>
        <time>2012-05-10T21:39:48Z</time>
      </trkpt>
      <trkpt lat="27.99754" lon="-10.81559">
        <ele>286.1</ele>
        <time>2012-05-10T21:39:53Z</time>
      </trkpt>
      <trkpt lat="27.99737" lon="-10.81576">
        <ele>286.4</ele>
        <time>2012-05-10T21:39:58Z</time>
      </trkpt>
      <trkpt lat="27.99723" lon="-10.81596">
        <ele>286.5</ele>
        <time>2012-05-10T21:40:03Z</time>
      </trkpt>
      <trkpt lat="27.99707" lon="-10.81612">
        <ele>285.8</ele>
        <time>2012-05-10T21:40:08Z</time>
      </trkpt>
      <trkpt lat="27.99692" lon="-10.8163">
        <ele>286</ele>
        <time>2012-05-10T21:40:13Z</time>
      </trkpt>
      <trkpt lat="27.99677" lon="-10.8165">
        <ele>287</ele>
        <time>2012-05-10T21:40:18Z</time>
      </trkpt>
      <trkpt lat="27.9966" lon="-10.81668">
        <ele>287.4</ele>
        <time>2012-05-10T21:40:23Z</time>
      </trkpt>
      <trkpt lat="27.9964" lon="-10.81684">
        <ele>287.5</ele>
        <time>2012-05-10T21:40:28Z</time>
      </trkpt>
      <trkpt lat="27.99618" lon="-10.81697">
        <ele>287.7</ele>
        <time>2012-05-10T21:40:33Z</time>
      </trkpt>
      <trkpt lat="27.99597" lon="-10.81711">
        <ele>288.1</ele>
        <time>2012-05-10T21:40:38Z</time>
      </trkpt>
      <trkpt lat="27.99577" lon="-10.81729">
        <ele>288.7</ele>
        <time>2012-05-10T21:40:43Z</time>
      </trkpt>
      <trkpt lat="27.99554" lon="-10.81744">
        <ele>288.9</ele>
        <time>2012-05-10T21:40:48Z</time>
      </trkpt>
      <trkpt lat="27.9953" lon="-10.81759">
        <ele>289.3</ele>
        <time>2012-05-10T21:40:53Z</time>
      </trkpt>
      <trkpt lat="27.99509" lon="-10.81777">
        <ele>289.7</ele>
        <time>2012-05-10T21:40:58Z</time>
      </trkpt>
      <trkpt lat="27.99488" lon="-10.81794">
        <ele>289.9</ele>
        <time>2012-05-10T21:41:03Z</time>
      </trkpt>
      <trkpt lat="27.99465" lon="-10.81805">
        <ele>290.2</ele>
        <time>2012-05-10T21:41:08Z</time>
      </trkpt>
      <trkpt lat="27.99443" lon="-10.81818">
        <ele>290.6</ele>
        <time>2012-05-10T21:41:13Z</time>
      </trkpt>
      <trkpt lat="27.99423" lon="-10.81835">
        <ele>290.7</ele>
        <time>2012-05-10T21:41:18Z</time>
      </trkpt>
      <trkpt lat="27.99403" lon="-10.81847">
        <ele>291</ele>
        <time>2012-05-10T21:41:23Z</time>
      </trkpt>
      <trkpt lat="27.99384" lon="-10.81859">
        <ele>291.7</ele>
        <time>2012-05-10T21:41:28Z</time>
      </trkpt>
      <trkpt lat="27.9937" lon="-10.81878">
        <ele>291.7</ele>
        <time>2012-05-10T21:41:33Z</time>
      </trkpt>
      <trkpt lat="27.99354" lon="-10.81895">
        <ele>291.8</ele>
        <time>2012-05-10T21:41:38Z</time>
      </trkpt>
      <trkpt lat="27.99341" lon="-10.81913">
        <ele>291.9</ele>
        <time>2012-05-10T21:41:43Z</time>
      </trkpt>
      <trkpt lat="27.99327" lon="-10.81931">
        <ele>291.7</ele>
        <time>2012-05-10T21:41:48Z</time>
      </trkpt>
      <trkpt lat="27.99311" lon="-10.81945">
        <ele>291.8</ele>
        <time>2012-05-10T21:41:53Z</time>
      </trkpt>
      <trkpt lat="27.99298" lon="-10.81964">
        <ele>291.6</ele>
        <time>2012-05-10T21:41:58Z</time>
      </trkpt>
      <trkpt lat="27.99283" lon="-10.81983">
        <ele>291.8</ele>
        <time>2012-05-10T21:42:03Z</time>
      </trkpt>
      <trkpt lat="27.9926" lon="-10.82008">
        <ele>292.3</ele>
        <time>2012-05-10T21:42:08Z</time>
      </trkpt>
      <trkpt lat="27.99248" lon="-10.82027">
        <ele>292.4</ele>
        <time>2012-05-10T21:42:13Z</time>
      </trkpt>
      <trkpt lat="27.99231" lon="-10.82043">
        <ele>292.1</ele>
        <time>2012-05-10T21:42:18Z</time>
      </trkpt>
      <trkpt lat="27.99216" lon="-10.82059">
        <ele>292.2</ele>
        <time>2012-05-10T21:42:23Z</time>
      </trkpt>
      <trkpt lat="27.99195" lon="-10.82082">
        <ele>292.6</ele>
        <time>2012-05-10T21:42:28Z</time>
      </trkpt>
      <trkpt lat="27.99186" lon="-10.82099">
        <ele>292.4</ele>
        <time>2012-05-10T21:42:33Z</time>
      </trkpt>
      <trkpt lat="27.99172" lon="-10.82114">
        <ele>292.5</ele>
        <time>2012-05-10T21:42:38Z</time>
      </trkpt>
      <trkpt lat="27.99155" lon="-10.82126">
        <ele>292.4</ele>
        <time>2012-05-10T21:42:43Z</time>
      </trkpt>
      <trkpt lat="27.99136" lon="-10.82139">
        <ele>292.5</ele>
        <time>2012-05-10T21:42:48Z</time>
      </trkpt>
      <trkpt lat="27.9912" lon="-10.82156">
        <ele>292.7</ele>
        <time>2012-05-10T21:42:53Z</time>
      </trkpt>
      <trkpt lat="27.99103" lon="-10.82171">
        <ele>292.4</ele>
        <time>2012-05-10T21:42:58Z</time>
      </trkpt>
      <trkpt lat="27.99085" lon="-10.82184">
        <ele>293</ele>
        <time>2012-05-10T21:43:03Z</time>
      </trkpt>
      <trkpt lat="27.99069" lon="-10.82201">
        <ele>293.3</ele>
        <time>2012-05-10T21:43:08Z</time>
      </trkpt>
      <trkpt lat="27.99051" lon="-10.82215">
        <ele>293.4</ele>
        <time>2012-05-10T21:43:13Z</time>
      </trkpt>
      <trkpt lat="27.99036" lon="-10.82232">
        <ele>293.5</ele>
        <time>2012-05-10T21:43:18Z</time>
      </trkpt>
      <trkpt lat="27.99014" lon="-10.82256">
        <ele>292.8</ele>
        <time>2012-05-10T21:43:23Z</time>
      </trkpt>
      <trkpt lat="27.99001" lon="-10.82273">
        <ele>293.2</ele>
        <time>2012-05-10T21:43:28Z</time>
      </trkpt>
      <trkpt lat="27.9899" lon="-10.8229">
        <ele>292.7</ele>
        <time>2012-05-10T21:43:33Z</time>
      </trkpt>
      <trkpt lat="27.98976" lon="-10.82306">
        <ele>293.2</ele>
        <time>2012-05-10T21:43:38Z</time>
      </trkpt>
      <trkpt lat="27.98961" lon="-10.82325">
        <ele>293.6</ele>
        <time>2012-05-10T21:43:43Z</time>
      </trkpt>
      <trkpt lat="27.98949" lon="-10.82342">
        <ele>293.9</ele>
        <time>2012-05-10T21:43:48Z</time>
      </trkpt>
      <trkpt lat="27.98934" lon="-10.82358">
        <ele>293.9</ele>
        <time>2012-05-10T21:43:53Z</time>
      </trkpt>
      <trkpt lat="27.98918" lon="-10.82373">
        <ele>293.7</ele>
        <time>2012-05-10T21:43:58Z</time>
      </trkpt>
      <trkpt lat="27.98906" lon="-10.8239">
        <ele>293.6</ele>
        <time>2012-05-10T21:44:03Z</time>
      </trkpt>
      <trkpt lat="27.98895" lon="-10.82414">
        <ele>293.1</ele>
        <time>2012-05-10T21:44:08Z</time>
      </trkpt>
      <trkpt lat="27.98885" lon="-10.82438">
        <ele>293.5</ele>
        <time>2012-05-10T21:44:13Z</time>
      </trkpt>
      <trkpt lat="27.98873" lon="-10.82465">
        <ele>294</ele>
        <time>2012-05-10T21:44:18Z</time>
      </trkpt>
      <trkpt lat="27.98853" lon="-10.82503">
        <ele>294.1</ele>
        <time>2012-05-10T21:44:23Z</time>
      </trkpt>
      <trkpt lat="27.98841" lon="-10.82521">
        <ele>294.2</ele>
        <time>2012-05-10T21:44:28Z</time>
      </trkpt>
      <trkpt lat="27.98824" lon="-10.82547">
        <ele>294.8</ele>
        <time>2012-05-10T21:44:33Z</time>
      </trkpt>
      <trkpt lat="27.98814" lon="-10.82567">
        <ele>294.8</ele>
        <time>2012-05-10T21:44:38Z</time>
      </trkpt>
      <trkpt lat="27.988" lon="-10.82582">
        <ele>294.8</ele>
        <time>2012-05-10T21:44:43Z</time>
      </trkpt>
      <trkpt lat="27.9878" lon="-10.82595">
        <ele>295.3</ele>
        <time>2012-05-10T21:44:48Z</time>
      </trkpt>
      <trkpt lat="27.98755" lon="-10.82604">
        <ele>295.8</ele>
        <time>2012-05-10T21:44:53Z</time>
      </trkpt>
      <trkpt lat="27.98737" lon="-10.82611">
        <ele>296.3</ele>
        <time>2012-05-10T21:44:58Z</time>
      </trkpt>
      <trkpt lat="27.98718" lon="-10.82619">
        <ele>296.9</ele>
        <time>2012-05-10T21:45:03Z</time>
      </trkpt>
      <trkpt lat="27.98696" lon="-10.82621">
        <ele>297.1</ele>
        <time>2012-05-10T21:45:08Z</time>
      </trkpt>
      <trkpt lat="27.98672" lon="-10.82625">
        <ele>297.3</ele>
        <time>2012-05-10T21:45:13Z</time>
      </trkpt>
      <trkpt lat="27.98647" lon="-10.82631">
        <ele>297.7</ele>
        <time>2012-05-10T21:45:18Z</time>
      </trkpt>
      <trkpt lat="27.98621" lon="-10.82636">
        <ele>297.9</ele>
        <time>2012-05-10T21:45:23Z</time>
      </trkpt>
      <trkpt lat="27.98572" lon="-10.82643">
        <ele>298.3</ele>
        <time>2012-05-10T21:45:28Z</time>
      </trkpt>
      <trkpt lat="27.98546" lon="-10.82643">
        <ele>298.2</ele>
        <time>2012-05-10T21:45:33Z</time>
      </trkpt>
      <trkpt lat="27.98506" lon="-10.82642">
        <ele>298.3</ele>
        <time>2012-05-10T21:45:38Z</time>
      </trkpt>
      <trkpt lat="27.98478" lon="-10.82638">
        <ele>298.4</ele>
        <time>2012-05-10T21:45:43Z</time>
      </trkpt>
      <trkpt lat="27.98437" lon="-10.82633">
        <ele>299.2</ele>
        <time>2012-05-10T21:45:48Z</time>
      </trkpt>
      <trkpt lat="27.98412" lon="-10.82635">
        <ele>299.7</ele>
        <time>2012-05-10T21:45:53Z</time>
      </trkpt>
      <trkpt lat="27.98389" lon="-10.82645">
        <ele>300.3</ele>
        <time>2012-05-10T21:45:58Z</time>
      </trkpt>
      <trkpt lat="27.98366" lon="-10.8266">
        <ele>300.4</ele>
        <time>2012-05-10T21:46:03Z</time>
      </trkpt>
      <trkpt lat="27.98335" lon="-10.82683">
        <ele>300.9</ele>
        <time>2012-05-10T21:46:08Z</time>
      </trkpt>
      <trkpt lat="27.98316" lon="-10.827">
        <ele>301</ele>
        <time>2012-05-10T21:46:13Z</time>
      </trkpt>
      <trkpt lat="27.98296" lon="-10.82716">
        <ele>301.2</ele>
        <time>2012-05-10T21:46:18Z</time>
      </trkpt>
      <trkpt lat="27.98274" lon="-10.8273">
        <ele>301.4</ele>
        <time>2012-05-10T21:46:23Z</time>
      </trkpt>
      <trkpt lat="27.98251" lon="-10.82742">
        <ele>301.8</ele>
        <time>2012-05-10T21:46:28Z</time>
      </trkpt>
      <trkpt lat="27.98229" lon="-10.82755">
        <ele>302</ele>
        <time>2012-05-10T21:46:33Z</time>
      </trkpt>
      <trkpt lat="27.9821" lon="-10.82767">
        <ele>302.3</ele>
        <time>2012-05-10T21:46:38Z</time>
      </trkpt>
      <trkpt lat="27.98195" lon="-10.82782">
        <ele>302.6</ele>
        <time>2012-05-10T21:46:43Z</time>
      </trkpt>
      <trkpt lat="27.98185" lon="-10.828">
        <ele>302.4</ele>
        <time>2012-05-10T21:46:48Z</time>
      </trkpt>
      <trkpt lat="27.98169" lon="-10.82821">
        <ele>302.1</ele>
        <time>2012-05-10T21:46:53Z</time>
      </trkpt>
      <trkpt lat="27.98151" lon="-10.82832">
        <ele>302</ele>
        <time>2012-05-10T21:46:58Z</time>
      </trkpt>
      <trkpt lat="27.98131" lon="-10.82842">
        <ele>302.9</ele>
        <time>2012-05-10T21:47:03Z</time>
      </trkpt>
      <trkpt lat="27.98108" lon="-10.82856">
        <ele>303.2</ele>
        <time>2012-05-10T21:47:08Z</time>
      </trkpt>
      <trkpt lat="27.98067" lon="-10.82881">
        <ele>303.7</ele>
        <time>2012-05-10T21:47:13Z</time>
      </trkpt>
      <trkpt lat="27.9805" lon="-10.82892">
        <ele>303.6</ele>
        <time>2012-05-10T21:47:18Z</time>
      </trkpt>
      <trkpt lat="27.98031" lon="-10.82902">
        <ele>303.9</ele>
        <time>2012-05-10T21:47:23Z</time>
      </trkpt>
      <trkpt lat="27.97997" lon="-10.82918">
        <ele>303.5</ele>
        <time>2012-05-10T21:47:28Z</time>
      </trkpt>
      <trkpt lat="27.97977" lon="-10.82924">
        <ele>304.1</ele>
        <time>2012-05-10T21:47:33Z</time>
      </trkpt>
      <trkpt lat="27.97959" lon="-10.82931">
        <ele>304.6</ele>
        <time>2012-05-10T21:47:38Z</time>
      </trkpt>
      <trkpt lat="27.97941" lon="-10.82942">
        <ele>304.7</ele>
        <time>2012-05-10T21:47:43Z</time>
      </trkpt>
      <trkpt lat="27.97922" lon="-10.82951">
        <ele>305.2</ele>
        <time>2012-05-10T21:47:48Z</time>
      </trkpt>
      <trkpt lat="27.97904" lon="-10.82959">
        <ele>305.2</ele>
        <time>2012-05-10T21:47:53Z</time>
      </trkpt>
      <trkpt lat="27.97887" lon="-10.82968">
        <ele>305.4</ele>
        <time>2012-05-10T21:47:58Z</time>
      </trkpt>
      <trkpt lat="27.97869" lon="-10.82973">
        <ele>305.3</ele>
        <time>2012-05-10T21:48:03Z</time>
      </trkpt>
      <trkpt lat="27.9785" lon="-10.82973">
        <ele>305</ele>
        <time>2012-05-10T21:48:08Z</time>
      </trkpt>
      <trkpt lat="27.97823" lon="-10.82979">
        <ele>305.5</ele>
        <time>2012-05-10T21:48:13Z</time>
      </trkpt>
      <trkpt lat="27.97805" lon="-10.82984">
        <ele>306.2</ele>
        <time>2012-05-10T21:48:18Z</time>
      </trkpt>
      <trkpt lat="27.97789" lon="-10.82992">
        <ele>306.4</ele>
        <time>2012-05-10T21:48:23Z</time>
      </trkpt>
      <trkpt lat="27.97763" lon="-10.83006">
        <ele>306.3</ele>
        <time>2012-05-10T21:48:28Z</time>
      </trkpt>
      <trkpt lat="27.97747" lon="-10.83018">
        <ele>306.2</ele>
        <time>2012-05-10T21:48:33Z</time>
      </trkpt>
      <trkpt lat="27.97732" lon="-10.83033">
        <ele>306.2</ele>
        <time>2012-05-10T21:48:38Z</time>
      </trkpt>
      <trkpt lat="27.97709" lon="-10.83055">
        <ele>306.5</ele>
        <time>2012-05-10T21:48:43Z</time>
      </trkpt>
      <trkpt lat="27.97692" lon="-10.83068">
        <ele>306.6</ele>
        <time>2012-05-10T21:48:48Z</time>
      </trkpt>
      <trkpt lat="27.97673" lon="-10.83078">
        <ele>306.9</ele>
        <time>2012-05-10T21:48:53Z</time>
      </trkpt>
      <trkpt lat="27.97653" lon="-10.83084">
        <ele>307</ele>
        <time>2012-05-10T21:48:58Z</time>
      </trkpt>
      <trkpt lat="27.97624" lon="-10.8309">
        <ele>306.9</ele>
        <time>2012-05-10T21:49:03Z</time>
      </trkpt>
      <trkpt lat="27.97606" lon="-10.83087">
        <ele>307.5</ele>
        <time>2012-05-10T21:49:08Z</time>
      </trkpt>
      <trkpt lat="27.97581" lon="-10.83083">
        <ele>307</ele>
        <time>2012-05-10T21:49:13Z</time>
      </trkpt>
      <trkpt lat="27.97556" lon="-10.83086">
        <ele>306.9</ele>
        <time>2012-05-10T21:49:18Z</time>
      </trkpt>
      <trkpt lat="27.97526" lon="-10.83098">
        <ele>307.1</ele>
        <time>2012-05-10T21:49:23Z</time>
      </trkpt>
      <trkpt lat="27.97502" lon="-10.83106">
        <ele>307.6</ele>
        <time>2012-05-10T21:49:28Z</time>
      </trkpt>
      <trkpt lat="27.97476" lon="-10.83102">
        <ele>308.2</ele>
        <time>2012-05-10T21:49:33Z</time>
      </trkpt>
      <trkpt lat="27.9743" lon="-10.831">
        <ele>308.2</ele>
        <time>2012-05-10T21:49:38Z</time>
      </trkpt>
      <trkpt lat="27.97392" lon="-10.831">
        <ele>308.2</ele>
        <time>2012-05-10T21:49:43Z</time>
      </trkpt>
      <trkpt lat="27.97373" lon="-10.83106">
        <ele>308.6</ele>
        <time>2012-05-10T21:49:48Z</time>
      </trkpt>
      <trkpt lat="27.97355" lon="-10.83118">
        <ele>309.2</ele>
        <time>2012-05-10T21:49:53Z</time>
      </trkpt>
      <trkpt lat="27.97326" lon="-10.83139">
        <ele>309.3</ele>
        <time>2012-05-10T21:49:58Z</time>
      </trkpt>
      <trkpt lat="27.97307" lon="-10.83153">
        <ele>309.4</ele>
        <time>2012-05-10T21:50:03Z</time>
      </trkpt>
      <trkpt lat="27.9726" lon="-10.83188">
        <ele>309.1</ele>
        <time>2012-05-10T21:50:08Z</time>
      </trkpt>
      <trkpt lat="27.97239" lon="-10.832">
        <ele>309</ele>
        <time>2012-05-10T21:50:13Z</time>
      </trkpt>
      <trkpt lat="27.97216" lon="-10.8321">
        <ele>309</ele>
        <time>2012-05-10T21:50:18Z</time>
      </trkpt>
      <trkpt lat="27.97192" lon="-10.8322">
        <ele>309</ele>
        <time>2012-05-10T21:50:23Z</time>
      </trkpt>
      <trkpt lat="27.97145" lon="-10.83245">
        <ele>309.3</ele>
        <time>2012-05-10T21:50:28Z</time>
      </trkpt>
      <trkpt lat="27.97122" lon="-10.83261">
        <ele>309.2</ele>
        <time>2012-05-10T21:50:33Z</time>
      </trkpt>
      <trkpt lat="27.97098" lon="-10.83277">
        <ele>309.2</ele>
        <time>2012-05-10T21:50:38Z</time>
      </trkpt>
      <trkpt lat="27.9706" lon="-10.83299">
        <ele>309.4</ele>
        <time>2012-05-10T21:50:43Z</time>
      </trkpt>
      <trkpt lat="27.97007" lon="-10.83326">
        <ele>309.8</ele>
        <time>2012-05-10T21:50:48Z</time>
      </trkpt>
      <trkpt lat="27.96982" lon="-10.8334">
        <ele>309.5</ele>
        <time>2012-05-10T21:50:53Z</time>
      </trkpt>
      <trkpt lat="27.96932" lon="-10.83367">
        <ele>308.8</ele>
        <time>2012-05-10T21:50:58Z</time>
      </trkpt>
      <trkpt lat="27.96907" lon="-10.83379">
        <ele>308.6</ele>
        <time>2012-05-10T21:51:03Z</time>
      </trkpt>
      <trkpt lat="27.96872" lon="-10.83397">
        <ele>308.3</ele>
        <time>2012-05-10T21:51:08Z</time>
      </trkpt>
      <trkpt lat="27.96835" lon="-10.83413">
        <ele>308.2</ele>
        <time>2012-05-10T21:51:13Z</time>
      </trkpt>
      <trkpt lat="27.96784" lon="-10.83434">
        <ele>308.1</ele>
        <time>2012-05-10T21:51:18Z</time>
      </trkpt>
      <trkpt lat="27.96667" lon="-10.83482">
        <ele>308.4</ele>
        <time>2012-05-10T21:51:23Z</time>
      </trkpt>
      <trkpt lat="27.96641" lon="-10.83491">
        <ele>308.3</ele>
        <time>2012-05-10T21:51:28Z</time>
      </trkpt>
      <trkpt lat="27.96577" lon="-10.83514">
        <ele>308.2</ele>
        <time>2012-05-10T21:51:33Z</time>
      </trkpt>
      <trkpt lat="27.96553" lon="-10.83525">
        <ele>308.3</ele>
        <time>2012-05-10T21:51:38Z</time>
      </trkpt>
      <trkpt lat="27.96502" lon="-10.83547">
        <ele>308.5</ele>
        <time>2012-05-10T21:51:43Z</time>
      </trkpt>
      <trkpt lat="27.96316" lon="-10.83619">
        <ele>307.7</ele>
        <time>2012-05-10T21:51:48Z</time>
      </trkpt>
      <trkpt lat="27.96168" lon="-10.83685">
        <ele>306.7</ele>
        <time>2012-05-10T21:51:53Z</time>
      </trkpt>
      <trkpt lat="27.96129" lon="-10.83704">
        <ele>306.6</ele>
        <time>2012-05-10T21:51:58Z</time>
      </trkpt>
      <trkpt lat="27.96052" lon="-10.83745">
        <ele>307</ele>
        <time>2012-05-10T21:52:03Z</time>
      </trkpt>
      <trkpt lat="27.96025" lon="-10.83758">
        <ele>307</ele>
        <time>2012-05-10T21:52:08Z</time>
      </trkpt>
      <trkpt lat="27.96" lon="-10.83773">
        <ele>306.9</ele>
        <time>2012-05-10T21:52:13Z</time>
      </trkpt>
      <trkpt lat="27.95976" lon="-10.83789">
        <ele>306.8</ele>
        <time>2012-05-10T21:52:18Z</time>
      </trkpt>
      <trkpt lat="27.95952" lon="-10.83808">
        <ele>306.6</ele>
        <time>2012-05-10T21:52:23Z</time>
      </trkpt>
      <trkpt lat="27.95931" lon="-10.83828">
        <ele>306.4</ele>
        <time>2012-05-10T21:52:28Z</time>
      </trkpt>
      <trkpt lat="27.95881" lon="-10.83877">
        <ele>305.8</ele>
        <time>2012-05-10T21:52:33Z</time>
      </trkpt>
      <trkpt lat="27.95865" lon="-10.83899">
        <ele>305.4</ele>
        <time>2012-05-10T21:52:38Z</time>
      </trkpt>
      <trkpt lat="27.95823" lon="-10.83955">
        <ele>304.6</ele>
        <time>2012-05-10T21:52:43Z</time>
      </trkpt>
      <trkpt lat="27.95797" lon="-10.83989">
        <ele>304.4</ele>
        <time>2012-05-10T21:52:48Z</time>
      </trkpt>
      <trkpt lat="27.95782" lon="-10.84014">
        <ele>304</ele>
        <time>2012-05-10T21:52:53Z</time>
      </trkpt>
      <trkpt lat="27.95767" lon="-10.8404">
        <ele>303.7</ele>
        <time>2012-05-10T21:52:58Z</time>
      </trkpt>
      <trkpt lat="27.95736" lon="-10.84102">
        <ele>303.4</ele>
        <time>2012-05-10T21:53:03Z</time>
      </trkpt>
      <trkpt lat="27.9572" lon="-10.84122">
        <ele>303</ele>
        <time>2012-05-10T21:53:08Z</time>
      </trkpt>
      <trkpt lat="27.95703" lon="-10.84137">
        <ele>302.9</ele>
        <time>2012-05-10T21:53:13Z</time>
      </trkpt>
      <trkpt lat="27.95688" lon="-10.84152">
        <ele>302.8</ele>
        <time>2012-05-10T21:53:18Z</time>
      </trkpt>
      <trkpt lat="27.95668" lon="-10.84175">
        <ele>302.5</ele>
        <time>2012-05-10T21:53:23Z</time>
      </trkpt>
      <trkpt lat="27.95652" lon="-10.84185">
        <ele>302.6</ele>
        <time>2012-05-10T21:53:28Z</time>
      </trkpt>
      <trkpt lat="27.95634" lon="-10.84191">
        <ele>302.6</ele>
        <time>2012-05-10T21:53:33Z</time>
      </trkpt>
      <trkpt lat="27.95614" lon="-10.84191">
        <ele>302.5</ele>
        <time>2012-05-10T21:53:38Z</time>
      </trkpt>
      <trkpt lat="27.95593" lon="-10.84191">
        <ele>302.3</ele>
        <time>2012-05-10T21:53:43Z</time>
      </trkpt>
      <trkpt lat="27.95563" lon="-10.84193">
        <ele>302</ele>
        <time>2012-05-10T21:53:48Z</time>
      </trkpt>
      <trkpt lat="27.95537" lon="-10.84192">
        <ele>301.9</ele>
        <time>2012-05-10T21:53:53Z</time>
      </trkpt>
      <trkpt lat="27.95516" lon="-10.84205">
        <ele>302</ele>
        <time>2012-05-10T21:53:58Z</time>
      </trkpt>
      <trkpt lat="27.95492" lon="-10.84212">
        <ele>301.7</ele>
        <time>2012-05-10T21:54:03Z</time>
      </trkpt>
      <trkpt lat="27.95474" lon="-10.84216">
        <ele>302</ele>
        <time>2012-05-10T21:54:08Z</time>
      </trkpt>
      <trkpt lat="27.95454" lon="-10.84224">
        <ele>302.1</ele>
        <time>2012-05-10T21:54:13Z</time>
      </trkpt>
      <trkpt lat="27.95432" lon="-10.8423">
        <ele>302.1</ele>
        <time>2012-05-10T21:54:18Z</time>
      </trkpt>
      <trkpt lat="27.95407" lon="-10.84233">
        <ele>301.9</ele>
        <time>2012-05-10T21:54:23Z</time>
      </trkpt>
      <trkpt lat="27.95382" lon="-10.84235">
        <ele>301.6</ele>
        <time>2012-05-10T21:54:28Z</time>
      </trkpt>
      <trkpt lat="27.95346" lon="-10.84238">
        <ele>301.4</ele>
        <time>2012-05-10T21:54:33Z</time>
      </trkpt>
      <trkpt lat="27.95323" lon="-10.84242">
        <ele>301.6</ele>
        <time>2012-05-10T21:54:38Z</time>
      </trkpt>
      <trkpt lat="27.95301" lon="-10.84247">
        <ele>301.8</ele>
        <time>2012-05-10T21:54:43Z</time>
      </trkpt>
      <trkpt lat="27.9528" lon="-10.84257">
        <ele>302.1</ele>
        <time>2012-05-10T21:54:48Z</time>
      </trkpt>
      <trkpt lat="27.95261" lon="-10.8427">
        <ele>302.1</ele>
        <time>2012-05-10T21:54:53Z</time>
      </trkpt>
      <trkpt lat="27.95245" lon="-10.84288">
        <ele>301.9</ele>
        <time>2012-05-10T21:54:58Z</time>
      </trkpt>
      <trkpt lat="27.95232" lon="-10.84308">
        <ele>301.8</ele>
        <time>2012-05-10T21:55:03Z</time>
      </trkpt>
      <trkpt lat="27.95221" lon="-10.8433">
        <ele>301.9</ele>
        <time>2012-05-10T21:55:08Z</time>
      </trkpt>
      <trkpt lat="27.95204" lon="-10.84363">
        <ele>301.9</ele>
        <time>2012-05-10T21:55:13Z</time>
      </trkpt>
      <trkpt lat="27.95189" lon="-10.84382">
        <ele>301.8</ele>
        <time>2012-05-10T21:55:18Z</time>
      </trkpt>
      <trkpt lat="27.95175" lon="-10.844">
        <ele>301.7</ele>
        <time>2012-05-10T21:55:23Z</time>
      </trkpt>
      <trkpt lat="27.95166" lon="-10.84423">
        <ele>301.9</ele>
        <time>2012-05-10T21:55:28Z</time>
      </trkpt>
      <trkpt lat="27.95162" lon="-10.84449">
        <ele>301.9</ele>
        <time>2012-05-10T21:55:33Z</time>
      </trkpt>
      <trkpt lat="27.95157" lon="-10.84474">
        <ele>302.1</ele>
        <time>2012-05-10T21:55:38Z</time>
      </trkpt>
      <trkpt lat="27.95147" lon="-10.84499">
        <ele>302.3</ele>
        <time>2012-05-10T21:55:43Z</time>
      </trkpt>
      <trkpt lat="27.95142" lon="-10.84524">
        <ele>302.1</ele>
        <time>2012-05-10T21:55:48Z</time>
      </trkpt>
      <trkpt lat="27.95138" lon="-10.8455">
        <ele>302.2</ele>
        <time>2012-05-10T21:55:53Z</time>
      </trkpt>
      <trkpt lat="27.95128" lon="-10.84573">
        <ele>302.4</ele>
        <time>2012-05-10T21:55:58Z</time>
      </trkpt>
      <trkpt lat="27.95117" lon="-10.84593">
        <ele>302.4</ele>
        <time>2012-05-10T21:56:03Z</time>
      </trkpt>
      <trkpt lat="27.95109" lon="-10.84617">
        <ele>302.4</ele>
        <time>2012-05-10T21:56:08Z</time>
      </trkpt>
      <trkpt lat="27.95102" lon="-10.84641">
        <ele>302.5</ele>
        <time>2012-05-10T21:56:13Z</time>
      </trkpt>
      <trkpt lat="27.95092" lon="-10.84665">
        <ele>302.4</ele>
        <time>2012-05-10T21:56:18Z</time>
      </trkpt>
      <trkpt lat="27.95079" lon="-10.84688">
        <ele>302.4</ele>
        <time>2012-05-10T21:56:23Z</time>
      </trkpt>
      <trkpt lat="27.95064" lon="-10.8471">
        <ele>302.4</ele>
        <time>2012-05-10T21:56:28Z</time>
      </trkpt>
      <trkpt lat="27.95049" lon="-10.84733">
        <ele>302.4</ele>
        <time>2012-05-10T21:56:33Z</time>
      </trkpt>
      <trkpt lat="27.95034" lon="-10.84757">
        <ele>302.5</ele>
        <time>2012-05-10T21:56:38Z</time>
      </trkpt>
      <trkpt lat="27.95015" lon="-10.84793">
        <ele>302.2</ele>
        <time>2012-05-10T21:56:43Z</time>
      </trkpt>
      <trkpt lat="27.94998" lon="-10.84829">
        <ele>301.9</ele>
        <time>2012-05-10T21:56:48Z</time>
      </trkpt>
      <trkpt lat="27.94987" lon="-10.84852">
        <ele>301.8</ele>
        <time>2012-05-10T21:56:53Z</time>
      </trkpt>
      <trkpt lat="27.9498" lon="-10.84876">
        <ele>301.6</ele>
        <time>2012-05-10T21:56:58Z</time>
      </trkpt>
      <trkpt lat="27.94971" lon="-10.849">
        <ele>301.6</ele>
        <time>2012-05-10T21:57:03Z</time>
      </trkpt>
      <trkpt lat="27.94958" lon="-10.84921">
        <ele>301.6</ele>
        <time>2012-05-10T21:57:08Z</time>
      </trkpt>
      <trkpt lat="27.94947" lon="-10.84941">
        <ele>301.6</ele>
        <time>2012-05-10T21:57:13Z</time>
      </trkpt>
      <trkpt lat="27.94941" lon="-10.84963">
        <ele>301.4</ele>
        <time>2012-05-10T21:57:18Z</time>
      </trkpt>
      <trkpt lat="27.94934" lon="-10.84993">
        <ele>301</ele>
        <time>2012-05-10T21:57:23Z</time>
      </trkpt>
      <trkpt lat="27.94923" lon="-10.85012">
        <ele>300.7</ele>
        <time>2012-05-10T21:57:28Z</time>
      </trkpt>
      <trkpt lat="27.94883" lon="-10.85071">
        <ele>300.7</ele>
        <time>2012-05-10T21:57:33Z</time>
      </trkpt>
      <trkpt lat="27.94866" lon="-10.8509">
        <ele>300.6</ele>
        <time>2012-05-10T21:57:38Z</time>
      </trkpt>
      <trkpt lat="27.94851" lon="-10.85111">
        <ele>300.5</ele>
        <time>2012-05-10T21:57:43Z</time>
      </trkpt>
      <trkpt lat="27.94836" lon="-10.85135">
        <ele>300.4</ele>
        <time>2012-05-10T21:57:48Z</time>
      </trkpt>
      <trkpt lat="27.94823" lon="-10.8516">
        <ele>300.5</ele>
        <time>2012-05-10T21:57:53Z</time>
      </trkpt>
      <trkpt lat="27.94808" lon="-10.85186">
        <ele>300.6</ele>
        <time>2012-05-10T21:57:58Z</time>
      </trkpt>
      <trkpt lat="27.94792" lon="-10.8521">
        <ele>300.7</ele>
        <time>2012-05-10T21:58:03Z</time>
      </trkpt>
      <trkpt lat="27.94773" lon="-10.85232">
        <ele>300.8</ele>
        <time>2012-05-10T21:58:08Z</time>
      </trkpt>
      <trkpt lat="27.94752" lon="-10.85253">
        <ele>301</ele>
        <time>2012-05-10T21:58:13Z</time>
      </trkpt>
      <trkpt lat="27.94687" lon="-10.85314">
        <ele>301.2</ele>
        <time>2012-05-10T21:58:18Z</time>
      </trkpt>
      <trkpt lat="27.9467" lon="-10.85338">
        <ele>301</ele>
        <time>2012-05-10T21:58:23Z</time>
      </trkpt>
      <trkpt lat="27.94656" lon="-10.85364">
        <ele>301.1</ele>
        <time>2012-05-10T21:58:28Z</time>
      </trkpt>
      <trkpt lat="27.94642" lon="-10.85389">
        <ele>301</ele>
        <time>2012-05-10T21:58:33Z</time>
      </trkpt>
      <trkpt lat="27.94624" lon="-10.8541">
        <ele>300.9</ele>
        <time>2012-05-10T21:58:38Z</time>
      </trkpt>
      <trkpt lat="27.94604" lon="-10.8543">
        <ele>300.6</ele>
        <time>2012-05-10T21:58:43Z</time>
      </trkpt>
      <trkpt lat="27.94552" lon="-10.85481">
        <ele>300.7</ele>
        <time>2012-05-10T21:58:48Z</time>
      </trkpt>
      <trkpt lat="27.94532" lon="-10.85504">
        <ele>300.7</ele>
        <time>2012-05-10T21:58:53Z</time>
      </trkpt>
      <trkpt lat="27.94515" lon="-10.85529">
        <ele>300.6</ele>
        <time>2012-05-10T21:58:58Z</time>
      </trkpt>
      <trkpt lat="27.94497" lon="-10.85553">
        <ele>300.6</ele>
        <time>2012-05-10T21:59:03Z</time>
      </trkpt>
      <trkpt lat="27.94468" lon="-10.85585">
        <ele>300.7</ele>
        <time>2012-05-10T21:59:08Z</time>
      </trkpt>
      <trkpt lat="27.94429" lon="-10.85626">
        <ele>300.7</ele>
        <time>2012-05-10T21:59:13Z</time>
      </trkpt>
      <trkpt lat="27.94407" lon="-10.85641">
        <ele>300.8</ele>
        <time>2012-05-10T21:59:18Z</time>
      </trkpt>
      <trkpt lat="27.94377" lon="-10.85663">
        <ele>300.9</ele>
        <time>2012-05-10T21:59:23Z</time>
      </trkpt>
      <trkpt lat="27.94361" lon="-10.85683">
        <ele>300.7</ele>
        <time>2012-05-10T21:59:28Z</time>
      </trkpt>
      <trkpt lat="27.94339" lon="-10.8571">
        <ele>300.7</ele>
        <time>2012-05-10T21:59:33Z</time>
      </trkpt>
      <trkpt lat="27.94306" lon="-10.85739">
        <ele>300.7</ele>
        <time>2012-05-10T21:59:38Z</time>
      </trkpt>
      <trkpt lat="27.94294" lon="-10.85757">
        <ele>300.5</ele>
        <time>2012-05-10T21:59:43Z</time>
      </trkpt>
      <trkpt lat="27.94284" lon="-10.85778">
        <ele>300.4</ele>
        <time>2012-05-10T21:59:48Z</time>
      </trkpt>
      <trkpt lat="27.94272" lon="-10.85798">
        <ele>300.5</ele>
        <time>2012-05-10T21:59:53Z</time>
      </trkpt>
      <trkpt lat="27.94256" lon="-10.85818">
        <ele>300.4</ele>
        <time>2012-05-10T21:59:58Z</time>
      </trkpt>
      <trkpt lat="27.94224" lon="-10.85857">
        <ele>300.6</ele>
        <time>2012-05-10T22:00:03Z</time>
      </trkpt>
      <trkpt lat="27.94202" lon="-10.85885">
        <ele>300.5</ele>
        <time>2012-05-10T22:00:08Z</time>
      </trkpt>
      <trkpt lat="27.94186" lon="-10.85901">
        <ele>300.5</ele>
        <time>2012-05-10T22:00:13Z</time>
      </trkpt>
      <trkpt lat="27.9417" lon="-10.85919">
        <ele>300.4</ele>
        <time>2012-05-10T22:00:18Z</time>
      </trkpt>
      <trkpt lat="27.94157" lon="-10.85941">
        <ele>300.3</ele>
        <time>2012-05-10T22:00:23Z</time>
      </trkpt>
      <trkpt lat="27.94147" lon="-10.85964">
        <ele>300.3</ele>
        <time>2012-05-10T22:00:28Z</time>
      </trkpt>
      <trkpt lat="27.94133" lon="-10.85998">
        <ele>300.3</ele>
        <time>2012-05-10T22:00:33Z</time>
      </trkpt>
      <trkpt lat="27.9412" lon="-10.86016">
        <ele>300.4</ele>
        <time>2012-05-10T22:00:38Z</time>
      </trkpt>
      <trkpt lat="27.94108" lon="-10.86032">
        <ele>300.7</ele>
        <time>2012-05-10T22:00:43Z</time>
      </trkpt>
      <trkpt lat="27.941" lon="-10.86059">
        <ele>300.4</ele>
        <time>2012-05-10T22:00:48Z</time>
      </trkpt>
      <trkpt lat="27.94097" lon="-10.86087">
        <ele>301.3</ele>
        <time>2012-05-10T22:00:53Z</time>
      </trkpt>
      <trkpt lat="27.94082" lon="-10.86113">
        <ele>301</ele>
        <time>2012-05-10T22:00:58Z</time>
      </trkpt>
      <trkpt lat="27.94074" lon="-10.86132">
        <ele>300.9</ele>
        <time>2012-05-10T22:01:03Z</time>
      </trkpt>
      <trkpt lat="27.94069" lon="-10.86154">
        <ele>300.8</ele>
        <time>2012-05-10T22:01:08Z</time>
      </trkpt>
      <trkpt lat="27.94062" lon="-10.86176">
        <ele>301</ele>
        <time>2012-05-10T22:01:13Z</time>
      </trkpt>
      <trkpt lat="27.9405" lon="-10.86197">
        <ele>301</ele>
        <time>2012-05-10T22:01:18Z</time>
      </trkpt>
      <trkpt lat="27.94033" lon="-10.86214">
        <ele>301.1</ele>
        <time>2012-05-10T22:01:23Z</time>
      </trkpt>
      <trkpt lat="27.94013" lon="-10.86227">
        <ele>301.4</ele>
        <time>2012-05-10T22:01:28Z</time>
      </trkpt>
      <trkpt lat="27.93993" lon="-10.86243">
        <ele>301.8</ele>
        <time>2012-05-10T22:01:33Z</time>
      </trkpt>
      <trkpt lat="27.93963" lon="-10.8627">
        <ele>302</ele>
        <time>2012-05-10T22:01:38Z</time>
      </trkpt>
      <trkpt lat="27.93933" lon="-10.86293">
        <ele>302.1</ele>
        <time>2012-05-10T22:01:43Z</time>
      </trkpt>
      <trkpt lat="27.93911" lon="-10.86305">
        <ele>302.2</ele>
        <time>2012-05-10T22:01:48Z</time>
      </trkpt>
      <trkpt lat="27.93891" lon="-10.86319">
        <ele>302.4</ele>
        <time>2012-05-10T22:01:53Z</time>
      </trkpt>
      <trkpt lat="27.93871" lon="-10.86336">
        <ele>302.4</ele>
        <time>2012-05-10T22:01:58Z</time>
      </trkpt>
      <trkpt lat="27.93851" lon="-10.86353">
        <ele>302.5</ele>
        <time>2012-05-10T22:02:03Z</time>
      </trkpt>
      <trkpt lat="27.93831" lon="-10.86366">
        <ele>302.4</ele>
        <time>2012-05-10T22:02:08Z</time>
      </trkpt>
      <trkpt lat="27.93813" lon="-10.8638">
        <ele>302.3</ele>
        <time>2012-05-10T22:02:13Z</time>
      </trkpt>
      <trkpt lat="27.93795" lon="-10.86392">
        <ele>302.5</ele>
        <time>2012-05-10T22:02:18Z</time>
      </trkpt>
      <trkpt lat="27.93777" lon="-10.86398">
        <ele>302.5</ele>
        <time>2012-05-10T22:02:23Z</time>
      </trkpt>
      <trkpt lat="27.93762" lon="-10.86409">
        <ele>302.3</ele>
        <time>2012-05-10T22:02:28Z</time>
      </trkpt>
      <trkpt lat="27.93748" lon="-10.86424">
        <ele>302.1</ele>
        <time>2012-05-10T22:02:33Z</time>
      </trkpt>
      <trkpt lat="27.93733" lon="-10.86438">
        <ele>302</ele>
        <time>2012-05-10T22:02:38Z</time>
      </trkpt>
      <trkpt lat="27.93718" lon="-10.86453">
        <ele>302.1</ele>
        <time>2012-05-10T22:02:43Z</time>
      </trkpt>
      <trkpt lat="27.93703" lon="-10.86468">
        <ele>302.2</ele>
        <time>2012-05-10T22:02:48Z</time>
      </trkpt>
      <trkpt lat="27.93686" lon="-10.86481">
        <ele>302.2</ele>
        <time>2012-05-10T22:02:53Z</time>
      </trkpt>
      <trkpt lat="27.93668" lon="-10.86494">
        <ele>302.2</ele>
        <time>2012-05-10T22:02:58Z</time>
      </trkpt>
      <trkpt lat="27.93619" lon="-10.86527">
        <ele>302.3</ele>
        <time>2012-05-10T22:03:03Z</time>
      </trkpt>
      <trkpt lat="27.93559" lon="-10.8657">
        <ele>302.7</ele>
        <time>2012-05-10T22:03:08Z</time>
      </trkpt>
      <trkpt lat="27.93537" lon="-10.86582">
        <ele>302.8</ele>
        <time>2012-05-10T22:03:13Z</time>
      </trkpt>
      <trkpt lat="27.93514" lon="-10.86592">
        <ele>302.7</ele>
        <time>2012-05-10T22:03:18Z</time>
      </trkpt>
      <trkpt lat="27.93464" lon="-10.86612">
        <ele>302.6</ele>
        <time>2012-05-10T22:03:23Z</time>
      </trkpt>
      <trkpt lat="27.93437" lon="-10.86621">
        <ele>302.7</ele>
        <time>2012-05-10T22:03:28Z</time>
      </trkpt>
      <trkpt lat="27.93382" lon="-10.8664">
        <ele>302.9</ele>
        <time>2012-05-10T22:03:33Z</time>
      </trkpt>
      <trkpt lat="27.93341" lon="-10.86655">
        <ele>302.8</ele>
        <time>2012-05-10T22:03:38Z</time>
      </trkpt>
      <trkpt lat="27.93286" lon="-10.86672">
        <ele>303</ele>
        <time>2012-05-10T22:03:43Z</time>
      </trkpt>
      <trkpt lat="27.93259" lon="-10.86684">
        <ele>302.9</ele>
        <time>2012-05-10T22:03:48Z</time>
      </trkpt>
      <trkpt lat="27.93234" lon="-10.867">
        <ele>303</ele>
        <time>2012-05-10T22:03:53Z</time>
      </trkpt>
      <trkpt lat="27.9321" lon="-10.86719">
        <ele>303</ele>
        <time>2012-05-10T22:03:58Z</time>
      </trkpt>
      <trkpt lat="27.93186" lon="-10.86739">
        <ele>303</ele>
        <time>2012-05-10T22:04:03Z</time>
      </trkpt>
      <trkpt lat="27.93163" lon="-10.86762">
        <ele>303</ele>
        <time>2012-05-10T22:04:08Z</time>
      </trkpt>
      <trkpt lat="27.93118" lon="-10.86807">
        <ele>303.1</ele>
        <time>2012-05-10T22:04:13Z</time>
      </trkpt>
      <trkpt lat="27.93094" lon="-10.86827">
        <ele>303.1</ele>
        <time>2012-05-10T22:04:18Z</time>
      </trkpt>
      <trkpt lat="27.93067" lon="-10.86843">
        <ele>303.3</ele>
        <time>2012-05-10T22:04:23Z</time>
      </trkpt>
      <trkpt lat="27.93025" lon="-10.86869">
        <ele>303.5</ele>
        <time>2012-05-10T22:04:28Z</time>
      </trkpt>
      <trkpt lat="27.92945" lon="-10.86921">
        <ele>303.8</ele>
        <time>2012-05-10T22:04:33Z</time>
      </trkpt>
      <trkpt lat="27.9292" lon="-10.86942">
        <ele>303.8</ele>
        <time>2012-05-10T22:04:38Z</time>
      </trkpt>
      <trkpt lat="27.92883" lon="-10.86975">
        <ele>303.7</ele>
        <time>2012-05-10T22:04:43Z</time>
      </trkpt>
      <trkpt lat="27.92859" lon="-10.86999">
        <ele>303.7</ele>
        <time>2012-05-10T22:04:48Z</time>
      </trkpt>
      <trkpt lat="27.92686" lon="-10.87178">
        <ele>302.9</ele>
        <time>2012-05-10T22:04:53Z</time>
      </trkpt>
      <trkpt lat="27.92659" lon="-10.87198">
        <ele>303</ele>
        <time>2012-05-10T22:04:58Z</time>
      </trkpt>
      <trkpt lat="27.92631" lon="-10.87217">
        <ele>303</ele>
        <time>2012-05-10T22:05:03Z</time>
      </trkpt>
      <trkpt lat="27.92529" lon="-10.87281">
        <ele>303.1</ele>
        <time>2012-05-10T22:05:08Z</time>
      </trkpt>
      <trkpt lat="27.92471" lon="-10.87315">
        <ele>303.3</ele>
        <time>2012-05-10T22:05:13Z</time>
      </trkpt>
      <trkpt lat="27.92429" lon="-10.87343">
        <ele>303.2</ele>
        <time>2012-05-10T22:05:18Z</time>
      </trkpt>
      <trkpt lat="27.92402" lon="-10.8736">
        <ele>303.3</ele>
        <time>2012-05-10T22:05:23Z</time>
      </trkpt>
      <trkpt lat="27.92373" lon="-10.87376">
        <ele>303.2</ele>
        <time>2012-05-10T22:05:28Z</time>
      </trkpt>
      <trkpt lat="27.92343" lon="-10.8739">
        <ele>303.1</ele>
        <time>2012-05-10T22:05:33Z</time>
      </trkpt>
      <trkpt lat="27.92296" lon="-10.87411">
        <ele>303.1</ele>
        <time>2012-05-10T22:05:38Z</time>
      </trkpt>
      <trkpt lat="27.92265" lon="-10.87426">
        <ele>303.1</ele>
        <time>2012-05-10T22:05:43Z</time>
      </trkpt>
      <trkpt lat="27.92235" lon="-10.87438">
        <ele>303</ele>
        <time>2012-05-10T22:05:48Z</time>
      </trkpt>
      <trkpt lat="27.92191" lon="-10.87455">
        <ele>302.8</ele>
        <time>2012-05-10T22:05:53Z</time>
      </trkpt>
      <trkpt lat="27.92161" lon="-10.87463">
        <ele>302.8</ele>
        <time>2012-05-10T22:05:58Z</time>
      </trkpt>
      <trkpt lat="27.92101" lon="-10.87479">
        <ele>303.1</ele>
        <time>2012-05-10T22:06:03Z</time>
      </trkpt>
      <trkpt lat="27.92071" lon="-10.87492">
        <ele>303</ele>
        <time>2012-05-10T22:06:08Z</time>
      </trkpt>
      <trkpt lat="27.92026" lon="-10.87511">
        <ele>302.9</ele>
        <time>2012-05-10T22:06:13Z</time>
      </trkpt>
      <trkpt lat="27.91935" lon="-10.87546">
        <ele>302.7</ele>
        <time>2012-05-10T22:06:18Z</time>
      </trkpt>
      <trkpt lat="27.91878" lon="-10.87571">
        <ele>302.6</ele>
        <time>2012-05-10T22:06:23Z</time>
      </trkpt>
      <trkpt lat="27.91851" lon="-10.87587">
        <ele>302.6</ele>
        <time>2012-05-10T22:06:28Z</time>
      </trkpt>
      <trkpt lat="27.91824" lon="-10.87601">
        <ele>302.5</ele>
        <time>2012-05-10T22:06:33Z</time>
      </trkpt>
      <trkpt lat="27.91796" lon="-10.87614">
        <ele>302.6</ele>
        <time>2012-05-10T22:06:38Z</time>
      </trkpt>
      <trkpt lat="27.91725" lon="-10.87644">
        <ele>302.6</ele>
        <time>2012-05-10T22:06:43Z</time>
      </trkpt>
      <trkpt lat="27.91697" lon="-10.87657">
        <ele>302.5</ele>
        <time>2012-05-10T22:06:48Z</time>
      </trkpt>
      <trkpt lat="27.91643" lon="-10.87677">
        <ele>302.3</ele>
        <time>2012-05-10T22:06:53Z</time>
      </trkpt>
      <trkpt lat="27.91614" lon="-10.87684">
        <ele>302.2</ele>
        <time>2012-05-10T22:06:58Z</time>
      </trkpt>
      <trkpt lat="27.9153" lon="-10.87704">
        <ele>302.6</ele>
        <time>2012-05-10T22:07:03Z</time>
      </trkpt>
      <trkpt lat="27.91505" lon="-10.87715">
        <ele>302.6</ele>
        <time>2012-05-10T22:07:08Z</time>
      </trkpt>
      <trkpt lat="27.9148" lon="-10.87724">
        <ele>302.5</ele>
        <time>2012-05-10T22:07:13Z</time>
      </trkpt>
      <trkpt lat="27.91348" lon="-10.87769">
        <ele>302.3</ele>
        <time>2012-05-10T22:07:18Z</time>
      </trkpt>
      <trkpt lat="27.91295" lon="-10.87788">
        <ele>302.1</ele>
        <time>2012-05-10T22:07:23Z</time>
      </trkpt>
      <trkpt lat="27.91269" lon="-10.87794">
        <ele>302.1</ele>
        <time>2012-05-10T22:07:28Z</time>
      </trkpt>
      <trkpt lat="27.91243" lon="-10.87801">
        <ele>302.1</ele>
        <time>2012-05-10T22:07:33Z</time>
      </trkpt>
      <trkpt lat="27.91216" lon="-10.87809">
        <ele>302</ele>
        <time>2012-05-10T22:07:38Z</time>
      </trkpt>
      <trkpt lat="27.91188" lon="-10.87813">
        <ele>302.1</ele>
        <time>2012-05-10T22:07:43Z</time>
      </trkpt>
      <trkpt lat="27.91162" lon="-10.87819">
        <ele>302.1</ele>
        <time>2012-05-10T22:07:48Z</time>
      </trkpt>
      <trkpt lat="27.91139" lon="-10.87829">
        <ele>302</ele>
        <time>2012-05-10T22:07:53Z</time>
      </trkpt>
      <trkpt lat="27.91119" lon="-10.87845">
        <ele>301.8</ele>
        <time>2012-05-10T22:07:58Z</time>
      </trkpt>
      <trkpt lat="27.91101" lon="-10.87866">
        <ele>301.7</ele>
        <time>2012-05-10T22:08:03Z</time>
      </trkpt>
      <trkpt lat="27.91088" lon="-10.8789">
        <ele>301.6</ele>
        <time>2012-05-10T22:08:08Z</time>
      </trkpt>
      <trkpt lat="27.91077" lon="-10.87917">
        <ele>301.5</ele>
        <time>2012-05-10T22:08:13Z</time>
      </trkpt>
      <trkpt lat="27.91069" lon="-10.87945">
        <ele>301.4</ele>
        <time>2012-05-10T22:08:18Z</time>
      </trkpt>
      <trkpt lat="27.91064" lon="-10.87975">
        <ele>301.2</ele>
        <time>2012-05-10T22:08:23Z</time>
      </trkpt>
      <trkpt lat="27.91054" lon="-10.88051">
        <ele>300.7</ele>
        <time>2012-05-10T22:08:28Z</time>
      </trkpt>
      <trkpt lat="27.91045" lon="-10.88122">
        <ele>300.8</ele>
        <time>2012-05-10T22:08:33Z</time>
      </trkpt>
      <trkpt lat="27.91035" lon="-10.88147">
        <ele>300.6</ele>
        <time>2012-05-10T22:08:38Z</time>
      </trkpt>
      <trkpt lat="27.91023" lon="-10.88171">
        <ele>300.6</ele>
        <time>2012-05-10T22:08:43Z</time>
      </trkpt>
      <trkpt lat="27.91015" lon="-10.88196">
        <ele>300.6</ele>
        <time>2012-05-10T22:08:48Z</time>
      </trkpt>
      <trkpt lat="27.9101" lon="-10.88222">
        <ele>300.6</ele>
        <time>2012-05-10T22:08:53Z</time>
      </trkpt>
      <trkpt lat="27.91001" lon="-10.88248">
        <ele>300.5</ele>
        <time>2012-05-10T22:08:58Z</time>
      </trkpt>
      <trkpt lat="27.90988" lon="-10.8827">
        <ele>300.5</ele>
        <time>2012-05-10T22:09:03Z</time>
      </trkpt>
      <trkpt lat="27.90964" lon="-10.88302">
        <ele>300.5</ele>
        <time>2012-05-10T22:09:08Z</time>
      </trkpt>
      <trkpt lat="27.90944" lon="-10.88318">
        <ele>300.6</ele>
        <time>2012-05-10T22:09:13Z</time>
      </trkpt>
      <trkpt lat="27.90923" lon="-10.88334">
        <ele>300.8</ele>
        <time>2012-05-10T22:09:18Z</time>
      </trkpt>
      <trkpt lat="27.90906" lon="-10.88353">
        <ele>300.8</ele>
        <time>2012-05-10T22:09:23Z</time>
      </trkpt>
      <trkpt lat="27.90894" lon="-10.88375">
        <ele>300.9</ele>
        <time>2012-05-10T22:09:28Z</time>
      </trkpt>
      <trkpt lat="27.90885" lon="-10.88399">
        <ele>300.8</ele>
        <time>2012-05-10T22:09:33Z</time>
      </trkpt>
      <trkpt lat="27.90877" lon="-10.88425">
        <ele>300.9</ele>
        <time>2012-05-10T22:09:38Z</time>
      </trkpt>
      <trkpt lat="27.9087" lon="-10.88452">
        <ele>301</ele>
        <time>2012-05-10T22:09:43Z</time>
      </trkpt>
      <trkpt lat="27.90867" lon="-10.8848">
        <ele>301.1</ele>
        <time>2012-05-10T22:09:48Z</time>
      </trkpt>
      <trkpt lat="27.90866" lon="-10.88509">
        <ele>301.1</ele>
        <time>2012-05-10T22:09:53Z</time>
      </trkpt>
      <trkpt lat="27.90865" lon="-10.88575">
        <ele>301.4</ele>
        <time>2012-05-10T22:09:58Z</time>
      </trkpt>
      <trkpt lat="27.9086" lon="-10.88598">
        <ele>301.7</ele>
        <time>2012-05-10T22:10:03Z</time>
      </trkpt>
      <trkpt lat="27.9085" lon="-10.88619">
        <ele>301.7</ele>
        <time>2012-05-10T22:10:08Z</time>
      </trkpt>
      <trkpt lat="27.90839" lon="-10.88641">
        <ele>301.9</ele>
        <time>2012-05-10T22:10:13Z</time>
      </trkpt>
      <trkpt lat="27.9083" lon="-10.88666">
        <ele>302.3</ele>
        <time>2012-05-10T22:10:18Z</time>
      </trkpt>
      <trkpt lat="27.90817" lon="-10.88704">
        <ele>302.5</ele>
        <time>2012-05-10T22:10:23Z</time>
      </trkpt>
      <trkpt lat="27.9081" lon="-10.88731">
        <ele>302.6</ele>
        <time>2012-05-10T22:10:28Z</time>
      </trkpt>
      <trkpt lat="27.90806" lon="-10.88758">
        <ele>302.7</ele>
        <time>2012-05-10T22:10:33Z</time>
      </trkpt>
      <trkpt lat="27.90803" lon="-10.88785">
        <ele>302.9</ele>
        <time>2012-05-10T22:10:38Z</time>
      </trkpt>
      <trkpt lat="27.90798" lon="-10.88822">
        <ele>303.1</ele>
        <time>2012-05-10T22:10:43Z</time>
      </trkpt>
      <trkpt lat="27.9079" lon="-10.88846">
        <ele>303.4</ele>
        <time>2012-05-10T22:10:48Z</time>
      </trkpt>
      <trkpt lat="27.9078" lon="-10.88868">
        <ele>303.6</ele>
        <time>2012-05-10T22:10:53Z</time>
      </trkpt>
      <trkpt lat="27.90765" lon="-10.889">
        <ele>303.7</ele>
        <time>2012-05-10T22:10:58Z</time>
      </trkpt>
      <trkpt lat="27.90758" lon="-10.88924">
        <ele>303.8</ele>
        <time>2012-05-10T22:11:03Z</time>
      </trkpt>
      <trkpt lat="27.90754" lon="-10.88951">
        <ele>303.8</ele>
        <time>2012-05-10T22:11:08Z</time>
      </trkpt>
      <trkpt lat="27.90743" lon="-10.89037">
        <ele>304.4</ele>
        <time>2012-05-10T22:11:13Z</time>
      </trkpt>
      <trkpt lat="27.90739" lon="-10.89066">
        <ele>304.7</ele>
        <time>2012-05-10T22:11:18Z</time>
      </trkpt>
      <trkpt lat="27.90737" lon="-10.89097">
        <ele>305</ele>
        <time>2012-05-10T22:11:23Z</time>
      </trkpt>
      <trkpt lat="27.90734" lon="-10.89128">
        <ele>305.5</ele>
        <time>2012-05-10T22:11:28Z</time>
      </trkpt>
      <trkpt lat="27.90729" lon="-10.89159">
        <ele>306</ele>
        <time>2012-05-10T22:11:33Z</time>
      </trkpt>
      <trkpt lat="27.9072" lon="-10.89206">
        <ele>306.5</ele>
        <time>2012-05-10T22:11:38Z</time>
      </trkpt>
      <trkpt lat="27.90713" lon="-10.89236">
        <ele>306.8</ele>
        <time>2012-05-10T22:11:43Z</time>
      </trkpt>
      <trkpt lat="27.90704" lon="-10.89266">
        <ele>306.8</ele>
        <time>2012-05-10T22:11:48Z</time>
      </trkpt>
      <trkpt lat="27.90692" lon="-10.89297">
        <ele>306.9</ele>
        <time>2012-05-10T22:11:53Z</time>
      </trkpt>
      <trkpt lat="27.90673" lon="-10.89342">
        <ele>307</ele>
        <time>2012-05-10T22:11:58Z</time>
      </trkpt>
      <trkpt lat="27.90639" lon="-10.89409">
        <ele>307.6</ele>
        <time>2012-05-10T22:12:03Z</time>
      </trkpt>
      <trkpt lat="27.90624" lon="-10.89433">
        <ele>307.7</ele>
        <time>2012-05-10T22:12:08Z</time>
      </trkpt>
      <trkpt lat="27.90609" lon="-10.89455">
        <ele>307.7</ele>
        <time>2012-05-10T22:12:13Z</time>
      </trkpt>
      <trkpt lat="27.90592" lon="-10.89477">
        <ele>307.8</ele>
        <time>2012-05-10T22:12:18Z</time>
      </trkpt>
      <trkpt lat="27.90576" lon="-10.89501">
        <ele>308.1</ele>
        <time>2012-05-10T22:12:23Z</time>
      </trkpt>
      <trkpt lat="27.90383" lon="-10.89785">
        <ele>310.9</ele>
        <time>2012-05-10T22:12:28Z</time>
      </trkpt>
      <trkpt lat="27.90339" lon="-10.8985">
        <ele>311.9</ele>
        <time>2012-05-10T22:12:33Z</time>
      </trkpt>
      <trkpt lat="27.90304" lon="-10.89898">
        <ele>312.6</ele>
        <time>2012-05-10T22:12:38Z</time>
      </trkpt>
      <trkpt lat="27.90258" lon="-10.89954">
        <ele>312.8</ele>
        <time>2012-05-10T22:12:43Z</time>
      </trkpt>
      <trkpt lat="27.90239" lon="-10.89974">
        <ele>312.9</ele>
        <time>2012-05-10T22:12:48Z</time>
      </trkpt>
      <trkpt lat="27.9022" lon="-10.89992">
        <ele>312.9</ele>
        <time>2012-05-10T22:12:53Z</time>
      </trkpt>
      <trkpt lat="27.90192" lon="-10.90017">
        <ele>313.2</ele>
        <time>2012-05-10T22:12:58Z</time>
      </trkpt>
      <trkpt lat="27.90173" lon="-10.90033">
        <ele>313.3</ele>
        <time>2012-05-10T22:13:03Z</time>
      </trkpt>
      <trkpt lat="27.90151" lon="-10.90048">
        <ele>313.5</ele>
        <time>2012-05-10T22:13:08Z</time>
      </trkpt>
      <trkpt lat="27.90128" lon="-10.90061">
        <ele>313.8</ele>
        <time>2012-05-10T22:13:13Z</time>
      </trkpt>
      <trkpt lat="27.90104" lon="-10.90073">
        <ele>314.2</ele>
        <time>2012-05-10T22:13:18Z</time>
      </trkpt>
      <trkpt lat="27.90067" lon="-10.90091">
        <ele>314.8</ele>
        <time>2012-05-10T22:13:23Z</time>
      </trkpt>
      <trkpt lat="27.90042" lon="-10.90105">
        <ele>314.9</ele>
        <time>2012-05-10T22:13:28Z</time>
      </trkpt>
      <trkpt lat="27.8998" lon="-10.90141">
        <ele>314.8</ele>
        <time>2012-05-10T22:13:33Z</time>
      </trkpt>
      <trkpt lat="27.89946" lon="-10.90157">
        <ele>314.8</ele>
        <time>2012-05-10T22:13:38Z</time>
      </trkpt>
      <trkpt lat="27.89922" lon="-10.90166">
        <ele>314.9</ele>
        <time>2012-05-10T22:13:43Z</time>
      </trkpt>
      <trkpt lat="27.89898" lon="-10.90174">
        <ele>315.2</ele>
        <time>2012-05-10T22:13:48Z</time>
      </trkpt>
      <trkpt lat="27.89875" lon="-10.90185">
        <ele>315.1</ele>
        <time>2012-05-10T22:13:53Z</time>
      </trkpt>
      <trkpt lat="27.89786" lon="-10.90235">
        <ele>312.7</ele>
        <time>2012-05-10T22:13:58Z</time>
      </trkpt>
      <trkpt lat="27.89765" lon="-10.9025">
        <ele>311.6</ele>
        <time>2012-05-10T22:14:03Z</time>
      </trkpt>
      <trkpt lat="27.89744" lon="-10.90265">
        <ele>310.6</ele>
        <time>2012-05-10T22:14:08Z</time>
      </trkpt>
      <trkpt lat="27.89688" lon="-10.90302">
        <ele>309</ele>
        <time>2012-05-10T22:14:13Z</time>
      </trkpt>
      <trkpt lat="27.89668" lon="-10.9032">
        <ele>308.8</ele>
        <time>2012-05-10T22:14:18Z</time>
      </trkpt>
      <trkpt lat="27.89649" lon="-10.90339">
        <ele>308.6</ele>
        <time>2012-05-10T22:14:23Z</time>
      </trkpt>
      <trkpt lat="27.89632" lon="-10.90359">
        <ele>308.8</ele>
        <time>2012-05-10T22:14:28Z</time>
      </trkpt>
      <trkpt lat="27.89554" lon="-10.9045">
        <ele>305.6</ele>
        <time>2012-05-10T22:14:33Z</time>
      </trkpt>
      <trkpt lat="27.89536" lon="-10.90467">
        <ele>305.5</ele>
        <time>2012-05-10T22:14:38Z</time>
      </trkpt>
      <trkpt lat="27.8951" lon="-10.90491">
        <ele>305.6</ele>
        <time>2012-05-10T22:14:43Z</time>
      </trkpt>
      <trkpt lat="27.89496" lon="-10.90511">
        <ele>306.1</ele>
        <time>2012-05-10T22:14:48Z</time>
      </trkpt>
      <trkpt lat="27.8948" lon="-10.9053">
        <ele>306.3</ele>
        <time>2012-05-10T22:14:53Z</time>
      </trkpt>
      <trkpt lat="27.89465" lon="-10.9055">
        <ele>306.9</ele>
        <time>2012-05-10T22:14:58Z</time>
      </trkpt>
      <trkpt lat="27.89444" lon="-10.90576">
        <ele>307.5</ele>
        <time>2012-05-10T22:15:03Z</time>
      </trkpt>
      <trkpt lat="27.89431" lon="-10.90593">
        <ele>306.8</ele>
        <time>2012-05-10T22:15:08Z</time>
      </trkpt>
      <trkpt lat="27.8942" lon="-10.9061">
        <ele>305.8</ele>
        <time>2012-05-10T22:15:13Z</time>
      </trkpt>
      <trkpt lat="27.89407" lon="-10.90632">
        <ele>305.2</ele>
        <time>2012-05-10T22:15:18Z</time>
      </trkpt>
      <trkpt lat="27.89398" lon="-10.90654">
        <ele>305.5</ele>
        <time>2012-05-10T22:15:23Z</time>
      </trkpt>
      <trkpt lat="27.89384" lon="-10.90668">
        <ele>306</ele>
        <time>2012-05-10T22:15:28Z</time>
      </trkpt>
      <trkpt lat="27.89371" lon="-10.90689">
        <ele>307.2</ele>
        <time>2012-05-10T22:15:33Z</time>
      </trkpt>
      <trkpt lat="27.89361" lon="-10.90711">
        <ele>307.7</ele>
        <time>2012-05-10T22:15:38Z</time>
      </trkpt>
      <trkpt lat="27.89365" lon="-10.90734">
        <ele>309.2</ele>
        <time>2012-05-10T22:15:43Z</time>
      </trkpt>
      <trkpt lat="27.89369" lon="-10.90756">
        <ele>310.7</ele>
        <time>2012-05-10T22:15:48Z</time>
      </trkpt>
      <trkpt lat="27.89368" lon="-10.90776">
        <ele>311.5</ele>
        <time>2012-05-10T22:15:53Z</time>
      </trkpt>
      <trkpt lat="27.89357" lon="-10.90955">
        <ele>314.3</ele>
        <time>2012-05-10T22:15:58Z</time>
      </trkpt>
      <trkpt lat="27.89355" lon="-10.90978">
        <ele>312.5</ele>
        <time>2012-05-10T22:16:03Z</time>
      </trkpt>
      <trkpt lat="27.89352" lon="-10.90999">
        <ele>310.1</ele>
        <time>2012-05-10T22:16:08Z</time>
      </trkpt>
      <trkpt lat="27.89354" lon="-10.91022">
        <ele>310</ele>
        <time>2012-05-10T22:16:13Z</time>
      </trkpt>
      <trkpt lat="27.89356" lon="-10.91043">
        <ele>310.6</ele>
        <time>2012-05-10T22:16:18Z</time>
      </trkpt>
      <trkpt lat="27.89357" lon="-10.91073">
        <ele>310.5</ele>
        <time>2012-05-10T22:16:23Z</time>
      </trkpt>
      <trkpt lat="27.89355" lon="-10.91097">
        <ele>311.3</ele>
        <time>2012-05-10T22:16:28Z</time>
      </trkpt>
      <trkpt lat="27.89355" lon="-10.91124">
        <ele>311.3</ele>
        <time>2012-05-10T22:16:33Z</time>
      </trkpt>
      <trkpt lat="27.89354" lon="-10.91151">
        <ele>312.4</ele>
        <time>2012-05-10T22:16:38Z</time>
      </trkpt>
      <trkpt lat="27.89345" lon="-10.91326">
        <ele>316.5</ele>
        <time>2012-05-10T22:16:43Z</time>
      </trkpt>
      <trkpt lat="27.89344" lon="-10.91348">
        <ele>316.2</ele>
        <time>2012-05-10T22:16:48Z</time>
      </trkpt>
      <trkpt lat="27.89343" lon="-10.91368">
        <ele>316.7</ele>
        <time>2012-05-10T22:16:53Z</time>
      </trkpt>
      <trkpt lat="27.89345" lon="-10.91389">
        <ele>318</ele>
        <time>2012-05-10T22:16:58Z</time>
      </trkpt>
      <trkpt lat="27.89345" lon="-10.91416">
        <ele>319.6</ele>
        <time>2012-05-10T22:17:03Z</time>
      </trkpt>
      <trkpt lat="27.89341" lon="-10.91437">
        <ele>320.8</ele>
        <time>2012-05-10T22:17:08Z</time>
      </trkpt>
      <trkpt lat="27.89336" lon="-10.91458">
        <ele>322.2</ele>
        <time>2012-05-10T22:17:13Z</time>
      </trkpt>
      <trkpt lat="27.89333" lon="-10.9148">
        <ele>323.1</ele>
        <time>2012-05-10T22:17:18Z</time>
      </trkpt>
      <trkpt lat="27.8933" lon="-10.91503">
        <ele>324.2</ele>
        <time>2012-05-10T22:17:23Z</time>
      </trkpt>
      <trkpt lat="27.89323" lon="-10.91549">
        <ele>325.5</ele>
        <time>2012-05-10T22:17:28Z</time>
      </trkpt>
      <trkpt lat="27.89319" lon="-10.91579">
        <ele>326.3</ele>
        <time>2012-05-10T22:17:33Z</time>
      </trkpt>
      <trkpt lat="27.89315" lon="-10.916">
        <ele>326.8</ele>
        <time>2012-05-10T22:17:38Z</time>
      </trkpt>
      <trkpt lat="27.89313" lon="-10.9163">
        <ele>327.9</ele>
        <time>2012-05-10T22:17:43Z</time>
      </trkpt>
      <trkpt lat="27.89312" lon="-10.9166">
        <ele>329</ele>
        <time>2012-05-10T22:17:48Z</time>
      </trkpt>
      <trkpt lat="27.8931" lon="-10.91687">
        <ele>330.5</ele>
        <time>2012-05-10T22:17:53Z</time>
      </trkpt>
      <trkpt lat="27.89308" lon="-10.91711">
        <ele>331.7</ele>
        <time>2012-05-10T22:17:58Z</time>
      </trkpt>
      <trkpt lat="27.89307" lon="-10.9174">
        <ele>332.8</ele>
        <time>2012-05-10T22:18:03Z</time>
      </trkpt>
      <trkpt lat="27.89305" lon="-10.91763">
        <ele>333.3</ele>
        <time>2012-05-10T22:18:08Z</time>
      </trkpt>
      <trkpt lat="27.89307" lon="-10.91788">
        <ele>333.7</ele>
        <time>2012-05-10T22:18:13Z</time>
      </trkpt>
      <trkpt lat="27.89306" lon="-10.91815">
        <ele>334.1</ele>
        <time>2012-05-10T22:18:18Z</time>
      </trkpt>
      <trkpt lat="27.89303" lon="-10.91844">
        <ele>334.9</ele>
        <time>2012-05-10T22:18:23Z</time>
      </trkpt>
      <trkpt lat="27.89297" lon="-10.919">
        <ele>336.5</ele>
        <time>2012-05-10T22:18:28Z</time>
      </trkpt>
      <trkpt lat="27.89295" lon="-10.91954">
        <ele>338.3</ele>
        <time>2012-05-10T22:18:33Z</time>
      </trkpt>
      <trkpt lat="27.89295" lon="-10.91979">
        <ele>339.2</ele>
        <time>2012-05-10T22:18:38Z</time>
      </trkpt>
      <trkpt lat="27.89298" lon="-10.92018">
        <ele>340.5</ele>
        <time>2012-05-10T22:18:43Z</time>
      </trkpt>
      <trkpt lat="27.89297" lon="-10.92042">
        <ele>341.3</ele>
        <time>2012-05-10T22:18:48Z</time>
      </trkpt>
      <trkpt lat="27.89294" lon="-10.9207">
        <ele>342.3</ele>
        <time>2012-05-10T22:18:53Z</time>
      </trkpt>
      <trkpt lat="27.89293" lon="-10.921">
        <ele>343.8</ele>
        <time>2012-05-10T22:18:58Z</time>
      </trkpt>
      <trkpt lat="27.89292" lon="-10.92163">
        <ele>346.3</ele>
        <time>2012-05-10T22:19:03Z</time>
      </trkpt>
      <trkpt lat="27.89294" lon="-10.92183">
        <ele>347</ele>
        <time>2012-05-10T22:19:08Z</time>
      </trkpt>
      <trkpt lat="27.89297" lon="-10.92215">
        <ele>348</ele>
        <time>2012-05-10T22:19:13Z</time>
      </trkpt>
      <trkpt lat="27.89297" lon="-10.92237">
        <ele>348.7</ele>
        <time>2012-05-10T22:19:18Z</time>
      </trkpt>
      <trkpt lat="27.89293" lon="-10.92267">
        <ele>350</ele>
        <time>2012-05-10T22:19:23Z</time>
      </trkpt>
      <trkpt lat="27.89291" lon="-10.92294">
        <ele>351</ele>
        <time>2012-05-10T22:19:28Z</time>
      </trkpt>
      <trkpt lat="27.89287" lon="-10.92318">
        <ele>352.2</ele>
        <time>2012-05-10T22:19:33Z</time>
      </trkpt>
      <trkpt lat="27.89287" lon="-10.92343">
        <ele>353.2</ele>
        <time>2012-05-10T22:19:38Z</time>
      </trkpt>
      <trkpt lat="27.89283" lon="-10.92366">
        <ele>354</ele>
        <time>2012-05-10T22:19:43Z</time>
      </trkpt>
      <trkpt lat="27.89277" lon="-10.92388">
        <ele>354.5</ele>
        <time>2012-05-10T22:19:48Z</time>
      </trkpt>
      <trkpt lat="27.89271" lon="-10.92407">
        <ele>355.2</ele>
        <time>2012-05-10T22:19:53Z</time>
      </trkpt>
      <trkpt lat="27.89267" lon="-10.92431">
        <ele>355.9</ele>
        <time>2012-05-10T22:19:58Z</time>
      </trkpt>
      <trkpt lat="27.89257" lon="-10.9245">
        <ele>355.9</ele>
        <time>2012-05-10T22:20:03Z</time>
      </trkpt>
      <trkpt lat="27.89248" lon="-10.92473">
        <ele>356.5</ele>
        <time>2012-05-10T22:20:08Z</time>
      </trkpt>
      <trkpt lat="27.89238" lon="-10.92494">
        <ele>356.9</ele>
        <time>2012-05-10T22:20:13Z</time>
      </trkpt>
      <trkpt lat="27.89228" lon="-10.92513">
        <ele>358.1</ele>
        <time>2012-05-10T22:20:18Z</time>
      </trkpt>
      <trkpt lat="27.89222" lon="-10.92535">
        <ele>359</ele>
        <time>2012-05-10T22:20:23Z</time>
      </trkpt>
      <trkpt lat="27.89206" lon="-10.92615">
        <ele>362.7</ele>
        <time>2012-05-10T22:20:28Z</time>
      </trkpt>
      <trkpt lat="27.892" lon="-10.92641">
        <ele>362.6</ele>
        <time>2012-05-10T22:20:33Z</time>
      </trkpt>
      <trkpt lat="27.89191" lon="-10.92679">
        <ele>363.7</ele>
        <time>2012-05-10T22:20:38Z</time>
      </trkpt>
      <trkpt lat="27.89185" lon="-10.92705">
        <ele>365.3</ele>
        <time>2012-05-10T22:20:43Z</time>
      </trkpt>
      <trkpt lat="27.89179" lon="-10.92728">
        <ele>366.4</ele>
        <time>2012-05-10T22:20:48Z</time>
      </trkpt>
      <trkpt lat="27.89172" lon="-10.92751">
        <ele>367</ele>
        <time>2012-05-10T22:20:53Z</time>
      </trkpt>
      <trkpt lat="27.89159" lon="-10.92793">
        <ele>368.2</ele>
        <time>2012-05-10T22:20:58Z</time>
      </trkpt>
      <trkpt lat="27.89152" lon="-10.92818">
        <ele>368.4</ele>
        <time>2012-05-10T22:21:03Z</time>
      </trkpt>
      <trkpt lat="27.89148" lon="-10.92844">
        <ele>368.2</ele>
        <time>2012-05-10T22:21:08Z</time>
      </trkpt>
      <trkpt lat="27.89143" lon="-10.92868">
        <ele>367.2</ele>
        <time>2012-05-10T22:21:13Z</time>
      </trkpt>
      <trkpt lat="27.89135" lon="-10.92887">
        <ele>365.6</ele>
        <time>2012-05-10T22:21:18Z</time>
      </trkpt>
      <trkpt lat="27.89122" lon="-10.92902">
        <ele>364.2</ele>
        <time>2012-05-10T22:21:23Z</time>
      </trkpt>
      <trkpt lat="27.89103" lon="-10.92922">
        <ele>362.2</ele>
        <time>2012-05-10T22:21:28Z</time>
      </trkpt>
      <trkpt lat="27.89087" lon="-10.92939">
        <ele>359.5</ele>
        <time>2012-05-10T22:21:33Z</time>
      </trkpt>
      <trkpt lat="27.89072" lon="-10.92953">
        <ele>357.7</ele>
        <time>2012-05-10T22:21:38Z</time>
      </trkpt>
      <trkpt lat="27.89057" lon="-10.9297">
        <ele>355.8</ele>
        <time>2012-05-10T22:21:43Z</time>
      </trkpt>
      <trkpt lat="27.89041" lon="-10.92984">
        <ele>353.9</ele>
        <time>2012-05-10T22:21:48Z</time>
      </trkpt>
      <trkpt lat="27.89027" lon="-10.93">
        <ele>352.1</ele>
        <time>2012-05-10T22:21:53Z</time>
      </trkpt>
      <trkpt lat="27.89016" lon="-10.93015">
        <ele>350.1</ele>
        <time>2012-05-10T22:21:58Z</time>
      </trkpt>
      <trkpt lat="27.88996" lon="-10.9303">
        <ele>347.5</ele>
        <time>2012-05-10T22:22:03Z</time>
      </trkpt>
      <trkpt lat="27.88973" lon="-10.93048">
        <ele>344.6</ele>
        <time>2012-05-10T22:22:08Z</time>
      </trkpt>
      <trkpt lat="27.88957" lon="-10.93059">
        <ele>343.2</ele>
        <time>2012-05-10T22:22:13Z</time>
      </trkpt>
      <trkpt lat="27.88941" lon="-10.9307">
        <ele>343</ele>
        <time>2012-05-10T22:22:18Z</time>
      </trkpt>
      <trkpt lat="27.88925" lon="-10.93086">
        <ele>341.8</ele>
        <time>2012-05-10T22:22:23Z</time>
      </trkpt>
      <trkpt lat="27.88907" lon="-10.931">
        <ele>340.5</ele>
        <time>2012-05-10T22:22:28Z</time>
      </trkpt>
      <trkpt lat="27.88884" lon="-10.93116">
        <ele>339.4</ele>
        <time>2012-05-10T22:22:33Z</time>
      </trkpt>
      <trkpt lat="27.8886" lon="-10.93126">
        <ele>339.1</ele>
        <time>2012-05-10T22:22:38Z</time>
      </trkpt>
      <trkpt lat="27.88839" lon="-10.93136">
        <ele>339.1</ele>
        <time>2012-05-10T22:22:43Z</time>
      </trkpt>
      <trkpt lat="27.88819" lon="-10.93151">
        <ele>337.8</ele>
        <time>2012-05-10T22:22:48Z</time>
      </trkpt>
      <trkpt lat="27.88799" lon="-10.93161">
        <ele>336.3</ele>
        <time>2012-05-10T22:22:53Z</time>
      </trkpt>
      <trkpt lat="27.8878" lon="-10.93165">
        <ele>335.2</ele>
        <time>2012-05-10T22:22:58Z</time>
      </trkpt>
      <trkpt lat="27.88762" lon="-10.93172">
        <ele>334.3</ele>
        <time>2012-05-10T22:23:03Z</time>
      </trkpt>
      <trkpt lat="27.88746" lon="-10.93189">
        <ele>333.5</ele>
        <time>2012-05-10T22:23:08Z</time>
      </trkpt>
      <trkpt lat="27.88737" lon="-10.93211">
        <ele>332.2</ele>
        <time>2012-05-10T22:23:13Z</time>
      </trkpt>
      <trkpt lat="27.88724" lon="-10.93234">
        <ele>333.1</ele>
        <time>2012-05-10T22:23:18Z</time>
      </trkpt>
      <trkpt lat="27.88704" lon="-10.93253">
        <ele>332.7</ele>
        <time>2012-05-10T22:23:23Z</time>
      </trkpt>
      <trkpt lat="27.88691" lon="-10.93268">
        <ele>332.2</ele>
        <time>2012-05-10T22:23:28Z</time>
      </trkpt>
      <trkpt lat="27.88675" lon="-10.93293">
        <ele>331.4</ele>
        <time>2012-05-10T22:23:33Z</time>
      </trkpt>
      <trkpt lat="27.88658" lon="-10.93314">
        <ele>330.7</ele>
        <time>2012-05-10T22:23:38Z</time>
      </trkpt>
      <trkpt lat="27.88638" lon="-10.93331">
        <ele>330.5</ele>
        <time>2012-05-10T22:23:43Z</time>
      </trkpt>
      <trkpt lat="27.8862" lon="-10.93346">
        <ele>330.3</ele>
        <time>2012-05-10T22:23:48Z</time>
      </trkpt>
      <trkpt lat="27.88601" lon="-10.93357">
        <ele>329.7</ele>
        <time>2012-05-10T22:23:53Z</time>
      </trkpt>
      <trkpt lat="27.88581" lon="-10.93364">
        <ele>328.6</ele>
        <time>2012-05-10T22:23:58Z</time>
      </trkpt>
      <trkpt lat="27.8856" lon="-10.93372">
        <ele>327.7</ele>
        <time>2012-05-10T22:24:03Z</time>
      </trkpt>
      <trkpt lat="27.88539" lon="-10.93383">
        <ele>327.1</ele>
        <time>2012-05-10T22:24:08Z</time>
      </trkpt>
      <trkpt lat="27.88504" lon="-10.93402">
        <ele>326.5</ele>
        <time>2012-05-10T22:24:13Z</time>
      </trkpt>
      <trkpt lat="27.88481" lon="-10.93408">
        <ele>326</ele>
        <time>2012-05-10T22:24:18Z</time>
      </trkpt>
      <trkpt lat="27.88456" lon="-10.93408">
        <ele>325.7</ele>
        <time>2012-05-10T22:24:23Z</time>
      </trkpt>
      <trkpt lat="27.8843" lon="-10.93406">
        <ele>325.3</ele>
        <time>2012-05-10T22:24:28Z</time>
      </trkpt>
      <trkpt lat="27.88402" lon="-10.93406">
        <ele>325.1</ele>
        <time>2012-05-10T22:24:33Z</time>
      </trkpt>
      <trkpt lat="27.88369" lon="-10.93404">
        <ele>324.1</ele>
        <time>2012-05-10T22:24:38Z</time>
      </trkpt>
      <trkpt lat="27.88342" lon="-10.93411">
        <ele>323.3</ele>
        <time>2012-05-10T22:24:43Z</time>
      </trkpt>
      <trkpt lat="27.8831" lon="-10.93423">
        <ele>322.3</ele>
        <time>2012-05-10T22:24:48Z</time>
      </trkpt>
      <trkpt lat="27.88291" lon="-10.93438">
        <ele>321.6</ele>
        <time>2012-05-10T22:24:53Z</time>
      </trkpt>
      <trkpt lat="27.8827" lon="-10.93453">
        <ele>321.2</ele>
        <time>2012-05-10T22:24:58Z</time>
      </trkpt>
      <trkpt lat="27.88252" lon="-10.93456">
        <ele>321.2</ele>
        <time>2012-05-10T22:25:03Z</time>
      </trkpt>
      <trkpt lat="27.8823" lon="-10.9346">
        <ele>321.1</ele>
        <time>2012-05-10T22:25:08Z</time>
      </trkpt>
      <trkpt lat="27.88212" lon="-10.9345">
        <ele>320.7</ele>
        <time>2012-05-10T22:25:13Z</time>
      </trkpt>
      <trkpt lat="27.88193" lon="-10.93444">
        <ele>320.2</ele>
        <time>2012-05-10T22:25:18Z</time>
      </trkpt>
      <trkpt lat="27.88175" lon="-10.9345">
        <ele>320</ele>
        <time>2012-05-10T22:25:23Z</time>
      </trkpt>
      <trkpt lat="27.88157" lon="-10.93459">
        <ele>319.8</ele>
        <time>2012-05-10T22:25:28Z</time>
      </trkpt>
      <trkpt lat="27.8814" lon="-10.93474">
        <ele>319.6</ele>
        <time>2012-05-10T22:25:33Z</time>
      </trkpt>
      <trkpt lat="27.88125" lon="-10.93496">
        <ele>319</ele>
        <time>2012-05-10T22:25:38Z</time>
      </trkpt>
      <trkpt lat="27.88098" lon="-10.93539">
        <ele>317.5</ele>
        <time>2012-05-10T22:25:43Z</time>
      </trkpt>
      <trkpt lat="27.88086" lon="-10.93564">
        <ele>316.5</ele>
        <time>2012-05-10T22:25:48Z</time>
      </trkpt>
      <trkpt lat="27.88051" lon="-10.93655">
        <ele>314.9</ele>
        <time>2012-05-10T22:25:53Z</time>
      </trkpt>
      <trkpt lat="27.88041" lon="-10.9368">
        <ele>314.8</ele>
        <time>2012-05-10T22:25:58Z</time>
      </trkpt>
      <trkpt lat="27.88034" lon="-10.93706">
        <ele>314.3</ele>
        <time>2012-05-10T22:26:03Z</time>
      </trkpt>
      <trkpt lat="27.88028" lon="-10.93731">
        <ele>313.5</ele>
        <time>2012-05-10T22:26:08Z</time>
      </trkpt>
      <trkpt lat="27.88024" lon="-10.93754">
        <ele>313</ele>
        <time>2012-05-10T22:26:13Z</time>
      </trkpt>
      <trkpt lat="27.88026" lon="-10.93775">
        <ele>312.6</ele>
        <time>2012-05-10T22:26:18Z</time>
      </trkpt>
      <trkpt lat="27.88033" lon="-10.93799">
        <ele>313</ele>
        <time>2012-05-10T22:26:23Z</time>
      </trkpt>
      <trkpt lat="27.88041" lon="-10.93828">
        <ele>312.4</ele>
        <time>2012-05-10T22:26:28Z</time>
      </trkpt>
      <trkpt lat="27.88045" lon="-10.93853">
        <ele>311.4</ele>
        <time>2012-05-10T22:26:33Z</time>
      </trkpt>
      <trkpt lat="27.88046" lon="-10.93882">
        <ele>310.7</ele>
        <time>2012-05-10T22:26:38Z</time>
      </trkpt>
      <trkpt lat="27.88047" lon="-10.93902">
        <ele>310.5</ele>
        <time>2012-05-10T22:26:43Z</time>
      </trkpt>
      <trkpt lat="27.88047" lon="-10.93923">
        <ele>310.6</ele>
        <time>2012-05-10T22:26:48Z</time>
      </trkpt>
      <trkpt lat="27.88049" lon="-10.93944">
        <ele>310.2</ele>
        <time>2012-05-10T22:26:53Z</time>
      </trkpt>
      <trkpt lat="27.88053" lon="-10.93965">
        <ele>310</ele>
        <time>2012-05-10T22:26:58Z</time>
      </trkpt>
      <trkpt lat="27.88059" lon="-10.93997">
        <ele>309.7</ele>
        <time>2012-05-10T22:27:03Z</time>
      </trkpt>
      <trkpt lat="27.88063" lon="-10.94017">
        <ele>309.2</ele>
        <time>2012-05-10T22:27:08Z</time>
      </trkpt>
      <trkpt lat="27.88067" lon="-10.94038">
        <ele>308.4</ele>
        <time>2012-05-10T22:27:13Z</time>
      </trkpt>
      <trkpt lat="27.88071" lon="-10.94058">
        <ele>308.3</ele>
        <time>2012-05-10T22:27:18Z</time>
      </trkpt>
      <trkpt lat="27.88079" lon="-10.94086">
        <ele>307.2</ele>
        <time>2012-05-10T22:27:23Z</time>
      </trkpt>
      <trkpt lat="27.88093" lon="-10.94105">
        <ele>307</ele>
        <time>2012-05-10T22:27:28Z</time>
      </trkpt>
      <trkpt lat="27.88112" lon="-10.94117">
        <ele>305.3</ele>
        <time>2012-05-10T22:27:33Z</time>
      </trkpt>
      <trkpt lat="27.88125" lon="-10.94139">
        <ele>306.1</ele>
        <time>2012-05-10T22:27:38Z</time>
      </trkpt>
      <trkpt lat="27.88135" lon="-10.94169">
        <ele>305.8</ele>
        <time>2012-05-10T22:27:43Z</time>
      </trkpt>
      <trkpt lat="27.88156" lon="-10.94212">
        <ele>305.1</ele>
        <time>2012-05-10T22:27:48Z</time>
      </trkpt>
      <trkpt lat="27.88168" lon="-10.94229">
        <ele>304.6</ele>
        <time>2012-05-10T22:27:53Z</time>
      </trkpt>
      <trkpt lat="27.88192" lon="-10.94263">
        <ele>303.8</ele>
        <time>2012-05-10T22:27:58Z</time>
      </trkpt>
      <trkpt lat="27.88203" lon="-10.94284">
        <ele>303.4</ele>
        <time>2012-05-10T22:28:03Z</time>
      </trkpt>
      <trkpt lat="27.88206" lon="-10.9431">
        <ele>302.1</ele>
        <time>2012-05-10T22:28:08Z</time>
      </trkpt>
      <trkpt lat="27.8821" lon="-10.9433">
        <ele>302.2</ele>
        <time>2012-05-10T22:28:13Z</time>
      </trkpt>
      <trkpt lat="27.88221" lon="-10.94352">
        <ele>301.7</ele>
        <time>2012-05-10T22:28:18Z</time>
      </trkpt>
      <trkpt lat="27.88241" lon="-10.94372">
        <ele>300.9</ele>
        <time>2012-05-10T22:28:23Z</time>
      </trkpt>
      <trkpt lat="27.88262" lon="-10.94391">
        <ele>300</ele>
        <time>2012-05-10T22:28:28Z</time>
      </trkpt>
      <trkpt lat="27.88282" lon="-10.94411">
        <ele>299.5</ele>
        <time>2012-05-10T22:28:33Z</time>
      </trkpt>
      <trkpt lat="27.88303" lon="-10.94429">
        <ele>299.3</ele>
        <time>2012-05-10T22:28:38Z</time>
      </trkpt>
      <trkpt lat="27.8832" lon="-10.94451">
        <ele>298.9</ele>
        <time>2012-05-10T22:28:43Z</time>
      </trkpt>
      <trkpt lat="27.88328" lon="-10.94469">
        <ele>298.8</ele>
        <time>2012-05-10T22:28:48Z</time>
      </trkpt>
      <trkpt lat="27.88336" lon="-10.94489">
        <ele>298.4</ele>
        <time>2012-05-10T22:28:53Z</time>
      </trkpt>
      <trkpt lat="27.88371" lon="-10.94586">
        <ele>296.7</ele>
        <time>2012-05-10T22:28:58Z</time>
      </trkpt>
      <trkpt lat="27.88384" lon="-10.94611">
        <ele>296.2</ele>
        <time>2012-05-10T22:29:03Z</time>
      </trkpt>
      <trkpt lat="27.88393" lon="-10.94636">
        <ele>296.3</ele>
        <time>2012-05-10T22:29:08Z</time>
      </trkpt>
      <trkpt lat="27.88392" lon="-10.94664">
        <ele>296.3</ele>
        <time>2012-05-10T22:29:13Z</time>
      </trkpt>
      <trkpt lat="27.88394" lon="-10.94694">
        <ele>295.5</ele>
        <time>2012-05-10T22:29:18Z</time>
      </trkpt>
      <trkpt lat="27.884" lon="-10.94722">
        <ele>295.4</ele>
        <time>2012-05-10T22:29:23Z</time>
      </trkpt>
      <trkpt lat="27.88404" lon="-10.94749">
        <ele>295.6</ele>
        <time>2012-05-10T22:29:28Z</time>
      </trkpt>
      <trkpt lat="27.88412" lon="-10.94768">
        <ele>295.4</ele>
        <time>2012-05-10T22:29:33Z</time>
      </trkpt>
      <trkpt lat="27.88424" lon="-10.94788">
        <ele>295</ele>
        <time>2012-05-10T22:29:38Z</time>
      </trkpt>
      <trkpt lat="27.88446" lon="-10.94827">
        <ele>294.1</ele>
        <time>2012-05-10T22:29:43Z</time>
      </trkpt>
      <trkpt lat="27.88464" lon="-10.94863">
        <ele>292.9</ele>
        <time>2012-05-10T22:29:48Z</time>
      </trkpt>
      <trkpt lat="27.88474" lon="-10.94891">
        <ele>291.9</ele>
        <time>2012-05-10T22:29:53Z</time>
      </trkpt>
      <trkpt lat="27.88489" lon="-10.94934">
        <ele>291.3</ele>
        <time>2012-05-10T22:29:58Z</time>
      </trkpt>
      <trkpt lat="27.88497" lon="-10.94953">
        <ele>291.8</ele>
        <time>2012-05-10T22:30:03Z</time>
      </trkpt>
      <trkpt lat="27.88505" lon="-10.94972">
        <ele>291.7</ele>
        <time>2012-05-10T22:30:08Z</time>
      </trkpt>
      <trkpt lat="27.88513" lon="-10.94991">
        <ele>291.8</ele>
        <time>2012-05-10T22:30:13Z</time>
      </trkpt>
      <trkpt lat="27.88536" lon="-10.9505">
        <ele>291.7</ele>
        <time>2012-05-10T22:30:18Z</time>
      </trkpt>
      <trkpt lat="27.88546" lon="-10.9507">
        <ele>291.5</ele>
        <time>2012-05-10T22:30:23Z</time>
      </trkpt>
      <trkpt lat="27.88553" lon="-10.95088">
        <ele>291.3</ele>
        <time>2012-05-10T22:30:28Z</time>
      </trkpt>
      <trkpt lat="27.88555" lon="-10.95117">
        <ele>290.8</ele>
        <time>2012-05-10T22:30:33Z</time>
      </trkpt>
      <trkpt lat="27.88555" lon="-10.95149">
        <ele>289.3</ele>
        <time>2012-05-10T22:30:38Z</time>
      </trkpt>
      <trkpt lat="27.88556" lon="-10.9517">
        <ele>288.8</ele>
        <time>2012-05-10T22:30:43Z</time>
      </trkpt>
      <trkpt lat="27.88554" lon="-10.95192">
        <ele>288.6</ele>
        <time>2012-05-10T22:30:48Z</time>
      </trkpt>
      <trkpt lat="27.8855" lon="-10.95216">
        <ele>287.7</ele>
        <time>2012-05-10T22:30:53Z</time>
      </trkpt>
      <trkpt lat="27.88547" lon="-10.95237">
        <ele>288.4</ele>
        <time>2012-05-10T22:30:58Z</time>
      </trkpt>
      <trkpt lat="27.88547" lon="-10.95266">
        <ele>288.6</ele>
        <time>2012-05-10T22:31:03Z</time>
      </trkpt>
      <trkpt lat="27.8855" lon="-10.95288">
        <ele>288.4</ele>
        <time>2012-05-10T22:31:08Z</time>
      </trkpt>
      <trkpt lat="27.88554" lon="-10.95312">
        <ele>287.9</ele>
        <time>2012-05-10T22:31:13Z</time>
      </trkpt>
      <trkpt lat="27.88555" lon="-10.95337">
        <ele>287.8</ele>
        <time>2012-05-10T22:31:18Z</time>
      </trkpt>
      <trkpt lat="27.88557" lon="-10.95362">
        <ele>287.5</ele>
        <time>2012-05-10T22:31:23Z</time>
      </trkpt>
      <trkpt lat="27.88562" lon="-10.95388">
        <ele>287.2</ele>
        <time>2012-05-10T22:31:28Z</time>
      </trkpt>
      <trkpt lat="27.88568" lon="-10.95414">
        <ele>286.9</ele>
        <time>2012-05-10T22:31:33Z</time>
      </trkpt>
      <trkpt lat="27.88574" lon="-10.95438">
        <ele>286.7</ele>
        <time>2012-05-10T22:31:38Z</time>
      </trkpt>
      <trkpt lat="27.88598" lon="-10.95549">
        <ele>285</ele>
        <time>2012-05-10T22:31:43Z</time>
      </trkpt>
      <trkpt lat="27.88602" lon="-10.95572">
        <ele>284.9</ele>
        <time>2012-05-10T22:31:48Z</time>
      </trkpt>
      <trkpt lat="27.88609" lon="-10.95594">
        <ele>284.5</ele>
        <time>2012-05-10T22:31:53Z</time>
      </trkpt>
      <trkpt lat="27.88619" lon="-10.95627">
        <ele>284.1</ele>
        <time>2012-05-10T22:31:58Z</time>
      </trkpt>
      <trkpt lat="27.88622" lon="-10.95648">
        <ele>283.7</ele>
        <time>2012-05-10T22:32:03Z</time>
      </trkpt>
      <trkpt lat="27.88622" lon="-10.95671">
        <ele>283</ele>
        <time>2012-05-10T22:32:08Z</time>
      </trkpt>
      <trkpt lat="27.8862" lon="-10.9572">
        <ele>283</ele>
        <time>2012-05-10T22:32:13Z</time>
      </trkpt>
      <trkpt lat="27.88622" lon="-10.95748">
        <ele>283.1</ele>
        <time>2012-05-10T22:32:18Z</time>
      </trkpt>
      <trkpt lat="27.88636" lon="-10.95939">
        <ele>281.8</ele>
        <time>2012-05-10T22:32:23Z</time>
      </trkpt>
      <trkpt lat="27.8864" lon="-10.95962">
        <ele>281.6</ele>
        <time>2012-05-10T22:32:28Z</time>
      </trkpt>
      <trkpt lat="27.88643" lon="-10.95986">
        <ele>281.5</ele>
        <time>2012-05-10T22:32:33Z</time>
      </trkpt>
      <trkpt lat="27.88647" lon="-10.96022">
        <ele>281.7</ele>
        <time>2012-05-10T22:32:38Z</time>
      </trkpt>
      <trkpt lat="27.88652" lon="-10.96046">
        <ele>281.7</ele>
        <time>2012-05-10T22:32:43Z</time>
      </trkpt>
      <trkpt lat="27.8869" lon="-10.9623">
        <ele>277.4</ele>
        <time>2012-05-10T22:32:48Z</time>
      </trkpt>
      <trkpt lat="27.88692" lon="-10.96257">
        <ele>278</ele>
        <time>2012-05-10T22:32:53Z</time>
      </trkpt>
      <trkpt lat="27.88685" lon="-10.96286">
        <ele>278.5</ele>
        <time>2012-05-10T22:32:58Z</time>
      </trkpt>
      <trkpt lat="27.88674" lon="-10.96307">
        <ele>278.5</ele>
        <time>2012-05-10T22:33:03Z</time>
      </trkpt>
      <trkpt lat="27.8866" lon="-10.96331">
        <ele>278.3</ele>
        <time>2012-05-10T22:33:08Z</time>
      </trkpt>
      <trkpt lat="27.88575" lon="-10.96475">
        <ele>278</ele>
        <time>2012-05-10T22:33:13Z</time>
      </trkpt>
      <trkpt lat="27.8842" lon="-10.96756">
        <ele>275.9</ele>
        <time>2012-05-10T22:33:18Z</time>
      </trkpt>
      <trkpt lat="27.88405" lon="-10.9678">
        <ele>275.5</ele>
        <time>2012-05-10T22:33:23Z</time>
      </trkpt>
      <trkpt lat="27.88383" lon="-10.96817">
        <ele>274.9</ele>
        <time>2012-05-10T22:33:28Z</time>
      </trkpt>
      <trkpt lat="27.88349" lon="-10.96879">
        <ele>274</ele>
        <time>2012-05-10T22:33:33Z</time>
      </trkpt>
      <trkpt lat="27.88338" lon="-10.96903">
        <ele>273.7</ele>
        <time>2012-05-10T22:33:38Z</time>
      </trkpt>
      <trkpt lat="27.88327" lon="-10.9693">
        <ele>273.5</ele>
        <time>2012-05-10T22:33:43Z</time>
      </trkpt>
      <trkpt lat="27.88315" lon="-10.96956">
        <ele>273.3</ele>
        <time>2012-05-10T22:33:48Z</time>
      </trkpt>
      <trkpt lat="27.88303" lon="-10.96981">
        <ele>272.9</ele>
        <time>2012-05-10T22:33:53Z</time>
      </trkpt>
      <trkpt lat="27.88287" lon="-10.97004">
        <ele>272.4</ele>
        <time>2012-05-10T22:33:58Z</time>
      </trkpt>
      <trkpt lat="27.8827" lon="-10.97026">
        <ele>272.2</ele>
        <time>2012-05-10T22:34:03Z</time>
      </trkpt>
      <trkpt lat="27.88235" lon="-10.97074">
        <ele>271.5</ele>
        <time>2012-05-10T22:34:08Z</time>
      </trkpt>
      <trkpt lat="27.88218" lon="-10.97099">
        <ele>271.2</ele>
        <time>2012-05-10T22:34:13Z</time>
      </trkpt>
      <trkpt lat="27.88202" lon="-10.97125">
        <ele>271</ele>
        <time>2012-05-10T22:34:18Z</time>
      </trkpt>
      <trkpt lat="27.88163" lon="-10.97195">
        <ele>270.1</ele>
        <time>2012-05-10T22:34:23Z</time>
      </trkpt>
      <trkpt lat="27.88147" lon="-10.97223">
        <ele>269.7</ele>
        <time>2012-05-10T22:34:28Z</time>
      </trkpt>
      <trkpt lat="27.88133" lon="-10.9725">
        <ele>269.4</ele>
        <time>2012-05-10T22:34:33Z</time>
      </trkpt>
      <trkpt lat="27.88098" lon="-10.97317">
        <ele>268.6</ele>
        <time>2012-05-10T22:34:38Z</time>
      </trkpt>
      <trkpt lat="27.88068" lon="-10.97375">
        <ele>267.7</ele>
        <time>2012-05-10T22:34:43Z</time>
      </trkpt>
      <trkpt lat="27.8803" lon="-10.97453">
        <ele>266.9</ele>
        <time>2012-05-10T22:34:48Z</time>
      </trkpt>
      <trkpt lat="27.87991" lon="-10.97533">
        <ele>266</ele>
        <time>2012-05-10T22:34:53Z</time>
      </trkpt>
      <trkpt lat="27.87933" lon="-10.9764">
        <ele>264.6</ele>
        <time>2012-05-10T22:34:58Z</time>
      </trkpt>
      <trkpt lat="27.87875" lon="-10.9774">
        <ele>262.8</ele>
        <time>2012-05-10T22:35:03Z</time>
      </trkpt>
      <trkpt lat="27.8786" lon="-10.97769">
        <ele>262.4</ele>
        <time>2012-05-10T22:35:08Z</time>
      </trkpt>
      <trkpt lat="27.87847" lon="-10.97799">
        <ele>262.1</ele>
        <time>2012-05-10T22:35:13Z</time>
      </trkpt>
      <trkpt lat="27.87837" lon="-10.9783">
        <ele>261.7</ele>
        <time>2012-05-10T22:35:18Z</time>
      </trkpt>
      <trkpt lat="27.87828" lon="-10.9786">
        <ele>261.4</ele>
        <time>2012-05-10T22:35:23Z</time>
      </trkpt>
      <trkpt lat="27.87821" lon="-10.97887">
        <ele>261.1</ele>
        <time>2012-05-10T22:35:28Z</time>
      </trkpt>
      <trkpt lat="27.87809" lon="-10.97907">
        <ele>260.6</ele>
        <time>2012-05-10T22:35:33Z</time>
      </trkpt>
      <trkpt lat="27.87792" lon="-10.97919">
        <ele>260.4</ele>
        <time>2012-05-10T22:35:38Z</time>
      </trkpt>
      <trkpt lat="27.8777" lon="-10.97909">
        <ele>260.9</ele>
        <time>2012-05-10T22:35:43Z</time>
      </trkpt>
      <trkpt lat="27.87749" lon="-10.97901">
        <ele>260.4</ele>
        <time>2012-05-10T22:35:48Z</time>
      </trkpt>
      <trkpt lat="27.87731" lon="-10.97906">
        <ele>260.6</ele>
        <time>2012-05-10T22:35:53Z</time>
      </trkpt>
      <trkpt lat="27.87713" lon="-10.97917">
        <ele>260.7</ele>
        <time>2012-05-10T22:35:58Z</time>
      </trkpt>
      <trkpt lat="27.87696" lon="-10.97938">
        <ele>260.8</ele>
        <time>2012-05-10T22:36:03Z</time>
      </trkpt>
      <trkpt lat="27.87687" lon="-10.97955">
        <ele>260.5</ele>
        <time>2012-05-10T22:36:08Z</time>
      </trkpt>
      <trkpt lat="27.87675" lon="-10.97975">
        <ele>260.3</ele>
        <time>2012-05-10T22:36:13Z</time>
      </trkpt>
      <trkpt lat="27.87661" lon="-10.97996">
        <ele>259.9</ele>
        <time>2012-05-10T22:36:18Z</time>
      </trkpt>
      <trkpt lat="27.87644" lon="-10.98016">
        <ele>259.6</ele>
        <time>2012-05-10T22:36:23Z</time>
      </trkpt>
      <trkpt lat="27.87625" lon="-10.98035">
        <ele>259.6</ele>
        <time>2012-05-10T22:36:28Z</time>
      </trkpt>
      <trkpt lat="27.87565" lon="-10.98092">
        <ele>259.1</ele>
        <time>2012-05-10T22:36:33Z</time>
      </trkpt>
      <trkpt lat="27.87548" lon="-10.98114">
        <ele>259</ele>
        <time>2012-05-10T22:36:38Z</time>
      </trkpt>
      <trkpt lat="27.87534" lon="-10.98137">
        <ele>258.7</ele>
        <time>2012-05-10T22:36:43Z</time>
      </trkpt>
      <trkpt lat="27.87523" lon="-10.98162">
        <ele>258.2</ele>
        <time>2012-05-10T22:36:48Z</time>
      </trkpt>
      <trkpt lat="27.87505" lon="-10.98198">
        <ele>257.4</ele>
        <time>2012-05-10T22:36:53Z</time>
      </trkpt>
      <trkpt lat="27.87491" lon="-10.9822">
        <ele>257</ele>
        <time>2012-05-10T22:36:58Z</time>
      </trkpt>
      <trkpt lat="27.87474" lon="-10.98241">
        <ele>256.6</ele>
        <time>2012-05-10T22:37:03Z</time>
      </trkpt>
      <trkpt lat="27.87449" lon="-10.9827">
        <ele>256.1</ele>
        <time>2012-05-10T22:37:08Z</time>
      </trkpt>
      <trkpt lat="27.87434" lon="-10.98293">
        <ele>255.6</ele>
        <time>2012-05-10T22:37:13Z</time>
      </trkpt>
      <trkpt lat="27.87411" lon="-10.98332">
        <ele>254.6</ele>
        <time>2012-05-10T22:37:18Z</time>
      </trkpt>
      <trkpt lat="27.87351" lon="-10.98428">
        <ele>252.7</ele>
        <time>2012-05-10T22:37:23Z</time>
      </trkpt>
      <trkpt lat="27.87333" lon="-10.98454">
        <ele>252.2</ele>
        <time>2012-05-10T22:37:28Z</time>
      </trkpt>
      <trkpt lat="27.87313" lon="-10.98478">
        <ele>251.9</ele>
        <time>2012-05-10T22:37:33Z</time>
      </trkpt>
      <trkpt lat="27.87291" lon="-10.98501">
        <ele>251.6</ele>
        <time>2012-05-10T22:37:38Z</time>
      </trkpt>
      <trkpt lat="27.87267" lon="-10.98523">
        <ele>251.2</ele>
        <time>2012-05-10T22:37:43Z</time>
      </trkpt>
      <trkpt lat="27.87231" lon="-10.98554">
        <ele>250.6</ele>
        <time>2012-05-10T22:37:48Z</time>
      </trkpt>
      <trkpt lat="27.87207" lon="-10.98571">
        <ele>250.5</ele>
        <time>2012-05-10T22:37:53Z</time>
      </trkpt>
      <trkpt lat="27.8718" lon="-10.98584">
        <ele>250.3</ele>
        <time>2012-05-10T22:37:58Z</time>
      </trkpt>
      <trkpt lat="27.87126" lon="-10.98607">
        <ele>250.1</ele>
        <time>2012-05-10T22:38:03Z</time>
      </trkpt>
      <trkpt lat="27.87089" lon="-10.98625">
        <ele>249.8</ele>
        <time>2012-05-10T22:38:08Z</time>
      </trkpt>
      <trkpt lat="27.87063" lon="-10.9863">
        <ele>249.6</ele>
        <time>2012-05-10T22:38:13Z</time>
      </trkpt>
      <trkpt lat="27.87038" lon="-10.98637">
        <ele>249.4</ele>
        <time>2012-05-10T22:38:18Z</time>
      </trkpt>
      <trkpt lat="27.87014" lon="-10.98646">
        <ele>249.4</ele>
        <time>2012-05-10T22:38:23Z</time>
      </trkpt>
      <trkpt lat="27.86993" lon="-10.98657">
        <ele>249.5</ele>
        <time>2012-05-10T22:38:28Z</time>
      </trkpt>
      <trkpt lat="27.86971" lon="-10.98662">
        <ele>249.5</ele>
        <time>2012-05-10T22:38:33Z</time>
      </trkpt>
      <trkpt lat="27.8695" lon="-10.98659">
        <ele>249.5</ele>
        <time>2012-05-10T22:38:38Z</time>
      </trkpt>
      <trkpt lat="27.86927" lon="-10.9866">
        <ele>249.6</ele>
        <time>2012-05-10T22:38:43Z</time>
      </trkpt>
      <trkpt lat="27.86894" lon="-10.98661">
        <ele>249.7</ele>
        <time>2012-05-10T22:38:48Z</time>
      </trkpt>
      <trkpt lat="27.86862" lon="-10.9866">
        <ele>250.1</ele>
        <time>2012-05-10T22:38:53Z</time>
      </trkpt>
      <trkpt lat="27.86843" lon="-10.98666">
        <ele>250.7</ele>
        <time>2012-05-10T22:38:58Z</time>
      </trkpt>
      <trkpt lat="27.86793" lon="-10.9868">
        <ele>251</ele>
        <time>2012-05-10T22:39:03Z</time>
      </trkpt>
      <trkpt lat="27.86763" lon="-10.98686">
        <ele>250.7</ele>
        <time>2012-05-10T22:39:08Z</time>
      </trkpt>
      <trkpt lat="27.86742" lon="-10.98688">
        <ele>250.4</ele>
        <time>2012-05-10T22:39:13Z</time>
      </trkpt>
      <trkpt lat="27.86724" lon="-10.98694">
        <ele>250.2</ele>
        <time>2012-05-10T22:39:18Z</time>
      </trkpt>
      <trkpt lat="27.86705" lon="-10.98699">
        <ele>249.8</ele>
        <time>2012-05-10T22:39:23Z</time>
      </trkpt>
      <trkpt lat="27.86686" lon="-10.98704">
        <ele>249.2</ele>
        <time>2012-05-10T22:39:28Z</time>
      </trkpt>
      <trkpt lat="27.86667" lon="-10.98705">
        <ele>248.7</ele>
        <time>2012-05-10T22:39:33Z</time>
      </trkpt>
      <trkpt lat="27.86649" lon="-10.98707">
        <ele>248.2</ele>
        <time>2012-05-10T22:39:38Z</time>
      </trkpt>
      <trkpt lat="27.86623" lon="-10.98715">
        <ele>247.1</ele>
        <time>2012-05-10T22:39:43Z</time>
      </trkpt>
      <trkpt lat="27.86597" lon="-10.98717">
        <ele>245.6</ele>
        <time>2012-05-10T22:39:48Z</time>
      </trkpt>
      <trkpt lat="27.86574" lon="-10.98713">
        <ele>243.5</ele>
        <time>2012-05-10T22:39:53Z</time>
      </trkpt>
      <trkpt lat="27.8655" lon="-10.98716">
        <ele>241.7</ele>
        <time>2012-05-10T22:39:58Z</time>
      </trkpt>
      <trkpt lat="27.86529" lon="-10.98719">
        <ele>241.6</ele>
        <time>2012-05-10T22:40:03Z</time>
      </trkpt>
      <trkpt lat="27.8651" lon="-10.98718">
        <ele>241.4</ele>
        <time>2012-05-10T22:40:08Z</time>
      </trkpt>
      <trkpt lat="27.86489" lon="-10.98716">
        <ele>241.4</ele>
        <time>2012-05-10T22:40:13Z</time>
      </trkpt>
      <trkpt lat="27.86465" lon="-10.9872">
        <ele>241.5</ele>
        <time>2012-05-10T22:40:18Z</time>
      </trkpt>
      <trkpt lat="27.86408" lon="-10.98736">
        <ele>240</ele>
        <time>2012-05-10T22:40:23Z</time>
      </trkpt>
      <trkpt lat="27.86385" lon="-10.98735">
        <ele>239.5</ele>
        <time>2012-05-10T22:40:28Z</time>
      </trkpt>
      <trkpt lat="27.86359" lon="-10.98725">
        <ele>239</ele>
        <time>2012-05-10T22:40:33Z</time>
      </trkpt>
      <trkpt lat="27.86342" lon="-10.98717">
        <ele>239.1</ele>
        <time>2012-05-10T22:40:38Z</time>
      </trkpt>
      <trkpt lat="27.86324" lon="-10.9871">
        <ele>239.3</ele>
        <time>2012-05-10T22:40:43Z</time>
      </trkpt>
      <trkpt lat="27.86305" lon="-10.98704">
        <ele>239.6</ele>
        <time>2012-05-10T22:40:48Z</time>
      </trkpt>
      <trkpt lat="27.86274" lon="-10.98694">
        <ele>239.8</ele>
        <time>2012-05-10T22:40:53Z</time>
      </trkpt>
      <trkpt lat="27.86254" lon="-10.98685">
        <ele>240.1</ele>
        <time>2012-05-10T22:40:58Z</time>
      </trkpt>
      <trkpt lat="27.86235" lon="-10.98676">
        <ele>240.4</ele>
        <time>2012-05-10T22:41:03Z</time>
      </trkpt>
      <trkpt lat="27.86217" lon="-10.98668">
        <ele>240.7</ele>
        <time>2012-05-10T22:41:08Z</time>
      </trkpt>
      <trkpt lat="27.86198" lon="-10.98661">
        <ele>240.7</ele>
        <time>2012-05-10T22:41:13Z</time>
      </trkpt>
      <trkpt lat="27.86182" lon="-10.98652">
        <ele>240.8</ele>
        <time>2012-05-10T22:41:18Z</time>
      </trkpt>
      <trkpt lat="27.86163" lon="-10.98641">
        <ele>240.7</ele>
        <time>2012-05-10T22:41:23Z</time>
      </trkpt>
      <trkpt lat="27.86142" lon="-10.98631">
        <ele>241.3</ele>
        <time>2012-05-10T22:41:28Z</time>
      </trkpt>
      <trkpt lat="27.8612" lon="-10.98627">
        <ele>241.1</ele>
        <time>2012-05-10T22:41:33Z</time>
      </trkpt>
      <trkpt lat="27.86095" lon="-10.98622">
        <ele>240.9</ele>
        <time>2012-05-10T22:41:38Z</time>
      </trkpt>
      <trkpt lat="27.8607" lon="-10.98613">
        <ele>240.4</ele>
        <time>2012-05-10T22:41:43Z</time>
      </trkpt>
      <trkpt lat="27.86047" lon="-10.98601">
        <ele>240.2</ele>
        <time>2012-05-10T22:41:48Z</time>
      </trkpt>
      <trkpt lat="27.86028" lon="-10.98586">
        <ele>240.4</ele>
        <time>2012-05-10T22:41:53Z</time>
      </trkpt>
      <trkpt lat="27.86006" lon="-10.98577">
        <ele>240.5</ele>
        <time>2012-05-10T22:41:58Z</time>
      </trkpt>
      <trkpt lat="27.85969" lon="-10.98575">
        <ele>240.8</ele>
        <time>2012-05-10T22:42:03Z</time>
      </trkpt>
      <trkpt lat="27.85946" lon="-10.98581">
        <ele>240.5</ele>
        <time>2012-05-10T22:42:08Z</time>
      </trkpt>
      <trkpt lat="27.85927" lon="-10.98597">
        <ele>239.7</ele>
        <time>2012-05-10T22:42:13Z</time>
      </trkpt>
      <trkpt lat="27.85913" lon="-10.98613">
        <ele>238.5</ele>
        <time>2012-05-10T22:42:18Z</time>
      </trkpt>
      <trkpt lat="27.85895" lon="-10.98624">
        <ele>238.1</ele>
        <time>2012-05-10T22:42:23Z</time>
      </trkpt>
      <trkpt lat="27.85879" lon="-10.98639">
        <ele>237.3</ele>
        <time>2012-05-10T22:42:28Z</time>
      </trkpt>
      <trkpt lat="27.85862" lon="-10.98659">
        <ele>236.6</ele>
        <time>2012-05-10T22:42:33Z</time>
      </trkpt>
      <trkpt lat="27.85849" lon="-10.98677">
        <ele>236.3</ele>
        <time>2012-05-10T22:42:38Z</time>
      </trkpt>
      <trkpt lat="27.85833" lon="-10.98692">
        <ele>236.5</ele>
        <time>2012-05-10T22:42:43Z</time>
      </trkpt>
      <trkpt lat="27.85812" lon="-10.98694">
        <ele>237</ele>
        <time>2012-05-10T22:42:48Z</time>
      </trkpt>
      <trkpt lat="27.85792" lon="-10.98699">
        <ele>236.6</ele>
        <time>2012-05-10T22:42:53Z</time>
      </trkpt>
      <trkpt lat="27.8577" lon="-10.98709">
        <ele>236.6</ele>
        <time>2012-05-10T22:42:58Z</time>
      </trkpt>
      <trkpt lat="27.85742" lon="-10.98724">
        <ele>236.4</ele>
        <time>2012-05-10T22:43:03Z</time>
      </trkpt>
      <trkpt lat="27.85725" lon="-10.98731">
        <ele>236.4</ele>
        <time>2012-05-10T22:43:08Z</time>
      </trkpt>
      <trkpt lat="27.85707" lon="-10.98736">
        <ele>236.4</ele>
        <time>2012-05-10T22:43:13Z</time>
      </trkpt>
      <trkpt lat="27.85687" lon="-10.98735">
        <ele>236.5</ele>
        <time>2012-05-10T22:43:18Z</time>
      </trkpt>
      <trkpt lat="27.85667" lon="-10.9873">
        <ele>236.5</ele>
        <time>2012-05-10T22:43:23Z</time>
      </trkpt>
      <trkpt lat="27.85648" lon="-10.9873">
        <ele>236.5</ele>
        <time>2012-05-10T22:43:28Z</time>
      </trkpt>
      <trkpt lat="27.85631" lon="-10.98739">
        <ele>236.8</ele>
        <time>2012-05-10T22:43:33Z</time>
      </trkpt>
      <trkpt lat="27.85616" lon="-10.98754">
        <ele>236.9</ele>
        <time>2012-05-10T22:43:38Z</time>
      </trkpt>
      <trkpt lat="27.85615" lon="-10.98779">
        <ele>237.3</ele>
        <time>2012-05-10T22:43:43Z</time>
      </trkpt>
      <trkpt lat="27.85623" lon="-10.98801">
        <ele>236.5</ele>
        <time>2012-05-10T22:43:48Z</time>
      </trkpt>
      <trkpt lat="27.85629" lon="-10.98822">
        <ele>235.9</ele>
        <time>2012-05-10T22:43:53Z</time>
      </trkpt>
      <trkpt lat="27.85635" lon="-10.9885">
        <ele>235.4</ele>
        <time>2012-05-10T22:43:58Z</time>
      </trkpt>
      <trkpt lat="27.8564" lon="-10.98873">
        <ele>234.6</ele>
        <time>2012-05-10T22:44:03Z</time>
      </trkpt>
      <trkpt lat="27.8564" lon="-10.98898">
        <ele>235.2</ele>
        <time>2012-05-10T22:44:08Z</time>
      </trkpt>
      <trkpt lat="27.85629" lon="-10.98915">
        <ele>236.8</ele>
        <time>2012-05-10T22:44:13Z</time>
      </trkpt>
      <trkpt lat="27.85611" lon="-10.98921">
        <ele>237.7</ele>
        <time>2012-05-10T22:44:18Z</time>
      </trkpt>
      <trkpt lat="27.85591" lon="-10.98919">
        <ele>237.9</ele>
        <time>2012-05-10T22:44:23Z</time>
      </trkpt>
      <trkpt lat="27.85571" lon="-10.98917">
        <ele>237.8</ele>
        <time>2012-05-10T22:44:28Z</time>
      </trkpt>
      <trkpt lat="27.85544" lon="-10.98915">
        <ele>237.9</ele>
        <time>2012-05-10T22:44:33Z</time>
      </trkpt>
      <trkpt lat="27.85524" lon="-10.98913">
        <ele>237.8</ele>
        <time>2012-05-10T22:44:38Z</time>
      </trkpt>
      <trkpt lat="27.85505" lon="-10.98911">
        <ele>237.6</ele>
        <time>2012-05-10T22:44:43Z</time>
      </trkpt>
      <trkpt lat="27.85487" lon="-10.98905">
        <ele>237.5</ele>
        <time>2012-05-10T22:44:48Z</time>
      </trkpt>
      <trkpt lat="27.85464" lon="-10.98899">
        <ele>237.5</ele>
        <time>2012-05-10T22:44:53Z</time>
      </trkpt>
      <trkpt lat="27.85444" lon="-10.98906">
        <ele>237</ele>
        <time>2012-05-10T22:44:58Z</time>
      </trkpt>
      <trkpt lat="27.85418" lon="-10.98923">
        <ele>237.5</ele>
        <time>2012-05-10T22:45:03Z</time>
      </trkpt>
      <trkpt lat="27.85401" lon="-10.98937">
        <ele>240.7</ele>
        <time>2012-05-10T22:45:08Z</time>
      </trkpt>
      <trkpt lat="27.85396" lon="-10.98955">
        <ele>241.8</ele>
        <time>2012-05-10T22:45:13Z</time>
      </trkpt>
      <trkpt lat="27.85377" lon="-10.98948">
        <ele>242</ele>
        <time>2012-05-10T22:45:18Z</time>
      </trkpt>
      <trkpt lat="27.85373" lon="-10.98946">
        <ele>243.3</ele>
        <time>2012-05-10T22:45:23Z</time>
      </trkpt>
      <trkpt lat="27.85373" lon="-10.98945">
        <ele>243.9</ele>
        <time>2012-05-10T22:45:28Z</time>
      </trkpt>
      <trkpt lat="27.85373" lon="-10.98944">
        <ele>244</ele>
        <time>2012-05-10T22:45:33Z</time>
      </trkpt>
      <trkpt lat="27.85373" lon="-10.98944">
        <ele>244.2</ele>
        <time>2012-05-10T22:45:38Z</time>
      </trkpt>
      <trkpt lat="27.85377" lon="-10.98943">
        <ele>238</ele>
        <time>2012-05-10T22:45:43Z</time>
      </trkpt>
      <trkpt lat="27.85378" lon="-10.98943">
        <ele>239</ele>
        <time>2012-05-10T22:45:48Z</time>
      </trkpt>
      <trkpt lat="27.85376" lon="-10.98944">
        <ele>236</ele>
        <time>2012-05-10T22:45:53Z</time>
      </trkpt>
      <trkpt lat="27.85376" lon="-10.98944">
        <ele>235.5</ele>
        <time>2012-05-10T22:45:58Z</time>
      </trkpt>
      <trkpt lat="27.85375" lon="-10.98945">
        <ele>234.5</ele>
        <time>2012-05-10T22:46:03Z</time>
      </trkpt>
      <trkpt lat="27.85376" lon="-10.98944">
        <ele>234.5</ele>
        <time>2012-05-10T22:46:08Z</time>
      </trkpt>
      <trkpt lat="27.85376" lon="-10.98944">
        <ele>235.1</ele>
        <time>2012-05-10T22:46:13Z</time>
      </trkpt>
      <trkpt lat="27.85376" lon="-10.98944">
        <ele>235.4</ele>
        <time>2012-05-10T22:46:18Z</time>
      </trkpt>
      <trkpt lat="27.85377" lon="-10.98944">
        <ele>236.2</ele>
        <time>2012-05-10T22:46:23Z</time>
      </trkpt>
      <trkpt lat="27.85377" lon="-10.98944">
        <ele>237</ele>
        <time>2012-05-10T22:46:28Z</time>
      </trkpt>
      <trkpt lat="27.85376" lon="-10.98944">
        <ele>236.3</ele>
        <time>2012-05-10T22:46:33Z</time>
      </trkpt>
      <trkpt lat="27.85376" lon="-10.98944">
        <ele>237.2</ele>
        <time>2012-05-10T22:46:38Z</time>
      </trkpt>
      <trkpt lat="27.85377" lon="-10.98943">
        <ele>237.7</ele>
        <time>2012-05-10T22:46:43Z</time>
      </trkpt>
      <trkpt lat="27.85377" lon="-10.98943">
        <ele>238.6</ele>
        <time>2012-05-10T22:46:48Z</time>
      </trkpt>
      <trkpt lat="27.85377" lon="-10.98943">
        <ele>239.2</ele>
        <time>2012-05-10T22:46:53Z</time>
      </trkpt>
      <trkpt lat="27.85378" lon="-10.98942">
        <ele>239</ele>
        <time>2012-05-10T22:46:58Z</time>
      </trkpt>
      <trkpt lat="27.85378" lon="-10.98942">
        <ele>238</ele>
        <time>2012-05-10T22:47:03Z</time>
      </trkpt>
      <trkpt lat="27.85378" lon="-10.98942">
        <ele>237.3</ele>
        <time>2012-05-10T22:47:08Z</time>
      </trkpt>
      <trkpt lat="27.85379" lon="-10.98941">
        <ele>236.3</ele>
        <time>2012-05-10T22:47:13Z</time>
      </trkpt>
      <trkpt lat="27.85378" lon="-10.98941">
        <ele>235.6</ele>
        <time>2012-05-10T22:47:18Z</time>
      </trkpt>
      <trkpt lat="27.85377" lon="-10.98943">
        <ele>237</ele>
        <time>2012-05-10T22:47:23Z</time>
      </trkpt>
      <trkpt lat="27.8537" lon="-10.98934">
        <ele>238.4</ele>
        <time>2012-05-10T22:47:28Z</time>
      </trkpt>
      <trkpt lat="27.85382" lon="-10.98918">
        <ele>237.3</ele>
        <time>2012-05-10T22:47:33Z</time>
      </trkpt>
      <trkpt lat="27.85392" lon="-10.989">
        <ele>235.7</ele>
        <time>2012-05-10T22:47:38Z</time>
      </trkpt>
      <trkpt lat="27.85395" lon="-10.98872">
        <ele>235.4</ele>
        <time>2012-05-10T22:47:43Z</time>
      </trkpt>
      <trkpt lat="27.8539" lon="-10.98849">
        <ele>236</ele>
        <time>2012-05-10T22:47:48Z</time>
      </trkpt>
      <trkpt lat="27.8538" lon="-10.9883">
        <ele>236</ele>
        <time>2012-05-10T22:47:53Z</time>
      </trkpt>
    </trkseg>
  </trk>
</gpx>